<?xml version="1.0" encoding="UTF-8" standalone="no" ?>
<gpx xmlns="http://www.topografix.com/GPX/1/1" xmlns:xsi="http://www.w3.org/2001/XMLSchema-instance" xsi:schemaLocation="http://www.topografix.com/GPX/1/1 http://www.topografix.com/GPX/1/1/gpx.xsd" version="1.1" creator="VisuGPX - https://www.visugpx.com">
  <metadata>
    <name>Tour du Pilat - version courte Bourg Argental</name>
    <desc><![CDATA[Au départ de Bourg-Argental
6 km D29 Burdignes
15 km D22 St Sauveur en Rue
20 km D503 Col du Tracol
25 km D74/D28 St Régis du Coin
32 km D1082 Col de la république
38 km D37 Pont Souvignet
41 km D37 Tarentaise
44 km D8 Le Bessat
45 km D29 Croix de Chaubouret
56 km D1082 Bourg Argental
]]></desc>
  </metadata>
  <trk>
    <name><![CDATA[Tour du Pilat - version courte Bourg Argental_1]]></name>
    <trkseg>
      <trkpt lat="45.29634" lon="4.56201">
        <ele>542</ele>
        <time>2016-07-03T10:39:15Z</time>
      </trkpt>
      <trkpt lat="45.29622" lon="4.56213">
        <ele>542</ele>
        <time>2016-07-03T10:41:15Z</time>
      </trkpt>
      <trkpt lat="45.2959" lon="4.56239">
        <ele>539</ele>
        <time>2016-07-03T10:43:15Z</time>
      </trkpt>
      <trkpt lat="45.29582" lon="4.56246">
        <ele>537</ele>
        <time>2016-07-03T10:45:15Z</time>
      </trkpt>
      <trkpt lat="45.29576" lon="4.56253">
        <ele>537</ele>
        <time>2016-07-03T10:47:15Z</time>
      </trkpt>
      <trkpt lat="45.29575" lon="4.56254">
        <ele>537</ele>
        <time>2016-07-03T10:49:15Z</time>
      </trkpt>
      <trkpt lat="45.29572" lon="4.5626">
        <ele>537</ele>
        <time>2016-07-03T10:51:15Z</time>
      </trkpt>
      <trkpt lat="45.29569" lon="4.56272">
        <ele>536</ele>
        <time>2016-07-03T10:53:15Z</time>
      </trkpt>
      <trkpt lat="45.29563" lon="4.56289">
        <ele>536</ele>
        <time>2016-07-03T10:55:15Z</time>
      </trkpt>
      <trkpt lat="45.29558" lon="4.56307">
        <ele>536</ele>
        <time>2016-07-03T10:57:15Z</time>
      </trkpt>
      <trkpt lat="45.29556" lon="4.56324">
        <ele>536</ele>
        <time>2016-07-03T10:59:15Z</time>
      </trkpt>
      <trkpt lat="45.29556" lon="4.56338">
        <ele>534</ele>
        <time>2016-07-03T11:01:15Z</time>
      </trkpt>
      <trkpt lat="45.29557" lon="4.56354">
        <ele>534</ele>
        <time>2016-07-03T11:03:15Z</time>
      </trkpt>
      <trkpt lat="45.29559" lon="4.5637">
        <ele>533</ele>
        <time>2016-07-03T11:05:15Z</time>
      </trkpt>
      <trkpt lat="45.29564" lon="4.56387">
        <ele>533</ele>
        <time>2016-07-03T11:07:15Z</time>
      </trkpt>
      <trkpt lat="45.2957" lon="4.56401">
        <ele>532</ele>
        <time>2016-07-03T11:09:15Z</time>
      </trkpt>
      <trkpt lat="45.29592" lon="4.5646">
        <ele>532</ele>
        <time>2016-07-03T11:11:15Z</time>
      </trkpt>
      <trkpt lat="45.29603" lon="4.56493">
        <ele>530</ele>
        <time>2016-07-03T11:13:15Z</time>
      </trkpt>
      <trkpt lat="45.29604" lon="4.56497">
        <ele>530</ele>
        <time>2016-07-03T11:15:15Z</time>
      </trkpt>
      <trkpt lat="45.29606" lon="4.56512">
        <ele>529</ele>
        <time>2016-07-03T11:17:15Z</time>
      </trkpt>
      <trkpt lat="45.29608" lon="4.56528">
        <ele>529</ele>
        <time>2016-07-03T11:19:15Z</time>
      </trkpt>
      <trkpt lat="45.29608" lon="4.56541">
        <ele>528</ele>
        <time>2016-07-03T11:21:15Z</time>
      </trkpt>
      <trkpt lat="45.29608" lon="4.56556">
        <ele>528</ele>
        <time>2016-07-03T11:23:15Z</time>
      </trkpt>
      <trkpt lat="45.29603" lon="4.56576">
        <ele>528</ele>
        <time>2016-07-03T11:25:15Z</time>
      </trkpt>
      <trkpt lat="45.29602" lon="4.56579">
        <ele>527</ele>
        <time>2016-07-03T11:27:15Z</time>
      </trkpt>
      <trkpt lat="45.29598" lon="4.56592">
        <ele>526</ele>
        <time>2016-07-03T11:29:15Z</time>
      </trkpt>
      <trkpt lat="45.29592" lon="4.56605">
        <ele>526</ele>
        <time>2016-07-03T11:31:15Z</time>
      </trkpt>
      <trkpt lat="45.29586" lon="4.56613">
        <ele>526</ele>
        <time>2016-07-03T11:33:15Z</time>
      </trkpt>
      <trkpt lat="45.29581" lon="4.56617">
        <ele>526</ele>
        <time>2016-07-03T11:35:15Z</time>
      </trkpt>
      <trkpt lat="45.29573" lon="4.56624">
        <ele>526</ele>
        <time>2016-07-03T11:37:15Z</time>
      </trkpt>
      <trkpt lat="45.29569" lon="4.56626">
        <ele>526</ele>
        <time>2016-07-03T11:39:15Z</time>
      </trkpt>
      <trkpt lat="45.29563" lon="4.56628">
        <ele>526</ele>
        <time>2016-07-03T11:41:15Z</time>
      </trkpt>
      <trkpt lat="45.29555" lon="4.56634">
        <ele>526</ele>
        <time>2016-07-03T11:43:15Z</time>
      </trkpt>
      <trkpt lat="45.29552" lon="4.56635">
        <ele>526</ele>
        <time>2016-07-03T11:45:15Z</time>
      </trkpt>
      <trkpt lat="45.29542" lon="4.56642">
        <ele>527</ele>
        <time>2016-07-03T11:47:15Z</time>
      </trkpt>
      <trkpt lat="45.29511" lon="4.56668">
        <ele>527</ele>
        <time>2016-07-03T11:49:15Z</time>
      </trkpt>
      <trkpt lat="45.29494" lon="4.56684">
        <ele>532</ele>
        <time>2016-07-03T11:51:15Z</time>
      </trkpt>
      <trkpt lat="45.29482" lon="4.56699">
        <ele>534</ele>
        <time>2016-07-03T11:53:15Z</time>
      </trkpt>
      <trkpt lat="45.29475" lon="4.56713">
        <ele>534</ele>
        <time>2016-07-03T11:55:15Z</time>
      </trkpt>
      <trkpt lat="45.29472" lon="4.5672">
        <ele>534</ele>
        <time>2016-07-03T11:57:15Z</time>
      </trkpt>
      <trkpt lat="45.29471" lon="4.56724">
        <ele>534</ele>
        <time>2016-07-03T11:59:15Z</time>
      </trkpt>
      <trkpt lat="45.29469" lon="4.56737">
        <ele>534</ele>
        <time>2016-07-03T12:01:15Z</time>
      </trkpt>
      <trkpt lat="45.29468" lon="4.56749">
        <ele>534</ele>
        <time>2016-07-03T12:03:15Z</time>
      </trkpt>
      <trkpt lat="45.29468" lon="4.56757">
        <ele>533</ele>
        <time>2016-07-03T12:05:15Z</time>
      </trkpt>
      <trkpt lat="45.29468" lon="4.56783">
        <ele>533</ele>
        <time>2016-07-03T12:07:15Z</time>
      </trkpt>
      <trkpt lat="45.29467" lon="4.56797">
        <ele>533</ele>
        <time>2016-07-03T12:09:15Z</time>
      </trkpt>
      <trkpt lat="45.29467" lon="4.56811">
        <ele>533</ele>
        <time>2016-07-03T12:11:15Z</time>
      </trkpt>
      <trkpt lat="45.29467" lon="4.56833">
        <ele>533</ele>
        <time>2016-07-03T12:13:15Z</time>
      </trkpt>
      <trkpt lat="45.29464" lon="4.56849">
        <ele>533</ele>
        <time>2016-07-03T12:15:15Z</time>
      </trkpt>
      <trkpt lat="45.2946" lon="4.56858">
        <ele>534</ele>
        <time>2016-07-03T12:17:15Z</time>
      </trkpt>
      <trkpt lat="45.2945" lon="4.56874">
        <ele>535</ele>
        <time>2016-07-03T12:19:15Z</time>
      </trkpt>
      <trkpt lat="45.29442" lon="4.56887">
        <ele>535</ele>
        <time>2016-07-03T12:21:15Z</time>
      </trkpt>
      <trkpt lat="45.29436" lon="4.56901">
        <ele>536</ele>
        <time>2016-07-03T12:23:15Z</time>
      </trkpt>
      <trkpt lat="45.29423" lon="4.5695">
        <ele>539</ele>
        <time>2016-07-03T12:25:15Z</time>
      </trkpt>
      <trkpt lat="45.29423" lon="4.56977">
        <ele>540</ele>
        <time>2016-07-03T12:27:15Z</time>
      </trkpt>
      <trkpt lat="45.29429" lon="4.56999">
        <ele>541</ele>
        <time>2016-07-03T12:29:15Z</time>
      </trkpt>
      <trkpt lat="45.29435" lon="4.57015">
        <ele>543</ele>
        <time>2016-07-03T12:31:15Z</time>
      </trkpt>
      <trkpt lat="45.29446" lon="4.57034">
        <ele>543</ele>
        <time>2016-07-03T12:33:15Z</time>
      </trkpt>
      <trkpt lat="45.29461" lon="4.57056">
        <ele>542</ele>
        <time>2016-07-03T12:35:15Z</time>
      </trkpt>
      <trkpt lat="45.29476" lon="4.57076">
        <ele>541</ele>
        <time>2016-07-03T12:37:15Z</time>
      </trkpt>
      <trkpt lat="45.29488" lon="4.57092">
        <ele>544</ele>
        <time>2016-07-03T12:39:15Z</time>
      </trkpt>
      <trkpt lat="45.29501" lon="4.57106">
        <ele>541</ele>
        <time>2016-07-03T12:41:15Z</time>
      </trkpt>
      <trkpt lat="45.29518" lon="4.57124">
        <ele>543</ele>
        <time>2016-07-03T12:43:15Z</time>
      </trkpt>
      <trkpt lat="45.29534" lon="4.57143">
        <ele>544</ele>
        <time>2016-07-03T12:45:15Z</time>
      </trkpt>
      <trkpt lat="45.29546" lon="4.57164">
        <ele>544</ele>
        <time>2016-07-03T12:47:15Z</time>
      </trkpt>
      <trkpt lat="45.29565" lon="4.57199">
        <ele>554</ele>
        <time>2016-07-03T12:49:15Z</time>
      </trkpt>
      <trkpt lat="45.29577" lon="4.57222">
        <ele>556</ele>
        <time>2016-07-03T12:51:15Z</time>
      </trkpt>
      <trkpt lat="45.29588" lon="4.5724">
        <ele>550</ele>
        <time>2016-07-03T12:53:15Z</time>
      </trkpt>
      <trkpt lat="45.29598" lon="4.57256">
        <ele>553</ele>
        <time>2016-07-03T12:55:15Z</time>
      </trkpt>
      <trkpt lat="45.296" lon="4.57267">
        <ele>553</ele>
        <time>2016-07-03T12:57:15Z</time>
      </trkpt>
      <trkpt lat="45.29598" lon="4.57272">
        <ele>553</ele>
        <time>2016-07-03T12:59:15Z</time>
      </trkpt>
      <trkpt lat="45.29593" lon="4.57277">
        <ele>554</ele>
        <time>2016-07-03T13:01:15Z</time>
      </trkpt>
      <trkpt lat="45.2959" lon="4.57278">
        <ele>554</ele>
        <time>2016-07-03T13:03:15Z</time>
      </trkpt>
      <trkpt lat="45.29586" lon="4.57276">
        <ele>554</ele>
        <time>2016-07-03T13:05:15Z</time>
      </trkpt>
      <trkpt lat="45.29582" lon="4.57272">
        <ele>565</ele>
        <time>2016-07-03T13:07:15Z</time>
      </trkpt>
      <trkpt lat="45.29573" lon="4.57258">
        <ele>562</ele>
        <time>2016-07-03T13:09:15Z</time>
      </trkpt>
      <trkpt lat="45.2956" lon="4.57243">
        <ele>558</ele>
        <time>2016-07-03T13:11:15Z</time>
      </trkpt>
      <trkpt lat="45.29541" lon="4.57225">
        <ele>559</ele>
        <time>2016-07-03T13:13:15Z</time>
      </trkpt>
      <trkpt lat="45.29508" lon="4.57201">
        <ele>559</ele>
        <time>2016-07-03T13:15:15Z</time>
      </trkpt>
      <trkpt lat="45.2948" lon="4.57179">
        <ele>566</ele>
        <time>2016-07-03T13:17:15Z</time>
      </trkpt>
      <trkpt lat="45.29455" lon="4.57163">
        <ele>557</ele>
        <time>2016-07-03T13:19:15Z</time>
      </trkpt>
      <trkpt lat="45.2944" lon="4.57157">
        <ele>559</ele>
        <time>2016-07-03T13:21:15Z</time>
      </trkpt>
      <trkpt lat="45.29425" lon="4.57157">
        <ele>563</ele>
        <time>2016-07-03T13:23:15Z</time>
      </trkpt>
      <trkpt lat="45.2941" lon="4.5716">
        <ele>569</ele>
        <time>2016-07-03T13:25:15Z</time>
      </trkpt>
      <trkpt lat="45.29389" lon="4.57165">
        <ele>570</ele>
        <time>2016-07-03T13:27:15Z</time>
      </trkpt>
      <trkpt lat="45.29373" lon="4.57168">
        <ele>581</ele>
        <time>2016-07-03T13:29:15Z</time>
      </trkpt>
      <trkpt lat="45.2936" lon="4.57169">
        <ele>582</ele>
        <time>2016-07-03T13:31:15Z</time>
      </trkpt>
      <trkpt lat="45.29347" lon="4.57169">
        <ele>583</ele>
        <time>2016-07-03T13:33:15Z</time>
      </trkpt>
      <trkpt lat="45.29336" lon="4.57169">
        <ele>583</ele>
        <time>2016-07-03T13:35:15Z</time>
      </trkpt>
      <trkpt lat="45.29321" lon="4.57167">
        <ele>586</ele>
        <time>2016-07-03T13:37:15Z</time>
      </trkpt>
      <trkpt lat="45.29308" lon="4.57165">
        <ele>581</ele>
        <time>2016-07-03T13:39:15Z</time>
      </trkpt>
      <trkpt lat="45.29294" lon="4.57161">
        <ele>581</ele>
        <time>2016-07-03T13:41:15Z</time>
      </trkpt>
      <trkpt lat="45.29279" lon="4.57155">
        <ele>582</ele>
        <time>2016-07-03T13:43:15Z</time>
      </trkpt>
      <trkpt lat="45.29266" lon="4.57151">
        <ele>583</ele>
        <time>2016-07-03T13:45:15Z</time>
      </trkpt>
      <trkpt lat="45.29252" lon="4.57149">
        <ele>584</ele>
        <time>2016-07-03T13:47:15Z</time>
      </trkpt>
      <trkpt lat="45.29238" lon="4.5715">
        <ele>586</ele>
        <time>2016-07-03T13:49:15Z</time>
      </trkpt>
      <trkpt lat="45.29225" lon="4.57154">
        <ele>586</ele>
        <time>2016-07-03T13:51:15Z</time>
      </trkpt>
      <trkpt lat="45.29207" lon="4.57162">
        <ele>587</ele>
        <time>2016-07-03T13:53:15Z</time>
      </trkpt>
      <trkpt lat="45.2919" lon="4.57172">
        <ele>593</ele>
        <time>2016-07-03T13:55:15Z</time>
      </trkpt>
      <trkpt lat="45.29176" lon="4.57182">
        <ele>593</ele>
        <time>2016-07-03T13:57:15Z</time>
      </trkpt>
      <trkpt lat="45.29163" lon="4.57195">
        <ele>596</ele>
        <time>2016-07-03T13:59:15Z</time>
      </trkpt>
      <trkpt lat="45.2915" lon="4.57208">
        <ele>597</ele>
        <time>2016-07-03T14:01:15Z</time>
      </trkpt>
      <trkpt lat="45.2914" lon="4.57222">
        <ele>598</ele>
        <time>2016-07-03T14:03:15Z</time>
      </trkpt>
      <trkpt lat="45.29131" lon="4.57237">
        <ele>599</ele>
        <time>2016-07-03T14:05:15Z</time>
      </trkpt>
      <trkpt lat="45.29129" lon="4.57242">
        <ele>599</ele>
        <time>2016-07-03T14:07:15Z</time>
      </trkpt>
      <trkpt lat="45.29128" lon="4.5725">
        <ele>599</ele>
        <time>2016-07-03T14:09:15Z</time>
      </trkpt>
      <trkpt lat="45.29125" lon="4.57264">
        <ele>602</ele>
        <time>2016-07-03T14:11:15Z</time>
      </trkpt>
      <trkpt lat="45.29122" lon="4.57279">
        <ele>602</ele>
        <time>2016-07-03T14:13:15Z</time>
      </trkpt>
      <trkpt lat="45.29119" lon="4.57294">
        <ele>602</ele>
        <time>2016-07-03T14:15:15Z</time>
      </trkpt>
      <trkpt lat="45.29114" lon="4.57306">
        <ele>603</ele>
        <time>2016-07-03T14:17:15Z</time>
      </trkpt>
      <trkpt lat="45.2911" lon="4.57312">
        <ele>603</ele>
        <time>2016-07-03T14:19:15Z</time>
      </trkpt>
      <trkpt lat="45.29107" lon="4.57314">
        <ele>603</ele>
        <time>2016-07-03T14:21:15Z</time>
      </trkpt>
      <trkpt lat="45.29096" lon="4.57316">
        <ele>604</ele>
        <time>2016-07-03T14:23:15Z</time>
      </trkpt>
      <trkpt lat="45.29085" lon="4.57317">
        <ele>604</ele>
        <time>2016-07-03T14:25:15Z</time>
      </trkpt>
      <trkpt lat="45.2908" lon="4.57321">
        <ele>610</ele>
        <time>2016-07-03T14:27:15Z</time>
      </trkpt>
      <trkpt lat="45.29075" lon="4.57326">
        <ele>610</ele>
        <time>2016-07-03T14:29:15Z</time>
      </trkpt>
      <trkpt lat="45.2907" lon="4.57333">
        <ele>611</ele>
        <time>2016-07-03T14:31:15Z</time>
      </trkpt>
      <trkpt lat="45.29068" lon="4.57338">
        <ele>612</ele>
        <time>2016-07-03T14:33:15Z</time>
      </trkpt>
      <trkpt lat="45.29067" lon="4.57341">
        <ele>613</ele>
        <time>2016-07-03T14:35:15Z</time>
      </trkpt>
      <trkpt lat="45.29066" lon="4.57346">
        <ele>614</ele>
        <time>2016-07-03T14:37:15Z</time>
      </trkpt>
      <trkpt lat="45.29065" lon="4.57351">
        <ele>614</ele>
        <time>2016-07-03T14:39:15Z</time>
      </trkpt>
      <trkpt lat="45.29065" lon="4.57357">
        <ele>615</ele>
        <time>2016-07-03T14:41:15Z</time>
      </trkpt>
      <trkpt lat="45.29064" lon="4.57363">
        <ele>615</ele>
        <time>2016-07-03T14:43:15Z</time>
      </trkpt>
      <trkpt lat="45.29065" lon="4.57379">
        <ele>616</ele>
        <time>2016-07-03T14:45:15Z</time>
      </trkpt>
      <trkpt lat="45.29065" lon="4.57389">
        <ele>615</ele>
        <time>2016-07-03T14:47:15Z</time>
      </trkpt>
      <trkpt lat="45.29064" lon="4.57396">
        <ele>615</ele>
        <time>2016-07-03T14:49:15Z</time>
      </trkpt>
      <trkpt lat="45.29063" lon="4.57403">
        <ele>614</ele>
        <time>2016-07-03T14:51:15Z</time>
      </trkpt>
      <trkpt lat="45.2906" lon="4.57412">
        <ele>614</ele>
        <time>2016-07-03T14:53:15Z</time>
      </trkpt>
      <trkpt lat="45.29057" lon="4.57423">
        <ele>614</ele>
        <time>2016-07-03T14:55:15Z</time>
      </trkpt>
      <trkpt lat="45.29042" lon="4.57462">
        <ele>618</ele>
        <time>2016-07-03T14:57:15Z</time>
      </trkpt>
      <trkpt lat="45.29032" lon="4.5749">
        <ele>620</ele>
        <time>2016-07-03T14:59:15Z</time>
      </trkpt>
      <trkpt lat="45.29007" lon="4.57553">
        <ele>617</ele>
        <time>2016-07-03T15:01:15Z</time>
      </trkpt>
      <trkpt lat="45.29" lon="4.57575">
        <ele>630</ele>
        <time>2016-07-03T15:03:15Z</time>
      </trkpt>
      <trkpt lat="45.2899" lon="4.57601">
        <ele>631</ele>
        <time>2016-07-03T15:05:15Z</time>
      </trkpt>
      <trkpt lat="45.28974" lon="4.57644">
        <ele>633</ele>
        <time>2016-07-03T15:07:15Z</time>
      </trkpt>
      <trkpt lat="45.28968" lon="4.57658">
        <ele>633</ele>
        <time>2016-07-03T15:09:15Z</time>
      </trkpt>
      <trkpt lat="45.28956" lon="4.57684">
        <ele>628</ele>
        <time>2016-07-03T15:11:15Z</time>
      </trkpt>
      <trkpt lat="45.28942" lon="4.57708">
        <ele>629</ele>
        <time>2016-07-03T15:13:15Z</time>
      </trkpt>
      <trkpt lat="45.28929" lon="4.57728">
        <ele>629</ele>
        <time>2016-07-03T15:15:15Z</time>
      </trkpt>
      <trkpt lat="45.28917" lon="4.57743">
        <ele>632</ele>
        <time>2016-07-03T15:17:15Z</time>
      </trkpt>
      <trkpt lat="45.28884" lon="4.57779">
        <ele>634</ele>
        <time>2016-07-03T15:19:15Z</time>
      </trkpt>
      <trkpt lat="45.28871" lon="4.57792">
        <ele>634</ele>
        <time>2016-07-03T15:21:15Z</time>
      </trkpt>
      <trkpt lat="45.28864" lon="4.57799">
        <ele>634</ele>
        <time>2016-07-03T15:23:15Z</time>
      </trkpt>
      <trkpt lat="45.28859" lon="4.57803">
        <ele>634</ele>
        <time>2016-07-03T15:25:15Z</time>
      </trkpt>
      <trkpt lat="45.28851" lon="4.57809">
        <ele>635</ele>
        <time>2016-07-03T15:27:15Z</time>
      </trkpt>
      <trkpt lat="45.28843" lon="4.57813">
        <ele>635</ele>
        <time>2016-07-03T15:29:15Z</time>
      </trkpt>
      <trkpt lat="45.28833" lon="4.57816">
        <ele>641</ele>
        <time>2016-07-03T15:31:15Z</time>
      </trkpt>
      <trkpt lat="45.28821" lon="4.57818">
        <ele>642</ele>
        <time>2016-07-03T15:33:15Z</time>
      </trkpt>
      <trkpt lat="45.28806" lon="4.57818">
        <ele>644</ele>
        <time>2016-07-03T15:35:15Z</time>
      </trkpt>
      <trkpt lat="45.28783" lon="4.57816">
        <ele>645</ele>
        <time>2016-07-03T15:37:15Z</time>
      </trkpt>
      <trkpt lat="45.28777" lon="4.57815">
        <ele>645</ele>
        <time>2016-07-03T15:39:15Z</time>
      </trkpt>
      <trkpt lat="45.2877" lon="4.57815">
        <ele>645</ele>
        <time>2016-07-03T15:41:15Z</time>
      </trkpt>
      <trkpt lat="45.28765" lon="4.57814">
        <ele>645</ele>
        <time>2016-07-03T15:43:15Z</time>
      </trkpt>
      <trkpt lat="45.28761" lon="4.57813">
        <ele>645</ele>
        <time>2016-07-03T15:45:15Z</time>
      </trkpt>
      <trkpt lat="45.28743" lon="4.5781">
        <ele>646</ele>
        <time>2016-07-03T15:47:15Z</time>
      </trkpt>
      <trkpt lat="45.28723" lon="4.57806">
        <ele>646</ele>
        <time>2016-07-03T15:49:15Z</time>
      </trkpt>
      <trkpt lat="45.28717" lon="4.57803">
        <ele>647</ele>
        <time>2016-07-03T15:51:15Z</time>
      </trkpt>
      <trkpt lat="45.28709" lon="4.578">
        <ele>647</ele>
        <time>2016-07-03T15:53:15Z</time>
      </trkpt>
      <trkpt lat="45.28702" lon="4.57796">
        <ele>647</ele>
        <time>2016-07-03T15:55:15Z</time>
      </trkpt>
      <trkpt lat="45.28695" lon="4.57789">
        <ele>648</ele>
        <time>2016-07-03T15:57:15Z</time>
      </trkpt>
      <trkpt lat="45.28689" lon="4.57784">
        <ele>649</ele>
        <time>2016-07-03T15:59:15Z</time>
      </trkpt>
      <trkpt lat="45.28688" lon="4.57783">
        <ele>649</ele>
        <time>2016-07-03T16:01:15Z</time>
      </trkpt>
      <trkpt lat="45.28675" lon="4.57769">
        <ele>651</ele>
        <time>2016-07-03T16:03:15Z</time>
      </trkpt>
      <trkpt lat="45.28659" lon="4.57751">
        <ele>653</ele>
        <time>2016-07-03T16:05:15Z</time>
      </trkpt>
      <trkpt lat="45.28653" lon="4.57743">
        <ele>659</ele>
        <time>2016-07-03T16:07:15Z</time>
      </trkpt>
      <trkpt lat="45.28631" lon="4.57716">
        <ele>662</ele>
        <time>2016-07-03T16:09:15Z</time>
      </trkpt>
      <trkpt lat="45.28613" lon="4.57697">
        <ele>663</ele>
        <time>2016-07-03T16:11:15Z</time>
      </trkpt>
      <trkpt lat="45.2861" lon="4.57694">
        <ele>664</ele>
        <time>2016-07-03T16:13:15Z</time>
      </trkpt>
      <trkpt lat="45.28593" lon="4.57673">
        <ele>666</ele>
        <time>2016-07-03T16:15:15Z</time>
      </trkpt>
      <trkpt lat="45.28577" lon="4.57651">
        <ele>670</ele>
        <time>2016-07-03T16:17:15Z</time>
      </trkpt>
      <trkpt lat="45.28564" lon="4.57631">
        <ele>672</ele>
        <time>2016-07-03T16:19:15Z</time>
      </trkpt>
      <trkpt lat="45.28549" lon="4.5761">
        <ele>674</ele>
        <time>2016-07-03T16:21:15Z</time>
      </trkpt>
      <trkpt lat="45.28532" lon="4.57591">
        <ele>674</ele>
        <time>2016-07-03T16:23:15Z</time>
      </trkpt>
      <trkpt lat="45.28517" lon="4.57579">
        <ele>684</ele>
        <time>2016-07-03T16:25:15Z</time>
      </trkpt>
      <trkpt lat="45.285" lon="4.5757">
        <ele>681</ele>
        <time>2016-07-03T16:27:15Z</time>
      </trkpt>
      <trkpt lat="45.2848" lon="4.57562">
        <ele>683</ele>
        <time>2016-07-03T16:29:15Z</time>
      </trkpt>
      <trkpt lat="45.28465" lon="4.57557">
        <ele>684</ele>
        <time>2016-07-03T16:31:15Z</time>
      </trkpt>
      <trkpt lat="45.28455" lon="4.57553">
        <ele>684</ele>
        <time>2016-07-03T16:33:15Z</time>
      </trkpt>
      <trkpt lat="45.28451" lon="4.57551">
        <ele>684</ele>
        <time>2016-07-03T16:35:15Z</time>
      </trkpt>
      <trkpt lat="45.28448" lon="4.57548">
        <ele>684</ele>
        <time>2016-07-03T16:37:15Z</time>
      </trkpt>
      <trkpt lat="45.28446" lon="4.57545">
        <ele>685</ele>
        <time>2016-07-03T16:39:15Z</time>
      </trkpt>
      <trkpt lat="45.28446" lon="4.57542">
        <ele>685</ele>
        <time>2016-07-03T16:41:15Z</time>
      </trkpt>
      <trkpt lat="45.28445" lon="4.57536">
        <ele>686</ele>
        <time>2016-07-03T16:43:15Z</time>
      </trkpt>
      <trkpt lat="45.28446" lon="4.57531">
        <ele>687</ele>
        <time>2016-07-03T16:45:15Z</time>
      </trkpt>
      <trkpt lat="45.28448" lon="4.57528">
        <ele>688</ele>
        <time>2016-07-03T16:47:15Z</time>
      </trkpt>
      <trkpt lat="45.28452" lon="4.57525">
        <ele>688</ele>
        <time>2016-07-03T16:49:15Z</time>
      </trkpt>
      <trkpt lat="45.28456" lon="4.57524">
        <ele>688</ele>
        <time>2016-07-03T16:51:15Z</time>
      </trkpt>
      <trkpt lat="45.28471" lon="4.57528">
        <ele>688</ele>
        <time>2016-07-03T16:53:15Z</time>
      </trkpt>
      <trkpt lat="45.28482" lon="4.57531">
        <ele>688</ele>
        <time>2016-07-03T16:55:15Z</time>
      </trkpt>
      <trkpt lat="45.28495" lon="4.57534">
        <ele>688</ele>
        <time>2016-07-03T16:57:15Z</time>
      </trkpt>
      <trkpt lat="45.28513" lon="4.57538">
        <ele>690</ele>
        <time>2016-07-03T16:59:15Z</time>
      </trkpt>
      <trkpt lat="45.28533" lon="4.57542">
        <ele>690</ele>
        <time>2016-07-03T17:01:15Z</time>
      </trkpt>
      <trkpt lat="45.28538" lon="4.57544">
        <ele>690</ele>
        <time>2016-07-03T17:03:15Z</time>
      </trkpt>
      <trkpt lat="45.2855" lon="4.57549">
        <ele>690</ele>
        <time>2016-07-03T17:05:15Z</time>
      </trkpt>
      <trkpt lat="45.28562" lon="4.57554">
        <ele>690</ele>
        <time>2016-07-03T17:07:15Z</time>
      </trkpt>
      <trkpt lat="45.28578" lon="4.57563">
        <ele>689</ele>
        <time>2016-07-03T17:09:15Z</time>
      </trkpt>
      <trkpt lat="45.28612" lon="4.57576">
        <ele>694</ele>
        <time>2016-07-03T17:11:15Z</time>
      </trkpt>
      <trkpt lat="45.2863" lon="4.57581">
        <ele>696</ele>
        <time>2016-07-03T17:13:15Z</time>
      </trkpt>
      <trkpt lat="45.28658" lon="4.57589">
        <ele>691</ele>
        <time>2016-07-03T17:15:15Z</time>
      </trkpt>
      <trkpt lat="45.28691" lon="4.57599">
        <ele>691</ele>
        <time>2016-07-03T17:17:15Z</time>
      </trkpt>
      <trkpt lat="45.28701" lon="4.57602">
        <ele>691</ele>
        <time>2016-07-03T17:19:15Z</time>
      </trkpt>
      <trkpt lat="45.28711" lon="4.57605">
        <ele>691</ele>
        <time>2016-07-03T17:21:15Z</time>
      </trkpt>
      <trkpt lat="45.28715" lon="4.57606">
        <ele>691</ele>
        <time>2016-07-03T17:23:15Z</time>
      </trkpt>
      <trkpt lat="45.28722" lon="4.57608">
        <ele>691</ele>
        <time>2016-07-03T17:25:15Z</time>
      </trkpt>
      <trkpt lat="45.2873" lon="4.57609">
        <ele>691</ele>
        <time>2016-07-03T17:27:15Z</time>
      </trkpt>
      <trkpt lat="45.28737" lon="4.5761">
        <ele>691</ele>
        <time>2016-07-03T17:29:15Z</time>
      </trkpt>
      <trkpt lat="45.28743" lon="4.5761">
        <ele>691</ele>
        <time>2016-07-03T17:31:15Z</time>
      </trkpt>
      <trkpt lat="45.2875" lon="4.57609">
        <ele>690</ele>
        <time>2016-07-03T17:33:15Z</time>
      </trkpt>
      <trkpt lat="45.28754" lon="4.57606">
        <ele>691</ele>
        <time>2016-07-03T17:35:15Z</time>
      </trkpt>
      <trkpt lat="45.28757" lon="4.57604">
        <ele>691</ele>
        <time>2016-07-03T17:37:15Z</time>
      </trkpt>
      <trkpt lat="45.28759" lon="4.57603">
        <ele>691</ele>
        <time>2016-07-03T17:39:15Z</time>
      </trkpt>
      <trkpt lat="45.28763" lon="4.57599">
        <ele>691</ele>
        <time>2016-07-03T17:41:15Z</time>
      </trkpt>
      <trkpt lat="45.28767" lon="4.57595">
        <ele>691</ele>
        <time>2016-07-03T17:43:15Z</time>
      </trkpt>
      <trkpt lat="45.28769" lon="4.57591">
        <ele>691</ele>
        <time>2016-07-03T17:45:15Z</time>
      </trkpt>
      <trkpt lat="45.2877" lon="4.57586">
        <ele>691</ele>
        <time>2016-07-03T17:47:15Z</time>
      </trkpt>
      <trkpt lat="45.28771" lon="4.57581">
        <ele>697</ele>
        <time>2016-07-03T17:49:15Z</time>
      </trkpt>
      <trkpt lat="45.28771" lon="4.57576">
        <ele>697</ele>
        <time>2016-07-03T17:51:15Z</time>
      </trkpt>
      <trkpt lat="45.2877" lon="4.57571">
        <ele>697</ele>
        <time>2016-07-03T17:53:15Z</time>
      </trkpt>
      <trkpt lat="45.28768" lon="4.57566">
        <ele>697</ele>
        <time>2016-07-03T17:55:15Z</time>
      </trkpt>
      <trkpt lat="45.28766" lon="4.57563">
        <ele>697</ele>
        <time>2016-07-03T17:57:15Z</time>
      </trkpt>
      <trkpt lat="45.28762" lon="4.57561">
        <ele>698</ele>
        <time>2016-07-03T17:59:15Z</time>
      </trkpt>
      <trkpt lat="45.2876" lon="4.5756">
        <ele>698</ele>
        <time>2016-07-03T18:01:15Z</time>
      </trkpt>
      <trkpt lat="45.28759" lon="4.57559">
        <ele>698</ele>
        <time>2016-07-03T18:03:15Z</time>
      </trkpt>
      <trkpt lat="45.28749" lon="4.57558">
        <ele>702</ele>
        <time>2016-07-03T18:05:15Z</time>
      </trkpt>
      <trkpt lat="45.28739" lon="4.57557">
        <ele>702</ele>
        <time>2016-07-03T18:07:15Z</time>
      </trkpt>
      <trkpt lat="45.28736" lon="4.57555">
        <ele>702</ele>
        <time>2016-07-03T18:09:15Z</time>
      </trkpt>
      <trkpt lat="45.28733" lon="4.57554">
        <ele>702</ele>
        <time>2016-07-03T18:11:15Z</time>
      </trkpt>
      <trkpt lat="45.28725" lon="4.57552">
        <ele>702</ele>
        <time>2016-07-03T18:13:15Z</time>
      </trkpt>
      <trkpt lat="45.28713" lon="4.57546">
        <ele>703</ele>
        <time>2016-07-03T18:15:15Z</time>
      </trkpt>
      <trkpt lat="45.28687" lon="4.57524">
        <ele>705</ele>
        <time>2016-07-03T18:17:15Z</time>
      </trkpt>
      <trkpt lat="45.28658" lon="4.57503">
        <ele>707</ele>
        <time>2016-07-03T18:19:15Z</time>
      </trkpt>
      <trkpt lat="45.28646" lon="4.57492">
        <ele>712</ele>
        <time>2016-07-03T18:21:15Z</time>
      </trkpt>
      <trkpt lat="45.28636" lon="4.57485">
        <ele>712</ele>
        <time>2016-07-03T18:23:15Z</time>
      </trkpt>
      <trkpt lat="45.28618" lon="4.57466">
        <ele>713</ele>
        <time>2016-07-03T18:25:15Z</time>
      </trkpt>
      <trkpt lat="45.28589" lon="4.5743">
        <ele>717</ele>
        <time>2016-07-03T18:27:15Z</time>
      </trkpt>
      <trkpt lat="45.2856" lon="4.57392">
        <ele>724</ele>
        <time>2016-07-03T18:29:15Z</time>
      </trkpt>
      <trkpt lat="45.28544" lon="4.57377">
        <ele>726</ele>
        <time>2016-07-03T18:31:15Z</time>
      </trkpt>
      <trkpt lat="45.28534" lon="4.57369">
        <ele>726</ele>
        <time>2016-07-03T18:33:15Z</time>
      </trkpt>
      <trkpt lat="45.2852" lon="4.5736">
        <ele>728</ele>
        <time>2016-07-03T18:35:15Z</time>
      </trkpt>
      <trkpt lat="45.28502" lon="4.57354">
        <ele>729</ele>
        <time>2016-07-03T18:37:15Z</time>
      </trkpt>
      <trkpt lat="45.28481" lon="4.57348">
        <ele>732</ele>
        <time>2016-07-03T18:39:15Z</time>
      </trkpt>
      <trkpt lat="45.2845" lon="4.57345">
        <ele>734</ele>
        <time>2016-07-03T18:41:15Z</time>
      </trkpt>
      <trkpt lat="45.28412" lon="4.57343">
        <ele>744</ele>
        <time>2016-07-03T18:43:15Z</time>
      </trkpt>
      <trkpt lat="45.2837" lon="4.57349">
        <ele>743</ele>
        <time>2016-07-03T18:45:15Z</time>
      </trkpt>
      <trkpt lat="45.28323" lon="4.5736">
        <ele>750</ele>
        <time>2016-07-03T18:47:15Z</time>
      </trkpt>
      <trkpt lat="45.28316" lon="4.57362">
        <ele>750</ele>
        <time>2016-07-03T18:49:15Z</time>
      </trkpt>
      <trkpt lat="45.28307" lon="4.57364">
        <ele>749</ele>
        <time>2016-07-03T18:51:15Z</time>
      </trkpt>
      <trkpt lat="45.28296" lon="4.57366">
        <ele>750</ele>
        <time>2016-07-03T18:53:15Z</time>
      </trkpt>
      <trkpt lat="45.28288" lon="4.57367">
        <ele>750</ele>
        <time>2016-07-03T18:55:15Z</time>
      </trkpt>
      <trkpt lat="45.28278" lon="4.57367">
        <ele>751</ele>
        <time>2016-07-03T18:57:15Z</time>
      </trkpt>
      <trkpt lat="45.2827" lon="4.57366">
        <ele>751</ele>
        <time>2016-07-03T18:59:15Z</time>
      </trkpt>
      <trkpt lat="45.28262" lon="4.57366">
        <ele>752</ele>
        <time>2016-07-03T19:01:15Z</time>
      </trkpt>
      <trkpt lat="45.28255" lon="4.57364">
        <ele>753</ele>
        <time>2016-07-03T19:03:15Z</time>
      </trkpt>
      <trkpt lat="45.28247" lon="4.57362">
        <ele>760</ele>
        <time>2016-07-03T19:05:15Z</time>
      </trkpt>
      <trkpt lat="45.28239" lon="4.57361">
        <ele>760</ele>
        <time>2016-07-03T19:07:15Z</time>
      </trkpt>
      <trkpt lat="45.28232" lon="4.5736">
        <ele>761</ele>
        <time>2016-07-03T19:09:15Z</time>
      </trkpt>
      <trkpt lat="45.28224" lon="4.57359">
        <ele>761</ele>
        <time>2016-07-03T19:11:15Z</time>
      </trkpt>
      <trkpt lat="45.28216" lon="4.57359">
        <ele>761</ele>
        <time>2016-07-03T19:13:15Z</time>
      </trkpt>
      <trkpt lat="45.28208" lon="4.57359">
        <ele>762</ele>
        <time>2016-07-03T19:15:15Z</time>
      </trkpt>
      <trkpt lat="45.28201" lon="4.57359">
        <ele>763</ele>
        <time>2016-07-03T19:17:15Z</time>
      </trkpt>
      <trkpt lat="45.28194" lon="4.57359">
        <ele>764</ele>
        <time>2016-07-03T19:19:15Z</time>
      </trkpt>
      <trkpt lat="45.28187" lon="4.5736">
        <ele>764</ele>
        <time>2016-07-03T19:21:15Z</time>
      </trkpt>
      <trkpt lat="45.28179" lon="4.57361">
        <ele>765</ele>
        <time>2016-07-03T19:23:15Z</time>
      </trkpt>
      <trkpt lat="45.28173" lon="4.57363">
        <ele>765</ele>
        <time>2016-07-03T19:25:15Z</time>
      </trkpt>
      <trkpt lat="45.28167" lon="4.57366">
        <ele>764</ele>
        <time>2016-07-03T19:27:15Z</time>
      </trkpt>
      <trkpt lat="45.28161" lon="4.5737">
        <ele>768</ele>
        <time>2016-07-03T19:29:15Z</time>
      </trkpt>
      <trkpt lat="45.28155" lon="4.57374">
        <ele>767</ele>
        <time>2016-07-03T19:31:15Z</time>
      </trkpt>
      <trkpt lat="45.2815" lon="4.57379">
        <ele>767</ele>
        <time>2016-07-03T19:33:15Z</time>
      </trkpt>
      <trkpt lat="45.28145" lon="4.57384">
        <ele>766</ele>
        <time>2016-07-03T19:35:15Z</time>
      </trkpt>
      <trkpt lat="45.2814" lon="4.57389">
        <ele>765</ele>
        <time>2016-07-03T19:37:15Z</time>
      </trkpt>
      <trkpt lat="45.28134" lon="4.57394">
        <ele>765</ele>
        <time>2016-07-03T19:39:15Z</time>
      </trkpt>
      <trkpt lat="45.28129" lon="4.57397">
        <ele>765</ele>
        <time>2016-07-03T19:41:15Z</time>
      </trkpt>
      <trkpt lat="45.28123" lon="4.57399">
        <ele>765</ele>
        <time>2016-07-03T19:43:15Z</time>
      </trkpt>
      <trkpt lat="45.28117" lon="4.574">
        <ele>765</ele>
        <time>2016-07-03T19:45:15Z</time>
      </trkpt>
      <trkpt lat="45.28112" lon="4.57401">
        <ele>764</ele>
        <time>2016-07-03T19:47:15Z</time>
      </trkpt>
      <trkpt lat="45.28106" lon="4.574">
        <ele>764</ele>
        <time>2016-07-03T19:49:15Z</time>
      </trkpt>
      <trkpt lat="45.281" lon="4.57399">
        <ele>764</ele>
        <time>2016-07-03T19:51:15Z</time>
      </trkpt>
      <trkpt lat="45.28094" lon="4.57397">
        <ele>764</ele>
        <time>2016-07-03T19:53:15Z</time>
      </trkpt>
      <trkpt lat="45.28089" lon="4.57394">
        <ele>764</ele>
        <time>2016-07-03T19:55:15Z</time>
      </trkpt>
      <trkpt lat="45.28084" lon="4.5739">
        <ele>765</ele>
        <time>2016-07-03T19:57:15Z</time>
      </trkpt>
      <trkpt lat="45.28079" lon="4.57386">
        <ele>758</ele>
        <time>2016-07-03T19:59:15Z</time>
      </trkpt>
      <trkpt lat="45.28074" lon="4.5738">
        <ele>758</ele>
        <time>2016-07-03T20:01:15Z</time>
      </trkpt>
      <trkpt lat="45.2807" lon="4.57374">
        <ele>759</ele>
        <time>2016-07-03T20:03:15Z</time>
      </trkpt>
      <trkpt lat="45.28066" lon="4.57368">
        <ele>760</ele>
        <time>2016-07-03T20:05:15Z</time>
      </trkpt>
      <trkpt lat="45.28061" lon="4.57362">
        <ele>760</ele>
        <time>2016-07-03T20:07:15Z</time>
      </trkpt>
      <trkpt lat="45.28057" lon="4.57354">
        <ele>761</ele>
        <time>2016-07-03T20:09:15Z</time>
      </trkpt>
      <trkpt lat="45.28053" lon="4.57347">
        <ele>761</ele>
        <time>2016-07-03T20:11:15Z</time>
      </trkpt>
      <trkpt lat="45.2805" lon="4.5734">
        <ele>761</ele>
        <time>2016-07-03T20:13:15Z</time>
      </trkpt>
      <trkpt lat="45.28046" lon="4.57333">
        <ele>771</ele>
        <time>2016-07-03T20:15:15Z</time>
      </trkpt>
      <trkpt lat="45.28042" lon="4.57325">
        <ele>770</ele>
        <time>2016-07-03T20:17:15Z</time>
      </trkpt>
      <trkpt lat="45.28038" lon="4.57318">
        <ele>770</ele>
        <time>2016-07-03T20:19:15Z</time>
      </trkpt>
      <trkpt lat="45.28026" lon="4.57293">
        <ele>770</ele>
        <time>2016-07-03T20:21:15Z</time>
      </trkpt>
      <trkpt lat="45.28023" lon="4.57285">
        <ele>770</ele>
        <time>2016-07-03T20:23:15Z</time>
      </trkpt>
      <trkpt lat="45.28019" lon="4.57277">
        <ele>771</ele>
        <time>2016-07-03T20:25:15Z</time>
      </trkpt>
      <trkpt lat="45.28015" lon="4.57268">
        <ele>770</ele>
        <time>2016-07-03T20:27:15Z</time>
      </trkpt>
      <trkpt lat="45.28012" lon="4.57259">
        <ele>770</ele>
        <time>2016-07-03T20:29:15Z</time>
      </trkpt>
      <trkpt lat="45.28008" lon="4.5725">
        <ele>772</ele>
        <time>2016-07-03T20:31:15Z</time>
      </trkpt>
      <trkpt lat="45.28005" lon="4.57241">
        <ele>773</ele>
        <time>2016-07-03T20:33:15Z</time>
      </trkpt>
      <trkpt lat="45.28003" lon="4.57232">
        <ele>777</ele>
        <time>2016-07-03T20:35:15Z</time>
      </trkpt>
      <trkpt lat="45.28" lon="4.57222">
        <ele>779</ele>
        <time>2016-07-03T20:37:15Z</time>
      </trkpt>
      <trkpt lat="45.27998" lon="4.57212">
        <ele>763</ele>
        <time>2016-07-03T20:39:15Z</time>
      </trkpt>
      <trkpt lat="45.27995" lon="4.57201">
        <ele>765</ele>
        <time>2016-07-03T20:41:15Z</time>
      </trkpt>
      <trkpt lat="45.27994" lon="4.57192">
        <ele>767</ele>
        <time>2016-07-03T20:43:15Z</time>
      </trkpt>
      <trkpt lat="45.27992" lon="4.57182">
        <ele>769</ele>
        <time>2016-07-03T20:45:15Z</time>
      </trkpt>
      <trkpt lat="45.2799" lon="4.57172">
        <ele>772</ele>
        <time>2016-07-03T20:47:15Z</time>
      </trkpt>
      <trkpt lat="45.27989" lon="4.57161">
        <ele>776</ele>
        <time>2016-07-03T20:49:15Z</time>
      </trkpt>
      <trkpt lat="45.27989" lon="4.57151">
        <ele>775</ele>
        <time>2016-07-03T20:51:15Z</time>
      </trkpt>
      <trkpt lat="45.27989" lon="4.57136">
        <ele>774</ele>
        <time>2016-07-03T20:53:15Z</time>
      </trkpt>
      <trkpt lat="45.27985" lon="4.57056">
        <ele>782</ele>
        <time>2016-07-03T20:55:15Z</time>
      </trkpt>
      <trkpt lat="45.27984" lon="4.57045">
        <ele>782</ele>
        <time>2016-07-03T20:57:15Z</time>
      </trkpt>
      <trkpt lat="45.27983" lon="4.57035">
        <ele>782</ele>
        <time>2016-07-03T20:59:15Z</time>
      </trkpt>
      <trkpt lat="45.27982" lon="4.57025">
        <ele>783</ele>
        <time>2016-07-03T21:01:15Z</time>
      </trkpt>
      <trkpt lat="45.27981" lon="4.57015">
        <ele>784</ele>
        <time>2016-07-03T21:03:15Z</time>
      </trkpt>
      <trkpt lat="45.27979" lon="4.57005">
        <ele>784</ele>
        <time>2016-07-03T21:05:15Z</time>
      </trkpt>
      <trkpt lat="45.27977" lon="4.56995">
        <ele>788</ele>
        <time>2016-07-03T21:07:15Z</time>
      </trkpt>
      <trkpt lat="45.27974" lon="4.56984">
        <ele>788</ele>
        <time>2016-07-03T21:09:15Z</time>
      </trkpt>
      <trkpt lat="45.27969" lon="4.56965">
        <ele>788</ele>
        <time>2016-07-03T21:11:15Z</time>
      </trkpt>
      <trkpt lat="45.27967" lon="4.56955">
        <ele>788</ele>
        <time>2016-07-03T21:13:15Z</time>
      </trkpt>
      <trkpt lat="45.27965" lon="4.56945">
        <ele>789</ele>
        <time>2016-07-03T21:15:15Z</time>
      </trkpt>
      <trkpt lat="45.27956" lon="4.56916">
        <ele>795</ele>
        <time>2016-07-03T21:17:15Z</time>
      </trkpt>
      <trkpt lat="45.27953" lon="4.56906">
        <ele>795</ele>
        <time>2016-07-03T21:19:15Z</time>
      </trkpt>
      <trkpt lat="45.27949" lon="4.56896">
        <ele>795</ele>
        <time>2016-07-03T21:21:15Z</time>
      </trkpt>
      <trkpt lat="45.27946" lon="4.56887">
        <ele>796</ele>
        <time>2016-07-03T21:23:15Z</time>
      </trkpt>
      <trkpt lat="45.27942" lon="4.56877">
        <ele>796</ele>
        <time>2016-07-03T21:25:15Z</time>
      </trkpt>
      <trkpt lat="45.27938" lon="4.56869">
        <ele>797</ele>
        <time>2016-07-03T21:27:15Z</time>
      </trkpt>
      <trkpt lat="45.27934" lon="4.5686">
        <ele>798</ele>
        <time>2016-07-03T21:29:15Z</time>
      </trkpt>
      <trkpt lat="45.27929" lon="4.56852">
        <ele>798</ele>
        <time>2016-07-03T21:31:15Z</time>
      </trkpt>
      <trkpt lat="45.27925" lon="4.56845">
        <ele>799</ele>
        <time>2016-07-03T21:33:15Z</time>
      </trkpt>
      <trkpt lat="45.2792" lon="4.56837">
        <ele>800</ele>
        <time>2016-07-03T21:35:15Z</time>
      </trkpt>
      <trkpt lat="45.27915" lon="4.5683">
        <ele>802</ele>
        <time>2016-07-03T21:37:15Z</time>
      </trkpt>
      <trkpt lat="45.27902" lon="4.56811">
        <ele>806</ele>
        <time>2016-07-03T21:39:15Z</time>
      </trkpt>
      <trkpt lat="45.27889" lon="4.56797">
        <ele>808</ele>
        <time>2016-07-03T21:41:15Z</time>
      </trkpt>
      <trkpt lat="45.27884" lon="4.56791">
        <ele>809</ele>
        <time>2016-07-03T21:43:15Z</time>
      </trkpt>
      <trkpt lat="45.27878" lon="4.56787">
        <ele>809</ele>
        <time>2016-07-03T21:45:15Z</time>
      </trkpt>
      <trkpt lat="45.27873" lon="4.56783">
        <ele>810</ele>
        <time>2016-07-03T21:47:15Z</time>
      </trkpt>
      <trkpt lat="45.27867" lon="4.5678">
        <ele>810</ele>
        <time>2016-07-03T21:49:15Z</time>
      </trkpt>
      <trkpt lat="45.2786" lon="4.56778">
        <ele>810</ele>
        <time>2016-07-03T21:51:15Z</time>
      </trkpt>
      <trkpt lat="45.27854" lon="4.56776">
        <ele>810</ele>
        <time>2016-07-03T21:53:15Z</time>
      </trkpt>
      <trkpt lat="45.27849" lon="4.56776">
        <ele>811</ele>
        <time>2016-07-03T21:55:15Z</time>
      </trkpt>
      <trkpt lat="45.27836" lon="4.56777">
        <ele>811</ele>
        <time>2016-07-03T21:57:15Z</time>
      </trkpt>
      <trkpt lat="45.2783" lon="4.56778">
        <ele>813</ele>
        <time>2016-07-03T21:59:15Z</time>
      </trkpt>
      <trkpt lat="45.27811" lon="4.56781">
        <ele>814</ele>
        <time>2016-07-03T22:01:15Z</time>
      </trkpt>
      <trkpt lat="45.27791" lon="4.56783">
        <ele>814</ele>
        <time>2016-07-03T22:03:15Z</time>
      </trkpt>
      <trkpt lat="45.27784" lon="4.56783">
        <ele>815</ele>
        <time>2016-07-03T22:05:15Z</time>
      </trkpt>
      <trkpt lat="45.27777" lon="4.56783">
        <ele>815</ele>
        <time>2016-07-03T22:07:15Z</time>
      </trkpt>
      <trkpt lat="45.27771" lon="4.56783">
        <ele>816</ele>
        <time>2016-07-03T22:09:15Z</time>
      </trkpt>
      <trkpt lat="45.27764" lon="4.56783">
        <ele>816</ele>
        <time>2016-07-03T22:11:15Z</time>
      </trkpt>
      <trkpt lat="45.27758" lon="4.56783">
        <ele>816</ele>
        <time>2016-07-03T22:13:15Z</time>
      </trkpt>
      <trkpt lat="45.27752" lon="4.56785">
        <ele>816</ele>
        <time>2016-07-03T22:15:15Z</time>
      </trkpt>
      <trkpt lat="45.27746" lon="4.56788">
        <ele>822</ele>
        <time>2016-07-03T22:17:15Z</time>
      </trkpt>
      <trkpt lat="45.27739" lon="4.56791">
        <ele>822</ele>
        <time>2016-07-03T22:19:15Z</time>
      </trkpt>
      <trkpt lat="45.27734" lon="4.56795">
        <ele>822</ele>
        <time>2016-07-03T22:21:15Z</time>
      </trkpt>
      <trkpt lat="45.27728" lon="4.568">
        <ele>821</ele>
        <time>2016-07-03T22:23:15Z</time>
      </trkpt>
      <trkpt lat="45.27722" lon="4.56803">
        <ele>821</ele>
        <time>2016-07-03T22:25:15Z</time>
      </trkpt>
      <trkpt lat="45.27717" lon="4.56807">
        <ele>821</ele>
        <time>2016-07-03T22:27:15Z</time>
      </trkpt>
      <trkpt lat="45.27711" lon="4.56811">
        <ele>822</ele>
        <time>2016-07-03T22:29:15Z</time>
      </trkpt>
      <trkpt lat="45.27707" lon="4.56813">
        <ele>822</ele>
        <time>2016-07-03T22:31:15Z</time>
      </trkpt>
      <trkpt lat="45.27702" lon="4.56816">
        <ele>822</ele>
        <time>2016-07-03T22:33:15Z</time>
      </trkpt>
      <trkpt lat="45.27697" lon="4.56817">
        <ele>822</ele>
        <time>2016-07-03T22:35:15Z</time>
      </trkpt>
      <trkpt lat="45.27691" lon="4.56818">
        <ele>822</ele>
        <time>2016-07-03T22:37:15Z</time>
      </trkpt>
      <trkpt lat="45.27686" lon="4.56818">
        <ele>823</ele>
        <time>2016-07-03T22:39:15Z</time>
      </trkpt>
      <trkpt lat="45.27681" lon="4.56817">
        <ele>823</ele>
        <time>2016-07-03T22:41:15Z</time>
      </trkpt>
      <trkpt lat="45.27675" lon="4.56816">
        <ele>823</ele>
        <time>2016-07-03T22:43:15Z</time>
      </trkpt>
      <trkpt lat="45.2767" lon="4.56814">
        <ele>823</ele>
        <time>2016-07-03T22:45:15Z</time>
      </trkpt>
      <trkpt lat="45.27665" lon="4.56811">
        <ele>828</ele>
        <time>2016-07-03T22:47:15Z</time>
      </trkpt>
      <trkpt lat="45.27661" lon="4.56808">
        <ele>828</ele>
        <time>2016-07-03T22:49:15Z</time>
      </trkpt>
      <trkpt lat="45.27656" lon="4.56803">
        <ele>829</ele>
        <time>2016-07-03T22:51:15Z</time>
      </trkpt>
      <trkpt lat="45.27652" lon="4.56799">
        <ele>830</ele>
        <time>2016-07-03T22:53:15Z</time>
      </trkpt>
      <trkpt lat="45.27648" lon="4.56794">
        <ele>831</ele>
        <time>2016-07-03T22:55:15Z</time>
      </trkpt>
      <trkpt lat="45.27644" lon="4.56788">
        <ele>831</ele>
        <time>2016-07-03T22:57:15Z</time>
      </trkpt>
      <trkpt lat="45.2764" lon="4.56783">
        <ele>832</ele>
        <time>2016-07-03T22:59:15Z</time>
      </trkpt>
      <trkpt lat="45.27637" lon="4.56777">
        <ele>832</ele>
        <time>2016-07-03T23:01:15Z</time>
      </trkpt>
      <trkpt lat="45.27633" lon="4.5677">
        <ele>833</ele>
        <time>2016-07-03T23:03:15Z</time>
      </trkpt>
      <trkpt lat="45.27627" lon="4.56758">
        <ele>833</ele>
        <time>2016-07-03T23:05:15Z</time>
      </trkpt>
      <trkpt lat="45.27611" lon="4.5672">
        <ele>839</ele>
        <time>2016-07-03T23:07:15Z</time>
      </trkpt>
      <trkpt lat="45.27596" lon="4.56686">
        <ele>840</ele>
        <time>2016-07-03T23:09:15Z</time>
      </trkpt>
      <trkpt lat="45.2759" lon="4.56672">
        <ele>841</ele>
        <time>2016-07-03T23:11:15Z</time>
      </trkpt>
      <trkpt lat="45.27587" lon="4.56663">
        <ele>843</ele>
        <time>2016-07-03T23:13:15Z</time>
      </trkpt>
      <trkpt lat="45.2758" lon="4.56639">
        <ele>847</ele>
        <time>2016-07-03T23:15:15Z</time>
      </trkpt>
      <trkpt lat="45.27565" lon="4.56595">
        <ele>851</ele>
        <time>2016-07-03T23:17:15Z</time>
      </trkpt>
      <trkpt lat="45.27549" lon="4.5655">
        <ele>857</ele>
        <time>2016-07-03T23:19:15Z</time>
      </trkpt>
      <trkpt lat="45.27543" lon="4.56533">
        <ele>858</ele>
        <time>2016-07-03T23:21:15Z</time>
      </trkpt>
      <trkpt lat="45.27539" lon="4.56525">
        <ele>858</ele>
        <time>2016-07-03T23:23:15Z</time>
      </trkpt>
      <trkpt lat="45.27535" lon="4.56517">
        <ele>858</ele>
        <time>2016-07-03T23:25:15Z</time>
      </trkpt>
      <trkpt lat="45.27532" lon="4.56509">
        <ele>858</ele>
        <time>2016-07-03T23:27:15Z</time>
      </trkpt>
      <trkpt lat="45.27527" lon="4.56503">
        <ele>858</ele>
        <time>2016-07-03T23:29:15Z</time>
      </trkpt>
      <trkpt lat="45.27523" lon="4.56498">
        <ele>863</ele>
        <time>2016-07-03T23:31:15Z</time>
      </trkpt>
      <trkpt lat="45.27518" lon="4.56492">
        <ele>862</ele>
        <time>2016-07-03T23:33:15Z</time>
      </trkpt>
      <trkpt lat="45.27513" lon="4.56489">
        <ele>861</ele>
        <time>2016-07-03T23:35:15Z</time>
      </trkpt>
      <trkpt lat="45.27507" lon="4.56485">
        <ele>861</ele>
        <time>2016-07-03T23:37:15Z</time>
      </trkpt>
      <trkpt lat="45.27502" lon="4.56482">
        <ele>861</ele>
        <time>2016-07-03T23:39:15Z</time>
      </trkpt>
      <trkpt lat="45.27496" lon="4.5648">
        <ele>858</ele>
        <time>2016-07-03T23:41:15Z</time>
      </trkpt>
      <trkpt lat="45.2749" lon="4.56479">
        <ele>858</ele>
        <time>2016-07-03T23:43:15Z</time>
      </trkpt>
      <trkpt lat="45.27485" lon="4.56479">
        <ele>858</ele>
        <time>2016-07-03T23:45:15Z</time>
      </trkpt>
      <trkpt lat="45.27479" lon="4.56481">
        <ele>859</ele>
        <time>2016-07-03T23:47:15Z</time>
      </trkpt>
      <trkpt lat="45.27474" lon="4.56483">
        <ele>859</ele>
        <time>2016-07-03T23:49:15Z</time>
      </trkpt>
      <trkpt lat="45.27468" lon="4.56486">
        <ele>859</ele>
        <time>2016-07-03T23:51:15Z</time>
      </trkpt>
      <trkpt lat="45.27463" lon="4.56489">
        <ele>859</ele>
        <time>2016-07-03T23:53:15Z</time>
      </trkpt>
      <trkpt lat="45.27458" lon="4.56492">
        <ele>859</ele>
        <time>2016-07-03T23:55:15Z</time>
      </trkpt>
      <trkpt lat="45.27453" lon="4.56495">
        <ele>859</ele>
        <time>2016-07-03T23:57:15Z</time>
      </trkpt>
      <trkpt lat="45.27447" lon="4.56497">
        <ele>859</ele>
        <time>2016-07-03T23:59:15Z</time>
      </trkpt>
      <trkpt lat="45.27441" lon="4.56498">
        <ele>859</ele>
        <time>2016-07-04T00:01:15Z</time>
      </trkpt>
      <trkpt lat="45.27436" lon="4.56499">
        <ele>859</ele>
        <time>2016-07-04T00:03:15Z</time>
      </trkpt>
      <trkpt lat="45.2743" lon="4.565">
        <ele>857</ele>
        <time>2016-07-04T00:05:15Z</time>
      </trkpt>
      <trkpt lat="45.27423" lon="4.56499">
        <ele>858</ele>
        <time>2016-07-04T00:07:15Z</time>
      </trkpt>
      <trkpt lat="45.27418" lon="4.56498">
        <ele>858</ele>
        <time>2016-07-04T00:09:15Z</time>
      </trkpt>
      <trkpt lat="45.27411" lon="4.56497">
        <ele>859</ele>
        <time>2016-07-04T00:11:15Z</time>
      </trkpt>
      <trkpt lat="45.27405" lon="4.56495">
        <ele>860</ele>
        <time>2016-07-04T00:13:15Z</time>
      </trkpt>
      <trkpt lat="45.27394" lon="4.5649">
        <ele>861</ele>
        <time>2016-07-04T00:15:15Z</time>
      </trkpt>
      <trkpt lat="45.27381" lon="4.56482">
        <ele>862</ele>
        <time>2016-07-04T00:17:15Z</time>
      </trkpt>
      <trkpt lat="45.27369" lon="4.56473">
        <ele>862</ele>
        <time>2016-07-04T00:19:15Z</time>
      </trkpt>
      <trkpt lat="45.27362" lon="4.56468">
        <ele>863</ele>
        <time>2016-07-04T00:21:15Z</time>
      </trkpt>
      <trkpt lat="45.27337" lon="4.5645">
        <ele>864</ele>
        <time>2016-07-04T00:23:15Z</time>
      </trkpt>
      <trkpt lat="45.27331" lon="4.56446">
        <ele>867</ele>
        <time>2016-07-04T00:25:15Z</time>
      </trkpt>
      <trkpt lat="45.27324" lon="4.56443">
        <ele>867</ele>
        <time>2016-07-04T00:27:15Z</time>
      </trkpt>
      <trkpt lat="45.27317" lon="4.56439">
        <ele>867</ele>
        <time>2016-07-04T00:29:15Z</time>
      </trkpt>
      <trkpt lat="45.27307" lon="4.56436">
        <ele>867</ele>
        <time>2016-07-04T00:31:15Z</time>
      </trkpt>
      <trkpt lat="45.27302" lon="4.56435">
        <ele>867</ele>
        <time>2016-07-04T00:33:15Z</time>
      </trkpt>
      <trkpt lat="45.27263" lon="4.56426">
        <ele>869</ele>
        <time>2016-07-04T00:35:15Z</time>
      </trkpt>
      <trkpt lat="45.27256" lon="4.56426">
        <ele>870</ele>
        <time>2016-07-04T00:37:15Z</time>
      </trkpt>
      <trkpt lat="45.2725" lon="4.56425">
        <ele>870</ele>
        <time>2016-07-04T00:39:15Z</time>
      </trkpt>
      <trkpt lat="45.27243" lon="4.56425">
        <ele>871</ele>
        <time>2016-07-04T00:41:15Z</time>
      </trkpt>
      <trkpt lat="45.27236" lon="4.56426">
        <ele>872</ele>
        <time>2016-07-04T00:43:15Z</time>
      </trkpt>
      <trkpt lat="45.27229" lon="4.56427">
        <ele>872</ele>
        <time>2016-07-04T00:45:15Z</time>
      </trkpt>
      <trkpt lat="45.27223" lon="4.56428">
        <ele>872</ele>
        <time>2016-07-04T00:47:15Z</time>
      </trkpt>
      <trkpt lat="45.27217" lon="4.56431">
        <ele>872</ele>
        <time>2016-07-04T00:49:15Z</time>
      </trkpt>
      <trkpt lat="45.27212" lon="4.56434">
        <ele>873</ele>
        <time>2016-07-04T00:51:15Z</time>
      </trkpt>
      <trkpt lat="45.27207" lon="4.56439">
        <ele>873</ele>
        <time>2016-07-04T00:53:15Z</time>
      </trkpt>
      <trkpt lat="45.27203" lon="4.56443">
        <ele>873</ele>
        <time>2016-07-04T00:55:15Z</time>
      </trkpt>
      <trkpt lat="45.27199" lon="4.56448">
        <ele>873</ele>
        <time>2016-07-04T00:57:15Z</time>
      </trkpt>
      <trkpt lat="45.27194" lon="4.56453">
        <ele>873</ele>
        <time>2016-07-04T00:59:15Z</time>
      </trkpt>
      <trkpt lat="45.27191" lon="4.56458">
        <ele>873</ele>
        <time>2016-07-04T01:01:15Z</time>
      </trkpt>
      <trkpt lat="45.27186" lon="4.56465">
        <ele>873</ele>
        <time>2016-07-04T01:03:15Z</time>
      </trkpt>
      <trkpt lat="45.27169" lon="4.5649">
        <ele>875</ele>
        <time>2016-07-04T01:05:15Z</time>
      </trkpt>
      <trkpt lat="45.27158" lon="4.5651">
        <ele>879</ele>
        <time>2016-07-04T01:07:15Z</time>
      </trkpt>
      <trkpt lat="45.27151" lon="4.56524">
        <ele>880</ele>
        <time>2016-07-04T01:09:15Z</time>
      </trkpt>
      <trkpt lat="45.27148" lon="4.5653">
        <ele>881</ele>
        <time>2016-07-04T01:11:15Z</time>
      </trkpt>
      <trkpt lat="45.27145" lon="4.56537">
        <ele>881</ele>
        <time>2016-07-04T01:13:15Z</time>
      </trkpt>
      <trkpt lat="45.27143" lon="4.56543">
        <ele>881</ele>
        <time>2016-07-04T01:15:15Z</time>
      </trkpt>
      <trkpt lat="45.27141" lon="4.5655">
        <ele>881</ele>
        <time>2016-07-04T01:17:15Z</time>
      </trkpt>
      <trkpt lat="45.27139" lon="4.56558">
        <ele>882</ele>
        <time>2016-07-04T01:19:15Z</time>
      </trkpt>
      <trkpt lat="45.27139" lon="4.56564">
        <ele>882</ele>
        <time>2016-07-04T01:21:15Z</time>
      </trkpt>
      <trkpt lat="45.27138" lon="4.56572">
        <ele>882</ele>
        <time>2016-07-04T01:23:15Z</time>
      </trkpt>
      <trkpt lat="45.27139" lon="4.56581">
        <ele>881</ele>
        <time>2016-07-04T01:25:15Z</time>
      </trkpt>
      <trkpt lat="45.27139" lon="4.56589">
        <ele>884</ele>
        <time>2016-07-04T01:27:15Z</time>
      </trkpt>
      <trkpt lat="45.2714" lon="4.56595">
        <ele>884</ele>
        <time>2016-07-04T01:29:15Z</time>
      </trkpt>
      <trkpt lat="45.27149" lon="4.56626">
        <ele>886</ele>
        <time>2016-07-04T01:31:15Z</time>
      </trkpt>
      <trkpt lat="45.27152" lon="4.56634">
        <ele>886</ele>
        <time>2016-07-04T01:33:15Z</time>
      </trkpt>
      <trkpt lat="45.27154" lon="4.5664">
        <ele>886</ele>
        <time>2016-07-04T01:35:15Z</time>
      </trkpt>
      <trkpt lat="45.27155" lon="4.56645">
        <ele>886</ele>
        <time>2016-07-04T01:37:15Z</time>
      </trkpt>
      <trkpt lat="45.27157" lon="4.5665">
        <ele>886</ele>
        <time>2016-07-04T01:39:15Z</time>
      </trkpt>
      <trkpt lat="45.27157" lon="4.56655">
        <ele>886</ele>
        <time>2016-07-04T01:41:15Z</time>
      </trkpt>
      <trkpt lat="45.27157" lon="4.56659">
        <ele>886</ele>
        <time>2016-07-04T01:43:15Z</time>
      </trkpt>
      <trkpt lat="45.27156" lon="4.56663">
        <ele>886</ele>
        <time>2016-07-04T01:45:15Z</time>
      </trkpt>
      <trkpt lat="45.27154" lon="4.56666">
        <ele>886</ele>
        <time>2016-07-04T01:47:15Z</time>
      </trkpt>
      <trkpt lat="45.27152" lon="4.56669">
        <ele>889</ele>
        <time>2016-07-04T01:49:15Z</time>
      </trkpt>
      <trkpt lat="45.2715" lon="4.56671">
        <ele>889</ele>
        <time>2016-07-04T01:51:15Z</time>
      </trkpt>
      <trkpt lat="45.27147" lon="4.56671">
        <ele>890</ele>
        <time>2016-07-04T01:53:15Z</time>
      </trkpt>
      <trkpt lat="45.27144" lon="4.56671">
        <ele>890</ele>
        <time>2016-07-04T01:55:15Z</time>
      </trkpt>
      <trkpt lat="45.27141" lon="4.56669">
        <ele>891</ele>
        <time>2016-07-04T01:57:15Z</time>
      </trkpt>
      <trkpt lat="45.27138" lon="4.56667">
        <ele>891</ele>
        <time>2016-07-04T01:59:15Z</time>
      </trkpt>
      <trkpt lat="45.27136" lon="4.56665">
        <ele>887</ele>
        <time>2016-07-04T02:01:15Z</time>
      </trkpt>
      <trkpt lat="45.27133" lon="4.56662">
        <ele>887</ele>
        <time>2016-07-04T02:03:15Z</time>
      </trkpt>
      <trkpt lat="45.27129" lon="4.56659">
        <ele>888</ele>
        <time>2016-07-04T02:05:15Z</time>
      </trkpt>
      <trkpt lat="45.27126" lon="4.56655">
        <ele>888</ele>
        <time>2016-07-04T02:07:15Z</time>
      </trkpt>
      <trkpt lat="45.27122" lon="4.56652">
        <ele>888</ele>
        <time>2016-07-04T02:09:15Z</time>
      </trkpt>
      <trkpt lat="45.27119" lon="4.56648">
        <ele>888</ele>
        <time>2016-07-04T02:11:15Z</time>
      </trkpt>
      <trkpt lat="45.27115" lon="4.56645">
        <ele>888</ele>
        <time>2016-07-04T02:13:15Z</time>
      </trkpt>
      <trkpt lat="45.27111" lon="4.56641">
        <ele>889</ele>
        <time>2016-07-04T02:15:15Z</time>
      </trkpt>
      <trkpt lat="45.27107" lon="4.56638">
        <ele>889</ele>
        <time>2016-07-04T02:17:15Z</time>
      </trkpt>
      <trkpt lat="45.27103" lon="4.56634">
        <ele>889</ele>
        <time>2016-07-04T02:19:15Z</time>
      </trkpt>
      <trkpt lat="45.27098" lon="4.56631">
        <ele>889</ele>
        <time>2016-07-04T02:21:15Z</time>
      </trkpt>
      <trkpt lat="45.27092" lon="4.56626">
        <ele>889</ele>
        <time>2016-07-04T02:23:15Z</time>
      </trkpt>
      <trkpt lat="45.27072" lon="4.5661">
        <ele>892</ele>
        <time>2016-07-04T02:25:15Z</time>
      </trkpt>
      <trkpt lat="45.27044" lon="4.56588">
        <ele>893</ele>
        <time>2016-07-04T02:27:15Z</time>
      </trkpt>
      <trkpt lat="45.2703" lon="4.56577">
        <ele>892</ele>
        <time>2016-07-04T02:29:15Z</time>
      </trkpt>
      <trkpt lat="45.27026" lon="4.56574">
        <ele>892</ele>
        <time>2016-07-04T02:31:15Z</time>
      </trkpt>
      <trkpt lat="45.27011" lon="4.56566">
        <ele>893</ele>
        <time>2016-07-04T02:33:15Z</time>
      </trkpt>
      <trkpt lat="45.27005" lon="4.56561">
        <ele>893</ele>
        <time>2016-07-04T02:35:15Z</time>
      </trkpt>
      <trkpt lat="45.27004" lon="4.5656">
        <ele>892</ele>
        <time>2016-07-04T02:37:15Z</time>
      </trkpt>
      <trkpt lat="45.27003" lon="4.56558">
        <ele>892</ele>
        <time>2016-07-04T02:39:15Z</time>
      </trkpt>
      <trkpt lat="45.27002" lon="4.56555">
        <ele>892</ele>
        <time>2016-07-04T02:41:15Z</time>
      </trkpt>
      <trkpt lat="45.27001" lon="4.56553">
        <ele>892</ele>
        <time>2016-07-04T02:43:15Z</time>
      </trkpt>
      <trkpt lat="45.27" lon="4.5655">
        <ele>892</ele>
        <time>2016-07-04T02:45:15Z</time>
      </trkpt>
      <trkpt lat="45.26998" lon="4.56546">
        <ele>893</ele>
        <time>2016-07-04T02:47:15Z</time>
      </trkpt>
      <trkpt lat="45.26997" lon="4.56544">
        <ele>893</ele>
        <time>2016-07-04T02:49:15Z</time>
      </trkpt>
      <trkpt lat="45.26995" lon="4.56542">
        <ele>893</ele>
        <time>2016-07-04T02:51:15Z</time>
      </trkpt>
      <trkpt lat="45.26994" lon="4.5654">
        <ele>893</ele>
        <time>2016-07-04T02:53:15Z</time>
      </trkpt>
      <trkpt lat="45.26992" lon="4.56539">
        <ele>893</ele>
        <time>2016-07-04T02:55:15Z</time>
      </trkpt>
      <trkpt lat="45.26989" lon="4.56539">
        <ele>893</ele>
        <time>2016-07-04T02:57:15Z</time>
      </trkpt>
      <trkpt lat="45.26989" lon="4.56539">
        <ele>893</ele>
        <time>2016-07-04T02:59:15Z</time>
      </trkpt>
      <trkpt lat="45.26993" lon="4.56525">
        <ele>894</ele>
        <time>2016-07-04T03:01:15Z</time>
      </trkpt>
      <trkpt lat="45.26995" lon="4.56519">
        <ele>894</ele>
        <time>2016-07-04T03:03:15Z</time>
      </trkpt>
      <trkpt lat="45.26995" lon="4.56511">
        <ele>894</ele>
        <time>2016-07-04T03:05:15Z</time>
      </trkpt>
      <trkpt lat="45.26994" lon="4.56504">
        <ele>894</ele>
        <time>2016-07-04T03:07:15Z</time>
      </trkpt>
      <trkpt lat="45.26993" lon="4.56486">
        <ele>895</ele>
        <time>2016-07-04T03:09:15Z</time>
      </trkpt>
      <trkpt lat="45.26991" lon="4.56471">
        <ele>895</ele>
        <time>2016-07-04T03:11:15Z</time>
      </trkpt>
      <trkpt lat="45.26991" lon="4.56464">
        <ele>895</ele>
        <time>2016-07-04T03:13:15Z</time>
      </trkpt>
      <trkpt lat="45.26991" lon="4.56456">
        <ele>895</ele>
        <time>2016-07-04T03:15:15Z</time>
      </trkpt>
      <trkpt lat="45.26991" lon="4.5644">
        <ele>895</ele>
        <time>2016-07-04T03:17:15Z</time>
      </trkpt>
      <trkpt lat="45.26992" lon="4.5642">
        <ele>895</ele>
        <time>2016-07-04T03:19:15Z</time>
      </trkpt>
      <trkpt lat="45.26992" lon="4.564">
        <ele>894</ele>
        <time>2016-07-04T03:21:15Z</time>
      </trkpt>
      <trkpt lat="45.26987" lon="4.56373">
        <ele>894</ele>
        <time>2016-07-04T03:23:15Z</time>
      </trkpt>
      <trkpt lat="45.26987" lon="4.56368">
        <ele>894</ele>
        <time>2016-07-04T03:25:15Z</time>
      </trkpt>
      <trkpt lat="45.26983" lon="4.56335">
        <ele>893</ele>
        <time>2016-07-04T03:27:15Z</time>
      </trkpt>
      <trkpt lat="45.26982" lon="4.56332">
        <ele>892</ele>
        <time>2016-07-04T03:29:15Z</time>
      </trkpt>
      <trkpt lat="45.26981" lon="4.56316">
        <ele>892</ele>
        <time>2016-07-04T03:31:15Z</time>
      </trkpt>
      <trkpt lat="45.26979" lon="4.56296">
        <ele>892</ele>
        <time>2016-07-04T03:33:15Z</time>
      </trkpt>
      <trkpt lat="45.26979" lon="4.56248">
        <ele>892</ele>
        <time>2016-07-04T03:35:15Z</time>
      </trkpt>
      <trkpt lat="45.26981" lon="4.56206">
        <ele>893</ele>
        <time>2016-07-04T03:37:15Z</time>
      </trkpt>
      <trkpt lat="45.26983" lon="4.56191">
        <ele>893</ele>
        <time>2016-07-04T03:39:15Z</time>
      </trkpt>
      <trkpt lat="45.26984" lon="4.56185">
        <ele>893</ele>
        <time>2016-07-04T03:41:15Z</time>
      </trkpt>
      <trkpt lat="45.26986" lon="4.56179">
        <ele>894</ele>
        <time>2016-07-04T03:43:15Z</time>
      </trkpt>
      <trkpt lat="45.26987" lon="4.56177">
        <ele>894</ele>
        <time>2016-07-04T03:45:15Z</time>
      </trkpt>
      <trkpt lat="45.26991" lon="4.56171">
        <ele>895</ele>
        <time>2016-07-04T03:47:15Z</time>
      </trkpt>
      <trkpt lat="45.26996" lon="4.56166">
        <ele>896</ele>
        <time>2016-07-04T03:49:15Z</time>
      </trkpt>
      <trkpt lat="45.27006" lon="4.56161">
        <ele>897</ele>
        <time>2016-07-04T03:51:15Z</time>
      </trkpt>
      <trkpt lat="45.27024" lon="4.56155">
        <ele>899</ele>
        <time>2016-07-04T03:53:15Z</time>
      </trkpt>
      <trkpt lat="45.27051" lon="4.56146">
        <ele>900</ele>
        <time>2016-07-04T03:55:15Z</time>
      </trkpt>
      <trkpt lat="45.27081" lon="4.56135">
        <ele>900</ele>
        <time>2016-07-04T03:57:15Z</time>
      </trkpt>
      <trkpt lat="45.27105" lon="4.56125">
        <ele>903</ele>
        <time>2016-07-04T03:59:15Z</time>
      </trkpt>
      <trkpt lat="45.27131" lon="4.56111">
        <ele>905</ele>
        <time>2016-07-04T04:01:15Z</time>
      </trkpt>
      <trkpt lat="45.27151" lon="4.56102">
        <ele>907</ele>
        <time>2016-07-04T04:03:15Z</time>
      </trkpt>
      <trkpt lat="45.27167" lon="4.56099">
        <ele>910</ele>
        <time>2016-07-04T04:05:15Z</time>
      </trkpt>
      <trkpt lat="45.2718" lon="4.56101">
        <ele>910</ele>
        <time>2016-07-04T04:07:15Z</time>
      </trkpt>
      <trkpt lat="45.27195" lon="4.56106">
        <ele>910</ele>
        <time>2016-07-04T04:09:15Z</time>
      </trkpt>
      <trkpt lat="45.27215" lon="4.56115">
        <ele>910</ele>
        <time>2016-07-04T04:11:15Z</time>
      </trkpt>
      <trkpt lat="45.2723" lon="4.56124">
        <ele>909</ele>
        <time>2016-07-04T04:13:15Z</time>
      </trkpt>
      <trkpt lat="45.27239" lon="4.56131">
        <ele>909</ele>
        <time>2016-07-04T04:15:15Z</time>
      </trkpt>
      <trkpt lat="45.27248" lon="4.56136">
        <ele>908</ele>
        <time>2016-07-04T04:17:15Z</time>
      </trkpt>
      <trkpt lat="45.27275" lon="4.56147">
        <ele>911</ele>
        <time>2016-07-04T04:19:15Z</time>
      </trkpt>
      <trkpt lat="45.27301" lon="4.5615">
        <ele>912</ele>
        <time>2016-07-04T04:21:15Z</time>
      </trkpt>
      <trkpt lat="45.2732" lon="4.56146">
        <ele>912</ele>
        <time>2016-07-04T04:23:15Z</time>
      </trkpt>
      <trkpt lat="45.2736" lon="4.56129">
        <ele>914</ele>
        <time>2016-07-04T04:25:15Z</time>
      </trkpt>
      <trkpt lat="45.27389" lon="4.5611">
        <ele>915</ele>
        <time>2016-07-04T04:27:15Z</time>
      </trkpt>
      <trkpt lat="45.27417" lon="4.56083">
        <ele>920</ele>
        <time>2016-07-04T04:29:15Z</time>
      </trkpt>
      <trkpt lat="45.27435" lon="4.5607">
        <ele>927</ele>
        <time>2016-07-04T04:31:15Z</time>
      </trkpt>
      <trkpt lat="45.2745" lon="4.56066">
        <ele>928</ele>
        <time>2016-07-04T04:33:15Z</time>
      </trkpt>
      <trkpt lat="45.27482" lon="4.56079">
        <ele>926</ele>
        <time>2016-07-04T04:35:15Z</time>
      </trkpt>
      <trkpt lat="45.27516" lon="4.56095">
        <ele>920</ele>
        <time>2016-07-04T04:37:15Z</time>
      </trkpt>
      <trkpt lat="45.27524" lon="4.56098">
        <ele>920</ele>
        <time>2016-07-04T04:39:15Z</time>
      </trkpt>
      <trkpt lat="45.27554" lon="4.56109">
        <ele>921</ele>
        <time>2016-07-04T04:41:15Z</time>
      </trkpt>
      <trkpt lat="45.27593" lon="4.5612">
        <ele>927</ele>
        <time>2016-07-04T04:43:15Z</time>
      </trkpt>
      <trkpt lat="45.27632" lon="4.5613">
        <ele>927</ele>
        <time>2016-07-04T04:45:15Z</time>
      </trkpt>
      <trkpt lat="45.27667" lon="4.56137">
        <ele>927</ele>
        <time>2016-07-04T04:47:15Z</time>
      </trkpt>
      <trkpt lat="45.27684" lon="4.56136">
        <ele>927</ele>
        <time>2016-07-04T04:49:15Z</time>
      </trkpt>
      <trkpt lat="45.27692" lon="4.56136">
        <ele>927</ele>
        <time>2016-07-04T04:51:15Z</time>
      </trkpt>
      <trkpt lat="45.27712" lon="4.56133">
        <ele>927</ele>
        <time>2016-07-04T04:53:15Z</time>
      </trkpt>
      <trkpt lat="45.27726" lon="4.56131">
        <ele>927</ele>
        <time>2016-07-04T04:55:15Z</time>
      </trkpt>
      <trkpt lat="45.27735" lon="4.56128">
        <ele>927</ele>
        <time>2016-07-04T04:57:15Z</time>
      </trkpt>
      <trkpt lat="45.27744" lon="4.56123">
        <ele>928</ele>
        <time>2016-07-04T04:59:15Z</time>
      </trkpt>
      <trkpt lat="45.27754" lon="4.56114">
        <ele>925</ele>
        <time>2016-07-04T05:01:15Z</time>
      </trkpt>
      <trkpt lat="45.27756" lon="4.56111">
        <ele>925</ele>
        <time>2016-07-04T05:03:15Z</time>
      </trkpt>
      <trkpt lat="45.27761" lon="4.56105">
        <ele>926</ele>
        <time>2016-07-04T05:05:15Z</time>
      </trkpt>
      <trkpt lat="45.27767" lon="4.56097">
        <ele>927</ele>
        <time>2016-07-04T05:07:15Z</time>
      </trkpt>
      <trkpt lat="45.27775" lon="4.56087">
        <ele>926</ele>
        <time>2016-07-04T05:09:15Z</time>
      </trkpt>
      <trkpt lat="45.27787" lon="4.56078">
        <ele>932</ele>
        <time>2016-07-04T05:11:15Z</time>
      </trkpt>
      <trkpt lat="45.27809" lon="4.56071">
        <ele>930</ele>
        <time>2016-07-04T05:13:15Z</time>
      </trkpt>
      <trkpt lat="45.27834" lon="4.56063">
        <ele>924</ele>
        <time>2016-07-04T05:15:15Z</time>
      </trkpt>
      <trkpt lat="45.27854" lon="4.56053">
        <ele>924</ele>
        <time>2016-07-04T05:17:15Z</time>
      </trkpt>
      <trkpt lat="45.27865" lon="4.56044">
        <ele>924</ele>
        <time>2016-07-04T05:19:15Z</time>
      </trkpt>
      <trkpt lat="45.27874" lon="4.56033">
        <ele>923</ele>
        <time>2016-07-04T05:21:15Z</time>
      </trkpt>
      <trkpt lat="45.2788" lon="4.56023">
        <ele>923</ele>
        <time>2016-07-04T05:23:15Z</time>
      </trkpt>
      <trkpt lat="45.27884" lon="4.56013">
        <ele>923</ele>
        <time>2016-07-04T05:25:15Z</time>
      </trkpt>
      <trkpt lat="45.27886" lon="4.56001">
        <ele>923</ele>
        <time>2016-07-04T05:27:15Z</time>
      </trkpt>
      <trkpt lat="45.27887" lon="4.55986">
        <ele>923</ele>
        <time>2016-07-04T05:29:15Z</time>
      </trkpt>
      <trkpt lat="45.27886" lon="4.55959">
        <ele>923</ele>
        <time>2016-07-04T05:31:15Z</time>
      </trkpt>
      <trkpt lat="45.27882" lon="4.55883">
        <ele>922</ele>
        <time>2016-07-04T05:33:15Z</time>
      </trkpt>
      <trkpt lat="45.2788" lon="4.55857">
        <ele>922</ele>
        <time>2016-07-04T05:35:15Z</time>
      </trkpt>
      <trkpt lat="45.27879" lon="4.55841">
        <ele>922</ele>
        <time>2016-07-04T05:37:15Z</time>
      </trkpt>
      <trkpt lat="45.27878" lon="4.55839">
        <ele>923</ele>
        <time>2016-07-04T05:39:15Z</time>
      </trkpt>
      <trkpt lat="45.27877" lon="4.55833">
        <ele>923</ele>
        <time>2016-07-04T05:41:15Z</time>
      </trkpt>
      <trkpt lat="45.27874" lon="4.55825">
        <ele>924</ele>
        <time>2016-07-04T05:43:15Z</time>
      </trkpt>
      <trkpt lat="45.27871" lon="4.55815">
        <ele>924</ele>
        <time>2016-07-04T05:45:15Z</time>
      </trkpt>
      <trkpt lat="45.27867" lon="4.55802">
        <ele>925</ele>
        <time>2016-07-04T05:47:15Z</time>
      </trkpt>
      <trkpt lat="45.27863" lon="4.55784">
        <ele>925</ele>
        <time>2016-07-04T05:49:15Z</time>
      </trkpt>
      <trkpt lat="45.27861" lon="4.55764">
        <ele>926</ele>
        <time>2016-07-04T05:51:15Z</time>
      </trkpt>
      <trkpt lat="45.27858" lon="4.55718">
        <ele>926</ele>
        <time>2016-07-04T05:53:15Z</time>
      </trkpt>
      <trkpt lat="45.27856" lon="4.55669">
        <ele>928</ele>
        <time>2016-07-04T05:55:15Z</time>
      </trkpt>
      <trkpt lat="45.27857" lon="4.55604">
        <ele>925</ele>
        <time>2016-07-04T05:57:15Z</time>
      </trkpt>
      <trkpt lat="45.27857" lon="4.55512">
        <ele>922</ele>
        <time>2016-07-04T05:59:15Z</time>
      </trkpt>
      <trkpt lat="45.27858" lon="4.55488">
        <ele>918</ele>
        <time>2016-07-04T06:01:15Z</time>
      </trkpt>
      <trkpt lat="45.27858" lon="4.5548">
        <ele>918</ele>
        <time>2016-07-04T06:03:15Z</time>
      </trkpt>
      <trkpt lat="45.27858" lon="4.55473">
        <ele>917</ele>
        <time>2016-07-04T06:05:15Z</time>
      </trkpt>
      <trkpt lat="45.27858" lon="4.55466">
        <ele>916</ele>
        <time>2016-07-04T06:07:15Z</time>
      </trkpt>
      <trkpt lat="45.27857" lon="4.55459">
        <ele>916</ele>
        <time>2016-07-04T06:09:15Z</time>
      </trkpt>
      <trkpt lat="45.27855" lon="4.55451">
        <ele>916</ele>
        <time>2016-07-04T06:11:15Z</time>
      </trkpt>
      <trkpt lat="45.27842" lon="4.55422">
        <ele>920</ele>
        <time>2016-07-04T06:13:15Z</time>
      </trkpt>
      <trkpt lat="45.27823" lon="4.55381">
        <ele>928</ele>
        <time>2016-07-04T06:15:15Z</time>
      </trkpt>
      <trkpt lat="45.27822" lon="4.55379">
        <ele>928</ele>
        <time>2016-07-04T06:17:15Z</time>
      </trkpt>
      <trkpt lat="45.27813" lon="4.55353">
        <ele>927</ele>
        <time>2016-07-04T06:19:15Z</time>
      </trkpt>
      <trkpt lat="45.27811" lon="4.55343">
        <ele>926</ele>
        <time>2016-07-04T06:21:15Z</time>
      </trkpt>
      <trkpt lat="45.2781" lon="4.55334">
        <ele>926</ele>
        <time>2016-07-04T06:23:15Z</time>
      </trkpt>
      <trkpt lat="45.2781" lon="4.55325">
        <ele>925</ele>
        <time>2016-07-04T06:25:15Z</time>
      </trkpt>
      <trkpt lat="45.2781" lon="4.55314">
        <ele>926</ele>
        <time>2016-07-04T06:27:15Z</time>
      </trkpt>
      <trkpt lat="45.27816" lon="4.55264">
        <ele>926</ele>
        <time>2016-07-04T06:29:15Z</time>
      </trkpt>
      <trkpt lat="45.27818" lon="4.55257">
        <ele>925</ele>
        <time>2016-07-04T06:31:15Z</time>
      </trkpt>
      <trkpt lat="45.27827" lon="4.55212">
        <ele>925</ele>
        <time>2016-07-04T06:33:15Z</time>
      </trkpt>
      <trkpt lat="45.27832" lon="4.55179">
        <ele>921</ele>
        <time>2016-07-04T06:35:15Z</time>
      </trkpt>
      <trkpt lat="45.27834" lon="4.55158">
        <ele>910</ele>
        <time>2016-07-04T06:37:15Z</time>
      </trkpt>
      <trkpt lat="45.27833" lon="4.55151">
        <ele>918</ele>
        <time>2016-07-04T06:39:15Z</time>
      </trkpt>
      <trkpt lat="45.27832" lon="4.55141">
        <ele>919</ele>
        <time>2016-07-04T06:41:15Z</time>
      </trkpt>
      <trkpt lat="45.27825" lon="4.55117">
        <ele>918</ele>
        <time>2016-07-04T06:43:15Z</time>
      </trkpt>
      <trkpt lat="45.27823" lon="4.55114">
        <ele>917</ele>
        <time>2016-07-04T06:45:15Z</time>
      </trkpt>
      <trkpt lat="45.27817" lon="4.55101">
        <ele>916</ele>
        <time>2016-07-04T06:47:15Z</time>
      </trkpt>
      <trkpt lat="45.27814" lon="4.55094">
        <ele>916</ele>
        <time>2016-07-04T06:49:15Z</time>
      </trkpt>
      <trkpt lat="45.27812" lon="4.55086">
        <ele>916</ele>
        <time>2016-07-04T06:51:15Z</time>
      </trkpt>
      <trkpt lat="45.2781" lon="4.55072">
        <ele>911</ele>
        <time>2016-07-04T06:53:15Z</time>
      </trkpt>
      <trkpt lat="45.27808" lon="4.55056">
        <ele>911</ele>
        <time>2016-07-04T06:55:15Z</time>
      </trkpt>
      <trkpt lat="45.27806" lon="4.55046">
        <ele>911</ele>
        <time>2016-07-04T06:57:15Z</time>
      </trkpt>
      <trkpt lat="45.278" lon="4.55033">
        <ele>911</ele>
        <time>2016-07-04T06:59:15Z</time>
      </trkpt>
      <trkpt lat="45.27795" lon="4.55024">
        <ele>911</ele>
        <time>2016-07-04T07:01:15Z</time>
      </trkpt>
      <trkpt lat="45.27775" lon="4.54998">
        <ele>906</ele>
        <time>2016-07-04T07:03:15Z</time>
      </trkpt>
      <trkpt lat="45.27755" lon="4.54977">
        <ele>906</ele>
        <time>2016-07-04T07:05:15Z</time>
      </trkpt>
      <trkpt lat="45.27737" lon="4.54959">
        <ele>915</ele>
        <time>2016-07-04T07:07:15Z</time>
      </trkpt>
      <trkpt lat="45.27721" lon="4.54935">
        <ele>913</ele>
        <time>2016-07-04T07:09:15Z</time>
      </trkpt>
      <trkpt lat="45.277" lon="4.54903">
        <ele>903</ele>
        <time>2016-07-04T07:11:15Z</time>
      </trkpt>
      <trkpt lat="45.27681" lon="4.54876">
        <ele>902</ele>
        <time>2016-07-04T07:13:15Z</time>
      </trkpt>
      <trkpt lat="45.27665" lon="4.54859">
        <ele>906</ele>
        <time>2016-07-04T07:15:15Z</time>
      </trkpt>
      <trkpt lat="45.27649" lon="4.54846">
        <ele>905</ele>
        <time>2016-07-04T07:17:15Z</time>
      </trkpt>
      <trkpt lat="45.27631" lon="4.54835">
        <ele>907</ele>
        <time>2016-07-04T07:19:15Z</time>
      </trkpt>
      <trkpt lat="45.27609" lon="4.54827">
        <ele>896</ele>
        <time>2016-07-04T07:21:15Z</time>
      </trkpt>
      <trkpt lat="45.27603" lon="4.54824">
        <ele>897</ele>
        <time>2016-07-04T07:23:15Z</time>
      </trkpt>
      <trkpt lat="45.27596" lon="4.54822">
        <ele>898</ele>
        <time>2016-07-04T07:25:15Z</time>
      </trkpt>
      <trkpt lat="45.27591" lon="4.54819">
        <ele>898</ele>
        <time>2016-07-04T07:27:15Z</time>
      </trkpt>
      <trkpt lat="45.27586" lon="4.54813">
        <ele>897</ele>
        <time>2016-07-04T07:29:15Z</time>
      </trkpt>
      <trkpt lat="45.27582" lon="4.54807">
        <ele>902</ele>
        <time>2016-07-04T07:31:15Z</time>
      </trkpt>
      <trkpt lat="45.27571" lon="4.54792">
        <ele>900</ele>
        <time>2016-07-04T07:33:15Z</time>
      </trkpt>
      <trkpt lat="45.27561" lon="4.5478">
        <ele>899</ele>
        <time>2016-07-04T07:35:15Z</time>
      </trkpt>
      <trkpt lat="45.27548" lon="4.54769">
        <ele>899</ele>
        <time>2016-07-04T07:37:15Z</time>
      </trkpt>
      <trkpt lat="45.27528" lon="4.54759">
        <ele>900</ele>
        <time>2016-07-04T07:39:15Z</time>
      </trkpt>
      <trkpt lat="45.27508" lon="4.54753">
        <ele>899</ele>
        <time>2016-07-04T07:41:15Z</time>
      </trkpt>
      <trkpt lat="45.27501" lon="4.5475">
        <ele>898</ele>
        <time>2016-07-04T07:43:15Z</time>
      </trkpt>
      <trkpt lat="45.27496" lon="4.54746">
        <ele>898</ele>
        <time>2016-07-04T07:45:15Z</time>
      </trkpt>
      <trkpt lat="45.27489" lon="4.54741">
        <ele>898</ele>
        <time>2016-07-04T07:47:15Z</time>
      </trkpt>
      <trkpt lat="45.27485" lon="4.54735">
        <ele>898</ele>
        <time>2016-07-04T07:49:15Z</time>
      </trkpt>
      <trkpt lat="45.27478" lon="4.54726">
        <ele>897</ele>
        <time>2016-07-04T07:51:15Z</time>
      </trkpt>
      <trkpt lat="45.27469" lon="4.54711">
        <ele>896</ele>
        <time>2016-07-04T07:53:15Z</time>
      </trkpt>
      <trkpt lat="45.27459" lon="4.54696">
        <ele>895</ele>
        <time>2016-07-04T07:55:15Z</time>
      </trkpt>
      <trkpt lat="45.27446" lon="4.54681">
        <ele>896</ele>
        <time>2016-07-04T07:57:15Z</time>
      </trkpt>
      <trkpt lat="45.27413" lon="4.54654">
        <ele>894</ele>
        <time>2016-07-04T07:59:15Z</time>
      </trkpt>
      <trkpt lat="45.27369" lon="4.54617">
        <ele>891</ele>
        <time>2016-07-04T08:01:15Z</time>
      </trkpt>
      <trkpt lat="45.27317" lon="4.54572">
        <ele>887</ele>
        <time>2016-07-04T08:03:15Z</time>
      </trkpt>
      <trkpt lat="45.27294" lon="4.54546">
        <ele>887</ele>
        <time>2016-07-04T08:05:15Z</time>
      </trkpt>
      <trkpt lat="45.27284" lon="4.54534">
        <ele>887</ele>
        <time>2016-07-04T08:07:15Z</time>
      </trkpt>
      <trkpt lat="45.27274" lon="4.54521">
        <ele>886</ele>
        <time>2016-07-04T08:09:15Z</time>
      </trkpt>
      <trkpt lat="45.27269" lon="4.54515">
        <ele>886</ele>
        <time>2016-07-04T08:11:15Z</time>
      </trkpt>
      <trkpt lat="45.27236" lon="4.54461">
        <ele>888</ele>
        <time>2016-07-04T08:13:15Z</time>
      </trkpt>
      <trkpt lat="45.27218" lon="4.5443">
        <ele>887</ele>
        <time>2016-07-04T08:15:15Z</time>
      </trkpt>
      <trkpt lat="45.27207" lon="4.5441">
        <ele>878</ele>
        <time>2016-07-04T08:17:15Z</time>
      </trkpt>
      <trkpt lat="45.27178" lon="4.54369">
        <ele>878</ele>
        <time>2016-07-04T08:19:15Z</time>
      </trkpt>
      <trkpt lat="45.27166" lon="4.54346">
        <ele>888</ele>
        <time>2016-07-04T08:21:15Z</time>
      </trkpt>
      <trkpt lat="45.27155" lon="4.54324">
        <ele>884</ele>
        <time>2016-07-04T08:23:15Z</time>
      </trkpt>
      <trkpt lat="45.27149" lon="4.54306">
        <ele>886</ele>
        <time>2016-07-04T08:25:15Z</time>
      </trkpt>
      <trkpt lat="45.27142" lon="4.54284">
        <ele>886</ele>
        <time>2016-07-04T08:27:15Z</time>
      </trkpt>
      <trkpt lat="45.27133" lon="4.54252">
        <ele>885</ele>
        <time>2016-07-04T08:29:15Z</time>
      </trkpt>
      <trkpt lat="45.27129" lon="4.54232">
        <ele>881</ele>
        <time>2016-07-04T08:31:15Z</time>
      </trkpt>
      <trkpt lat="45.27127" lon="4.54223">
        <ele>882</ele>
        <time>2016-07-04T08:33:15Z</time>
      </trkpt>
      <trkpt lat="45.27126" lon="4.54211">
        <ele>882</ele>
        <time>2016-07-04T08:35:15Z</time>
      </trkpt>
      <trkpt lat="45.27127" lon="4.54197">
        <ele>881</ele>
        <time>2016-07-04T08:37:15Z</time>
      </trkpt>
      <trkpt lat="45.27128" lon="4.54189">
        <ele>881</ele>
        <time>2016-07-04T08:39:15Z</time>
      </trkpt>
      <trkpt lat="45.27128" lon="4.54187">
        <ele>881</ele>
        <time>2016-07-04T08:41:15Z</time>
      </trkpt>
      <trkpt lat="45.2713" lon="4.54173">
        <ele>880</ele>
        <time>2016-07-04T08:43:15Z</time>
      </trkpt>
      <trkpt lat="45.27131" lon="4.54161">
        <ele>876</ele>
        <time>2016-07-04T08:45:15Z</time>
      </trkpt>
      <trkpt lat="45.27132" lon="4.54144">
        <ele>876</ele>
        <time>2016-07-04T08:47:15Z</time>
      </trkpt>
      <trkpt lat="45.27132" lon="4.54131">
        <ele>876</ele>
        <time>2016-07-04T08:49:15Z</time>
      </trkpt>
      <trkpt lat="45.27131" lon="4.54121">
        <ele>876</ele>
        <time>2016-07-04T08:51:15Z</time>
      </trkpt>
      <trkpt lat="45.27125" lon="4.54083">
        <ele>872</ele>
        <time>2016-07-04T08:53:15Z</time>
      </trkpt>
      <trkpt lat="45.27116" lon="4.54055">
        <ele>873</ele>
        <time>2016-07-04T08:55:15Z</time>
      </trkpt>
      <trkpt lat="45.27103" lon="4.54024">
        <ele>873</ele>
        <time>2016-07-04T08:57:15Z</time>
      </trkpt>
      <trkpt lat="45.27082" lon="4.53978">
        <ele>880</ele>
        <time>2016-07-04T08:59:15Z</time>
      </trkpt>
      <trkpt lat="45.27078" lon="4.53969">
        <ele>880</ele>
        <time>2016-07-04T09:01:15Z</time>
      </trkpt>
      <trkpt lat="45.27067" lon="4.53948">
        <ele>880</ele>
        <time>2016-07-04T09:03:15Z</time>
      </trkpt>
      <trkpt lat="45.27053" lon="4.53921">
        <ele>879</ele>
        <time>2016-07-04T09:05:15Z</time>
      </trkpt>
      <trkpt lat="45.27037" lon="4.53896">
        <ele>874</ele>
        <time>2016-07-04T09:07:15Z</time>
      </trkpt>
      <trkpt lat="45.27022" lon="4.53873">
        <ele>874</ele>
        <time>2016-07-04T09:09:15Z</time>
      </trkpt>
      <trkpt lat="45.27009" lon="4.53859">
        <ele>873</ele>
        <time>2016-07-04T09:11:15Z</time>
      </trkpt>
      <trkpt lat="45.27" lon="4.5385">
        <ele>872</ele>
        <time>2016-07-04T09:13:15Z</time>
      </trkpt>
      <trkpt lat="45.26996" lon="4.53846">
        <ele>876</ele>
        <time>2016-07-04T09:15:15Z</time>
      </trkpt>
      <trkpt lat="45.26985" lon="4.53838">
        <ele>876</ele>
        <time>2016-07-04T09:17:15Z</time>
      </trkpt>
      <trkpt lat="45.26976" lon="4.53831">
        <ele>867</ele>
        <time>2016-07-04T09:19:15Z</time>
      </trkpt>
      <trkpt lat="45.26962" lon="4.53821">
        <ele>866</ele>
        <time>2016-07-04T09:21:15Z</time>
      </trkpt>
      <trkpt lat="45.26921" lon="4.53797">
        <ele>865</ele>
        <time>2016-07-04T09:23:15Z</time>
      </trkpt>
      <trkpt lat="45.26902" lon="4.53783">
        <ele>868</ele>
        <time>2016-07-04T09:25:15Z</time>
      </trkpt>
      <trkpt lat="45.26878" lon="4.53761">
        <ele>868</ele>
        <time>2016-07-04T09:27:15Z</time>
      </trkpt>
      <trkpt lat="45.2687" lon="4.53755">
        <ele>868</ele>
        <time>2016-07-04T09:29:15Z</time>
      </trkpt>
      <trkpt lat="45.26848" lon="4.53736">
        <ele>858</ele>
        <time>2016-07-04T09:31:15Z</time>
      </trkpt>
      <trkpt lat="45.26833" lon="4.53722">
        <ele>862</ele>
        <time>2016-07-04T09:33:15Z</time>
      </trkpt>
      <trkpt lat="45.26829" lon="4.53717">
        <ele>861</ele>
        <time>2016-07-04T09:35:15Z</time>
      </trkpt>
      <trkpt lat="45.268" lon="4.53691">
        <ele>859</ele>
        <time>2016-07-04T09:37:15Z</time>
      </trkpt>
      <trkpt lat="45.26773" lon="4.53675">
        <ele>859</ele>
        <time>2016-07-04T09:39:15Z</time>
      </trkpt>
      <trkpt lat="45.26759" lon="4.53671">
        <ele>858</ele>
        <time>2016-07-04T09:41:15Z</time>
      </trkpt>
      <trkpt lat="45.26747" lon="4.53668">
        <ele>858</ele>
        <time>2016-07-04T09:43:15Z</time>
      </trkpt>
      <trkpt lat="45.26737" lon="4.53664">
        <ele>856</ele>
        <time>2016-07-04T09:45:15Z</time>
      </trkpt>
      <trkpt lat="45.26725" lon="4.53658">
        <ele>856</ele>
        <time>2016-07-04T09:47:15Z</time>
      </trkpt>
      <trkpt lat="45.26714" lon="4.53653">
        <ele>857</ele>
        <time>2016-07-04T09:49:15Z</time>
      </trkpt>
      <trkpt lat="45.267" lon="4.53644">
        <ele>858</ele>
        <time>2016-07-04T09:51:15Z</time>
      </trkpt>
      <trkpt lat="45.26689" lon="4.53637">
        <ele>858</ele>
        <time>2016-07-04T09:53:15Z</time>
      </trkpt>
      <trkpt lat="45.2668" lon="4.5363">
        <ele>858</ele>
        <time>2016-07-04T09:55:15Z</time>
      </trkpt>
      <trkpt lat="45.26679" lon="4.53629">
        <ele>858</ele>
        <time>2016-07-04T09:57:15Z</time>
      </trkpt>
      <trkpt lat="45.26668" lon="4.53623">
        <ele>858</ele>
        <time>2016-07-04T09:59:15Z</time>
      </trkpt>
      <trkpt lat="45.26666" lon="4.53621">
        <ele>866</ele>
        <time>2016-07-04T10:01:15Z</time>
      </trkpt>
      <trkpt lat="45.26655" lon="4.53613">
        <ele>866</ele>
        <time>2016-07-04T10:03:15Z</time>
      </trkpt>
      <trkpt lat="45.26617" lon="4.5359">
        <ele>869</ele>
        <time>2016-07-04T10:05:15Z</time>
      </trkpt>
      <trkpt lat="45.26608" lon="4.53582">
        <ele>863</ele>
        <time>2016-07-04T10:07:15Z</time>
      </trkpt>
      <trkpt lat="45.26601" lon="4.53575">
        <ele>864</ele>
        <time>2016-07-04T10:09:15Z</time>
      </trkpt>
      <trkpt lat="45.26595" lon="4.53568">
        <ele>864</ele>
        <time>2016-07-04T10:11:15Z</time>
      </trkpt>
      <trkpt lat="45.2659" lon="4.53558">
        <ele>862</ele>
        <time>2016-07-04T10:13:15Z</time>
      </trkpt>
      <trkpt lat="45.26587" lon="4.53552">
        <ele>861</ele>
        <time>2016-07-04T10:15:15Z</time>
      </trkpt>
      <trkpt lat="45.26583" lon="4.53545">
        <ele>867</ele>
        <time>2016-07-04T10:17:15Z</time>
      </trkpt>
      <trkpt lat="45.26578" lon="4.53539">
        <ele>866</ele>
        <time>2016-07-04T10:19:15Z</time>
      </trkpt>
      <trkpt lat="45.26574" lon="4.53532">
        <ele>865</ele>
        <time>2016-07-04T10:21:15Z</time>
      </trkpt>
      <trkpt lat="45.26568" lon="4.53527">
        <ele>864</ele>
        <time>2016-07-04T10:23:15Z</time>
      </trkpt>
      <trkpt lat="45.26561" lon="4.53521">
        <ele>864</ele>
        <time>2016-07-04T10:25:15Z</time>
      </trkpt>
      <trkpt lat="45.26554" lon="4.53516">
        <ele>864</ele>
        <time>2016-07-04T10:27:15Z</time>
      </trkpt>
      <trkpt lat="45.26545" lon="4.5351">
        <ele>865</ele>
        <time>2016-07-04T10:29:15Z</time>
      </trkpt>
      <trkpt lat="45.26533" lon="4.535">
        <ele>865</ele>
        <time>2016-07-04T10:31:15Z</time>
      </trkpt>
      <trkpt lat="45.26526" lon="4.53494">
        <ele>855</ele>
        <time>2016-07-04T10:33:15Z</time>
      </trkpt>
      <trkpt lat="45.26518" lon="4.53487">
        <ele>855</ele>
        <time>2016-07-04T10:35:15Z</time>
      </trkpt>
      <trkpt lat="45.26511" lon="4.53478">
        <ele>855</ele>
        <time>2016-07-04T10:37:15Z</time>
      </trkpt>
      <trkpt lat="45.26504" lon="4.53469">
        <ele>854</ele>
        <time>2016-07-04T10:39:15Z</time>
      </trkpt>
      <trkpt lat="45.26496" lon="4.53459">
        <ele>861</ele>
        <time>2016-07-04T10:41:15Z</time>
      </trkpt>
      <trkpt lat="45.2649" lon="4.53453">
        <ele>860</ele>
        <time>2016-07-04T10:43:15Z</time>
      </trkpt>
      <trkpt lat="45.26478" lon="4.53444">
        <ele>860</ele>
        <time>2016-07-04T10:45:15Z</time>
      </trkpt>
      <trkpt lat="45.26419" lon="4.534">
        <ele>860</ele>
        <time>2016-07-04T10:47:15Z</time>
      </trkpt>
      <trkpt lat="45.26412" lon="4.53393">
        <ele>866</ele>
        <time>2016-07-04T10:49:15Z</time>
      </trkpt>
      <trkpt lat="45.26409" lon="4.53388">
        <ele>866</ele>
        <time>2016-07-04T10:51:15Z</time>
      </trkpt>
      <trkpt lat="45.26407" lon="4.53382">
        <ele>867</ele>
        <time>2016-07-04T10:53:15Z</time>
      </trkpt>
      <trkpt lat="45.26406" lon="4.53378">
        <ele>867</ele>
        <time>2016-07-04T10:55:15Z</time>
      </trkpt>
      <trkpt lat="45.26406" lon="4.53372">
        <ele>867</ele>
        <time>2016-07-04T10:57:15Z</time>
      </trkpt>
      <trkpt lat="45.26406" lon="4.5337">
        <ele>867</ele>
        <time>2016-07-04T10:59:15Z</time>
      </trkpt>
      <trkpt lat="45.26406" lon="4.53366">
        <ele>867</ele>
        <time>2016-07-04T11:01:15Z</time>
      </trkpt>
      <trkpt lat="45.26406" lon="4.53362">
        <ele>866</ele>
        <time>2016-07-04T11:03:15Z</time>
      </trkpt>
      <trkpt lat="45.26408" lon="4.53356">
        <ele>866</ele>
        <time>2016-07-04T11:05:15Z</time>
      </trkpt>
      <trkpt lat="45.2641" lon="4.53351">
        <ele>865</ele>
        <time>2016-07-04T11:07:15Z</time>
      </trkpt>
      <trkpt lat="45.26414" lon="4.53347">
        <ele>865</ele>
        <time>2016-07-04T11:09:15Z</time>
      </trkpt>
      <trkpt lat="45.26418" lon="4.53343">
        <ele>860</ele>
        <time>2016-07-04T11:11:15Z</time>
      </trkpt>
      <trkpt lat="45.26421" lon="4.53341">
        <ele>860</ele>
        <time>2016-07-04T11:13:15Z</time>
      </trkpt>
      <trkpt lat="45.26426" lon="4.53338">
        <ele>860</ele>
        <time>2016-07-04T11:15:15Z</time>
      </trkpt>
      <trkpt lat="45.26435" lon="4.53334">
        <ele>859</ele>
        <time>2016-07-04T11:17:15Z</time>
      </trkpt>
      <trkpt lat="45.26442" lon="4.53331">
        <ele>862</ele>
        <time>2016-07-04T11:19:15Z</time>
      </trkpt>
      <trkpt lat="45.26457" lon="4.53327">
        <ele>861</ele>
        <time>2016-07-04T11:21:15Z</time>
      </trkpt>
      <trkpt lat="45.26465" lon="4.53325">
        <ele>860</ele>
        <time>2016-07-04T11:23:15Z</time>
      </trkpt>
      <trkpt lat="45.26471" lon="4.53323">
        <ele>859</ele>
        <time>2016-07-04T11:25:15Z</time>
      </trkpt>
      <trkpt lat="45.26475" lon="4.53321">
        <ele>859</ele>
        <time>2016-07-04T11:27:15Z</time>
      </trkpt>
      <trkpt lat="45.26479" lon="4.53319">
        <ele>858</ele>
        <time>2016-07-04T11:29:15Z</time>
      </trkpt>
      <trkpt lat="45.26482" lon="4.53317">
        <ele>858</ele>
        <time>2016-07-04T11:31:15Z</time>
      </trkpt>
      <trkpt lat="45.26486" lon="4.53312">
        <ele>859</ele>
        <time>2016-07-04T11:33:15Z</time>
      </trkpt>
      <trkpt lat="45.2649" lon="4.53307">
        <ele>859</ele>
        <time>2016-07-04T11:35:15Z</time>
      </trkpt>
      <trkpt lat="45.26492" lon="4.53304">
        <ele>859</ele>
        <time>2016-07-04T11:37:15Z</time>
      </trkpt>
      <trkpt lat="45.26493" lon="4.53301">
        <ele>860</ele>
        <time>2016-07-04T11:39:15Z</time>
      </trkpt>
      <trkpt lat="45.26498" lon="4.5329">
        <ele>861</ele>
        <time>2016-07-04T11:41:15Z</time>
      </trkpt>
      <trkpt lat="45.26503" lon="4.53274">
        <ele>853</ele>
        <time>2016-07-04T11:43:15Z</time>
      </trkpt>
      <trkpt lat="45.26506" lon="4.53265">
        <ele>855</ele>
        <time>2016-07-04T11:45:15Z</time>
      </trkpt>
      <trkpt lat="45.26509" lon="4.53257">
        <ele>857</ele>
        <time>2016-07-04T11:47:15Z</time>
      </trkpt>
      <trkpt lat="45.2651" lon="4.53253">
        <ele>857</ele>
        <time>2016-07-04T11:49:15Z</time>
      </trkpt>
      <trkpt lat="45.26513" lon="4.53246">
        <ele>862</ele>
        <time>2016-07-04T11:51:15Z</time>
      </trkpt>
      <trkpt lat="45.26516" lon="4.5324">
        <ele>862</ele>
        <time>2016-07-04T11:53:15Z</time>
      </trkpt>
      <trkpt lat="45.26519" lon="4.53235">
        <ele>862</ele>
        <time>2016-07-04T11:55:15Z</time>
      </trkpt>
      <trkpt lat="45.26523" lon="4.53229">
        <ele>862</ele>
        <time>2016-07-04T11:57:15Z</time>
      </trkpt>
      <trkpt lat="45.2653" lon="4.53223">
        <ele>862</ele>
        <time>2016-07-04T11:59:15Z</time>
      </trkpt>
      <trkpt lat="45.26532" lon="4.5322">
        <ele>862</ele>
        <time>2016-07-04T12:01:15Z</time>
      </trkpt>
      <trkpt lat="45.26534" lon="4.53218">
        <ele>862</ele>
        <time>2016-07-04T12:03:15Z</time>
      </trkpt>
      <trkpt lat="45.26539" lon="4.53212">
        <ele>862</ele>
        <time>2016-07-04T12:05:15Z</time>
      </trkpt>
      <trkpt lat="45.26546" lon="4.53205">
        <ele>862</ele>
        <time>2016-07-04T12:07:15Z</time>
      </trkpt>
      <trkpt lat="45.26553" lon="4.53199">
        <ele>862</ele>
        <time>2016-07-04T12:09:15Z</time>
      </trkpt>
      <trkpt lat="45.26563" lon="4.53193">
        <ele>863</ele>
        <time>2016-07-04T12:11:15Z</time>
      </trkpt>
      <trkpt lat="45.26603" lon="4.5317">
        <ele>856</ele>
        <time>2016-07-04T12:13:15Z</time>
      </trkpt>
      <trkpt lat="45.26656" lon="4.53142">
        <ele>865</ele>
        <time>2016-07-04T12:15:15Z</time>
      </trkpt>
      <trkpt lat="45.26701" lon="4.53123">
        <ele>860</ele>
        <time>2016-07-04T12:17:15Z</time>
      </trkpt>
      <trkpt lat="45.26727" lon="4.53114">
        <ele>860</ele>
        <time>2016-07-04T12:19:15Z</time>
      </trkpt>
      <trkpt lat="45.26755" lon="4.53102">
        <ele>856</ele>
        <time>2016-07-04T12:21:15Z</time>
      </trkpt>
      <trkpt lat="45.26768" lon="4.53098">
        <ele>854</ele>
        <time>2016-07-04T12:23:15Z</time>
      </trkpt>
      <trkpt lat="45.26776" lon="4.53097">
        <ele>853</ele>
        <time>2016-07-04T12:25:15Z</time>
      </trkpt>
      <trkpt lat="45.26785" lon="4.53096">
        <ele>851</ele>
        <time>2016-07-04T12:27:15Z</time>
      </trkpt>
      <trkpt lat="45.2679" lon="4.53096">
        <ele>851</ele>
        <time>2016-07-04T12:29:15Z</time>
      </trkpt>
      <trkpt lat="45.26794" lon="4.53095">
        <ele>850</ele>
        <time>2016-07-04T12:31:15Z</time>
      </trkpt>
      <trkpt lat="45.26802" lon="4.53094">
        <ele>850</ele>
        <time>2016-07-04T12:33:15Z</time>
      </trkpt>
      <trkpt lat="45.26811" lon="4.53092">
        <ele>850</ele>
        <time>2016-07-04T12:35:15Z</time>
      </trkpt>
      <trkpt lat="45.26817" lon="4.5309">
        <ele>850</ele>
        <time>2016-07-04T12:37:15Z</time>
      </trkpt>
      <trkpt lat="45.26824" lon="4.53087">
        <ele>850</ele>
        <time>2016-07-04T12:39:15Z</time>
      </trkpt>
      <trkpt lat="45.26829" lon="4.53084">
        <ele>851</ele>
        <time>2016-07-04T12:41:15Z</time>
      </trkpt>
      <trkpt lat="45.26838" lon="4.53078">
        <ele>853</ele>
        <time>2016-07-04T12:43:15Z</time>
      </trkpt>
      <trkpt lat="45.26848" lon="4.53072">
        <ele>853</ele>
        <time>2016-07-04T12:45:15Z</time>
      </trkpt>
      <trkpt lat="45.26865" lon="4.5306">
        <ele>853</ele>
        <time>2016-07-04T12:47:15Z</time>
      </trkpt>
      <trkpt lat="45.2688" lon="4.53048">
        <ele>853</ele>
        <time>2016-07-04T12:49:15Z</time>
      </trkpt>
      <trkpt lat="45.26885" lon="4.53044">
        <ele>853</ele>
        <time>2016-07-04T12:51:15Z</time>
      </trkpt>
      <trkpt lat="45.26898" lon="4.53029">
        <ele>855</ele>
        <time>2016-07-04T12:53:15Z</time>
      </trkpt>
      <trkpt lat="45.26913" lon="4.53007">
        <ele>858</ele>
        <time>2016-07-04T12:55:15Z</time>
      </trkpt>
      <trkpt lat="45.26926" lon="4.52989">
        <ele>860</ele>
        <time>2016-07-04T12:57:15Z</time>
      </trkpt>
      <trkpt lat="45.26936" lon="4.52975">
        <ele>861</ele>
        <time>2016-07-04T12:59:15Z</time>
      </trkpt>
      <trkpt lat="45.26959" lon="4.52946">
        <ele>862</ele>
        <time>2016-07-04T13:01:15Z</time>
      </trkpt>
      <trkpt lat="45.26962" lon="4.52943">
        <ele>862</ele>
        <time>2016-07-04T13:03:15Z</time>
      </trkpt>
      <trkpt lat="45.26979" lon="4.52916">
        <ele>870</ele>
        <time>2016-07-04T13:05:15Z</time>
      </trkpt>
      <trkpt lat="45.26984" lon="4.52905">
        <ele>870</ele>
        <time>2016-07-04T13:07:15Z</time>
      </trkpt>
      <trkpt lat="45.26994" lon="4.52883">
        <ele>873</ele>
        <time>2016-07-04T13:09:15Z</time>
      </trkpt>
      <trkpt lat="45.26999" lon="4.52869">
        <ele>874</ele>
        <time>2016-07-04T13:11:15Z</time>
      </trkpt>
      <trkpt lat="45.27003" lon="4.52853">
        <ele>862</ele>
        <time>2016-07-04T13:13:15Z</time>
      </trkpt>
      <trkpt lat="45.27006" lon="4.52838">
        <ele>868</ele>
        <time>2016-07-04T13:15:15Z</time>
      </trkpt>
      <trkpt lat="45.27007" lon="4.52822">
        <ele>868</ele>
        <time>2016-07-04T13:17:15Z</time>
      </trkpt>
      <trkpt lat="45.27007" lon="4.52807">
        <ele>866</ele>
        <time>2016-07-04T13:19:15Z</time>
      </trkpt>
      <trkpt lat="45.27007" lon="4.52792">
        <ele>866</ele>
        <time>2016-07-04T13:21:15Z</time>
      </trkpt>
      <trkpt lat="45.27007" lon="4.52784">
        <ele>866</ele>
        <time>2016-07-04T13:23:15Z</time>
      </trkpt>
      <trkpt lat="45.27008" lon="4.52772">
        <ele>868</ele>
        <time>2016-07-04T13:25:15Z</time>
      </trkpt>
      <trkpt lat="45.2701" lon="4.52766">
        <ele>869</ele>
        <time>2016-07-04T13:27:15Z</time>
      </trkpt>
      <trkpt lat="45.27011" lon="4.52764">
        <ele>870</ele>
        <time>2016-07-04T13:29:15Z</time>
      </trkpt>
      <trkpt lat="45.27014" lon="4.52757">
        <ele>870</ele>
        <time>2016-07-04T13:31:15Z</time>
      </trkpt>
      <trkpt lat="45.27017" lon="4.52748">
        <ele>873</ele>
        <time>2016-07-04T13:33:15Z</time>
      </trkpt>
      <trkpt lat="45.27023" lon="4.52737">
        <ele>872</ele>
        <time>2016-07-04T13:35:15Z</time>
      </trkpt>
      <trkpt lat="45.27035" lon="4.52711">
        <ele>870</ele>
        <time>2016-07-04T13:37:15Z</time>
      </trkpt>
      <trkpt lat="45.27044" lon="4.52689">
        <ele>869</ele>
        <time>2016-07-04T13:39:15Z</time>
      </trkpt>
      <trkpt lat="45.27052" lon="4.52668">
        <ele>868</ele>
        <time>2016-07-04T13:41:15Z</time>
      </trkpt>
      <trkpt lat="45.27058" lon="4.52649">
        <ele>872</ele>
        <time>2016-07-04T13:43:15Z</time>
      </trkpt>
      <trkpt lat="45.27064" lon="4.52628">
        <ele>872</ele>
        <time>2016-07-04T13:45:15Z</time>
      </trkpt>
      <trkpt lat="45.2707" lon="4.52608">
        <ele>872</ele>
        <time>2016-07-04T13:47:15Z</time>
      </trkpt>
      <trkpt lat="45.27071" lon="4.52604">
        <ele>871</ele>
        <time>2016-07-04T13:49:15Z</time>
      </trkpt>
      <trkpt lat="45.27075" lon="4.52557">
        <ele>872</ele>
        <time>2016-07-04T13:51:15Z</time>
      </trkpt>
      <trkpt lat="45.27075" lon="4.52548">
        <ele>872</ele>
        <time>2016-07-04T13:53:15Z</time>
      </trkpt>
      <trkpt lat="45.27075" lon="4.52538">
        <ele>872</ele>
        <time>2016-07-04T13:55:15Z</time>
      </trkpt>
      <trkpt lat="45.27075" lon="4.52518">
        <ele>870</ele>
        <time>2016-07-04T13:57:15Z</time>
      </trkpt>
      <trkpt lat="45.27073" lon="4.52493">
        <ele>868</ele>
        <time>2016-07-04T13:59:15Z</time>
      </trkpt>
      <trkpt lat="45.27072" lon="4.52485">
        <ele>868</ele>
        <time>2016-07-04T14:01:15Z</time>
      </trkpt>
      <trkpt lat="45.27071" lon="4.52482">
        <ele>868</ele>
        <time>2016-07-04T14:03:15Z</time>
      </trkpt>
      <trkpt lat="45.27058" lon="4.52439">
        <ele>868</ele>
        <time>2016-07-04T14:05:15Z</time>
      </trkpt>
      <trkpt lat="45.27055" lon="4.52427">
        <ele>868</ele>
        <time>2016-07-04T14:07:15Z</time>
      </trkpt>
      <trkpt lat="45.27055" lon="4.52418">
        <ele>867</ele>
        <time>2016-07-04T14:09:15Z</time>
      </trkpt>
      <trkpt lat="45.27055" lon="4.52415">
        <ele>867</ele>
        <time>2016-07-04T14:11:15Z</time>
      </trkpt>
      <trkpt lat="45.27057" lon="4.52402">
        <ele>867</ele>
        <time>2016-07-04T14:13:15Z</time>
      </trkpt>
      <trkpt lat="45.27062" lon="4.52383">
        <ele>867</ele>
        <time>2016-07-04T14:15:15Z</time>
      </trkpt>
      <trkpt lat="45.27067" lon="4.52369">
        <ele>867</ele>
        <time>2016-07-04T14:17:15Z</time>
      </trkpt>
      <trkpt lat="45.27111" lon="4.52266">
        <ele>864</ele>
        <time>2016-07-04T14:19:15Z</time>
      </trkpt>
      <trkpt lat="45.27128" lon="4.52224">
        <ele>868</ele>
        <time>2016-07-04T14:21:15Z</time>
      </trkpt>
      <trkpt lat="45.27136" lon="4.52196">
        <ele>869</ele>
        <time>2016-07-04T14:23:15Z</time>
      </trkpt>
      <trkpt lat="45.27146" lon="4.52148">
        <ele>870</ele>
        <time>2016-07-04T14:25:15Z</time>
      </trkpt>
      <trkpt lat="45.27154" lon="4.52119">
        <ele>870</ele>
        <time>2016-07-04T14:27:15Z</time>
      </trkpt>
      <trkpt lat="45.27158" lon="4.52104">
        <ele>869</ele>
        <time>2016-07-04T14:29:15Z</time>
      </trkpt>
      <trkpt lat="45.2716" lon="4.5209">
        <ele>868</ele>
        <time>2016-07-04T14:31:15Z</time>
      </trkpt>
      <trkpt lat="45.27158" lon="4.52073">
        <ele>867</ele>
        <time>2016-07-04T14:33:15Z</time>
      </trkpt>
      <trkpt lat="45.27153" lon="4.52059">
        <ele>867</ele>
        <time>2016-07-04T14:35:15Z</time>
      </trkpt>
      <trkpt lat="45.27145" lon="4.52049">
        <ele>867</ele>
        <time>2016-07-04T14:37:15Z</time>
      </trkpt>
      <trkpt lat="45.27143" lon="4.52046">
        <ele>867</ele>
        <time>2016-07-04T14:39:15Z</time>
      </trkpt>
      <trkpt lat="45.2713" lon="4.52031">
        <ele>867</ele>
        <time>2016-07-04T14:41:15Z</time>
      </trkpt>
      <trkpt lat="45.2711" lon="4.52007">
        <ele>868</ele>
        <time>2016-07-04T14:43:15Z</time>
      </trkpt>
      <trkpt lat="45.271" lon="4.51994">
        <ele>866</ele>
        <time>2016-07-04T14:45:15Z</time>
      </trkpt>
      <trkpt lat="45.27092" lon="4.51983">
        <ele>866</ele>
        <time>2016-07-04T14:47:15Z</time>
      </trkpt>
      <trkpt lat="45.27083" lon="4.51971">
        <ele>869</ele>
        <time>2016-07-04T14:49:15Z</time>
      </trkpt>
      <trkpt lat="45.27071" lon="4.5195">
        <ele>869</ele>
        <time>2016-07-04T14:51:15Z</time>
      </trkpt>
      <trkpt lat="45.27064" lon="4.51938">
        <ele>868</ele>
        <time>2016-07-04T14:53:15Z</time>
      </trkpt>
      <trkpt lat="45.27056" lon="4.51928">
        <ele>868</ele>
        <time>2016-07-04T14:55:15Z</time>
      </trkpt>
      <trkpt lat="45.27045" lon="4.51916">
        <ele>864</ele>
        <time>2016-07-04T14:57:15Z</time>
      </trkpt>
      <trkpt lat="45.27035" lon="4.51911">
        <ele>865</ele>
        <time>2016-07-04T14:59:15Z</time>
      </trkpt>
      <trkpt lat="45.27024" lon="4.51907">
        <ele>866</ele>
        <time>2016-07-04T15:01:15Z</time>
      </trkpt>
      <trkpt lat="45.27018" lon="4.51906">
        <ele>867</ele>
        <time>2016-07-04T15:03:15Z</time>
      </trkpt>
      <trkpt lat="45.27011" lon="4.51905">
        <ele>867</ele>
        <time>2016-07-04T15:05:15Z</time>
      </trkpt>
      <trkpt lat="45.26988" lon="4.51903">
        <ele>868</ele>
        <time>2016-07-04T15:07:15Z</time>
      </trkpt>
      <trkpt lat="45.26977" lon="4.51902">
        <ele>867</ele>
        <time>2016-07-04T15:09:15Z</time>
      </trkpt>
      <trkpt lat="45.26967" lon="4.51902">
        <ele>867</ele>
        <time>2016-07-04T15:11:15Z</time>
      </trkpt>
      <trkpt lat="45.26949" lon="4.519">
        <ele>866</ele>
        <time>2016-07-04T15:13:15Z</time>
      </trkpt>
      <trkpt lat="45.26936" lon="4.51899">
        <ele>867</ele>
        <time>2016-07-04T15:15:15Z</time>
      </trkpt>
      <trkpt lat="45.26926" lon="4.51899">
        <ele>867</ele>
        <time>2016-07-04T15:17:15Z</time>
      </trkpt>
      <trkpt lat="45.2692" lon="4.51899">
        <ele>867</ele>
        <time>2016-07-04T15:19:15Z</time>
      </trkpt>
      <trkpt lat="45.26908" lon="4.51898">
        <ele>865</ele>
        <time>2016-07-04T15:21:15Z</time>
      </trkpt>
      <trkpt lat="45.26895" lon="4.51898">
        <ele>864</ele>
        <time>2016-07-04T15:23:15Z</time>
      </trkpt>
      <trkpt lat="45.26887" lon="4.51896">
        <ele>864</ele>
        <time>2016-07-04T15:25:15Z</time>
      </trkpt>
      <trkpt lat="45.2688" lon="4.51894">
        <ele>863</ele>
        <time>2016-07-04T15:27:15Z</time>
      </trkpt>
      <trkpt lat="45.26872" lon="4.51892">
        <ele>863</ele>
        <time>2016-07-04T15:29:15Z</time>
      </trkpt>
      <trkpt lat="45.26866" lon="4.51887">
        <ele>863</ele>
        <time>2016-07-04T15:31:15Z</time>
      </trkpt>
      <trkpt lat="45.26856" lon="4.51882">
        <ele>862</ele>
        <time>2016-07-04T15:33:15Z</time>
      </trkpt>
      <trkpt lat="45.26853" lon="4.5188">
        <ele>862</ele>
        <time>2016-07-04T15:35:15Z</time>
      </trkpt>
      <trkpt lat="45.26848" lon="4.51878">
        <ele>862</ele>
        <time>2016-07-04T15:37:15Z</time>
      </trkpt>
      <trkpt lat="45.26839" lon="4.51875">
        <ele>861</ele>
        <time>2016-07-04T15:39:15Z</time>
      </trkpt>
      <trkpt lat="45.26833" lon="4.51874">
        <ele>862</ele>
        <time>2016-07-04T15:41:15Z</time>
      </trkpt>
      <trkpt lat="45.26828" lon="4.51873">
        <ele>862</ele>
        <time>2016-07-04T15:43:15Z</time>
      </trkpt>
      <trkpt lat="45.26818" lon="4.51872">
        <ele>862</ele>
        <time>2016-07-04T15:45:15Z</time>
      </trkpt>
      <trkpt lat="45.26794" lon="4.51868">
        <ele>863</ele>
        <time>2016-07-04T15:47:15Z</time>
      </trkpt>
      <trkpt lat="45.26788" lon="4.51865">
        <ele>863</ele>
        <time>2016-07-04T15:49:15Z</time>
      </trkpt>
      <trkpt lat="45.26775" lon="4.51852">
        <ele>862</ele>
        <time>2016-07-04T15:51:15Z</time>
      </trkpt>
      <trkpt lat="45.2677" lon="4.51846">
        <ele>861</ele>
        <time>2016-07-04T15:53:15Z</time>
      </trkpt>
      <trkpt lat="45.26766" lon="4.51844">
        <ele>861</ele>
        <time>2016-07-04T15:55:15Z</time>
      </trkpt>
      <trkpt lat="45.26763" lon="4.51842">
        <ele>860</ele>
        <time>2016-07-04T15:57:15Z</time>
      </trkpt>
      <trkpt lat="45.26759" lon="4.51841">
        <ele>860</ele>
        <time>2016-07-04T15:59:15Z</time>
      </trkpt>
      <trkpt lat="45.26755" lon="4.5184">
        <ele>860</ele>
        <time>2016-07-04T16:01:15Z</time>
      </trkpt>
      <trkpt lat="45.26749" lon="4.51839">
        <ele>861</ele>
        <time>2016-07-04T16:03:15Z</time>
      </trkpt>
      <trkpt lat="45.26743" lon="4.51839">
        <ele>862</ele>
        <time>2016-07-04T16:05:15Z</time>
      </trkpt>
      <trkpt lat="45.26736" lon="4.51839">
        <ele>863</ele>
        <time>2016-07-04T16:07:15Z</time>
      </trkpt>
      <trkpt lat="45.26729" lon="4.51838">
        <ele>865</ele>
        <time>2016-07-04T16:09:15Z</time>
      </trkpt>
      <trkpt lat="45.26722" lon="4.51836">
        <ele>866</ele>
        <time>2016-07-04T16:11:15Z</time>
      </trkpt>
      <trkpt lat="45.26715" lon="4.51833">
        <ele>857</ele>
        <time>2016-07-04T16:13:15Z</time>
      </trkpt>
      <trkpt lat="45.2671" lon="4.51831">
        <ele>857</ele>
        <time>2016-07-04T16:15:15Z</time>
      </trkpt>
      <trkpt lat="45.26705" lon="4.51827">
        <ele>857</ele>
        <time>2016-07-04T16:17:15Z</time>
      </trkpt>
      <trkpt lat="45.26702" lon="4.51825">
        <ele>857</ele>
        <time>2016-07-04T16:19:15Z</time>
      </trkpt>
      <trkpt lat="45.267" lon="4.51823">
        <ele>857</ele>
        <time>2016-07-04T16:21:15Z</time>
      </trkpt>
      <trkpt lat="45.26694" lon="4.51819">
        <ele>857</ele>
        <time>2016-07-04T16:23:15Z</time>
      </trkpt>
      <trkpt lat="45.26687" lon="4.51817">
        <ele>858</ele>
        <time>2016-07-04T16:25:15Z</time>
      </trkpt>
      <trkpt lat="45.26682" lon="4.51816">
        <ele>858</ele>
        <time>2016-07-04T16:27:15Z</time>
      </trkpt>
      <trkpt lat="45.26676" lon="4.51815">
        <ele>859</ele>
        <time>2016-07-04T16:29:15Z</time>
      </trkpt>
      <trkpt lat="45.26669" lon="4.51815">
        <ele>859</ele>
        <time>2016-07-04T16:31:15Z</time>
      </trkpt>
      <trkpt lat="45.26661" lon="4.51814">
        <ele>864</ele>
        <time>2016-07-04T16:33:15Z</time>
      </trkpt>
      <trkpt lat="45.26636" lon="4.51797">
        <ele>864</ele>
        <time>2016-07-04T16:35:15Z</time>
      </trkpt>
      <trkpt lat="45.26623" lon="4.51787">
        <ele>864</ele>
        <time>2016-07-04T16:37:15Z</time>
      </trkpt>
      <trkpt lat="45.26616" lon="4.51778">
        <ele>864</ele>
        <time>2016-07-04T16:39:15Z</time>
      </trkpt>
      <trkpt lat="45.26614" lon="4.51773">
        <ele>864</ele>
        <time>2016-07-04T16:41:15Z</time>
      </trkpt>
      <trkpt lat="45.26613" lon="4.5177">
        <ele>864</ele>
        <time>2016-07-04T16:43:15Z</time>
      </trkpt>
      <trkpt lat="45.26613" lon="4.51766">
        <ele>864</ele>
        <time>2016-07-04T16:45:15Z</time>
      </trkpt>
      <trkpt lat="45.26613" lon="4.51759">
        <ele>863</ele>
        <time>2016-07-04T16:47:15Z</time>
      </trkpt>
      <trkpt lat="45.26613" lon="4.51751">
        <ele>863</ele>
        <time>2016-07-04T16:49:15Z</time>
      </trkpt>
      <trkpt lat="45.26615" lon="4.51745">
        <ele>861</ele>
        <time>2016-07-04T16:51:15Z</time>
      </trkpt>
      <trkpt lat="45.26617" lon="4.51739">
        <ele>861</ele>
        <time>2016-07-04T16:53:15Z</time>
      </trkpt>
      <trkpt lat="45.2662" lon="4.51733">
        <ele>861</ele>
        <time>2016-07-04T16:55:15Z</time>
      </trkpt>
      <trkpt lat="45.26625" lon="4.51726">
        <ele>861</ele>
        <time>2016-07-04T16:57:15Z</time>
      </trkpt>
      <trkpt lat="45.26632" lon="4.5172">
        <ele>861</ele>
        <time>2016-07-04T16:59:15Z</time>
      </trkpt>
      <trkpt lat="45.26641" lon="4.51715">
        <ele>860</ele>
        <time>2016-07-04T17:01:15Z</time>
      </trkpt>
      <trkpt lat="45.26701" lon="4.51689">
        <ele>852</ele>
        <time>2016-07-04T17:03:15Z</time>
      </trkpt>
      <trkpt lat="45.26731" lon="4.51676">
        <ele>848</ele>
        <time>2016-07-04T17:05:15Z</time>
      </trkpt>
      <trkpt lat="45.26741" lon="4.51669">
        <ele>847</ele>
        <time>2016-07-04T17:07:15Z</time>
      </trkpt>
      <trkpt lat="45.26762" lon="4.51651">
        <ele>840</ele>
        <time>2016-07-04T17:09:15Z</time>
      </trkpt>
      <trkpt lat="45.2677" lon="4.51641">
        <ele>839</ele>
        <time>2016-07-04T17:11:15Z</time>
      </trkpt>
      <trkpt lat="45.26777" lon="4.51634">
        <ele>838</ele>
        <time>2016-07-04T17:13:15Z</time>
      </trkpt>
      <trkpt lat="45.2678" lon="4.5163">
        <ele>838</ele>
        <time>2016-07-04T17:15:15Z</time>
      </trkpt>
      <trkpt lat="45.26784" lon="4.51625">
        <ele>837</ele>
        <time>2016-07-04T17:17:15Z</time>
      </trkpt>
      <trkpt lat="45.26807" lon="4.51573">
        <ele>840</ele>
        <time>2016-07-04T17:19:15Z</time>
      </trkpt>
      <trkpt lat="45.26812" lon="4.51561">
        <ele>840</ele>
        <time>2016-07-04T17:21:15Z</time>
      </trkpt>
      <trkpt lat="45.26825" lon="4.51533">
        <ele>841</ele>
        <time>2016-07-04T17:23:15Z</time>
      </trkpt>
      <trkpt lat="45.26846" lon="4.5149">
        <ele>834</ele>
        <time>2016-07-04T17:25:15Z</time>
      </trkpt>
      <trkpt lat="45.26852" lon="4.5148">
        <ele>834</ele>
        <time>2016-07-04T17:27:15Z</time>
      </trkpt>
      <trkpt lat="45.26862" lon="4.51461">
        <ele>834</ele>
        <time>2016-07-04T17:29:15Z</time>
      </trkpt>
      <trkpt lat="45.26874" lon="4.51447">
        <ele>834</ele>
        <time>2016-07-04T17:31:15Z</time>
      </trkpt>
      <trkpt lat="45.26878" lon="4.51443">
        <ele>833</ele>
        <time>2016-07-04T17:33:15Z</time>
      </trkpt>
      <trkpt lat="45.26882" lon="4.51438">
        <ele>833</ele>
        <time>2016-07-04T17:35:15Z</time>
      </trkpt>
      <trkpt lat="45.26888" lon="4.5143">
        <ele>832</ele>
        <time>2016-07-04T17:37:15Z</time>
      </trkpt>
      <trkpt lat="45.26906" lon="4.51406">
        <ele>836</ele>
        <time>2016-07-04T17:39:15Z</time>
      </trkpt>
      <trkpt lat="45.26914" lon="4.51396">
        <ele>838</ele>
        <time>2016-07-04T17:41:15Z</time>
      </trkpt>
      <trkpt lat="45.26922" lon="4.51387">
        <ele>825</ele>
        <time>2016-07-04T17:43:15Z</time>
      </trkpt>
      <trkpt lat="45.26933" lon="4.51377">
        <ele>824</ele>
        <time>2016-07-04T17:45:15Z</time>
      </trkpt>
      <trkpt lat="45.26959" lon="4.51356">
        <ele>822</ele>
        <time>2016-07-04T17:47:15Z</time>
      </trkpt>
      <trkpt lat="45.2697" lon="4.51342">
        <ele>821</ele>
        <time>2016-07-04T17:49:15Z</time>
      </trkpt>
      <trkpt lat="45.26978" lon="4.51334">
        <ele>820</ele>
        <time>2016-07-04T17:51:15Z</time>
      </trkpt>
      <trkpt lat="45.26986" lon="4.51322">
        <ele>824</ele>
        <time>2016-07-04T17:53:15Z</time>
      </trkpt>
      <trkpt lat="45.26992" lon="4.51309">
        <ele>825</ele>
        <time>2016-07-04T17:55:15Z</time>
      </trkpt>
      <trkpt lat="45.26998" lon="4.51293">
        <ele>826</ele>
        <time>2016-07-04T17:57:15Z</time>
      </trkpt>
      <trkpt lat="45.27004" lon="4.51276">
        <ele>815</ele>
        <time>2016-07-04T17:59:15Z</time>
      </trkpt>
      <trkpt lat="45.27008" lon="4.51259">
        <ele>818</ele>
        <time>2016-07-04T18:01:15Z</time>
      </trkpt>
      <trkpt lat="45.27012" lon="4.51242">
        <ele>819</ele>
        <time>2016-07-04T18:03:15Z</time>
      </trkpt>
      <trkpt lat="45.27015" lon="4.5122">
        <ele>817</ele>
        <time>2016-07-04T18:05:15Z</time>
      </trkpt>
      <trkpt lat="45.27017" lon="4.51199">
        <ele>817</ele>
        <time>2016-07-04T18:07:15Z</time>
      </trkpt>
      <trkpt lat="45.27019" lon="4.51182">
        <ele>818</ele>
        <time>2016-07-04T18:09:15Z</time>
      </trkpt>
      <trkpt lat="45.27018" lon="4.51166">
        <ele>819</ele>
        <time>2016-07-04T18:11:15Z</time>
      </trkpt>
      <trkpt lat="45.27017" lon="4.51152">
        <ele>818</ele>
        <time>2016-07-04T18:13:15Z</time>
      </trkpt>
      <trkpt lat="45.27017" lon="4.51136">
        <ele>817</ele>
        <time>2016-07-04T18:15:15Z</time>
      </trkpt>
      <trkpt lat="45.27019" lon="4.51124">
        <ele>817</ele>
        <time>2016-07-04T18:17:15Z</time>
      </trkpt>
      <trkpt lat="45.27021" lon="4.5111">
        <ele>817</ele>
        <time>2016-07-04T18:19:15Z</time>
      </trkpt>
      <trkpt lat="45.27025" lon="4.51099">
        <ele>817</ele>
        <time>2016-07-04T18:21:15Z</time>
      </trkpt>
      <trkpt lat="45.27026" lon="4.5109">
        <ele>817</ele>
        <time>2016-07-04T18:23:15Z</time>
      </trkpt>
      <trkpt lat="45.27029" lon="4.51076">
        <ele>816</ele>
        <time>2016-07-04T18:25:15Z</time>
      </trkpt>
      <trkpt lat="45.27031" lon="4.5106">
        <ele>815</ele>
        <time>2016-07-04T18:27:15Z</time>
      </trkpt>
      <trkpt lat="45.27035" lon="4.51034">
        <ele>813</ele>
        <time>2016-07-04T18:29:15Z</time>
      </trkpt>
      <trkpt lat="45.27038" lon="4.51014">
        <ele>813</ele>
        <time>2016-07-04T18:31:15Z</time>
      </trkpt>
      <trkpt lat="45.2704" lon="4.50998">
        <ele>813</ele>
        <time>2016-07-04T18:33:15Z</time>
      </trkpt>
      <trkpt lat="45.27044" lon="4.50982">
        <ele>812</ele>
        <time>2016-07-04T18:35:15Z</time>
      </trkpt>
      <trkpt lat="45.27048" lon="4.50966">
        <ele>812</ele>
        <time>2016-07-04T18:37:15Z</time>
      </trkpt>
      <trkpt lat="45.27051" lon="4.50952">
        <ele>812</ele>
        <time>2016-07-04T18:39:15Z</time>
      </trkpt>
      <trkpt lat="45.27055" lon="4.50928">
        <ele>811</ele>
        <time>2016-07-04T18:41:15Z</time>
      </trkpt>
      <trkpt lat="45.27058" lon="4.50906">
        <ele>812</ele>
        <time>2016-07-04T18:43:15Z</time>
      </trkpt>
      <trkpt lat="45.27059" lon="4.5089">
        <ele>813</ele>
        <time>2016-07-04T18:45:15Z</time>
      </trkpt>
      <trkpt lat="45.2706" lon="4.50881">
        <ele>813</ele>
        <time>2016-07-04T18:47:15Z</time>
      </trkpt>
      <trkpt lat="45.2706" lon="4.50873">
        <ele>813</ele>
        <time>2016-07-04T18:49:15Z</time>
      </trkpt>
      <trkpt lat="45.27058" lon="4.50856">
        <ele>813</ele>
        <time>2016-07-04T18:51:15Z</time>
      </trkpt>
      <trkpt lat="45.27058" lon="4.50842">
        <ele>812</ele>
        <time>2016-07-04T18:53:15Z</time>
      </trkpt>
      <trkpt lat="45.27055" lon="4.50809">
        <ele>812</ele>
        <time>2016-07-04T18:55:15Z</time>
      </trkpt>
      <trkpt lat="45.27055" lon="4.50797">
        <ele>812</ele>
        <time>2016-07-04T18:57:15Z</time>
      </trkpt>
      <trkpt lat="45.27055" lon="4.50791">
        <ele>812</ele>
        <time>2016-07-04T18:59:15Z</time>
      </trkpt>
      <trkpt lat="45.27054" lon="4.50787">
        <ele>812</ele>
        <time>2016-07-04T19:01:15Z</time>
      </trkpt>
      <trkpt lat="45.27051" lon="4.50766">
        <ele>811</ele>
        <time>2016-07-04T19:03:15Z</time>
      </trkpt>
      <trkpt lat="45.27049" lon="4.50751">
        <ele>811</ele>
        <time>2016-07-04T19:05:15Z</time>
      </trkpt>
      <trkpt lat="45.27046" lon="4.50734">
        <ele>805</ele>
        <time>2016-07-04T19:07:15Z</time>
      </trkpt>
      <trkpt lat="45.27043" lon="4.50716">
        <ele>805</ele>
        <time>2016-07-04T19:09:15Z</time>
      </trkpt>
      <trkpt lat="45.27036" lon="4.50688">
        <ele>804</ele>
        <time>2016-07-04T19:11:15Z</time>
      </trkpt>
      <trkpt lat="45.2703" lon="4.50675">
        <ele>804</ele>
        <time>2016-07-04T19:13:15Z</time>
      </trkpt>
      <trkpt lat="45.27025" lon="4.50663">
        <ele>797</ele>
        <time>2016-07-04T19:15:15Z</time>
      </trkpt>
      <trkpt lat="45.27015" lon="4.50645">
        <ele>797</ele>
        <time>2016-07-04T19:17:15Z</time>
      </trkpt>
      <trkpt lat="45.27011" lon="4.50637">
        <ele>796</ele>
        <time>2016-07-04T19:19:15Z</time>
      </trkpt>
      <trkpt lat="45.27001" lon="4.50624">
        <ele>794</ele>
        <time>2016-07-04T19:21:15Z</time>
      </trkpt>
      <trkpt lat="45.26992" lon="4.50615">
        <ele>801</ele>
        <time>2016-07-04T19:23:15Z</time>
      </trkpt>
      <trkpt lat="45.26982" lon="4.50605">
        <ele>800</ele>
        <time>2016-07-04T19:25:15Z</time>
      </trkpt>
      <trkpt lat="45.26973" lon="4.50598">
        <ele>801</ele>
        <time>2016-07-04T19:27:15Z</time>
      </trkpt>
      <trkpt lat="45.26953" lon="4.50582">
        <ele>792</ele>
        <time>2016-07-04T19:29:15Z</time>
      </trkpt>
      <trkpt lat="45.26941" lon="4.50572">
        <ele>792</ele>
        <time>2016-07-04T19:31:15Z</time>
      </trkpt>
      <trkpt lat="45.2693" lon="4.50565">
        <ele>793</ele>
        <time>2016-07-04T19:33:15Z</time>
      </trkpt>
      <trkpt lat="45.2692" lon="4.50559">
        <ele>793</ele>
        <time>2016-07-04T19:35:15Z</time>
      </trkpt>
      <trkpt lat="45.26911" lon="4.50553">
        <ele>797</ele>
        <time>2016-07-04T19:37:15Z</time>
      </trkpt>
      <trkpt lat="45.269" lon="4.50546">
        <ele>797</ele>
        <time>2016-07-04T19:39:15Z</time>
      </trkpt>
      <trkpt lat="45.2689" lon="4.50538">
        <ele>797</ele>
        <time>2016-07-04T19:41:15Z</time>
      </trkpt>
      <trkpt lat="45.26876" lon="4.50528">
        <ele>797</ele>
        <time>2016-07-04T19:43:15Z</time>
      </trkpt>
      <trkpt lat="45.26871" lon="4.50523">
        <ele>797</ele>
        <time>2016-07-04T19:45:15Z</time>
      </trkpt>
      <trkpt lat="45.26867" lon="4.50519">
        <ele>797</ele>
        <time>2016-07-04T19:47:15Z</time>
      </trkpt>
      <trkpt lat="45.26862" lon="4.50509">
        <ele>796</ele>
        <time>2016-07-04T19:49:15Z</time>
      </trkpt>
      <trkpt lat="45.26854" lon="4.50489">
        <ele>792</ele>
        <time>2016-07-04T19:51:15Z</time>
      </trkpt>
      <trkpt lat="45.26849" lon="4.50478">
        <ele>791</ele>
        <time>2016-07-04T19:53:15Z</time>
      </trkpt>
      <trkpt lat="45.26838" lon="4.50459">
        <ele>790</ele>
        <time>2016-07-04T19:55:15Z</time>
      </trkpt>
      <trkpt lat="45.26832" lon="4.50446">
        <ele>795</ele>
        <time>2016-07-04T19:57:15Z</time>
      </trkpt>
      <trkpt lat="45.26821" lon="4.5043">
        <ele>794</ele>
        <time>2016-07-04T19:59:15Z</time>
      </trkpt>
      <trkpt lat="45.26818" lon="4.50425">
        <ele>794</ele>
        <time>2016-07-04T20:01:15Z</time>
      </trkpt>
      <trkpt lat="45.26814" lon="4.50418">
        <ele>794</ele>
        <time>2016-07-04T20:03:15Z</time>
      </trkpt>
      <trkpt lat="45.26807" lon="4.50404">
        <ele>792</ele>
        <time>2016-07-04T20:05:15Z</time>
      </trkpt>
      <trkpt lat="45.26804" lon="4.50394">
        <ele>792</ele>
        <time>2016-07-04T20:07:15Z</time>
      </trkpt>
      <trkpt lat="45.26804" lon="4.50393">
        <ele>792</ele>
        <time>2016-07-04T20:09:15Z</time>
      </trkpt>
      <trkpt lat="45.26802" lon="4.50384">
        <ele>792</ele>
        <time>2016-07-04T20:11:15Z</time>
      </trkpt>
      <trkpt lat="45.26803" lon="4.50374">
        <ele>792</ele>
        <time>2016-07-04T20:13:15Z</time>
      </trkpt>
      <trkpt lat="45.26808" lon="4.50368">
        <ele>791</ele>
        <time>2016-07-04T20:15:15Z</time>
      </trkpt>
      <trkpt lat="45.26811" lon="4.50363">
        <ele>791</ele>
        <time>2016-07-04T20:17:15Z</time>
      </trkpt>
      <trkpt lat="45.26816" lon="4.50361">
        <ele>790</ele>
        <time>2016-07-04T20:19:15Z</time>
      </trkpt>
      <trkpt lat="45.26821" lon="4.5036">
        <ele>790</ele>
        <time>2016-07-04T20:21:15Z</time>
      </trkpt>
      <trkpt lat="45.26826" lon="4.50358">
        <ele>789</ele>
        <time>2016-07-04T20:23:15Z</time>
      </trkpt>
      <trkpt lat="45.26832" lon="4.50354">
        <ele>789</ele>
        <time>2016-07-04T20:25:15Z</time>
      </trkpt>
      <trkpt lat="45.26838" lon="4.50347">
        <ele>784</ele>
        <time>2016-07-04T20:27:15Z</time>
      </trkpt>
      <trkpt lat="45.2684" lon="4.50345">
        <ele>784</ele>
        <time>2016-07-04T20:29:15Z</time>
      </trkpt>
      <trkpt lat="45.26847" lon="4.5034">
        <ele>783</ele>
        <time>2016-07-04T20:31:15Z</time>
      </trkpt>
      <trkpt lat="45.26851" lon="4.50336">
        <ele>783</ele>
        <time>2016-07-04T20:33:15Z</time>
      </trkpt>
      <trkpt lat="45.26854" lon="4.50326">
        <ele>779</ele>
        <time>2016-07-04T20:35:15Z</time>
      </trkpt>
      <trkpt lat="45.26856" lon="4.50321">
        <ele>779</ele>
        <time>2016-07-04T20:37:15Z</time>
      </trkpt>
      <trkpt lat="45.26857" lon="4.50313">
        <ele>778</ele>
        <time>2016-07-04T20:39:15Z</time>
      </trkpt>
      <trkpt lat="45.26858" lon="4.50305">
        <ele>777</ele>
        <time>2016-07-04T20:41:15Z</time>
      </trkpt>
      <trkpt lat="45.26858" lon="4.50299">
        <ele>777</ele>
        <time>2016-07-04T20:43:15Z</time>
      </trkpt>
      <trkpt lat="45.26857" lon="4.50295">
        <ele>777</ele>
        <time>2016-07-04T20:45:15Z</time>
      </trkpt>
      <trkpt lat="45.26857" lon="4.50293">
        <ele>777</ele>
        <time>2016-07-04T20:47:15Z</time>
      </trkpt>
      <trkpt lat="45.26856" lon="4.50289">
        <ele>777</ele>
        <time>2016-07-04T20:49:15Z</time>
      </trkpt>
      <trkpt lat="45.26855" lon="4.50282">
        <ele>777</ele>
        <time>2016-07-04T20:51:15Z</time>
      </trkpt>
      <trkpt lat="45.26852" lon="4.50275">
        <ele>777</ele>
        <time>2016-07-04T20:53:15Z</time>
      </trkpt>
      <trkpt lat="45.26846" lon="4.50267">
        <ele>777</ele>
        <time>2016-07-04T20:55:15Z</time>
      </trkpt>
      <trkpt lat="45.26841" lon="4.50262">
        <ele>777</ele>
        <time>2016-07-04T20:57:15Z</time>
      </trkpt>
      <trkpt lat="45.26833" lon="4.50257">
        <ele>780</ele>
        <time>2016-07-04T20:59:15Z</time>
      </trkpt>
      <trkpt lat="45.26827" lon="4.50253">
        <ele>780</ele>
        <time>2016-07-04T21:01:15Z</time>
      </trkpt>
      <trkpt lat="45.26823" lon="4.50251">
        <ele>781</ele>
        <time>2016-07-04T21:03:15Z</time>
      </trkpt>
      <trkpt lat="45.2681" lon="4.50241">
        <ele>781</ele>
        <time>2016-07-04T21:05:15Z</time>
      </trkpt>
      <trkpt lat="45.26809" lon="4.5024">
        <ele>781</ele>
        <time>2016-07-04T21:07:15Z</time>
      </trkpt>
      <trkpt lat="45.26803" lon="4.50234">
        <ele>781</ele>
        <time>2016-07-04T21:09:15Z</time>
      </trkpt>
      <trkpt lat="45.26799" lon="4.50228">
        <ele>782</ele>
        <time>2016-07-04T21:11:15Z</time>
      </trkpt>
      <trkpt lat="45.26795" lon="4.50219">
        <ele>782</ele>
        <time>2016-07-04T21:13:15Z</time>
      </trkpt>
      <trkpt lat="45.26793" lon="4.5021">
        <ele>782</ele>
        <time>2016-07-04T21:15:15Z</time>
      </trkpt>
      <trkpt lat="45.26791" lon="4.50201">
        <ele>782</ele>
        <time>2016-07-04T21:17:15Z</time>
      </trkpt>
      <trkpt lat="45.2679" lon="4.50192">
        <ele>782</ele>
        <time>2016-07-04T21:19:15Z</time>
      </trkpt>
      <trkpt lat="45.26788" lon="4.50179">
        <ele>782</ele>
        <time>2016-07-04T21:21:15Z</time>
      </trkpt>
      <trkpt lat="45.26789" lon="4.5017">
        <ele>782</ele>
        <time>2016-07-04T21:23:15Z</time>
      </trkpt>
      <trkpt lat="45.26791" lon="4.5016">
        <ele>781</ele>
        <time>2016-07-04T21:25:15Z</time>
      </trkpt>
      <trkpt lat="45.26791" lon="4.50156">
        <ele>781</ele>
        <time>2016-07-04T21:27:15Z</time>
      </trkpt>
      <trkpt lat="45.26798" lon="4.50146">
        <ele>781</ele>
        <time>2016-07-04T21:29:15Z</time>
      </trkpt>
      <trkpt lat="45.26802" lon="4.5014">
        <ele>780</ele>
        <time>2016-07-04T21:31:15Z</time>
      </trkpt>
      <trkpt lat="45.26808" lon="4.50135">
        <ele>780</ele>
        <time>2016-07-04T21:33:15Z</time>
      </trkpt>
      <trkpt lat="45.26815" lon="4.5013">
        <ele>779</ele>
        <time>2016-07-04T21:35:15Z</time>
      </trkpt>
      <trkpt lat="45.2682" lon="4.50126">
        <ele>779</ele>
        <time>2016-07-04T21:37:15Z</time>
      </trkpt>
      <trkpt lat="45.26827" lon="4.5012">
        <ele>778</ele>
        <time>2016-07-04T21:39:15Z</time>
      </trkpt>
      <trkpt lat="45.26838" lon="4.5011">
        <ele>765</ele>
        <time>2016-07-04T21:41:15Z</time>
      </trkpt>
      <trkpt lat="45.26843" lon="4.50104">
        <ele>765</ele>
        <time>2016-07-04T21:43:15Z</time>
      </trkpt>
      <trkpt lat="45.26847" lon="4.50098">
        <ele>765</ele>
        <time>2016-07-04T21:45:15Z</time>
      </trkpt>
      <trkpt lat="45.26851" lon="4.50089">
        <ele>765</ele>
        <time>2016-07-04T21:47:15Z</time>
      </trkpt>
      <trkpt lat="45.26851" lon="4.5008">
        <ele>762</ele>
        <time>2016-07-04T21:49:15Z</time>
      </trkpt>
      <trkpt lat="45.2685" lon="4.50072">
        <ele>762</ele>
        <time>2016-07-04T21:51:15Z</time>
      </trkpt>
      <trkpt lat="45.26846" lon="4.5006">
        <ele>761</ele>
        <time>2016-07-04T21:53:15Z</time>
      </trkpt>
      <trkpt lat="45.26842" lon="4.5005">
        <ele>760</ele>
        <time>2016-07-04T21:55:15Z</time>
      </trkpt>
      <trkpt lat="45.26837" lon="4.50038">
        <ele>759</ele>
        <time>2016-07-04T21:57:15Z</time>
      </trkpt>
      <trkpt lat="45.26834" lon="4.50025">
        <ele>760</ele>
        <time>2016-07-04T21:59:15Z</time>
      </trkpt>
      <trkpt lat="45.26832" lon="4.50008">
        <ele>770</ele>
        <time>2016-07-04T22:01:15Z</time>
      </trkpt>
      <trkpt lat="45.2683" lon="4.49992">
        <ele>768</ele>
        <time>2016-07-04T22:03:15Z</time>
      </trkpt>
      <trkpt lat="45.26828" lon="4.49975">
        <ele>770</ele>
        <time>2016-07-04T22:05:15Z</time>
      </trkpt>
      <trkpt lat="45.26828" lon="4.49971">
        <ele>770</ele>
        <time>2016-07-04T22:07:15Z</time>
      </trkpt>
      <trkpt lat="45.26823" lon="4.4995">
        <ele>769</ele>
        <time>2016-07-04T22:09:15Z</time>
      </trkpt>
      <trkpt lat="45.26819" lon="4.4993">
        <ele>766</ele>
        <time>2016-07-04T22:11:15Z</time>
      </trkpt>
      <trkpt lat="45.26811" lon="4.49907">
        <ele>762</ele>
        <time>2016-07-04T22:13:15Z</time>
      </trkpt>
      <trkpt lat="45.26794" lon="4.4986">
        <ele>763</ele>
        <time>2016-07-04T22:15:15Z</time>
      </trkpt>
      <trkpt lat="45.26793" lon="4.49859">
        <ele>763</ele>
        <time>2016-07-04T22:17:15Z</time>
      </trkpt>
      <trkpt lat="45.26786" lon="4.49832">
        <ele>757</ele>
        <time>2016-07-04T22:19:15Z</time>
      </trkpt>
      <trkpt lat="45.26786" lon="4.49828">
        <ele>757</ele>
        <time>2016-07-04T22:21:15Z</time>
      </trkpt>
      <trkpt lat="45.26782" lon="4.49807">
        <ele>757</ele>
        <time>2016-07-04T22:23:15Z</time>
      </trkpt>
      <trkpt lat="45.26779" lon="4.49767">
        <ele>756</ele>
        <time>2016-07-04T22:25:15Z</time>
      </trkpt>
      <trkpt lat="45.26775" lon="4.49736">
        <ele>751</ele>
        <time>2016-07-04T22:27:15Z</time>
      </trkpt>
      <trkpt lat="45.26773" lon="4.49724">
        <ele>750</ele>
        <time>2016-07-04T22:29:15Z</time>
      </trkpt>
      <trkpt lat="45.26769" lon="4.49711">
        <ele>749</ele>
        <time>2016-07-04T22:31:15Z</time>
      </trkpt>
      <trkpt lat="45.26765" lon="4.49701">
        <ele>748</ele>
        <time>2016-07-04T22:33:15Z</time>
      </trkpt>
      <trkpt lat="45.26763" lon="4.49698">
        <ele>748</ele>
        <time>2016-07-04T22:35:15Z</time>
      </trkpt>
      <trkpt lat="45.26739" lon="4.49658">
        <ele>753</ele>
        <time>2016-07-04T22:37:15Z</time>
      </trkpt>
      <trkpt lat="45.26735" lon="4.49653">
        <ele>754</ele>
        <time>2016-07-04T22:39:15Z</time>
      </trkpt>
      <trkpt lat="45.26731" lon="4.49643">
        <ele>755</ele>
        <time>2016-07-04T22:41:15Z</time>
      </trkpt>
      <trkpt lat="45.26722" lon="4.49617">
        <ele>754</ele>
        <time>2016-07-04T22:43:15Z</time>
      </trkpt>
      <trkpt lat="45.26715" lon="4.49596">
        <ele>753</ele>
        <time>2016-07-04T22:45:15Z</time>
      </trkpt>
      <trkpt lat="45.26705" lon="4.49573">
        <ele>747</ele>
        <time>2016-07-04T22:47:15Z</time>
      </trkpt>
      <trkpt lat="45.26699" lon="4.49564">
        <ele>748</ele>
        <time>2016-07-04T22:49:15Z</time>
      </trkpt>
      <trkpt lat="45.26694" lon="4.49559">
        <ele>748</ele>
        <time>2016-07-04T22:51:15Z</time>
      </trkpt>
      <trkpt lat="45.26679" lon="4.49543">
        <ele>748</ele>
        <time>2016-07-04T22:53:15Z</time>
      </trkpt>
      <trkpt lat="45.26667" lon="4.49526">
        <ele>746</ele>
        <time>2016-07-04T22:55:15Z</time>
      </trkpt>
      <trkpt lat="45.26664" lon="4.49516">
        <ele>751</ele>
        <time>2016-07-04T22:57:15Z</time>
      </trkpt>
      <trkpt lat="45.26664" lon="4.49507">
        <ele>748</ele>
        <time>2016-07-04T22:59:15Z</time>
      </trkpt>
      <trkpt lat="45.26664" lon="4.49498">
        <ele>745</ele>
        <time>2016-07-04T23:01:15Z</time>
      </trkpt>
      <trkpt lat="45.26666" lon="4.49486">
        <ele>748</ele>
        <time>2016-07-04T23:03:15Z</time>
      </trkpt>
      <trkpt lat="45.2667" lon="4.49479">
        <ele>746</ele>
        <time>2016-07-04T23:05:15Z</time>
      </trkpt>
      <trkpt lat="45.2667" lon="4.49476">
        <ele>746</ele>
        <time>2016-07-04T23:07:15Z</time>
      </trkpt>
      <trkpt lat="45.26676" lon="4.49471">
        <ele>746</ele>
        <time>2016-07-04T23:09:15Z</time>
      </trkpt>
      <trkpt lat="45.26682" lon="4.49466">
        <ele>747</ele>
        <time>2016-07-04T23:11:15Z</time>
      </trkpt>
      <trkpt lat="45.26705" lon="4.49456">
        <ele>747</ele>
        <time>2016-07-04T23:13:15Z</time>
      </trkpt>
      <trkpt lat="45.26759" lon="4.49439">
        <ele>747</ele>
        <time>2016-07-04T23:15:15Z</time>
      </trkpt>
      <trkpt lat="45.26764" lon="4.49437">
        <ele>747</ele>
        <time>2016-07-04T23:17:15Z</time>
      </trkpt>
      <trkpt lat="45.26781" lon="4.49435">
        <ele>747</ele>
        <time>2016-07-04T23:19:15Z</time>
      </trkpt>
      <trkpt lat="45.26804" lon="4.49439">
        <ele>747</ele>
        <time>2016-07-04T23:21:15Z</time>
      </trkpt>
      <trkpt lat="45.26841" lon="4.49449">
        <ele>748</ele>
        <time>2016-07-04T23:23:15Z</time>
      </trkpt>
      <trkpt lat="45.26844" lon="4.49449">
        <ele>748</ele>
        <time>2016-07-04T23:25:15Z</time>
      </trkpt>
      <trkpt lat="45.26846" lon="4.49449">
        <ele>748</ele>
        <time>2016-07-04T23:27:15Z</time>
      </trkpt>
      <trkpt lat="45.26849" lon="4.49448">
        <ele>748</ele>
        <time>2016-07-04T23:29:15Z</time>
      </trkpt>
      <trkpt lat="45.26852" lon="4.49445">
        <ele>748</ele>
        <time>2016-07-04T23:31:15Z</time>
      </trkpt>
      <trkpt lat="45.26852" lon="4.49445">
        <ele>748</ele>
        <time>2016-07-04T23:33:15Z</time>
      </trkpt>
      <trkpt lat="45.26751" lon="4.49352">
        <ele>759</ele>
        <time>2016-07-04T23:35:15Z</time>
      </trkpt>
      <trkpt lat="45.26739" lon="4.49341">
        <ele>761</ele>
        <time>2016-07-04T23:37:15Z</time>
      </trkpt>
      <trkpt lat="45.2673" lon="4.49334">
        <ele>760</ele>
        <time>2016-07-04T23:39:15Z</time>
      </trkpt>
      <trkpt lat="45.26721" lon="4.49329">
        <ele>766</ele>
        <time>2016-07-04T23:41:15Z</time>
      </trkpt>
      <trkpt lat="45.26711" lon="4.49326">
        <ele>767</ele>
        <time>2016-07-04T23:43:15Z</time>
      </trkpt>
      <trkpt lat="45.26702" lon="4.49326">
        <ele>767</ele>
        <time>2016-07-04T23:45:15Z</time>
      </trkpt>
      <trkpt lat="45.26694" lon="4.49327">
        <ele>766</ele>
        <time>2016-07-04T23:47:15Z</time>
      </trkpt>
      <trkpt lat="45.26688" lon="4.49329">
        <ele>766</ele>
        <time>2016-07-04T23:49:15Z</time>
      </trkpt>
      <trkpt lat="45.26683" lon="4.49331">
        <ele>765</ele>
        <time>2016-07-04T23:51:15Z</time>
      </trkpt>
      <trkpt lat="45.26675" lon="4.49336">
        <ele>761</ele>
        <time>2016-07-04T23:53:15Z</time>
      </trkpt>
      <trkpt lat="45.26664" lon="4.49348">
        <ele>761</ele>
        <time>2016-07-04T23:55:15Z</time>
      </trkpt>
      <trkpt lat="45.26646" lon="4.49367">
        <ele>759</ele>
        <time>2016-07-04T23:57:15Z</time>
      </trkpt>
      <trkpt lat="45.26628" lon="4.49387">
        <ele>758</ele>
        <time>2016-07-04T23:59:15Z</time>
      </trkpt>
      <trkpt lat="45.26622" lon="4.49392">
        <ele>758</ele>
        <time>2016-07-05T00:01:15Z</time>
      </trkpt>
      <trkpt lat="45.26613" lon="4.49396">
        <ele>758</ele>
        <time>2016-07-05T00:03:15Z</time>
      </trkpt>
      <trkpt lat="45.26611" lon="4.49397">
        <ele>758</ele>
        <time>2016-07-05T00:05:15Z</time>
      </trkpt>
      <trkpt lat="45.26607" lon="4.49398">
        <ele>758</ele>
        <time>2016-07-05T00:07:15Z</time>
      </trkpt>
      <trkpt lat="45.26604" lon="4.49398">
        <ele>758</ele>
        <time>2016-07-05T00:09:15Z</time>
      </trkpt>
      <trkpt lat="45.26602" lon="4.49398">
        <ele>758</ele>
        <time>2016-07-05T00:11:15Z</time>
      </trkpt>
      <trkpt lat="45.26598" lon="4.49397">
        <ele>758</ele>
        <time>2016-07-05T00:13:15Z</time>
      </trkpt>
      <trkpt lat="45.26593" lon="4.49395">
        <ele>758</ele>
        <time>2016-07-05T00:15:15Z</time>
      </trkpt>
      <trkpt lat="45.26588" lon="4.49393">
        <ele>758</ele>
        <time>2016-07-05T00:17:15Z</time>
      </trkpt>
      <trkpt lat="45.26583" lon="4.4939">
        <ele>761</ele>
        <time>2016-07-05T00:19:15Z</time>
      </trkpt>
      <trkpt lat="45.2658" lon="4.49387">
        <ele>761</ele>
        <time>2016-07-05T00:21:15Z</time>
      </trkpt>
      <trkpt lat="45.26577" lon="4.49384">
        <ele>762</ele>
        <time>2016-07-05T00:23:15Z</time>
      </trkpt>
      <trkpt lat="45.26574" lon="4.49381">
        <ele>762</ele>
        <time>2016-07-05T00:25:15Z</time>
      </trkpt>
      <trkpt lat="45.26571" lon="4.49377">
        <ele>762</ele>
        <time>2016-07-05T00:27:15Z</time>
      </trkpt>
      <trkpt lat="45.26566" lon="4.49368">
        <ele>763</ele>
        <time>2016-07-05T00:29:15Z</time>
      </trkpt>
      <trkpt lat="45.26563" lon="4.49357">
        <ele>764</ele>
        <time>2016-07-05T00:31:15Z</time>
      </trkpt>
      <trkpt lat="45.26557" lon="4.49335">
        <ele>764</ele>
        <time>2016-07-05T00:33:15Z</time>
      </trkpt>
      <trkpt lat="45.26553" lon="4.49309">
        <ele>768</ele>
        <time>2016-07-05T00:35:15Z</time>
      </trkpt>
      <trkpt lat="45.26548" lon="4.49285">
        <ele>769</ele>
        <time>2016-07-05T00:37:15Z</time>
      </trkpt>
      <trkpt lat="45.26544" lon="4.49265">
        <ele>770</ele>
        <time>2016-07-05T00:39:15Z</time>
      </trkpt>
      <trkpt lat="45.26539" lon="4.49242">
        <ele>775</ele>
        <time>2016-07-05T00:41:15Z</time>
      </trkpt>
      <trkpt lat="45.26534" lon="4.49222">
        <ele>776</ele>
        <time>2016-07-05T00:43:15Z</time>
      </trkpt>
      <trkpt lat="45.26529" lon="4.49204">
        <ele>777</ele>
        <time>2016-07-05T00:45:15Z</time>
      </trkpt>
      <trkpt lat="45.26521" lon="4.49185">
        <ele>777</ele>
        <time>2016-07-05T00:47:15Z</time>
      </trkpt>
      <trkpt lat="45.26512" lon="4.49168">
        <ele>776</ele>
        <time>2016-07-05T00:49:15Z</time>
      </trkpt>
      <trkpt lat="45.26503" lon="4.49153">
        <ele>781</ele>
        <time>2016-07-05T00:51:15Z</time>
      </trkpt>
      <trkpt lat="45.26497" lon="4.49145">
        <ele>778</ele>
        <time>2016-07-05T00:53:15Z</time>
      </trkpt>
      <trkpt lat="45.26492" lon="4.4914">
        <ele>779</ele>
        <time>2016-07-05T00:55:15Z</time>
      </trkpt>
      <trkpt lat="45.26486" lon="4.49134">
        <ele>779</ele>
        <time>2016-07-05T00:57:15Z</time>
      </trkpt>
      <trkpt lat="45.2648" lon="4.49129">
        <ele>780</ele>
        <time>2016-07-05T00:59:15Z</time>
      </trkpt>
      <trkpt lat="45.26465" lon="4.49115">
        <ele>780</ele>
        <time>2016-07-05T01:01:15Z</time>
      </trkpt>
      <trkpt lat="45.26451" lon="4.49101">
        <ele>780</ele>
        <time>2016-07-05T01:03:15Z</time>
      </trkpt>
      <trkpt lat="45.26444" lon="4.49091">
        <ele>780</ele>
        <time>2016-07-05T01:05:15Z</time>
      </trkpt>
      <trkpt lat="45.26438" lon="4.49082">
        <ele>782</ele>
        <time>2016-07-05T01:07:15Z</time>
      </trkpt>
      <trkpt lat="45.26436" lon="4.49078">
        <ele>782</ele>
        <time>2016-07-05T01:09:15Z</time>
      </trkpt>
      <trkpt lat="45.26434" lon="4.49075">
        <ele>781</ele>
        <time>2016-07-05T01:11:15Z</time>
      </trkpt>
      <trkpt lat="45.26433" lon="4.49071">
        <ele>782</ele>
        <time>2016-07-05T01:13:15Z</time>
      </trkpt>
      <trkpt lat="45.26431" lon="4.49066">
        <ele>782</ele>
        <time>2016-07-05T01:15:15Z</time>
      </trkpt>
      <trkpt lat="45.2643" lon="4.49061">
        <ele>782</ele>
        <time>2016-07-05T01:17:15Z</time>
      </trkpt>
      <trkpt lat="45.26429" lon="4.4905">
        <ele>783</ele>
        <time>2016-07-05T01:19:15Z</time>
      </trkpt>
      <trkpt lat="45.26429" lon="4.4904">
        <ele>783</ele>
        <time>2016-07-05T01:21:15Z</time>
      </trkpt>
      <trkpt lat="45.26429" lon="4.49029">
        <ele>783</ele>
        <time>2016-07-05T01:23:15Z</time>
      </trkpt>
      <trkpt lat="45.26431" lon="4.48998">
        <ele>784</ele>
        <time>2016-07-05T01:25:15Z</time>
      </trkpt>
      <trkpt lat="45.26432" lon="4.48957">
        <ele>785</ele>
        <time>2016-07-05T01:27:15Z</time>
      </trkpt>
      <trkpt lat="45.26434" lon="4.48924">
        <ele>784</ele>
        <time>2016-07-05T01:29:15Z</time>
      </trkpt>
      <trkpt lat="45.26435" lon="4.48909">
        <ele>786</ele>
        <time>2016-07-05T01:31:15Z</time>
      </trkpt>
      <trkpt lat="45.26436" lon="4.48905">
        <ele>786</ele>
        <time>2016-07-05T01:33:15Z</time>
      </trkpt>
      <trkpt lat="45.26437" lon="4.48893">
        <ele>787</ele>
        <time>2016-07-05T01:35:15Z</time>
      </trkpt>
      <trkpt lat="45.26439" lon="4.48881">
        <ele>788</ele>
        <time>2016-07-05T01:37:15Z</time>
      </trkpt>
      <trkpt lat="45.26442" lon="4.48869">
        <ele>789</ele>
        <time>2016-07-05T01:39:15Z</time>
      </trkpt>
      <trkpt lat="45.26445" lon="4.48861">
        <ele>789</ele>
        <time>2016-07-05T01:41:15Z</time>
      </trkpt>
      <trkpt lat="45.2645" lon="4.48851">
        <ele>790</ele>
        <time>2016-07-05T01:43:15Z</time>
      </trkpt>
      <trkpt lat="45.26456" lon="4.48845">
        <ele>790</ele>
        <time>2016-07-05T01:45:15Z</time>
      </trkpt>
      <trkpt lat="45.26462" lon="4.48842">
        <ele>791</ele>
        <time>2016-07-05T01:47:15Z</time>
      </trkpt>
      <trkpt lat="45.26464" lon="4.4884">
        <ele>791</ele>
        <time>2016-07-05T01:49:15Z</time>
      </trkpt>
      <trkpt lat="45.26468" lon="4.48839">
        <ele>792</ele>
        <time>2016-07-05T01:51:15Z</time>
      </trkpt>
      <trkpt lat="45.26471" lon="4.48839">
        <ele>792</ele>
        <time>2016-07-05T01:53:15Z</time>
      </trkpt>
      <trkpt lat="45.26475" lon="4.48839">
        <ele>793</ele>
        <time>2016-07-05T01:55:15Z</time>
      </trkpt>
      <trkpt lat="45.26479" lon="4.4884">
        <ele>793</ele>
        <time>2016-07-05T01:57:15Z</time>
      </trkpt>
      <trkpt lat="45.26483" lon="4.48842">
        <ele>794</ele>
        <time>2016-07-05T01:59:15Z</time>
      </trkpt>
      <trkpt lat="45.26487" lon="4.48845">
        <ele>794</ele>
        <time>2016-07-05T02:01:15Z</time>
      </trkpt>
      <trkpt lat="45.26491" lon="4.48849">
        <ele>794</ele>
        <time>2016-07-05T02:03:15Z</time>
      </trkpt>
      <trkpt lat="45.26495" lon="4.48854">
        <ele>793</ele>
        <time>2016-07-05T02:05:15Z</time>
      </trkpt>
      <trkpt lat="45.265" lon="4.48863">
        <ele>804</ele>
        <time>2016-07-05T02:07:15Z</time>
      </trkpt>
      <trkpt lat="45.26502" lon="4.48871">
        <ele>804</ele>
        <time>2016-07-05T02:09:15Z</time>
      </trkpt>
      <trkpt lat="45.26505" lon="4.48885">
        <ele>803</ele>
        <time>2016-07-05T02:11:15Z</time>
      </trkpt>
      <trkpt lat="45.26507" lon="4.48901">
        <ele>799</ele>
        <time>2016-07-05T02:13:15Z</time>
      </trkpt>
      <trkpt lat="45.26509" lon="4.48918">
        <ele>793</ele>
        <time>2016-07-05T02:15:15Z</time>
      </trkpt>
      <trkpt lat="45.2651" lon="4.48935">
        <ele>797</ele>
        <time>2016-07-05T02:17:15Z</time>
      </trkpt>
      <trkpt lat="45.26511" lon="4.48944">
        <ele>798</ele>
        <time>2016-07-05T02:19:15Z</time>
      </trkpt>
      <trkpt lat="45.2651" lon="4.48961">
        <ele>798</ele>
        <time>2016-07-05T02:21:15Z</time>
      </trkpt>
      <trkpt lat="45.26509" lon="4.48972">
        <ele>798</ele>
        <time>2016-07-05T02:23:15Z</time>
      </trkpt>
      <trkpt lat="45.26508" lon="4.48977">
        <ele>797</ele>
        <time>2016-07-05T02:25:15Z</time>
      </trkpt>
      <trkpt lat="45.26507" lon="4.48983">
        <ele>796</ele>
        <time>2016-07-05T02:27:15Z</time>
      </trkpt>
      <trkpt lat="45.26505" lon="4.48993">
        <ele>793</ele>
        <time>2016-07-05T02:29:15Z</time>
      </trkpt>
      <trkpt lat="45.26501" lon="4.49003">
        <ele>790</ele>
        <time>2016-07-05T02:31:15Z</time>
      </trkpt>
      <trkpt lat="45.26498" lon="4.4901">
        <ele>788</ele>
        <time>2016-07-05T02:33:15Z</time>
      </trkpt>
      <trkpt lat="45.26495" lon="4.49016">
        <ele>787</ele>
        <time>2016-07-05T02:35:15Z</time>
      </trkpt>
      <trkpt lat="45.26493" lon="4.49022">
        <ele>786</ele>
        <time>2016-07-05T02:37:15Z</time>
      </trkpt>
      <trkpt lat="45.2649" lon="4.49027">
        <ele>786</ele>
        <time>2016-07-05T02:39:15Z</time>
      </trkpt>
      <trkpt lat="45.26488" lon="4.49032">
        <ele>786</ele>
        <time>2016-07-05T02:41:15Z</time>
      </trkpt>
      <trkpt lat="45.26485" lon="4.49038">
        <ele>786</ele>
        <time>2016-07-05T02:43:15Z</time>
      </trkpt>
      <trkpt lat="45.26482" lon="4.49044">
        <ele>785</ele>
        <time>2016-07-05T02:45:15Z</time>
      </trkpt>
      <trkpt lat="45.26481" lon="4.49051">
        <ele>785</ele>
        <time>2016-07-05T02:47:15Z</time>
      </trkpt>
      <trkpt lat="45.2648" lon="4.49058">
        <ele>785</ele>
        <time>2016-07-05T02:49:15Z</time>
      </trkpt>
      <trkpt lat="45.2648" lon="4.49063">
        <ele>785</ele>
        <time>2016-07-05T02:51:15Z</time>
      </trkpt>
      <trkpt lat="45.26481" lon="4.49069">
        <ele>786</ele>
        <time>2016-07-05T02:53:15Z</time>
      </trkpt>
      <trkpt lat="45.26482" lon="4.49075">
        <ele>786</ele>
        <time>2016-07-05T02:55:15Z</time>
      </trkpt>
      <trkpt lat="45.26484" lon="4.49079">
        <ele>786</ele>
        <time>2016-07-05T02:57:15Z</time>
      </trkpt>
      <trkpt lat="45.26486" lon="4.49083">
        <ele>786</ele>
        <time>2016-07-05T02:59:15Z</time>
      </trkpt>
      <trkpt lat="45.26488" lon="4.49087">
        <ele>784</ele>
        <time>2016-07-05T03:01:15Z</time>
      </trkpt>
      <trkpt lat="45.26492" lon="4.4909">
        <ele>785</ele>
        <time>2016-07-05T03:03:15Z</time>
      </trkpt>
      <trkpt lat="45.26495" lon="4.49091">
        <ele>785</ele>
        <time>2016-07-05T03:05:15Z</time>
      </trkpt>
      <trkpt lat="45.26498" lon="4.49092">
        <ele>785</ele>
        <time>2016-07-05T03:07:15Z</time>
      </trkpt>
      <trkpt lat="45.26501" lon="4.49092">
        <ele>788</ele>
        <time>2016-07-05T03:09:15Z</time>
      </trkpt>
      <trkpt lat="45.26505" lon="4.49091">
        <ele>789</ele>
        <time>2016-07-05T03:11:15Z</time>
      </trkpt>
      <trkpt lat="45.26508" lon="4.49089">
        <ele>789</ele>
        <time>2016-07-05T03:13:15Z</time>
      </trkpt>
      <trkpt lat="45.2651" lon="4.49086">
        <ele>789</ele>
        <time>2016-07-05T03:15:15Z</time>
      </trkpt>
      <trkpt lat="45.26513" lon="4.49083">
        <ele>793</ele>
        <time>2016-07-05T03:17:15Z</time>
      </trkpt>
      <trkpt lat="45.26515" lon="4.4908">
        <ele>793</ele>
        <time>2016-07-05T03:19:15Z</time>
      </trkpt>
      <trkpt lat="45.26517" lon="4.49075">
        <ele>794</ele>
        <time>2016-07-05T03:21:15Z</time>
      </trkpt>
      <trkpt lat="45.26518" lon="4.49071">
        <ele>795</ele>
        <time>2016-07-05T03:23:15Z</time>
      </trkpt>
      <trkpt lat="45.26519" lon="4.49065">
        <ele>795</ele>
        <time>2016-07-05T03:25:15Z</time>
      </trkpt>
      <trkpt lat="45.26521" lon="4.49044">
        <ele>797</ele>
        <time>2016-07-05T03:27:15Z</time>
      </trkpt>
      <trkpt lat="45.26526" lon="4.49">
        <ele>797</ele>
        <time>2016-07-05T03:29:15Z</time>
      </trkpt>
      <trkpt lat="45.26531" lon="4.48938">
        <ele>801</ele>
        <time>2016-07-05T03:31:15Z</time>
      </trkpt>
      <trkpt lat="45.26532" lon="4.48905">
        <ele>805</ele>
        <time>2016-07-05T03:33:15Z</time>
      </trkpt>
      <trkpt lat="45.26532" lon="4.48892">
        <ele>807</ele>
        <time>2016-07-05T03:35:15Z</time>
      </trkpt>
      <trkpt lat="45.26531" lon="4.48885">
        <ele>807</ele>
        <time>2016-07-05T03:37:15Z</time>
      </trkpt>
      <trkpt lat="45.26529" lon="4.48873">
        <ele>808</ele>
        <time>2016-07-05T03:39:15Z</time>
      </trkpt>
      <trkpt lat="45.26527" lon="4.48857">
        <ele>808</ele>
        <time>2016-07-05T03:41:15Z</time>
      </trkpt>
      <trkpt lat="45.26525" lon="4.48847">
        <ele>807</ele>
        <time>2016-07-05T03:43:15Z</time>
      </trkpt>
      <trkpt lat="45.26516" lon="4.48811">
        <ele>813</ele>
        <time>2016-07-05T03:45:15Z</time>
      </trkpt>
      <trkpt lat="45.26511" lon="4.48789">
        <ele>815</ele>
        <time>2016-07-05T03:47:15Z</time>
      </trkpt>
      <trkpt lat="45.26505" lon="4.48764">
        <ele>813</ele>
        <time>2016-07-05T03:49:15Z</time>
      </trkpt>
      <trkpt lat="45.26487" lon="4.48691">
        <ele>808</ele>
        <time>2016-07-05T03:51:15Z</time>
      </trkpt>
      <trkpt lat="45.26484" lon="4.48678">
        <ele>810</ele>
        <time>2016-07-05T03:53:15Z</time>
      </trkpt>
      <trkpt lat="45.2648" lon="4.48656">
        <ele>815</ele>
        <time>2016-07-05T03:55:15Z</time>
      </trkpt>
      <trkpt lat="45.26477" lon="4.48617">
        <ele>816</ele>
        <time>2016-07-05T03:57:15Z</time>
      </trkpt>
      <trkpt lat="45.26476" lon="4.48611">
        <ele>816</ele>
        <time>2016-07-05T03:59:15Z</time>
      </trkpt>
      <trkpt lat="45.26475" lon="4.48606">
        <ele>817</ele>
        <time>2016-07-05T04:01:15Z</time>
      </trkpt>
      <trkpt lat="45.26474" lon="4.48599">
        <ele>817</ele>
        <time>2016-07-05T04:03:15Z</time>
      </trkpt>
      <trkpt lat="45.26473" lon="4.48594">
        <ele>818</ele>
        <time>2016-07-05T04:05:15Z</time>
      </trkpt>
      <trkpt lat="45.26471" lon="4.48589">
        <ele>817</ele>
        <time>2016-07-05T04:07:15Z</time>
      </trkpt>
      <trkpt lat="45.26468" lon="4.48582">
        <ele>825</ele>
        <time>2016-07-05T04:09:15Z</time>
      </trkpt>
      <trkpt lat="45.26466" lon="4.4858">
        <ele>824</ele>
        <time>2016-07-05T04:11:15Z</time>
      </trkpt>
      <trkpt lat="45.26464" lon="4.48576">
        <ele>824</ele>
        <time>2016-07-05T04:13:15Z</time>
      </trkpt>
      <trkpt lat="45.2646" lon="4.48572">
        <ele>823</ele>
        <time>2016-07-05T04:15:15Z</time>
      </trkpt>
      <trkpt lat="45.26453" lon="4.48567">
        <ele>822</ele>
        <time>2016-07-05T04:17:15Z</time>
      </trkpt>
      <trkpt lat="45.26446" lon="4.48561">
        <ele>821</ele>
        <time>2016-07-05T04:19:15Z</time>
      </trkpt>
      <trkpt lat="45.26441" lon="4.48558">
        <ele>821</ele>
        <time>2016-07-05T04:21:15Z</time>
      </trkpt>
      <trkpt lat="45.26432" lon="4.48548">
        <ele>821</ele>
        <time>2016-07-05T04:23:15Z</time>
      </trkpt>
      <trkpt lat="45.26427" lon="4.48541">
        <ele>822</ele>
        <time>2016-07-05T04:25:15Z</time>
      </trkpt>
      <trkpt lat="45.26422" lon="4.48531">
        <ele>822</ele>
        <time>2016-07-05T04:27:15Z</time>
      </trkpt>
      <trkpt lat="45.26417" lon="4.48518">
        <ele>823</ele>
        <time>2016-07-05T04:29:15Z</time>
      </trkpt>
      <trkpt lat="45.26394" lon="4.48441">
        <ele>822</ele>
        <time>2016-07-05T04:31:15Z</time>
      </trkpt>
      <trkpt lat="45.26387" lon="4.48417">
        <ele>823</ele>
        <time>2016-07-05T04:33:15Z</time>
      </trkpt>
      <trkpt lat="45.26379" lon="4.48394">
        <ele>830</ele>
        <time>2016-07-05T04:35:15Z</time>
      </trkpt>
      <trkpt lat="45.26371" lon="4.4837">
        <ele>830</ele>
        <time>2016-07-05T04:37:15Z</time>
      </trkpt>
      <trkpt lat="45.26362" lon="4.48346">
        <ele>829</ele>
        <time>2016-07-05T04:39:15Z</time>
      </trkpt>
      <trkpt lat="45.26354" lon="4.48324">
        <ele>836</ele>
        <time>2016-07-05T04:41:15Z</time>
      </trkpt>
      <trkpt lat="45.26347" lon="4.48301">
        <ele>839</ele>
        <time>2016-07-05T04:43:15Z</time>
      </trkpt>
      <trkpt lat="45.2634" lon="4.48279">
        <ele>841</ele>
        <time>2016-07-05T04:45:15Z</time>
      </trkpt>
      <trkpt lat="45.26334" lon="4.48255">
        <ele>838</ele>
        <time>2016-07-05T04:47:15Z</time>
      </trkpt>
      <trkpt lat="45.26319" lon="4.48198">
        <ele>833</ele>
        <time>2016-07-05T04:49:15Z</time>
      </trkpt>
      <trkpt lat="45.26296" lon="4.48107">
        <ele>840</ele>
        <time>2016-07-05T04:51:15Z</time>
      </trkpt>
      <trkpt lat="45.26293" lon="4.48096">
        <ele>840</ele>
        <time>2016-07-05T04:53:15Z</time>
      </trkpt>
      <trkpt lat="45.26288" lon="4.48073">
        <ele>847</ele>
        <time>2016-07-05T04:55:15Z</time>
      </trkpt>
      <trkpt lat="45.26282" lon="4.48047">
        <ele>847</ele>
        <time>2016-07-05T04:57:15Z</time>
      </trkpt>
      <trkpt lat="45.26279" lon="4.48033">
        <ele>847</ele>
        <time>2016-07-05T04:59:15Z</time>
      </trkpt>
      <trkpt lat="45.26278" lon="4.48028">
        <ele>847</ele>
        <time>2016-07-05T05:01:15Z</time>
      </trkpt>
      <trkpt lat="45.26275" lon="4.48013">
        <ele>847</ele>
        <time>2016-07-05T05:03:15Z</time>
      </trkpt>
      <trkpt lat="45.2627" lon="4.47986">
        <ele>851</ele>
        <time>2016-07-05T05:05:15Z</time>
      </trkpt>
      <trkpt lat="45.26269" lon="4.47974">
        <ele>852</ele>
        <time>2016-07-05T05:07:15Z</time>
      </trkpt>
      <trkpt lat="45.26269" lon="4.47963">
        <ele>854</ele>
        <time>2016-07-05T05:09:15Z</time>
      </trkpt>
      <trkpt lat="45.2627" lon="4.47953">
        <ele>854</ele>
        <time>2016-07-05T05:11:15Z</time>
      </trkpt>
      <trkpt lat="45.2627" lon="4.47947">
        <ele>854</ele>
        <time>2016-07-05T05:13:15Z</time>
      </trkpt>
      <trkpt lat="45.26272" lon="4.47933">
        <ele>854</ele>
        <time>2016-07-05T05:15:15Z</time>
      </trkpt>
      <trkpt lat="45.26274" lon="4.47917">
        <ele>854</ele>
        <time>2016-07-05T05:17:15Z</time>
      </trkpt>
      <trkpt lat="45.26275" lon="4.47909">
        <ele>860</ele>
        <time>2016-07-05T05:19:15Z</time>
      </trkpt>
      <trkpt lat="45.26275" lon="4.47901">
        <ele>861</ele>
        <time>2016-07-05T05:21:15Z</time>
      </trkpt>
      <trkpt lat="45.26275" lon="4.47895">
        <ele>861</ele>
        <time>2016-07-05T05:23:15Z</time>
      </trkpt>
      <trkpt lat="45.26273" lon="4.47887">
        <ele>862</ele>
        <time>2016-07-05T05:25:15Z</time>
      </trkpt>
      <trkpt lat="45.26271" lon="4.47882">
        <ele>862</ele>
        <time>2016-07-05T05:27:15Z</time>
      </trkpt>
      <trkpt lat="45.26269" lon="4.47877">
        <ele>862</ele>
        <time>2016-07-05T05:29:15Z</time>
      </trkpt>
      <trkpt lat="45.26266" lon="4.4787">
        <ele>862</ele>
        <time>2016-07-05T05:31:15Z</time>
      </trkpt>
      <trkpt lat="45.26261" lon="4.47864">
        <ele>862</ele>
        <time>2016-07-05T05:33:15Z</time>
      </trkpt>
      <trkpt lat="45.26259" lon="4.47859">
        <ele>862</ele>
        <time>2016-07-05T05:35:15Z</time>
      </trkpt>
      <trkpt lat="45.26255" lon="4.47855">
        <ele>861</ele>
        <time>2016-07-05T05:37:15Z</time>
      </trkpt>
      <trkpt lat="45.26251" lon="4.47849">
        <ele>861</ele>
        <time>2016-07-05T05:39:15Z</time>
      </trkpt>
      <trkpt lat="45.26248" lon="4.47842">
        <ele>852</ele>
        <time>2016-07-05T05:41:15Z</time>
      </trkpt>
      <trkpt lat="45.26246" lon="4.47837">
        <ele>854</ele>
        <time>2016-07-05T05:43:15Z</time>
      </trkpt>
      <trkpt lat="45.26243" lon="4.47831">
        <ele>856</ele>
        <time>2016-07-05T05:45:15Z</time>
      </trkpt>
      <trkpt lat="45.26241" lon="4.47824">
        <ele>855</ele>
        <time>2016-07-05T05:47:15Z</time>
      </trkpt>
      <trkpt lat="45.26238" lon="4.47816">
        <ele>855</ele>
        <time>2016-07-05T05:49:15Z</time>
      </trkpt>
      <trkpt lat="45.26236" lon="4.47809">
        <ele>854</ele>
        <time>2016-07-05T05:51:15Z</time>
      </trkpt>
      <trkpt lat="45.2623" lon="4.47785">
        <ele>856</ele>
        <time>2016-07-05T05:53:15Z</time>
      </trkpt>
      <trkpt lat="45.26221" lon="4.47748">
        <ele>866</ele>
        <time>2016-07-05T05:55:15Z</time>
      </trkpt>
      <trkpt lat="45.26213" lon="4.47717">
        <ele>865</ele>
        <time>2016-07-05T05:57:15Z</time>
      </trkpt>
      <trkpt lat="45.26202" lon="4.47681">
        <ele>864</ele>
        <time>2016-07-05T05:59:15Z</time>
      </trkpt>
      <trkpt lat="45.26193" lon="4.47647">
        <ele>870</ele>
        <time>2016-07-05T06:01:15Z</time>
      </trkpt>
      <trkpt lat="45.26188" lon="4.47625">
        <ele>871</ele>
        <time>2016-07-05T06:03:15Z</time>
      </trkpt>
      <trkpt lat="45.26184" lon="4.47608">
        <ele>870</ele>
        <time>2016-07-05T06:05:15Z</time>
      </trkpt>
      <trkpt lat="45.26182" lon="4.47597">
        <ele>869</ele>
        <time>2016-07-05T06:07:15Z</time>
      </trkpt>
      <trkpt lat="45.26182" lon="4.47591">
        <ele>868</ele>
        <time>2016-07-05T06:09:15Z</time>
      </trkpt>
      <trkpt lat="45.26181" lon="4.47588">
        <ele>868</ele>
        <time>2016-07-05T06:11:15Z</time>
      </trkpt>
      <trkpt lat="45.26181" lon="4.47584">
        <ele>867</ele>
        <time>2016-07-05T06:13:15Z</time>
      </trkpt>
      <trkpt lat="45.26181" lon="4.47581">
        <ele>869</ele>
        <time>2016-07-05T06:15:15Z</time>
      </trkpt>
      <trkpt lat="45.26181" lon="4.47577">
        <ele>870</ele>
        <time>2016-07-05T06:17:15Z</time>
      </trkpt>
      <trkpt lat="45.26181" lon="4.47574">
        <ele>870</ele>
        <time>2016-07-05T06:19:15Z</time>
      </trkpt>
      <trkpt lat="45.26182" lon="4.4757">
        <ele>871</ele>
        <time>2016-07-05T06:21:15Z</time>
      </trkpt>
      <trkpt lat="45.26183" lon="4.47565">
        <ele>872</ele>
        <time>2016-07-05T06:23:15Z</time>
      </trkpt>
      <trkpt lat="45.26184" lon="4.4756">
        <ele>873</ele>
        <time>2016-07-05T06:25:15Z</time>
      </trkpt>
      <trkpt lat="45.26185" lon="4.47554">
        <ele>874</ele>
        <time>2016-07-05T06:27:15Z</time>
      </trkpt>
      <trkpt lat="45.26187" lon="4.47549">
        <ele>875</ele>
        <time>2016-07-05T06:29:15Z</time>
      </trkpt>
      <trkpt lat="45.26188" lon="4.47545">
        <ele>875</ele>
        <time>2016-07-05T06:31:15Z</time>
      </trkpt>
      <trkpt lat="45.26191" lon="4.47539">
        <ele>876</ele>
        <time>2016-07-05T06:33:15Z</time>
      </trkpt>
      <trkpt lat="45.26193" lon="4.47534">
        <ele>876</ele>
        <time>2016-07-05T06:35:15Z</time>
      </trkpt>
      <trkpt lat="45.26196" lon="4.47527">
        <ele>877</ele>
        <time>2016-07-05T06:37:15Z</time>
      </trkpt>
      <trkpt lat="45.26198" lon="4.47523">
        <ele>877</ele>
        <time>2016-07-05T06:39:15Z</time>
      </trkpt>
      <trkpt lat="45.26199" lon="4.47519">
        <ele>877</ele>
        <time>2016-07-05T06:41:15Z</time>
      </trkpt>
      <trkpt lat="45.262" lon="4.47515">
        <ele>877</ele>
        <time>2016-07-05T06:43:15Z</time>
      </trkpt>
      <trkpt lat="45.26202" lon="4.4751">
        <ele>878</ele>
        <time>2016-07-05T06:45:15Z</time>
      </trkpt>
      <trkpt lat="45.26203" lon="4.47503">
        <ele>878</ele>
        <time>2016-07-05T06:47:15Z</time>
      </trkpt>
      <trkpt lat="45.26203" lon="4.47497">
        <ele>881</ele>
        <time>2016-07-05T06:49:15Z</time>
      </trkpt>
      <trkpt lat="45.26204" lon="4.47494">
        <ele>881</ele>
        <time>2016-07-05T06:51:15Z</time>
      </trkpt>
      <trkpt lat="45.26203" lon="4.4749">
        <ele>881</ele>
        <time>2016-07-05T06:53:15Z</time>
      </trkpt>
      <trkpt lat="45.26203" lon="4.47486">
        <ele>881</ele>
        <time>2016-07-05T06:55:15Z</time>
      </trkpt>
      <trkpt lat="45.26202" lon="4.47482">
        <ele>881</ele>
        <time>2016-07-05T06:57:15Z</time>
      </trkpt>
      <trkpt lat="45.26201" lon="4.47479">
        <ele>881</ele>
        <time>2016-07-05T06:59:15Z</time>
      </trkpt>
      <trkpt lat="45.262" lon="4.47476">
        <ele>881</ele>
        <time>2016-07-05T07:01:15Z</time>
      </trkpt>
      <trkpt lat="45.26199" lon="4.47474">
        <ele>881</ele>
        <time>2016-07-05T07:03:15Z</time>
      </trkpt>
      <trkpt lat="45.26198" lon="4.47472">
        <ele>881</ele>
        <time>2016-07-05T07:05:15Z</time>
      </trkpt>
      <trkpt lat="45.26197" lon="4.4747">
        <ele>882</ele>
        <time>2016-07-05T07:07:15Z</time>
      </trkpt>
      <trkpt lat="45.26196" lon="4.47469">
        <ele>881</ele>
        <time>2016-07-05T07:09:15Z</time>
      </trkpt>
      <trkpt lat="45.26195" lon="4.47467">
        <ele>881</ele>
        <time>2016-07-05T07:11:15Z</time>
      </trkpt>
      <trkpt lat="45.26193" lon="4.47464">
        <ele>882</ele>
        <time>2016-07-05T07:13:15Z</time>
      </trkpt>
      <trkpt lat="45.2619" lon="4.47462">
        <ele>881</ele>
        <time>2016-07-05T07:15:15Z</time>
      </trkpt>
      <trkpt lat="45.26185" lon="4.47456">
        <ele>881</ele>
        <time>2016-07-05T07:17:15Z</time>
      </trkpt>
      <trkpt lat="45.26178" lon="4.47449">
        <ele>881</ele>
        <time>2016-07-05T07:19:15Z</time>
      </trkpt>
      <trkpt lat="45.26171" lon="4.47442">
        <ele>881</ele>
        <time>2016-07-05T07:21:15Z</time>
      </trkpt>
      <trkpt lat="45.26167" lon="4.47437">
        <ele>881</ele>
        <time>2016-07-05T07:23:15Z</time>
      </trkpt>
      <trkpt lat="45.26165" lon="4.47435">
        <ele>872</ele>
        <time>2016-07-05T07:25:15Z</time>
      </trkpt>
      <trkpt lat="45.26164" lon="4.47433">
        <ele>873</ele>
        <time>2016-07-05T07:27:15Z</time>
      </trkpt>
      <trkpt lat="45.26162" lon="4.4743">
        <ele>873</ele>
        <time>2016-07-05T07:29:15Z</time>
      </trkpt>
      <trkpt lat="45.2616" lon="4.47427">
        <ele>874</ele>
        <time>2016-07-05T07:31:15Z</time>
      </trkpt>
      <trkpt lat="45.26159" lon="4.47424">
        <ele>875</ele>
        <time>2016-07-05T07:33:15Z</time>
      </trkpt>
      <trkpt lat="45.26157" lon="4.4742">
        <ele>875</ele>
        <time>2016-07-05T07:35:15Z</time>
      </trkpt>
      <trkpt lat="45.26155" lon="4.47413">
        <ele>881</ele>
        <time>2016-07-05T07:37:15Z</time>
      </trkpt>
      <trkpt lat="45.26153" lon="4.47407">
        <ele>881</ele>
        <time>2016-07-05T07:39:15Z</time>
      </trkpt>
      <trkpt lat="45.2615" lon="4.47399">
        <ele>882</ele>
        <time>2016-07-05T07:41:15Z</time>
      </trkpt>
      <trkpt lat="45.26147" lon="4.47389">
        <ele>883</ele>
        <time>2016-07-05T07:43:15Z</time>
      </trkpt>
      <trkpt lat="45.26145" lon="4.47383">
        <ele>883</ele>
        <time>2016-07-05T07:45:15Z</time>
      </trkpt>
      <trkpt lat="45.26143" lon="4.47378">
        <ele>884</ele>
        <time>2016-07-05T07:47:15Z</time>
      </trkpt>
      <trkpt lat="45.26142" lon="4.47375">
        <ele>884</ele>
        <time>2016-07-05T07:49:15Z</time>
      </trkpt>
      <trkpt lat="45.2614" lon="4.47371">
        <ele>885</ele>
        <time>2016-07-05T07:51:15Z</time>
      </trkpt>
      <trkpt lat="45.26138" lon="4.47367">
        <ele>885</ele>
        <time>2016-07-05T07:53:15Z</time>
      </trkpt>
      <trkpt lat="45.26136" lon="4.47363">
        <ele>886</ele>
        <time>2016-07-05T07:55:15Z</time>
      </trkpt>
      <trkpt lat="45.26134" lon="4.4736">
        <ele>886</ele>
        <time>2016-07-05T07:57:15Z</time>
      </trkpt>
      <trkpt lat="45.26131" lon="4.47357">
        <ele>886</ele>
        <time>2016-07-05T07:59:15Z</time>
      </trkpt>
      <trkpt lat="45.26129" lon="4.47354">
        <ele>886</ele>
        <time>2016-07-05T08:01:15Z</time>
      </trkpt>
      <trkpt lat="45.26126" lon="4.47352">
        <ele>886</ele>
        <time>2016-07-05T08:03:15Z</time>
      </trkpt>
      <trkpt lat="45.26125" lon="4.47351">
        <ele>886</ele>
        <time>2016-07-05T08:05:15Z</time>
      </trkpt>
      <trkpt lat="45.26123" lon="4.47349">
        <ele>886</ele>
        <time>2016-07-05T08:07:15Z</time>
      </trkpt>
      <trkpt lat="45.26121" lon="4.47348">
        <ele>886</ele>
        <time>2016-07-05T08:09:15Z</time>
      </trkpt>
      <trkpt lat="45.26118" lon="4.47345">
        <ele>886</ele>
        <time>2016-07-05T08:11:15Z</time>
      </trkpt>
      <trkpt lat="45.26115" lon="4.47344">
        <ele>886</ele>
        <time>2016-07-05T08:13:15Z</time>
      </trkpt>
      <trkpt lat="45.26113" lon="4.47343">
        <ele>886</ele>
        <time>2016-07-05T08:15:15Z</time>
      </trkpt>
      <trkpt lat="45.2611" lon="4.47343">
        <ele>886</ele>
        <time>2016-07-05T08:17:15Z</time>
      </trkpt>
      <trkpt lat="45.26108" lon="4.47342">
        <ele>886</ele>
        <time>2016-07-05T08:19:15Z</time>
      </trkpt>
      <trkpt lat="45.26106" lon="4.47342">
        <ele>886</ele>
        <time>2016-07-05T08:21:15Z</time>
      </trkpt>
      <trkpt lat="45.26103" lon="4.47342">
        <ele>886</ele>
        <time>2016-07-05T08:23:15Z</time>
      </trkpt>
      <trkpt lat="45.26099" lon="4.47342">
        <ele>886</ele>
        <time>2016-07-05T08:25:15Z</time>
      </trkpt>
      <trkpt lat="45.26094" lon="4.47343">
        <ele>886</ele>
        <time>2016-07-05T08:27:15Z</time>
      </trkpt>
      <trkpt lat="45.26089" lon="4.47343">
        <ele>887</ele>
        <time>2016-07-05T08:29:15Z</time>
      </trkpt>
      <trkpt lat="45.26085" lon="4.47343">
        <ele>887</ele>
        <time>2016-07-05T08:31:15Z</time>
      </trkpt>
      <trkpt lat="45.26082" lon="4.47343">
        <ele>883</ele>
        <time>2016-07-05T08:33:15Z</time>
      </trkpt>
      <trkpt lat="45.26079" lon="4.47342">
        <ele>883</ele>
        <time>2016-07-05T08:35:15Z</time>
      </trkpt>
      <trkpt lat="45.26074" lon="4.47341">
        <ele>882</ele>
        <time>2016-07-05T08:37:15Z</time>
      </trkpt>
      <trkpt lat="45.26067" lon="4.47338">
        <ele>881</ele>
        <time>2016-07-05T08:39:15Z</time>
      </trkpt>
      <trkpt lat="45.26061" lon="4.47335">
        <ele>879</ele>
        <time>2016-07-05T08:41:15Z</time>
      </trkpt>
      <trkpt lat="45.26055" lon="4.47331">
        <ele>893</ele>
        <time>2016-07-05T08:43:15Z</time>
      </trkpt>
      <trkpt lat="45.26046" lon="4.47324">
        <ele>893</ele>
        <time>2016-07-05T08:45:15Z</time>
      </trkpt>
      <trkpt lat="45.26033" lon="4.47314">
        <ele>893</ele>
        <time>2016-07-05T08:47:15Z</time>
      </trkpt>
      <trkpt lat="45.26023" lon="4.47307">
        <ele>893</ele>
        <time>2016-07-05T08:49:15Z</time>
      </trkpt>
      <trkpt lat="45.26016" lon="4.47302">
        <ele>893</ele>
        <time>2016-07-05T08:51:15Z</time>
      </trkpt>
      <trkpt lat="45.2601" lon="4.47299">
        <ele>893</ele>
        <time>2016-07-05T08:53:15Z</time>
      </trkpt>
      <trkpt lat="45.25997" lon="4.4729">
        <ele>888</ele>
        <time>2016-07-05T08:55:15Z</time>
      </trkpt>
      <trkpt lat="45.25986" lon="4.47284">
        <ele>889</ele>
        <time>2016-07-05T08:57:15Z</time>
      </trkpt>
      <trkpt lat="45.25973" lon="4.47277">
        <ele>889</ele>
        <time>2016-07-05T08:59:15Z</time>
      </trkpt>
      <trkpt lat="45.25962" lon="4.4727">
        <ele>888</ele>
        <time>2016-07-05T09:01:15Z</time>
      </trkpt>
      <trkpt lat="45.25952" lon="4.47265">
        <ele>888</ele>
        <time>2016-07-05T09:03:15Z</time>
      </trkpt>
      <trkpt lat="45.2593" lon="4.47253">
        <ele>888</ele>
        <time>2016-07-05T09:05:15Z</time>
      </trkpt>
      <trkpt lat="45.25921" lon="4.47248">
        <ele>893</ele>
        <time>2016-07-05T09:07:15Z</time>
      </trkpt>
      <trkpt lat="45.25914" lon="4.47244">
        <ele>890</ele>
        <time>2016-07-05T09:09:15Z</time>
      </trkpt>
      <trkpt lat="45.2591" lon="4.47241">
        <ele>890</ele>
        <time>2016-07-05T09:11:15Z</time>
      </trkpt>
      <trkpt lat="45.25907" lon="4.47238">
        <ele>890</ele>
        <time>2016-07-05T09:13:15Z</time>
      </trkpt>
      <trkpt lat="45.25902" lon="4.47235">
        <ele>890</ele>
        <time>2016-07-05T09:15:15Z</time>
      </trkpt>
      <trkpt lat="45.25898" lon="4.47229">
        <ele>891</ele>
        <time>2016-07-05T09:17:15Z</time>
      </trkpt>
      <trkpt lat="45.25891" lon="4.47218">
        <ele>891</ele>
        <time>2016-07-05T09:19:15Z</time>
      </trkpt>
      <trkpt lat="45.25887" lon="4.47211">
        <ele>891</ele>
        <time>2016-07-05T09:21:15Z</time>
      </trkpt>
      <trkpt lat="45.25884" lon="4.47204">
        <ele>892</ele>
        <time>2016-07-05T09:23:15Z</time>
      </trkpt>
      <trkpt lat="45.25881" lon="4.47195">
        <ele>892</ele>
        <time>2016-07-05T09:25:15Z</time>
      </trkpt>
      <trkpt lat="45.25878" lon="4.47187">
        <ele>892</ele>
        <time>2016-07-05T09:27:15Z</time>
      </trkpt>
      <trkpt lat="45.25875" lon="4.47174">
        <ele>892</ele>
        <time>2016-07-05T09:29:15Z</time>
      </trkpt>
      <trkpt lat="45.25871" lon="4.4716">
        <ele>899</ele>
        <time>2016-07-05T09:31:15Z</time>
      </trkpt>
      <trkpt lat="45.25869" lon="4.47147">
        <ele>899</ele>
        <time>2016-07-05T09:33:15Z</time>
      </trkpt>
      <trkpt lat="45.25866" lon="4.4713">
        <ele>899</ele>
        <time>2016-07-05T09:35:15Z</time>
      </trkpt>
      <trkpt lat="45.25862" lon="4.47108">
        <ele>900</ele>
        <time>2016-07-05T09:37:15Z</time>
      </trkpt>
      <trkpt lat="45.2586" lon="4.47095">
        <ele>899</ele>
        <time>2016-07-05T09:39:15Z</time>
      </trkpt>
      <trkpt lat="45.25859" lon="4.47081">
        <ele>904</ele>
        <time>2016-07-05T09:41:15Z</time>
      </trkpt>
      <trkpt lat="45.25859" lon="4.4707">
        <ele>905</ele>
        <time>2016-07-05T09:43:15Z</time>
      </trkpt>
      <trkpt lat="45.25859" lon="4.47047">
        <ele>908</ele>
        <time>2016-07-05T09:45:15Z</time>
      </trkpt>
      <trkpt lat="45.2586" lon="4.47035">
        <ele>909</ele>
        <time>2016-07-05T09:47:15Z</time>
      </trkpt>
      <trkpt lat="45.2586" lon="4.47027">
        <ele>909</ele>
        <time>2016-07-05T09:49:15Z</time>
      </trkpt>
      <trkpt lat="45.2586" lon="4.47022">
        <ele>909</ele>
        <time>2016-07-05T09:51:15Z</time>
      </trkpt>
      <trkpt lat="45.2586" lon="4.47018">
        <ele>909</ele>
        <time>2016-07-05T09:53:15Z</time>
      </trkpt>
      <trkpt lat="45.25859" lon="4.47014">
        <ele>909</ele>
        <time>2016-07-05T09:55:15Z</time>
      </trkpt>
      <trkpt lat="45.25859" lon="4.47011">
        <ele>909</ele>
        <time>2016-07-05T09:57:15Z</time>
      </trkpt>
      <trkpt lat="45.25858" lon="4.47007">
        <ele>909</ele>
        <time>2016-07-05T09:59:15Z</time>
      </trkpt>
      <trkpt lat="45.25858" lon="4.47004">
        <ele>909</ele>
        <time>2016-07-05T10:01:15Z</time>
      </trkpt>
      <trkpt lat="45.25857" lon="4.47001">
        <ele>909</ele>
        <time>2016-07-05T10:03:15Z</time>
      </trkpt>
      <trkpt lat="45.25855" lon="4.46998">
        <ele>915</ele>
        <time>2016-07-05T10:05:15Z</time>
      </trkpt>
      <trkpt lat="45.25854" lon="4.46993">
        <ele>915</ele>
        <time>2016-07-05T10:07:15Z</time>
      </trkpt>
      <trkpt lat="45.25852" lon="4.4699">
        <ele>915</ele>
        <time>2016-07-05T10:09:15Z</time>
      </trkpt>
      <trkpt lat="45.25849" lon="4.46987">
        <ele>915</ele>
        <time>2016-07-05T10:11:15Z</time>
      </trkpt>
      <trkpt lat="45.25847" lon="4.46984">
        <ele>915</ele>
        <time>2016-07-05T10:13:15Z</time>
      </trkpt>
      <trkpt lat="45.25844" lon="4.46981">
        <ele>915</ele>
        <time>2016-07-05T10:15:15Z</time>
      </trkpt>
      <trkpt lat="45.25841" lon="4.46977">
        <ele>916</ele>
        <time>2016-07-05T10:17:15Z</time>
      </trkpt>
      <trkpt lat="45.25836" lon="4.46973">
        <ele>917</ele>
        <time>2016-07-05T10:19:15Z</time>
      </trkpt>
      <trkpt lat="45.25832" lon="4.46968">
        <ele>907</ele>
        <time>2016-07-05T10:21:15Z</time>
      </trkpt>
      <trkpt lat="45.25828" lon="4.46965">
        <ele>908</ele>
        <time>2016-07-05T10:23:15Z</time>
      </trkpt>
      <trkpt lat="45.25825" lon="4.4696">
        <ele>908</ele>
        <time>2016-07-05T10:25:15Z</time>
      </trkpt>
      <trkpt lat="45.25822" lon="4.46954">
        <ele>909</ele>
        <time>2016-07-05T10:27:15Z</time>
      </trkpt>
      <trkpt lat="45.25819" lon="4.46949">
        <ele>910</ele>
        <time>2016-07-05T10:29:15Z</time>
      </trkpt>
      <trkpt lat="45.25816" lon="4.46943">
        <ele>910</ele>
        <time>2016-07-05T10:31:15Z</time>
      </trkpt>
      <trkpt lat="45.2581" lon="4.46926">
        <ele>911</ele>
        <time>2016-07-05T10:33:15Z</time>
      </trkpt>
      <trkpt lat="45.25802" lon="4.46902">
        <ele>919</ele>
        <time>2016-07-05T10:35:15Z</time>
      </trkpt>
      <trkpt lat="45.25786" lon="4.4686">
        <ele>920</ele>
        <time>2016-07-05T10:37:15Z</time>
      </trkpt>
      <trkpt lat="45.25774" lon="4.46831">
        <ele>926</ele>
        <time>2016-07-05T10:39:15Z</time>
      </trkpt>
      <trkpt lat="45.25766" lon="4.46814">
        <ele>927</ele>
        <time>2016-07-05T10:41:15Z</time>
      </trkpt>
      <trkpt lat="45.2575" lon="4.46779">
        <ele>930</ele>
        <time>2016-07-05T10:43:15Z</time>
      </trkpt>
      <trkpt lat="45.25735" lon="4.46748">
        <ele>926</ele>
        <time>2016-07-05T10:45:15Z</time>
      </trkpt>
      <trkpt lat="45.25724" lon="4.46725">
        <ele>926</ele>
        <time>2016-07-05T10:47:15Z</time>
      </trkpt>
      <trkpt lat="45.25708" lon="4.46692">
        <ele>927</ele>
        <time>2016-07-05T10:49:15Z</time>
      </trkpt>
      <trkpt lat="45.25692" lon="4.4666">
        <ele>931</ele>
        <time>2016-07-05T10:51:15Z</time>
      </trkpt>
      <trkpt lat="45.25681" lon="4.46638">
        <ele>932</ele>
        <time>2016-07-05T10:53:15Z</time>
      </trkpt>
      <trkpt lat="45.25675" lon="4.46624">
        <ele>933</ele>
        <time>2016-07-05T10:55:15Z</time>
      </trkpt>
      <trkpt lat="45.25668" lon="4.4661">
        <ele>934</ele>
        <time>2016-07-05T10:57:15Z</time>
      </trkpt>
      <trkpt lat="45.2566" lon="4.46596">
        <ele>932</ele>
        <time>2016-07-05T10:59:15Z</time>
      </trkpt>
      <trkpt lat="45.25655" lon="4.46587">
        <ele>932</ele>
        <time>2016-07-05T11:01:15Z</time>
      </trkpt>
      <trkpt lat="45.25651" lon="4.4658">
        <ele>935</ele>
        <time>2016-07-05T11:03:15Z</time>
      </trkpt>
      <trkpt lat="45.25647" lon="4.46573">
        <ele>936</ele>
        <time>2016-07-05T11:05:15Z</time>
      </trkpt>
      <trkpt lat="45.25643" lon="4.46567">
        <ele>937</ele>
        <time>2016-07-05T11:07:15Z</time>
      </trkpt>
      <trkpt lat="45.25635" lon="4.46556">
        <ele>937</ele>
        <time>2016-07-05T11:09:15Z</time>
      </trkpt>
      <trkpt lat="45.25627" lon="4.46547">
        <ele>938</ele>
        <time>2016-07-05T11:11:15Z</time>
      </trkpt>
      <trkpt lat="45.25621" lon="4.46541">
        <ele>938</ele>
        <time>2016-07-05T11:13:15Z</time>
      </trkpt>
      <trkpt lat="45.25617" lon="4.46535">
        <ele>938</ele>
        <time>2016-07-05T11:15:15Z</time>
      </trkpt>
      <trkpt lat="45.25614" lon="4.46531">
        <ele>938</ele>
        <time>2016-07-05T11:17:15Z</time>
      </trkpt>
      <trkpt lat="45.25612" lon="4.46526">
        <ele>938</ele>
        <time>2016-07-05T11:19:15Z</time>
      </trkpt>
      <trkpt lat="45.2561" lon="4.46522">
        <ele>938</ele>
        <time>2016-07-05T11:21:15Z</time>
      </trkpt>
      <trkpt lat="45.25609" lon="4.46519">
        <ele>938</ele>
        <time>2016-07-05T11:23:15Z</time>
      </trkpt>
      <trkpt lat="45.25609" lon="4.46515">
        <ele>938</ele>
        <time>2016-07-05T11:25:15Z</time>
      </trkpt>
      <trkpt lat="45.25609" lon="4.46512">
        <ele>938</ele>
        <time>2016-07-05T11:27:15Z</time>
      </trkpt>
      <trkpt lat="45.2561" lon="4.46509">
        <ele>938</ele>
        <time>2016-07-05T11:29:15Z</time>
      </trkpt>
      <trkpt lat="45.25611" lon="4.46506">
        <ele>939</ele>
        <time>2016-07-05T11:31:15Z</time>
      </trkpt>
      <trkpt lat="45.25613" lon="4.46502">
        <ele>939</ele>
        <time>2016-07-05T11:33:15Z</time>
      </trkpt>
      <trkpt lat="45.25614" lon="4.465">
        <ele>945</ele>
        <time>2016-07-05T11:35:15Z</time>
      </trkpt>
      <trkpt lat="45.25615" lon="4.465">
        <ele>945</ele>
        <time>2016-07-05T11:37:15Z</time>
      </trkpt>
      <trkpt lat="45.25616" lon="4.46499">
        <ele>946</ele>
        <time>2016-07-05T11:39:15Z</time>
      </trkpt>
      <trkpt lat="45.25617" lon="4.46499">
        <ele>946</ele>
        <time>2016-07-05T11:41:15Z</time>
      </trkpt>
      <trkpt lat="45.25618" lon="4.46499">
        <ele>946</ele>
        <time>2016-07-05T11:43:15Z</time>
      </trkpt>
      <trkpt lat="45.25619" lon="4.46499">
        <ele>946</ele>
        <time>2016-07-05T11:45:15Z</time>
      </trkpt>
      <trkpt lat="45.2562" lon="4.46499">
        <ele>946</ele>
        <time>2016-07-05T11:47:15Z</time>
      </trkpt>
      <trkpt lat="45.25622" lon="4.46499">
        <ele>946</ele>
        <time>2016-07-05T11:49:15Z</time>
      </trkpt>
      <trkpt lat="45.25624" lon="4.46499">
        <ele>947</ele>
        <time>2016-07-05T11:51:15Z</time>
      </trkpt>
      <trkpt lat="45.25627" lon="4.465">
        <ele>947</ele>
        <time>2016-07-05T11:53:15Z</time>
      </trkpt>
      <trkpt lat="45.25628" lon="4.46501">
        <ele>940</ele>
        <time>2016-07-05T11:55:15Z</time>
      </trkpt>
      <trkpt lat="45.2563" lon="4.46503">
        <ele>940</ele>
        <time>2016-07-05T11:57:15Z</time>
      </trkpt>
      <trkpt lat="45.25632" lon="4.46505">
        <ele>940</ele>
        <time>2016-07-05T11:59:15Z</time>
      </trkpt>
      <trkpt lat="45.25636" lon="4.46511">
        <ele>940</ele>
        <time>2016-07-05T12:01:15Z</time>
      </trkpt>
      <trkpt lat="45.2564" lon="4.46515">
        <ele>941</ele>
        <time>2016-07-05T12:03:15Z</time>
      </trkpt>
      <trkpt lat="45.25642" lon="4.46519">
        <ele>941</ele>
        <time>2016-07-05T12:05:15Z</time>
      </trkpt>
      <trkpt lat="45.25644" lon="4.46523">
        <ele>940</ele>
        <time>2016-07-05T12:07:15Z</time>
      </trkpt>
      <trkpt lat="45.25646" lon="4.46526">
        <ele>940</ele>
        <time>2016-07-05T12:09:15Z</time>
      </trkpt>
      <trkpt lat="45.25649" lon="4.46531">
        <ele>940</ele>
        <time>2016-07-05T12:11:15Z</time>
      </trkpt>
      <trkpt lat="45.25652" lon="4.46537">
        <ele>939</ele>
        <time>2016-07-05T12:13:15Z</time>
      </trkpt>
      <trkpt lat="45.25659" lon="4.46548">
        <ele>938</ele>
        <time>2016-07-05T12:15:15Z</time>
      </trkpt>
      <trkpt lat="45.25664" lon="4.46558">
        <ele>937</ele>
        <time>2016-07-05T12:17:15Z</time>
      </trkpt>
      <trkpt lat="45.25671" lon="4.4657">
        <ele>941</ele>
        <time>2016-07-05T12:19:15Z</time>
      </trkpt>
      <trkpt lat="45.25676" lon="4.46578">
        <ele>939</ele>
        <time>2016-07-05T12:21:15Z</time>
      </trkpt>
      <trkpt lat="45.25682" lon="4.46586">
        <ele>935</ele>
        <time>2016-07-05T12:23:15Z</time>
      </trkpt>
      <trkpt lat="45.25689" lon="4.46594">
        <ele>936</ele>
        <time>2016-07-05T12:25:15Z</time>
      </trkpt>
      <trkpt lat="45.25695" lon="4.46601">
        <ele>936</ele>
        <time>2016-07-05T12:27:15Z</time>
      </trkpt>
      <trkpt lat="45.257" lon="4.46606">
        <ele>937</ele>
        <time>2016-07-05T12:29:15Z</time>
      </trkpt>
      <trkpt lat="45.25712" lon="4.46617">
        <ele>937</ele>
        <time>2016-07-05T12:31:15Z</time>
      </trkpt>
      <trkpt lat="45.25717" lon="4.46625">
        <ele>937</ele>
        <time>2016-07-05T12:33:15Z</time>
      </trkpt>
      <trkpt lat="45.25723" lon="4.46632">
        <ele>937</ele>
        <time>2016-07-05T12:35:15Z</time>
      </trkpt>
      <trkpt lat="45.25728" lon="4.46641">
        <ele>937</ele>
        <time>2016-07-05T12:37:15Z</time>
      </trkpt>
      <trkpt lat="45.25733" lon="4.4665">
        <ele>937</ele>
        <time>2016-07-05T12:39:15Z</time>
      </trkpt>
      <trkpt lat="45.2574" lon="4.46661">
        <ele>937</ele>
        <time>2016-07-05T12:41:15Z</time>
      </trkpt>
      <trkpt lat="45.25749" lon="4.46677">
        <ele>934</ele>
        <time>2016-07-05T12:43:15Z</time>
      </trkpt>
      <trkpt lat="45.25757" lon="4.46692">
        <ele>943</ele>
        <time>2016-07-05T12:45:15Z</time>
      </trkpt>
      <trkpt lat="45.25762" lon="4.46701">
        <ele>943</ele>
        <time>2016-07-05T12:47:15Z</time>
      </trkpt>
      <trkpt lat="45.25777" lon="4.46728">
        <ele>942</ele>
        <time>2016-07-05T12:49:15Z</time>
      </trkpt>
      <trkpt lat="45.25788" lon="4.46745">
        <ele>944</ele>
        <time>2016-07-05T12:51:15Z</time>
      </trkpt>
      <trkpt lat="45.25795" lon="4.46756">
        <ele>938</ele>
        <time>2016-07-05T12:53:15Z</time>
      </trkpt>
      <trkpt lat="45.25813" lon="4.46781">
        <ele>940</ele>
        <time>2016-07-05T12:55:15Z</time>
      </trkpt>
      <trkpt lat="45.25825" lon="4.46797">
        <ele>939</ele>
        <time>2016-07-05T12:57:15Z</time>
      </trkpt>
      <trkpt lat="45.25836" lon="4.46812">
        <ele>952</ele>
        <time>2016-07-05T12:59:15Z</time>
      </trkpt>
      <trkpt lat="45.25846" lon="4.46826">
        <ele>949</ele>
        <time>2016-07-05T13:01:15Z</time>
      </trkpt>
      <trkpt lat="45.25868" lon="4.46856">
        <ele>943</ele>
        <time>2016-07-05T13:03:15Z</time>
      </trkpt>
      <trkpt lat="45.25874" lon="4.46864">
        <ele>943</ele>
        <time>2016-07-05T13:05:15Z</time>
      </trkpt>
      <trkpt lat="45.25881" lon="4.4687">
        <ele>943</ele>
        <time>2016-07-05T13:07:15Z</time>
      </trkpt>
      <trkpt lat="45.25884" lon="4.46873">
        <ele>943</ele>
        <time>2016-07-05T13:09:15Z</time>
      </trkpt>
      <trkpt lat="45.25887" lon="4.46876">
        <ele>943</ele>
        <time>2016-07-05T13:11:15Z</time>
      </trkpt>
      <trkpt lat="45.25889" lon="4.46878">
        <ele>943</ele>
        <time>2016-07-05T13:13:15Z</time>
      </trkpt>
      <trkpt lat="45.25892" lon="4.4688">
        <ele>943</ele>
        <time>2016-07-05T13:15:15Z</time>
      </trkpt>
      <trkpt lat="45.25894" lon="4.46881">
        <ele>943</ele>
        <time>2016-07-05T13:17:15Z</time>
      </trkpt>
      <trkpt lat="45.25897" lon="4.46882">
        <ele>943</ele>
        <time>2016-07-05T13:19:15Z</time>
      </trkpt>
      <trkpt lat="45.259" lon="4.46883">
        <ele>943</ele>
        <time>2016-07-05T13:21:15Z</time>
      </trkpt>
      <trkpt lat="45.25903" lon="4.46883">
        <ele>944</ele>
        <time>2016-07-05T13:23:15Z</time>
      </trkpt>
      <trkpt lat="45.25906" lon="4.46883">
        <ele>944</ele>
        <time>2016-07-05T13:25:15Z</time>
      </trkpt>
      <trkpt lat="45.25911" lon="4.46883">
        <ele>944</ele>
        <time>2016-07-05T13:27:15Z</time>
      </trkpt>
      <trkpt lat="45.25918" lon="4.46883">
        <ele>956</ele>
        <time>2016-07-05T13:29:15Z</time>
      </trkpt>
      <trkpt lat="45.25925" lon="4.46882">
        <ele>956</ele>
        <time>2016-07-05T13:31:15Z</time>
      </trkpt>
      <trkpt lat="45.25931" lon="4.46881">
        <ele>957</ele>
        <time>2016-07-05T13:33:15Z</time>
      </trkpt>
      <trkpt lat="45.25934" lon="4.46881">
        <ele>957</ele>
        <time>2016-07-05T13:35:15Z</time>
      </trkpt>
      <trkpt lat="45.25936" lon="4.4688">
        <ele>958</ele>
        <time>2016-07-05T13:37:15Z</time>
      </trkpt>
      <trkpt lat="45.25938" lon="4.46879">
        <ele>958</ele>
        <time>2016-07-05T13:39:15Z</time>
      </trkpt>
      <trkpt lat="45.2594" lon="4.46878">
        <ele>958</ele>
        <time>2016-07-05T13:41:15Z</time>
      </trkpt>
      <trkpt lat="45.25941" lon="4.46876">
        <ele>959</ele>
        <time>2016-07-05T13:43:15Z</time>
      </trkpt>
      <trkpt lat="45.25942" lon="4.46875">
        <ele>959</ele>
        <time>2016-07-05T13:45:15Z</time>
      </trkpt>
      <trkpt lat="45.25944" lon="4.46873">
        <ele>959</ele>
        <time>2016-07-05T13:47:15Z</time>
      </trkpt>
      <trkpt lat="45.25948" lon="4.46868">
        <ele>960</ele>
        <time>2016-07-05T13:49:15Z</time>
      </trkpt>
      <trkpt lat="45.2595" lon="4.46865">
        <ele>961</ele>
        <time>2016-07-05T13:51:15Z</time>
      </trkpt>
      <trkpt lat="45.25951" lon="4.46863">
        <ele>961</ele>
        <time>2016-07-05T13:53:15Z</time>
      </trkpt>
      <trkpt lat="45.25952" lon="4.4686">
        <ele>961</ele>
        <time>2016-07-05T13:55:15Z</time>
      </trkpt>
      <trkpt lat="45.25952" lon="4.46857">
        <ele>961</ele>
        <time>2016-07-05T13:57:15Z</time>
      </trkpt>
      <trkpt lat="45.25952" lon="4.46853">
        <ele>962</ele>
        <time>2016-07-05T13:59:15Z</time>
      </trkpt>
      <trkpt lat="45.25951" lon="4.46849">
        <ele>962</ele>
        <time>2016-07-05T14:01:15Z</time>
      </trkpt>
      <trkpt lat="45.2595" lon="4.46846">
        <ele>962</ele>
        <time>2016-07-05T14:03:15Z</time>
      </trkpt>
      <trkpt lat="45.25949" lon="4.46844">
        <ele>962</ele>
        <time>2016-07-05T14:05:15Z</time>
      </trkpt>
      <trkpt lat="45.25947" lon="4.46841">
        <ele>962</ele>
        <time>2016-07-05T14:07:15Z</time>
      </trkpt>
      <trkpt lat="45.25946" lon="4.46838">
        <ele>962</ele>
        <time>2016-07-05T14:09:15Z</time>
      </trkpt>
      <trkpt lat="45.25944" lon="4.46837">
        <ele>962</ele>
        <time>2016-07-05T14:11:15Z</time>
      </trkpt>
      <trkpt lat="45.25941" lon="4.46835">
        <ele>961</ele>
        <time>2016-07-05T14:13:15Z</time>
      </trkpt>
      <trkpt lat="45.25935" lon="4.46832">
        <ele>969</ele>
        <time>2016-07-05T14:15:15Z</time>
      </trkpt>
      <trkpt lat="45.2593" lon="4.4683">
        <ele>968</ele>
        <time>2016-07-05T14:17:15Z</time>
      </trkpt>
      <trkpt lat="45.25925" lon="4.46828">
        <ele>966</ele>
        <time>2016-07-05T14:19:15Z</time>
      </trkpt>
      <trkpt lat="45.25914" lon="4.46825">
        <ele>961</ele>
        <time>2016-07-05T14:21:15Z</time>
      </trkpt>
      <trkpt lat="45.25904" lon="4.46822">
        <ele>960</ele>
        <time>2016-07-05T14:23:15Z</time>
      </trkpt>
      <trkpt lat="45.25896" lon="4.4682">
        <ele>960</ele>
        <time>2016-07-05T14:25:15Z</time>
      </trkpt>
      <trkpt lat="45.2589" lon="4.46817">
        <ele>960</ele>
        <time>2016-07-05T14:27:15Z</time>
      </trkpt>
      <trkpt lat="45.25881" lon="4.46811">
        <ele>959</ele>
        <time>2016-07-05T14:29:15Z</time>
      </trkpt>
      <trkpt lat="45.25869" lon="4.46801">
        <ele>958</ele>
        <time>2016-07-05T14:31:15Z</time>
      </trkpt>
      <trkpt lat="45.25861" lon="4.46791">
        <ele>958</ele>
        <time>2016-07-05T14:33:15Z</time>
      </trkpt>
      <trkpt lat="45.25854" lon="4.46783">
        <ele>959</ele>
        <time>2016-07-05T14:35:15Z</time>
      </trkpt>
      <trkpt lat="45.25847" lon="4.46771">
        <ele>959</ele>
        <time>2016-07-05T14:37:15Z</time>
      </trkpt>
      <trkpt lat="45.25842" lon="4.4676">
        <ele>959</ele>
        <time>2016-07-05T14:39:15Z</time>
      </trkpt>
      <trkpt lat="45.25837" lon="4.46747">
        <ele>961</ele>
        <time>2016-07-05T14:41:15Z</time>
      </trkpt>
      <trkpt lat="45.25833" lon="4.46734">
        <ele>953</ele>
        <time>2016-07-05T14:43:15Z</time>
      </trkpt>
      <trkpt lat="45.2583" lon="4.46722">
        <ele>952</ele>
        <time>2016-07-05T14:45:15Z</time>
      </trkpt>
      <trkpt lat="45.25828" lon="4.46705">
        <ele>953</ele>
        <time>2016-07-05T14:47:15Z</time>
      </trkpt>
      <trkpt lat="45.25827" lon="4.46687">
        <ele>956</ele>
        <time>2016-07-05T14:49:15Z</time>
      </trkpt>
      <trkpt lat="45.25828" lon="4.46662">
        <ele>964</ele>
        <time>2016-07-05T14:51:15Z</time>
      </trkpt>
      <trkpt lat="45.2583" lon="4.46636">
        <ele>961</ele>
        <time>2016-07-05T14:53:15Z</time>
      </trkpt>
      <trkpt lat="45.25831" lon="4.46611">
        <ele>963</ele>
        <time>2016-07-05T14:55:15Z</time>
      </trkpt>
      <trkpt lat="45.2583" lon="4.46586">
        <ele>970</ele>
        <time>2016-07-05T14:57:15Z</time>
      </trkpt>
      <trkpt lat="45.25827" lon="4.46564">
        <ele>972</ele>
        <time>2016-07-05T14:59:15Z</time>
      </trkpt>
      <trkpt lat="45.25824" lon="4.46552">
        <ele>973</ele>
        <time>2016-07-05T15:01:15Z</time>
      </trkpt>
      <trkpt lat="45.25821" lon="4.46542">
        <ele>974</ele>
        <time>2016-07-05T15:03:15Z</time>
      </trkpt>
      <trkpt lat="45.25817" lon="4.46531">
        <ele>975</ele>
        <time>2016-07-05T15:05:15Z</time>
      </trkpt>
      <trkpt lat="45.25811" lon="4.46519">
        <ele>976</ele>
        <time>2016-07-05T15:07:15Z</time>
      </trkpt>
      <trkpt lat="45.25801" lon="4.465">
        <ele>987</ele>
        <time>2016-07-05T15:09:15Z</time>
      </trkpt>
      <trkpt lat="45.25782" lon="4.46463">
        <ele>987</ele>
        <time>2016-07-05T15:11:15Z</time>
      </trkpt>
      <trkpt lat="45.25767" lon="4.46431">
        <ele>988</ele>
        <time>2016-07-05T15:13:15Z</time>
      </trkpt>
      <trkpt lat="45.25757" lon="4.46413">
        <ele>992</ele>
        <time>2016-07-05T15:15:15Z</time>
      </trkpt>
      <trkpt lat="45.25747" lon="4.46399">
        <ele>987</ele>
        <time>2016-07-05T15:17:15Z</time>
      </trkpt>
      <trkpt lat="45.25744" lon="4.46393">
        <ele>987</ele>
        <time>2016-07-05T15:19:15Z</time>
      </trkpt>
      <trkpt lat="45.25739" lon="4.46387">
        <ele>987</ele>
        <time>2016-07-05T15:21:15Z</time>
      </trkpt>
      <trkpt lat="45.25727" lon="4.46375">
        <ele>987</ele>
        <time>2016-07-05T15:23:15Z</time>
      </trkpt>
      <trkpt lat="45.25716" lon="4.46365">
        <ele>987</ele>
        <time>2016-07-05T15:25:15Z</time>
      </trkpt>
      <trkpt lat="45.25701" lon="4.46354">
        <ele>987</ele>
        <time>2016-07-05T15:27:15Z</time>
      </trkpt>
      <trkpt lat="45.25684" lon="4.46342">
        <ele>986</ele>
        <time>2016-07-05T15:29:15Z</time>
      </trkpt>
      <trkpt lat="45.25676" lon="4.46337">
        <ele>986</ele>
        <time>2016-07-05T15:31:15Z</time>
      </trkpt>
      <trkpt lat="45.25668" lon="4.4633">
        <ele>989</ele>
        <time>2016-07-05T15:33:15Z</time>
      </trkpt>
      <trkpt lat="45.25661" lon="4.46323">
        <ele>987</ele>
        <time>2016-07-05T15:35:15Z</time>
      </trkpt>
      <trkpt lat="45.25654" lon="4.46315">
        <ele>987</ele>
        <time>2016-07-05T15:37:15Z</time>
      </trkpt>
      <trkpt lat="45.25647" lon="4.46306">
        <ele>987</ele>
        <time>2016-07-05T15:39:15Z</time>
      </trkpt>
      <trkpt lat="45.25642" lon="4.46297">
        <ele>987</ele>
        <time>2016-07-05T15:41:15Z</time>
      </trkpt>
      <trkpt lat="45.25636" lon="4.46288">
        <ele>988</ele>
        <time>2016-07-05T15:43:15Z</time>
      </trkpt>
      <trkpt lat="45.2563" lon="4.46276">
        <ele>988</ele>
        <time>2016-07-05T15:45:15Z</time>
      </trkpt>
      <trkpt lat="45.25622" lon="4.46259">
        <ele>989</ele>
        <time>2016-07-05T15:47:15Z</time>
      </trkpt>
      <trkpt lat="45.25615" lon="4.4624">
        <ele>999</ele>
        <time>2016-07-05T15:49:15Z</time>
      </trkpt>
      <trkpt lat="45.25612" lon="4.46228">
        <ele>999</ele>
        <time>2016-07-05T15:51:15Z</time>
      </trkpt>
      <trkpt lat="45.25608" lon="4.46213">
        <ele>1000</ele>
        <time>2016-07-05T15:53:15Z</time>
      </trkpt>
      <trkpt lat="45.25601" lon="4.46193">
        <ele>1001</ele>
        <time>2016-07-05T15:55:15Z</time>
      </trkpt>
      <trkpt lat="45.25595" lon="4.46175">
        <ele>1000</ele>
        <time>2016-07-05T15:57:15Z</time>
      </trkpt>
      <trkpt lat="45.25584" lon="4.46148">
        <ele>1008</ele>
        <time>2016-07-05T15:59:15Z</time>
      </trkpt>
      <trkpt lat="45.25574" lon="4.46128">
        <ele>997</ele>
        <time>2016-07-05T16:01:15Z</time>
      </trkpt>
      <trkpt lat="45.25565" lon="4.46112">
        <ele>999</ele>
        <time>2016-07-05T16:03:15Z</time>
      </trkpt>
      <trkpt lat="45.2555" lon="4.4609">
        <ele>998</ele>
        <time>2016-07-05T16:05:15Z</time>
      </trkpt>
      <trkpt lat="45.25544" lon="4.46078">
        <ele>1008</ele>
        <time>2016-07-05T16:07:15Z</time>
      </trkpt>
      <trkpt lat="45.25535" lon="4.46061">
        <ele>1008</ele>
        <time>2016-07-05T16:09:15Z</time>
      </trkpt>
      <trkpt lat="45.25529" lon="4.46048">
        <ele>1009</ele>
        <time>2016-07-05T16:11:15Z</time>
      </trkpt>
      <trkpt lat="45.25524" lon="4.46038">
        <ele>1010</ele>
        <time>2016-07-05T16:13:15Z</time>
      </trkpt>
      <trkpt lat="45.25512" lon="4.4601">
        <ele>1010</ele>
        <time>2016-07-05T16:15:15Z</time>
      </trkpt>
      <trkpt lat="45.25506" lon="4.45994">
        <ele>1015</ele>
        <time>2016-07-05T16:17:15Z</time>
      </trkpt>
      <trkpt lat="45.255" lon="4.45979">
        <ele>1020</ele>
        <time>2016-07-05T16:19:15Z</time>
      </trkpt>
      <trkpt lat="45.25496" lon="4.4597">
        <ele>1009</ele>
        <time>2016-07-05T16:21:15Z</time>
      </trkpt>
      <trkpt lat="45.25492" lon="4.45962">
        <ele>1010</ele>
        <time>2016-07-05T16:23:15Z</time>
      </trkpt>
      <trkpt lat="45.25488" lon="4.45954">
        <ele>1011</ele>
        <time>2016-07-05T16:25:15Z</time>
      </trkpt>
      <trkpt lat="45.25484" lon="4.45948">
        <ele>1012</ele>
        <time>2016-07-05T16:27:15Z</time>
      </trkpt>
      <trkpt lat="45.2548" lon="4.45942">
        <ele>1012</ele>
        <time>2016-07-05T16:29:15Z</time>
      </trkpt>
      <trkpt lat="45.25476" lon="4.45938">
        <ele>1012</ele>
        <time>2016-07-05T16:31:15Z</time>
      </trkpt>
      <trkpt lat="45.25472" lon="4.45935">
        <ele>1012</ele>
        <time>2016-07-05T16:33:15Z</time>
      </trkpt>
      <trkpt lat="45.25467" lon="4.45932">
        <ele>1012</ele>
        <time>2016-07-05T16:35:15Z</time>
      </trkpt>
      <trkpt lat="45.25457" lon="4.45925">
        <ele>1011</ele>
        <time>2016-07-05T16:37:15Z</time>
      </trkpt>
      <trkpt lat="45.2545" lon="4.4592">
        <ele>1010</ele>
        <time>2016-07-05T16:39:15Z</time>
      </trkpt>
      <trkpt lat="45.25444" lon="4.45916">
        <ele>1020</ele>
        <time>2016-07-05T16:41:15Z</time>
      </trkpt>
      <trkpt lat="45.25438" lon="4.4591">
        <ele>1019</ele>
        <time>2016-07-05T16:43:15Z</time>
      </trkpt>
      <trkpt lat="45.25434" lon="4.45906">
        <ele>1019</ele>
        <time>2016-07-05T16:45:15Z</time>
      </trkpt>
      <trkpt lat="45.25421" lon="4.45887">
        <ele>1022</ele>
        <time>2016-07-05T16:47:15Z</time>
      </trkpt>
      <trkpt lat="45.25409" lon="4.4587">
        <ele>1020</ele>
        <time>2016-07-05T16:49:15Z</time>
      </trkpt>
      <trkpt lat="45.25399" lon="4.45858">
        <ele>1021</ele>
        <time>2016-07-05T16:51:15Z</time>
      </trkpt>
      <trkpt lat="45.25385" lon="4.45841">
        <ele>1022</ele>
        <time>2016-07-05T16:53:15Z</time>
      </trkpt>
      <trkpt lat="45.2537" lon="4.45825">
        <ele>1030</ele>
        <time>2016-07-05T16:55:15Z</time>
      </trkpt>
      <trkpt lat="45.25361" lon="4.45813">
        <ele>1030</ele>
        <time>2016-07-05T16:57:15Z</time>
      </trkpt>
      <trkpt lat="45.25354" lon="4.45805">
        <ele>1030</ele>
        <time>2016-07-05T16:59:15Z</time>
      </trkpt>
      <trkpt lat="45.2535" lon="4.45798">
        <ele>1030</ele>
        <time>2016-07-05T17:01:15Z</time>
      </trkpt>
      <trkpt lat="45.25346" lon="4.45792">
        <ele>1030</ele>
        <time>2016-07-05T17:03:15Z</time>
      </trkpt>
      <trkpt lat="45.25343" lon="4.45786">
        <ele>1030</ele>
        <time>2016-07-05T17:05:15Z</time>
      </trkpt>
      <trkpt lat="45.25338" lon="4.45772">
        <ele>1030</ele>
        <time>2016-07-05T17:07:15Z</time>
      </trkpt>
      <trkpt lat="45.25334" lon="4.4576">
        <ele>1029</ele>
        <time>2016-07-05T17:09:15Z</time>
      </trkpt>
      <trkpt lat="45.25331" lon="4.45749">
        <ele>1028</ele>
        <time>2016-07-05T17:11:15Z</time>
      </trkpt>
      <trkpt lat="45.25329" lon="4.45736">
        <ele>1030</ele>
        <time>2016-07-05T17:13:15Z</time>
      </trkpt>
      <trkpt lat="45.25329" lon="4.45719">
        <ele>1031</ele>
        <time>2016-07-05T17:15:15Z</time>
      </trkpt>
      <trkpt lat="45.25328" lon="4.45708">
        <ele>1031</ele>
        <time>2016-07-05T17:17:15Z</time>
      </trkpt>
      <trkpt lat="45.25331" lon="4.45692">
        <ele>1029</ele>
        <time>2016-07-05T17:19:15Z</time>
      </trkpt>
      <trkpt lat="45.25333" lon="4.45682">
        <ele>1027</ele>
        <time>2016-07-05T17:21:15Z</time>
      </trkpt>
      <trkpt lat="45.25336" lon="4.45667">
        <ele>1023</ele>
        <time>2016-07-05T17:23:15Z</time>
      </trkpt>
      <trkpt lat="45.25336" lon="4.45667">
        <ele>1023</ele>
        <time>2016-07-05T17:25:15Z</time>
      </trkpt>
      <trkpt lat="45.25347" lon="4.45668">
        <ele>1028</ele>
        <time>2016-07-05T17:27:15Z</time>
      </trkpt>
      <trkpt lat="45.2535" lon="4.45666">
        <ele>1027</ele>
        <time>2016-07-05T17:29:15Z</time>
      </trkpt>
      <trkpt lat="45.25352" lon="4.45663">
        <ele>1027</ele>
        <time>2016-07-05T17:31:15Z</time>
      </trkpt>
      <trkpt lat="45.25355" lon="4.45657">
        <ele>1028</ele>
        <time>2016-07-05T17:33:15Z</time>
      </trkpt>
      <trkpt lat="45.25357" lon="4.45653">
        <ele>1028</ele>
        <time>2016-07-05T17:35:15Z</time>
      </trkpt>
      <trkpt lat="45.25364" lon="4.45637">
        <ele>1030</ele>
        <time>2016-07-05T17:37:15Z</time>
      </trkpt>
      <trkpt lat="45.25367" lon="4.45632">
        <ele>1030</ele>
        <time>2016-07-05T17:39:15Z</time>
      </trkpt>
      <trkpt lat="45.25375" lon="4.45614">
        <ele>1030</ele>
        <time>2016-07-05T17:41:15Z</time>
      </trkpt>
      <trkpt lat="45.2538" lon="4.45603">
        <ele>1031</ele>
        <time>2016-07-05T17:43:15Z</time>
      </trkpt>
      <trkpt lat="45.25384" lon="4.45595">
        <ele>1031</ele>
        <time>2016-07-05T17:45:15Z</time>
      </trkpt>
      <trkpt lat="45.25386" lon="4.45586">
        <ele>1032</ele>
        <time>2016-07-05T17:47:15Z</time>
      </trkpt>
      <trkpt lat="45.25387" lon="4.45579">
        <ele>1027</ele>
        <time>2016-07-05T17:49:15Z</time>
      </trkpt>
      <trkpt lat="45.25389" lon="4.45568">
        <ele>1027</ele>
        <time>2016-07-05T17:51:15Z</time>
      </trkpt>
      <trkpt lat="45.2539" lon="4.45561">
        <ele>1026</ele>
        <time>2016-07-05T17:53:15Z</time>
      </trkpt>
      <trkpt lat="45.25392" lon="4.45554">
        <ele>1026</ele>
        <time>2016-07-05T17:55:15Z</time>
      </trkpt>
      <trkpt lat="45.25394" lon="4.45548">
        <ele>1026</ele>
        <time>2016-07-05T17:57:15Z</time>
      </trkpt>
      <trkpt lat="45.25397" lon="4.45543">
        <ele>1026</ele>
        <time>2016-07-05T17:59:15Z</time>
      </trkpt>
      <trkpt lat="45.254" lon="4.4554">
        <ele>1026</ele>
        <time>2016-07-05T18:01:15Z</time>
      </trkpt>
      <trkpt lat="45.25403" lon="4.45536">
        <ele>1026</ele>
        <time>2016-07-05T18:03:15Z</time>
      </trkpt>
      <trkpt lat="45.25406" lon="4.45532">
        <ele>1026</ele>
        <time>2016-07-05T18:05:15Z</time>
      </trkpt>
      <trkpt lat="45.2541" lon="4.4553">
        <ele>1026</ele>
        <time>2016-07-05T18:07:15Z</time>
      </trkpt>
      <trkpt lat="45.25416" lon="4.45525">
        <ele>1027</ele>
        <time>2016-07-05T18:09:15Z</time>
      </trkpt>
      <trkpt lat="45.25422" lon="4.45523">
        <ele>1039</ele>
        <time>2016-07-05T18:11:15Z</time>
      </trkpt>
      <trkpt lat="45.25428" lon="4.4552">
        <ele>1039</ele>
        <time>2016-07-05T18:13:15Z</time>
      </trkpt>
      <trkpt lat="45.25436" lon="4.45516">
        <ele>1040</ele>
        <time>2016-07-05T18:15:15Z</time>
      </trkpt>
      <trkpt lat="45.25449" lon="4.4551">
        <ele>1042</ele>
        <time>2016-07-05T18:17:15Z</time>
      </trkpt>
      <trkpt lat="45.25461" lon="4.45505">
        <ele>1043</ele>
        <time>2016-07-05T18:19:15Z</time>
      </trkpt>
      <trkpt lat="45.25469" lon="4.455">
        <ele>1042</ele>
        <time>2016-07-05T18:21:15Z</time>
      </trkpt>
      <trkpt lat="45.25474" lon="4.45496">
        <ele>1046</ele>
        <time>2016-07-05T18:23:15Z</time>
      </trkpt>
      <trkpt lat="45.25481" lon="4.45488">
        <ele>1047</ele>
        <time>2016-07-05T18:25:15Z</time>
      </trkpt>
      <trkpt lat="45.25488" lon="4.45482">
        <ele>1047</ele>
        <time>2016-07-05T18:27:15Z</time>
      </trkpt>
      <trkpt lat="45.2549" lon="4.45479">
        <ele>1048</ele>
        <time>2016-07-05T18:29:15Z</time>
      </trkpt>
      <trkpt lat="45.25495" lon="4.45475">
        <ele>1048</ele>
        <time>2016-07-05T18:31:15Z</time>
      </trkpt>
      <trkpt lat="45.25498" lon="4.45473">
        <ele>1048</ele>
        <time>2016-07-05T18:33:15Z</time>
      </trkpt>
      <trkpt lat="45.25501" lon="4.45473">
        <ele>1057</ele>
        <time>2016-07-05T18:35:15Z</time>
      </trkpt>
      <trkpt lat="45.25501" lon="4.45473">
        <ele>1057</ele>
        <time>2016-07-05T18:37:15Z</time>
      </trkpt>
      <trkpt lat="45.25504" lon="4.45477">
        <ele>1056</ele>
        <time>2016-07-05T18:39:15Z</time>
      </trkpt>
      <trkpt lat="45.25505" lon="4.45481">
        <ele>1056</ele>
        <time>2016-07-05T18:41:15Z</time>
      </trkpt>
      <trkpt lat="45.25505" lon="4.45484">
        <ele>1055</ele>
        <time>2016-07-05T18:43:15Z</time>
      </trkpt>
      <trkpt lat="45.25504" lon="4.45488">
        <ele>1054</ele>
        <time>2016-07-05T18:45:15Z</time>
      </trkpt>
      <trkpt lat="45.25502" lon="4.45491">
        <ele>1053</ele>
        <time>2016-07-05T18:47:15Z</time>
      </trkpt>
      <trkpt lat="45.25499" lon="4.45494">
        <ele>1048</ele>
        <time>2016-07-05T18:49:15Z</time>
      </trkpt>
      <trkpt lat="45.25496" lon="4.45497">
        <ele>1048</ele>
        <time>2016-07-05T18:51:15Z</time>
      </trkpt>
      <trkpt lat="45.25488" lon="4.45504">
        <ele>1047</ele>
        <time>2016-07-05T18:53:15Z</time>
      </trkpt>
      <trkpt lat="45.25476" lon="4.45513">
        <ele>1046</ele>
        <time>2016-07-05T18:55:15Z</time>
      </trkpt>
      <trkpt lat="45.25461" lon="4.45525">
        <ele>1044</ele>
        <time>2016-07-05T18:57:15Z</time>
      </trkpt>
      <trkpt lat="45.25441" lon="4.45544">
        <ele>1043</ele>
        <time>2016-07-05T18:59:15Z</time>
      </trkpt>
      <trkpt lat="45.25431" lon="4.45554">
        <ele>1043</ele>
        <time>2016-07-05T19:01:15Z</time>
      </trkpt>
      <trkpt lat="45.25427" lon="4.45559">
        <ele>1042</ele>
        <time>2016-07-05T19:03:15Z</time>
      </trkpt>
      <trkpt lat="45.25424" lon="4.45564">
        <ele>1042</ele>
        <time>2016-07-05T19:05:15Z</time>
      </trkpt>
      <trkpt lat="45.25419" lon="4.45575">
        <ele>1041</ele>
        <time>2016-07-05T19:07:15Z</time>
      </trkpt>
      <trkpt lat="45.25416" lon="4.45585">
        <ele>1038</ele>
        <time>2016-07-05T19:09:15Z</time>
      </trkpt>
      <trkpt lat="45.25416" lon="4.45588">
        <ele>1038</ele>
        <time>2016-07-05T19:11:15Z</time>
      </trkpt>
      <trkpt lat="45.25414" lon="4.45596">
        <ele>1036</ele>
        <time>2016-07-05T19:13:15Z</time>
      </trkpt>
      <trkpt lat="45.25411" lon="4.45618">
        <ele>1035</ele>
        <time>2016-07-05T19:15:15Z</time>
      </trkpt>
      <trkpt lat="45.25408" lon="4.45637">
        <ele>1036</ele>
        <time>2016-07-05T19:17:15Z</time>
      </trkpt>
      <trkpt lat="45.25405" lon="4.45668">
        <ele>1043</ele>
        <time>2016-07-05T19:19:15Z</time>
      </trkpt>
      <trkpt lat="45.25405" lon="4.45675">
        <ele>1042</ele>
        <time>2016-07-05T19:21:15Z</time>
      </trkpt>
      <trkpt lat="45.25406" lon="4.45686">
        <ele>1041</ele>
        <time>2016-07-05T19:23:15Z</time>
      </trkpt>
      <trkpt lat="45.25408" lon="4.45699">
        <ele>1040</ele>
        <time>2016-07-05T19:25:15Z</time>
      </trkpt>
      <trkpt lat="45.25411" lon="4.45706">
        <ele>1040</ele>
        <time>2016-07-05T19:27:15Z</time>
      </trkpt>
      <trkpt lat="45.25414" lon="4.45712">
        <ele>1040</ele>
        <time>2016-07-05T19:29:15Z</time>
      </trkpt>
      <trkpt lat="45.25417" lon="4.45718">
        <ele>1055</ele>
        <time>2016-07-05T19:31:15Z</time>
      </trkpt>
      <trkpt lat="45.25421" lon="4.45723">
        <ele>1054</ele>
        <time>2016-07-05T19:33:15Z</time>
      </trkpt>
      <trkpt lat="45.25424" lon="4.45728">
        <ele>1054</ele>
        <time>2016-07-05T19:35:15Z</time>
      </trkpt>
      <trkpt lat="45.25428" lon="4.45735">
        <ele>1053</ele>
        <time>2016-07-05T19:37:15Z</time>
      </trkpt>
      <trkpt lat="45.25432" lon="4.4574">
        <ele>1054</ele>
        <time>2016-07-05T19:39:15Z</time>
      </trkpt>
      <trkpt lat="45.25437" lon="4.45744">
        <ele>1054</ele>
        <time>2016-07-05T19:41:15Z</time>
      </trkpt>
      <trkpt lat="45.25451" lon="4.45757">
        <ele>1051</ele>
        <time>2016-07-05T19:43:15Z</time>
      </trkpt>
      <trkpt lat="45.25456" lon="4.45761">
        <ele>1052</ele>
        <time>2016-07-05T19:45:15Z</time>
      </trkpt>
      <trkpt lat="45.2546" lon="4.45765">
        <ele>1052</ele>
        <time>2016-07-05T19:47:15Z</time>
      </trkpt>
      <trkpt lat="45.25465" lon="4.45769">
        <ele>1053</ele>
        <time>2016-07-05T19:49:15Z</time>
      </trkpt>
      <trkpt lat="45.2547" lon="4.45773">
        <ele>1054</ele>
        <time>2016-07-05T19:51:15Z</time>
      </trkpt>
      <trkpt lat="45.25476" lon="4.45776">
        <ele>1054</ele>
        <time>2016-07-05T19:53:15Z</time>
      </trkpt>
      <trkpt lat="45.25483" lon="4.4578">
        <ele>1055</ele>
        <time>2016-07-05T19:55:15Z</time>
      </trkpt>
      <trkpt lat="45.25485" lon="4.45781">
        <ele>1055</ele>
        <time>2016-07-05T19:57:15Z</time>
      </trkpt>
      <trkpt lat="45.25491" lon="4.45784">
        <ele>1055</ele>
        <time>2016-07-05T19:59:15Z</time>
      </trkpt>
      <trkpt lat="45.25513" lon="4.45792">
        <ele>1068</ele>
        <time>2016-07-05T20:01:15Z</time>
      </trkpt>
      <trkpt lat="45.25535" lon="4.45798">
        <ele>1069</ele>
        <time>2016-07-05T20:03:15Z</time>
      </trkpt>
      <trkpt lat="45.25556" lon="4.45805">
        <ele>1071</ele>
        <time>2016-07-05T20:05:15Z</time>
      </trkpt>
      <trkpt lat="45.25569" lon="4.4581">
        <ele>1072</ele>
        <time>2016-07-05T20:07:15Z</time>
      </trkpt>
      <trkpt lat="45.25577" lon="4.45814">
        <ele>1073</ele>
        <time>2016-07-05T20:09:15Z</time>
      </trkpt>
      <trkpt lat="45.25581" lon="4.45816">
        <ele>1073</ele>
        <time>2016-07-05T20:11:15Z</time>
      </trkpt>
      <trkpt lat="45.25585" lon="4.4582">
        <ele>1078</ele>
        <time>2016-07-05T20:13:15Z</time>
      </trkpt>
      <trkpt lat="45.25588" lon="4.45824">
        <ele>1077</ele>
        <time>2016-07-05T20:15:15Z</time>
      </trkpt>
      <trkpt lat="45.25591" lon="4.45826">
        <ele>1077</ele>
        <time>2016-07-05T20:17:15Z</time>
      </trkpt>
      <trkpt lat="45.25594" lon="4.4583">
        <ele>1078</ele>
        <time>2016-07-05T20:19:15Z</time>
      </trkpt>
      <trkpt lat="45.25596" lon="4.45833">
        <ele>1078</ele>
        <time>2016-07-05T20:21:15Z</time>
      </trkpt>
      <trkpt lat="45.25599" lon="4.45837">
        <ele>1074</ele>
        <time>2016-07-05T20:23:15Z</time>
      </trkpt>
      <trkpt lat="45.25602" lon="4.45841">
        <ele>1073</ele>
        <time>2016-07-05T20:25:15Z</time>
      </trkpt>
      <trkpt lat="45.25604" lon="4.45846">
        <ele>1073</ele>
        <time>2016-07-05T20:27:15Z</time>
      </trkpt>
      <trkpt lat="45.25605" lon="4.4585">
        <ele>1073</ele>
        <time>2016-07-05T20:29:15Z</time>
      </trkpt>
      <trkpt lat="45.25607" lon="4.45856">
        <ele>1073</ele>
        <time>2016-07-05T20:31:15Z</time>
      </trkpt>
      <trkpt lat="45.25608" lon="4.4586">
        <ele>1072</ele>
        <time>2016-07-05T20:33:15Z</time>
      </trkpt>
      <trkpt lat="45.2561" lon="4.45867">
        <ele>1072</ele>
        <time>2016-07-05T20:35:15Z</time>
      </trkpt>
      <trkpt lat="45.25613" lon="4.45874">
        <ele>1071</ele>
        <time>2016-07-05T20:37:15Z</time>
      </trkpt>
      <trkpt lat="45.25615" lon="4.45878">
        <ele>1071</ele>
        <time>2016-07-05T20:39:15Z</time>
      </trkpt>
      <trkpt lat="45.25618" lon="4.45883">
        <ele>1071</ele>
        <time>2016-07-05T20:41:15Z</time>
      </trkpt>
      <trkpt lat="45.2562" lon="4.45888">
        <ele>1070</ele>
        <time>2016-07-05T20:43:15Z</time>
      </trkpt>
      <trkpt lat="45.25622" lon="4.45893">
        <ele>1070</ele>
        <time>2016-07-05T20:45:15Z</time>
      </trkpt>
      <trkpt lat="45.25624" lon="4.45898">
        <ele>1070</ele>
        <time>2016-07-05T20:47:15Z</time>
      </trkpt>
      <trkpt lat="45.25627" lon="4.45902">
        <ele>1070</ele>
        <time>2016-07-05T20:49:15Z</time>
      </trkpt>
      <trkpt lat="45.2563" lon="4.45908">
        <ele>1071</ele>
        <time>2016-07-05T20:51:15Z</time>
      </trkpt>
      <trkpt lat="45.25634" lon="4.45913">
        <ele>1071</ele>
        <time>2016-07-05T20:53:15Z</time>
      </trkpt>
      <trkpt lat="45.25636" lon="4.45916">
        <ele>1071</ele>
        <time>2016-07-05T20:55:15Z</time>
      </trkpt>
      <trkpt lat="45.25639" lon="4.45918">
        <ele>1063</ele>
        <time>2016-07-05T20:57:15Z</time>
      </trkpt>
      <trkpt lat="45.25642" lon="4.45921">
        <ele>1064</ele>
        <time>2016-07-05T20:59:15Z</time>
      </trkpt>
      <trkpt lat="45.25644" lon="4.45923">
        <ele>1064</ele>
        <time>2016-07-05T21:01:15Z</time>
      </trkpt>
      <trkpt lat="45.25647" lon="4.45926">
        <ele>1065</ele>
        <time>2016-07-05T21:03:15Z</time>
      </trkpt>
      <trkpt lat="45.25649" lon="4.45928">
        <ele>1065</ele>
        <time>2016-07-05T21:05:15Z</time>
      </trkpt>
      <trkpt lat="45.2565" lon="4.4593">
        <ele>1065</ele>
        <time>2016-07-05T21:07:15Z</time>
      </trkpt>
      <trkpt lat="45.25653" lon="4.45933">
        <ele>1065</ele>
        <time>2016-07-05T21:09:15Z</time>
      </trkpt>
      <trkpt lat="45.25657" lon="4.45938">
        <ele>1064</ele>
        <time>2016-07-05T21:11:15Z</time>
      </trkpt>
      <trkpt lat="45.25661" lon="4.4594">
        <ele>1064</ele>
        <time>2016-07-05T21:13:15Z</time>
      </trkpt>
      <trkpt lat="45.25663" lon="4.45941">
        <ele>1064</ele>
        <time>2016-07-05T21:15:15Z</time>
      </trkpt>
      <trkpt lat="45.25666" lon="4.45942">
        <ele>1064</ele>
        <time>2016-07-05T21:17:15Z</time>
      </trkpt>
      <trkpt lat="45.25669" lon="4.45942">
        <ele>1078</ele>
        <time>2016-07-05T21:19:15Z</time>
      </trkpt>
      <trkpt lat="45.25672" lon="4.45941">
        <ele>1078</ele>
        <time>2016-07-05T21:21:15Z</time>
      </trkpt>
      <trkpt lat="45.25674" lon="4.45939">
        <ele>1078</ele>
        <time>2016-07-05T21:23:15Z</time>
      </trkpt>
      <trkpt lat="45.25674" lon="4.45939">
        <ele>1078</ele>
        <time>2016-07-05T21:25:15Z</time>
      </trkpt>
      <trkpt lat="45.25674" lon="4.45936">
        <ele>1078</ele>
        <time>2016-07-05T21:27:15Z</time>
      </trkpt>
      <trkpt lat="45.25674" lon="4.45932">
        <ele>1078</ele>
        <time>2016-07-05T21:29:15Z</time>
      </trkpt>
      <trkpt lat="45.25674" lon="4.45929">
        <ele>1078</ele>
        <time>2016-07-05T21:31:15Z</time>
      </trkpt>
      <trkpt lat="45.25673" lon="4.45925">
        <ele>1077</ele>
        <time>2016-07-05T21:33:15Z</time>
      </trkpt>
      <trkpt lat="45.25671" lon="4.45922">
        <ele>1077</ele>
        <time>2016-07-05T21:35:15Z</time>
      </trkpt>
      <trkpt lat="45.25667" lon="4.45916">
        <ele>1075</ele>
        <time>2016-07-05T21:37:15Z</time>
      </trkpt>
      <trkpt lat="45.25664" lon="4.45913">
        <ele>1074</ele>
        <time>2016-07-05T21:39:15Z</time>
      </trkpt>
      <trkpt lat="45.25661" lon="4.4591">
        <ele>1074</ele>
        <time>2016-07-05T21:41:15Z</time>
      </trkpt>
      <trkpt lat="45.25657" lon="4.45905">
        <ele>1073</ele>
        <time>2016-07-05T21:43:15Z</time>
      </trkpt>
      <trkpt lat="45.25655" lon="4.45902">
        <ele>1073</ele>
        <time>2016-07-05T21:45:15Z</time>
      </trkpt>
      <trkpt lat="45.25653" lon="4.459">
        <ele>1073</ele>
        <time>2016-07-05T21:47:15Z</time>
      </trkpt>
      <trkpt lat="45.25651" lon="4.45896">
        <ele>1073</ele>
        <time>2016-07-05T21:49:15Z</time>
      </trkpt>
      <trkpt lat="45.25649" lon="4.45892">
        <ele>1073</ele>
        <time>2016-07-05T21:51:15Z</time>
      </trkpt>
      <trkpt lat="45.25648" lon="4.45889">
        <ele>1073</ele>
        <time>2016-07-05T21:53:15Z</time>
      </trkpt>
      <trkpt lat="45.25646" lon="4.45885">
        <ele>1073</ele>
        <time>2016-07-05T21:55:15Z</time>
      </trkpt>
      <trkpt lat="45.25644" lon="4.45881">
        <ele>1073</ele>
        <time>2016-07-05T21:57:15Z</time>
      </trkpt>
      <trkpt lat="45.25643" lon="4.45877">
        <ele>1073</ele>
        <time>2016-07-05T21:59:15Z</time>
      </trkpt>
      <trkpt lat="45.25642" lon="4.45873">
        <ele>1073</ele>
        <time>2016-07-05T22:01:15Z</time>
      </trkpt>
      <trkpt lat="45.2564" lon="4.45869">
        <ele>1074</ele>
        <time>2016-07-05T22:03:15Z</time>
      </trkpt>
      <trkpt lat="45.2564" lon="4.45864">
        <ele>1074</ele>
        <time>2016-07-05T22:05:15Z</time>
      </trkpt>
      <trkpt lat="45.25639" lon="4.45859">
        <ele>1074</ele>
        <time>2016-07-05T22:07:15Z</time>
      </trkpt>
      <trkpt lat="45.25637" lon="4.45846">
        <ele>1075</ele>
        <time>2016-07-05T22:09:15Z</time>
      </trkpt>
      <trkpt lat="45.25636" lon="4.45838">
        <ele>1075</ele>
        <time>2016-07-05T22:11:15Z</time>
      </trkpt>
      <trkpt lat="45.25635" lon="4.45832">
        <ele>1081</ele>
        <time>2016-07-05T22:13:15Z</time>
      </trkpt>
      <trkpt lat="45.25634" lon="4.45826">
        <ele>1081</ele>
        <time>2016-07-05T22:15:15Z</time>
      </trkpt>
      <trkpt lat="45.25632" lon="4.45822">
        <ele>1081</ele>
        <time>2016-07-05T22:17:15Z</time>
      </trkpt>
      <trkpt lat="45.25631" lon="4.45817">
        <ele>1081</ele>
        <time>2016-07-05T22:19:15Z</time>
      </trkpt>
      <trkpt lat="45.2563" lon="4.45811">
        <ele>1081</ele>
        <time>2016-07-05T22:21:15Z</time>
      </trkpt>
      <trkpt lat="45.25628" lon="4.45802">
        <ele>1081</ele>
        <time>2016-07-05T22:23:15Z</time>
      </trkpt>
      <trkpt lat="45.25626" lon="4.45796">
        <ele>1082</ele>
        <time>2016-07-05T22:25:15Z</time>
      </trkpt>
      <trkpt lat="45.25624" lon="4.45787">
        <ele>1082</ele>
        <time>2016-07-05T22:27:15Z</time>
      </trkpt>
      <trkpt lat="45.25624" lon="4.45784">
        <ele>1082</ele>
        <time>2016-07-05T22:29:15Z</time>
      </trkpt>
      <trkpt lat="45.25623" lon="4.45781">
        <ele>1082</ele>
        <time>2016-07-05T22:31:15Z</time>
      </trkpt>
      <trkpt lat="45.2562" lon="4.45773">
        <ele>1082</ele>
        <time>2016-07-05T22:33:15Z</time>
      </trkpt>
      <trkpt lat="45.25618" lon="4.45768">
        <ele>1083</ele>
        <time>2016-07-05T22:35:15Z</time>
      </trkpt>
      <trkpt lat="45.25616" lon="4.45763">
        <ele>1083</ele>
        <time>2016-07-05T22:37:15Z</time>
      </trkpt>
      <trkpt lat="45.25612" lon="4.45753">
        <ele>1083</ele>
        <time>2016-07-05T22:39:15Z</time>
      </trkpt>
      <trkpt lat="45.2561" lon="4.45749">
        <ele>1085</ele>
        <time>2016-07-05T22:41:15Z</time>
      </trkpt>
      <trkpt lat="45.25607" lon="4.45744">
        <ele>1085</ele>
        <time>2016-07-05T22:43:15Z</time>
      </trkpt>
      <trkpt lat="45.25603" lon="4.45738">
        <ele>1085</ele>
        <time>2016-07-05T22:45:15Z</time>
      </trkpt>
      <trkpt lat="45.256" lon="4.45733">
        <ele>1085</ele>
        <time>2016-07-05T22:47:15Z</time>
      </trkpt>
      <trkpt lat="45.25597" lon="4.45729">
        <ele>1085</ele>
        <time>2016-07-05T22:49:15Z</time>
      </trkpt>
      <trkpt lat="45.25593" lon="4.45724">
        <ele>1085</ele>
        <time>2016-07-05T22:51:15Z</time>
      </trkpt>
      <trkpt lat="45.25589" lon="4.45719">
        <ele>1085</ele>
        <time>2016-07-05T22:53:15Z</time>
      </trkpt>
      <trkpt lat="45.25585" lon="4.45714">
        <ele>1085</ele>
        <time>2016-07-05T22:55:15Z</time>
      </trkpt>
      <trkpt lat="45.25581" lon="4.45708">
        <ele>1081</ele>
        <time>2016-07-05T22:57:15Z</time>
      </trkpt>
      <trkpt lat="45.25577" lon="4.45701">
        <ele>1081</ele>
        <time>2016-07-05T22:59:15Z</time>
      </trkpt>
      <trkpt lat="45.25573" lon="4.45695">
        <ele>1081</ele>
        <time>2016-07-05T23:01:15Z</time>
      </trkpt>
      <trkpt lat="45.25569" lon="4.45688">
        <ele>1081</ele>
        <time>2016-07-05T23:03:15Z</time>
      </trkpt>
      <trkpt lat="45.25566" lon="4.45682">
        <ele>1082</ele>
        <time>2016-07-05T23:05:15Z</time>
      </trkpt>
      <trkpt lat="45.25562" lon="4.45672">
        <ele>1082</ele>
        <time>2016-07-05T23:07:15Z</time>
      </trkpt>
      <trkpt lat="45.25558" lon="4.45661">
        <ele>1078</ele>
        <time>2016-07-05T23:09:15Z</time>
      </trkpt>
      <trkpt lat="45.25558" lon="4.45658">
        <ele>1078</ele>
        <time>2016-07-05T23:11:15Z</time>
      </trkpt>
      <trkpt lat="45.25558" lon="4.45654">
        <ele>1078</ele>
        <time>2016-07-05T23:13:15Z</time>
      </trkpt>
      <trkpt lat="45.25566" lon="4.45641">
        <ele>1077</ele>
        <time>2016-07-05T23:15:15Z</time>
      </trkpt>
      <trkpt lat="45.25573" lon="4.45633">
        <ele>1077</ele>
        <time>2016-07-05T23:17:15Z</time>
      </trkpt>
      <trkpt lat="45.25579" lon="4.4563">
        <ele>1077</ele>
        <time>2016-07-05T23:19:15Z</time>
      </trkpt>
      <trkpt lat="45.25585" lon="4.45626">
        <ele>1082</ele>
        <time>2016-07-05T23:21:15Z</time>
      </trkpt>
      <trkpt lat="45.25591" lon="4.45625">
        <ele>1082</ele>
        <time>2016-07-05T23:23:15Z</time>
      </trkpt>
      <trkpt lat="45.25598" lon="4.45625">
        <ele>1082</ele>
        <time>2016-07-05T23:25:15Z</time>
      </trkpt>
      <trkpt lat="45.25604" lon="4.45625">
        <ele>1082</ele>
        <time>2016-07-05T23:27:15Z</time>
      </trkpt>
      <trkpt lat="45.25611" lon="4.45625">
        <ele>1082</ele>
        <time>2016-07-05T23:29:15Z</time>
      </trkpt>
      <trkpt lat="45.2562" lon="4.45624">
        <ele>1083</ele>
        <time>2016-07-05T23:31:15Z</time>
      </trkpt>
      <trkpt lat="45.25627" lon="4.45624">
        <ele>1083</ele>
        <time>2016-07-05T23:33:15Z</time>
      </trkpt>
      <trkpt lat="45.25634" lon="4.45624">
        <ele>1083</ele>
        <time>2016-07-05T23:35:15Z</time>
      </trkpt>
      <trkpt lat="45.25641" lon="4.45624">
        <ele>1083</ele>
        <time>2016-07-05T23:37:15Z</time>
      </trkpt>
      <trkpt lat="45.25646" lon="4.45623">
        <ele>1083</ele>
        <time>2016-07-05T23:39:15Z</time>
      </trkpt>
      <trkpt lat="45.25652" lon="4.45622">
        <ele>1083</ele>
        <time>2016-07-05T23:41:15Z</time>
      </trkpt>
      <trkpt lat="45.25659" lon="4.45621">
        <ele>1084</ele>
        <time>2016-07-05T23:43:15Z</time>
      </trkpt>
      <trkpt lat="45.25665" lon="4.45618">
        <ele>1084</ele>
        <time>2016-07-05T23:45:15Z</time>
      </trkpt>
      <trkpt lat="45.25672" lon="4.45615">
        <ele>1088</ele>
        <time>2016-07-05T23:47:15Z</time>
      </trkpt>
      <trkpt lat="45.25678" lon="4.45613">
        <ele>1088</ele>
        <time>2016-07-05T23:49:15Z</time>
      </trkpt>
      <trkpt lat="45.2569" lon="4.45608">
        <ele>1088</ele>
        <time>2016-07-05T23:51:15Z</time>
      </trkpt>
      <trkpt lat="45.25719" lon="4.45591">
        <ele>1090</ele>
        <time>2016-07-05T23:53:15Z</time>
      </trkpt>
      <trkpt lat="45.25729" lon="4.45586">
        <ele>1090</ele>
        <time>2016-07-05T23:55:15Z</time>
      </trkpt>
      <trkpt lat="45.25736" lon="4.45585">
        <ele>1091</ele>
        <time>2016-07-05T23:57:15Z</time>
      </trkpt>
      <trkpt lat="45.25744" lon="4.45584">
        <ele>1091</ele>
        <time>2016-07-05T23:59:15Z</time>
      </trkpt>
      <trkpt lat="45.25751" lon="4.45583">
        <ele>1092</ele>
        <time>2016-07-06T00:01:15Z</time>
      </trkpt>
      <trkpt lat="45.25758" lon="4.45581">
        <ele>1093</ele>
        <time>2016-07-06T00:03:15Z</time>
      </trkpt>
      <trkpt lat="45.25767" lon="4.45579">
        <ele>1094</ele>
        <time>2016-07-06T00:05:15Z</time>
      </trkpt>
      <trkpt lat="45.25774" lon="4.45577">
        <ele>1094</ele>
        <time>2016-07-06T00:07:15Z</time>
      </trkpt>
      <trkpt lat="45.25775" lon="4.45576">
        <ele>1094</ele>
        <time>2016-07-06T00:09:15Z</time>
      </trkpt>
      <trkpt lat="45.25781" lon="4.45574">
        <ele>1095</ele>
        <time>2016-07-06T00:11:15Z</time>
      </trkpt>
      <trkpt lat="45.25786" lon="4.45571">
        <ele>1095</ele>
        <time>2016-07-06T00:13:15Z</time>
      </trkpt>
      <trkpt lat="45.25792" lon="4.45567">
        <ele>1095</ele>
        <time>2016-07-06T00:15:15Z</time>
      </trkpt>
      <trkpt lat="45.25795" lon="4.45564">
        <ele>1096</ele>
        <time>2016-07-06T00:17:15Z</time>
      </trkpt>
      <trkpt lat="45.25802" lon="4.45559">
        <ele>1096</ele>
        <time>2016-07-06T00:19:15Z</time>
      </trkpt>
      <trkpt lat="45.2582" lon="4.45543">
        <ele>1096</ele>
        <time>2016-07-06T00:21:15Z</time>
      </trkpt>
      <trkpt lat="45.25838" lon="4.45524">
        <ele>1103</ele>
        <time>2016-07-06T00:23:15Z</time>
      </trkpt>
      <trkpt lat="45.25857" lon="4.45501">
        <ele>1104</ele>
        <time>2016-07-06T00:25:15Z</time>
      </trkpt>
      <trkpt lat="45.25874" lon="4.45481">
        <ele>1104</ele>
        <time>2016-07-06T00:27:15Z</time>
      </trkpt>
      <trkpt lat="45.259" lon="4.45449">
        <ele>1105</ele>
        <time>2016-07-06T00:29:15Z</time>
      </trkpt>
      <trkpt lat="45.25921" lon="4.45422">
        <ele>1110</ele>
        <time>2016-07-06T00:31:15Z</time>
      </trkpt>
      <trkpt lat="45.25925" lon="4.45416">
        <ele>1108</ele>
        <time>2016-07-06T00:33:15Z</time>
      </trkpt>
      <trkpt lat="45.2594" lon="4.45395">
        <ele>1109</ele>
        <time>2016-07-06T00:35:15Z</time>
      </trkpt>
      <trkpt lat="45.25961" lon="4.45362">
        <ele>1108</ele>
        <time>2016-07-06T00:37:15Z</time>
      </trkpt>
      <trkpt lat="45.25986" lon="4.45324">
        <ele>1109</ele>
        <time>2016-07-06T00:39:15Z</time>
      </trkpt>
      <trkpt lat="45.26004" lon="4.45298">
        <ele>1110</ele>
        <time>2016-07-06T00:41:15Z</time>
      </trkpt>
      <trkpt lat="45.26012" lon="4.45286">
        <ele>1110</ele>
        <time>2016-07-06T00:43:15Z</time>
      </trkpt>
      <trkpt lat="45.26024" lon="4.45272">
        <ele>1110</ele>
        <time>2016-07-06T00:45:15Z</time>
      </trkpt>
      <trkpt lat="45.26031" lon="4.45265">
        <ele>1110</ele>
        <time>2016-07-06T00:47:15Z</time>
      </trkpt>
      <trkpt lat="45.26038" lon="4.45259">
        <ele>1110</ele>
        <time>2016-07-06T00:49:15Z</time>
      </trkpt>
      <trkpt lat="45.26048" lon="4.45251">
        <ele>1110</ele>
        <time>2016-07-06T00:51:15Z</time>
      </trkpt>
      <trkpt lat="45.26052" lon="4.45248">
        <ele>1113</ele>
        <time>2016-07-06T00:53:15Z</time>
      </trkpt>
      <trkpt lat="45.26053" lon="4.45247">
        <ele>1113</ele>
        <time>2016-07-06T00:55:15Z</time>
      </trkpt>
      <trkpt lat="45.26058" lon="4.45242">
        <ele>1112</ele>
        <time>2016-07-06T00:57:15Z</time>
      </trkpt>
      <trkpt lat="45.26102" lon="4.4522">
        <ele>1108</ele>
        <time>2016-07-06T00:59:15Z</time>
      </trkpt>
      <trkpt lat="45.26116" lon="4.45213">
        <ele>1108</ele>
        <time>2016-07-06T01:01:15Z</time>
      </trkpt>
      <trkpt lat="45.26127" lon="4.45209">
        <ele>1108</ele>
        <time>2016-07-06T01:03:15Z</time>
      </trkpt>
      <trkpt lat="45.26135" lon="4.45206">
        <ele>1107</ele>
        <time>2016-07-06T01:05:15Z</time>
      </trkpt>
      <trkpt lat="45.26142" lon="4.45203">
        <ele>1107</ele>
        <time>2016-07-06T01:07:15Z</time>
      </trkpt>
      <trkpt lat="45.26149" lon="4.45201">
        <ele>1107</ele>
        <time>2016-07-06T01:09:15Z</time>
      </trkpt>
      <trkpt lat="45.2615" lon="4.452">
        <ele>1107</ele>
        <time>2016-07-06T01:11:15Z</time>
      </trkpt>
      <trkpt lat="45.2616" lon="4.45197">
        <ele>1107</ele>
        <time>2016-07-06T01:13:15Z</time>
      </trkpt>
      <trkpt lat="45.2617" lon="4.45195">
        <ele>1102</ele>
        <time>2016-07-06T01:15:15Z</time>
      </trkpt>
      <trkpt lat="45.26176" lon="4.45195">
        <ele>1102</ele>
        <time>2016-07-06T01:17:15Z</time>
      </trkpt>
      <trkpt lat="45.26182" lon="4.45195">
        <ele>1102</ele>
        <time>2016-07-06T01:19:15Z</time>
      </trkpt>
      <trkpt lat="45.26191" lon="4.45197">
        <ele>1101</ele>
        <time>2016-07-06T01:21:15Z</time>
      </trkpt>
      <trkpt lat="45.26195" lon="4.45197">
        <ele>1101</ele>
        <time>2016-07-06T01:23:15Z</time>
      </trkpt>
      <trkpt lat="45.26211" lon="4.45207">
        <ele>1100</ele>
        <time>2016-07-06T01:25:15Z</time>
      </trkpt>
      <trkpt lat="45.26246" lon="4.45229">
        <ele>1098</ele>
        <time>2016-07-06T01:27:15Z</time>
      </trkpt>
      <trkpt lat="45.26255" lon="4.45235">
        <ele>1094</ele>
        <time>2016-07-06T01:29:15Z</time>
      </trkpt>
      <trkpt lat="45.26261" lon="4.4524">
        <ele>1094</ele>
        <time>2016-07-06T01:31:15Z</time>
      </trkpt>
      <trkpt lat="45.26269" lon="4.45245">
        <ele>1094</ele>
        <time>2016-07-06T01:33:15Z</time>
      </trkpt>
      <trkpt lat="45.26273" lon="4.45249">
        <ele>1093</ele>
        <time>2016-07-06T01:35:15Z</time>
      </trkpt>
      <trkpt lat="45.26278" lon="4.45251">
        <ele>1098</ele>
        <time>2016-07-06T01:37:15Z</time>
      </trkpt>
      <trkpt lat="45.26283" lon="4.45254">
        <ele>1098</ele>
        <time>2016-07-06T01:39:15Z</time>
      </trkpt>
      <trkpt lat="45.26288" lon="4.45257">
        <ele>1098</ele>
        <time>2016-07-06T01:41:15Z</time>
      </trkpt>
      <trkpt lat="45.26301" lon="4.45265">
        <ele>1098</ele>
        <time>2016-07-06T01:43:15Z</time>
      </trkpt>
      <trkpt lat="45.26307" lon="4.45269">
        <ele>1098</ele>
        <time>2016-07-06T01:45:15Z</time>
      </trkpt>
      <trkpt lat="45.26315" lon="4.45273">
        <ele>1097</ele>
        <time>2016-07-06T01:47:15Z</time>
      </trkpt>
      <trkpt lat="45.26322" lon="4.45277">
        <ele>1097</ele>
        <time>2016-07-06T01:49:15Z</time>
      </trkpt>
      <trkpt lat="45.26329" lon="4.4528">
        <ele>1098</ele>
        <time>2016-07-06T01:51:15Z</time>
      </trkpt>
      <trkpt lat="45.26337" lon="4.45284">
        <ele>1096</ele>
        <time>2016-07-06T01:53:15Z</time>
      </trkpt>
      <trkpt lat="45.26344" lon="4.45286">
        <ele>1096</ele>
        <time>2016-07-06T01:55:15Z</time>
      </trkpt>
      <trkpt lat="45.26354" lon="4.45289">
        <ele>1096</ele>
        <time>2016-07-06T01:57:15Z</time>
      </trkpt>
      <trkpt lat="45.2636" lon="4.45291">
        <ele>1097</ele>
        <time>2016-07-06T01:59:15Z</time>
      </trkpt>
      <trkpt lat="45.26373" lon="4.45297">
        <ele>1097</ele>
        <time>2016-07-06T02:01:15Z</time>
      </trkpt>
      <trkpt lat="45.26386" lon="4.45304">
        <ele>1097</ele>
        <time>2016-07-06T02:03:15Z</time>
      </trkpt>
      <trkpt lat="45.26395" lon="4.45309">
        <ele>1098</ele>
        <time>2016-07-06T02:05:15Z</time>
      </trkpt>
      <trkpt lat="45.264" lon="4.45312">
        <ele>1099</ele>
        <time>2016-07-06T02:07:15Z</time>
      </trkpt>
      <trkpt lat="45.26414" lon="4.45319">
        <ele>1100</ele>
        <time>2016-07-06T02:09:15Z</time>
      </trkpt>
      <trkpt lat="45.26419" lon="4.45322">
        <ele>1098</ele>
        <time>2016-07-06T02:11:15Z</time>
      </trkpt>
      <trkpt lat="45.26423" lon="4.45325">
        <ele>1099</ele>
        <time>2016-07-06T02:13:15Z</time>
      </trkpt>
      <trkpt lat="45.26427" lon="4.45328">
        <ele>1098</ele>
        <time>2016-07-06T02:15:15Z</time>
      </trkpt>
      <trkpt lat="45.26432" lon="4.45332">
        <ele>1097</ele>
        <time>2016-07-06T02:17:15Z</time>
      </trkpt>
      <trkpt lat="45.26437" lon="4.45337">
        <ele>1101</ele>
        <time>2016-07-06T02:19:15Z</time>
      </trkpt>
      <trkpt lat="45.2644" lon="4.45342">
        <ele>1101</ele>
        <time>2016-07-06T02:21:15Z</time>
      </trkpt>
      <trkpt lat="45.26444" lon="4.45347">
        <ele>1101</ele>
        <time>2016-07-06T02:23:15Z</time>
      </trkpt>
      <trkpt lat="45.26446" lon="4.45348">
        <ele>1101</ele>
        <time>2016-07-06T02:25:15Z</time>
      </trkpt>
      <trkpt lat="45.26449" lon="4.45355">
        <ele>1101</ele>
        <time>2016-07-06T02:27:15Z</time>
      </trkpt>
      <trkpt lat="45.26457" lon="4.45365">
        <ele>1100</ele>
        <time>2016-07-06T02:29:15Z</time>
      </trkpt>
      <trkpt lat="45.26461" lon="4.45369">
        <ele>1100</ele>
        <time>2016-07-06T02:31:15Z</time>
      </trkpt>
      <trkpt lat="45.26465" lon="4.45375">
        <ele>1100</ele>
        <time>2016-07-06T02:33:15Z</time>
      </trkpt>
      <trkpt lat="45.26467" lon="4.45377">
        <ele>1100</ele>
        <time>2016-07-06T02:35:15Z</time>
      </trkpt>
      <trkpt lat="45.26469" lon="4.45379">
        <ele>1100</ele>
        <time>2016-07-06T02:37:15Z</time>
      </trkpt>
      <trkpt lat="45.26476" lon="4.45383">
        <ele>1099</ele>
        <time>2016-07-06T02:39:15Z</time>
      </trkpt>
      <trkpt lat="45.26481" lon="4.45386">
        <ele>1099</ele>
        <time>2016-07-06T02:41:15Z</time>
      </trkpt>
      <trkpt lat="45.26487" lon="4.45388">
        <ele>1099</ele>
        <time>2016-07-06T02:43:15Z</time>
      </trkpt>
      <trkpt lat="45.26493" lon="4.45389">
        <ele>1098</ele>
        <time>2016-07-06T02:45:15Z</time>
      </trkpt>
      <trkpt lat="45.26498" lon="4.45389">
        <ele>1098</ele>
        <time>2016-07-06T02:47:15Z</time>
      </trkpt>
      <trkpt lat="45.26505" lon="4.45389">
        <ele>1093</ele>
        <time>2016-07-06T02:49:15Z</time>
      </trkpt>
      <trkpt lat="45.2651" lon="4.45388">
        <ele>1093</ele>
        <time>2016-07-06T02:51:15Z</time>
      </trkpt>
      <trkpt lat="45.26511" lon="4.45388">
        <ele>1093</ele>
        <time>2016-07-06T02:53:15Z</time>
      </trkpt>
      <trkpt lat="45.26517" lon="4.45386">
        <ele>1093</ele>
        <time>2016-07-06T02:55:15Z</time>
      </trkpt>
      <trkpt lat="45.26519" lon="4.45386">
        <ele>1093</ele>
        <time>2016-07-06T02:57:15Z</time>
      </trkpt>
      <trkpt lat="45.26523" lon="4.45385">
        <ele>1093</ele>
        <time>2016-07-06T02:59:15Z</time>
      </trkpt>
      <trkpt lat="45.26529" lon="4.45382">
        <ele>1093</ele>
        <time>2016-07-06T03:01:15Z</time>
      </trkpt>
      <trkpt lat="45.26535" lon="4.45379">
        <ele>1093</ele>
        <time>2016-07-06T03:03:15Z</time>
      </trkpt>
      <trkpt lat="45.2654" lon="4.45374">
        <ele>1093</ele>
        <time>2016-07-06T03:05:15Z</time>
      </trkpt>
      <trkpt lat="45.26542" lon="4.45371">
        <ele>1093</ele>
        <time>2016-07-06T03:07:15Z</time>
      </trkpt>
      <trkpt lat="45.26552" lon="4.45359">
        <ele>1092</ele>
        <time>2016-07-06T03:09:15Z</time>
      </trkpt>
      <trkpt lat="45.26565" lon="4.4534">
        <ele>1090</ele>
        <time>2016-07-06T03:11:15Z</time>
      </trkpt>
      <trkpt lat="45.26579" lon="4.45321">
        <ele>1087</ele>
        <time>2016-07-06T03:13:15Z</time>
      </trkpt>
      <trkpt lat="45.26606" lon="4.4528">
        <ele>1085</ele>
        <time>2016-07-06T03:15:15Z</time>
      </trkpt>
      <trkpt lat="45.26624" lon="4.45253">
        <ele>1085</ele>
        <time>2016-07-06T03:17:15Z</time>
      </trkpt>
      <trkpt lat="45.26655" lon="4.45207">
        <ele>1080</ele>
        <time>2016-07-06T03:19:15Z</time>
      </trkpt>
      <trkpt lat="45.26702" lon="4.45138">
        <ele>1078</ele>
        <time>2016-07-06T03:21:15Z</time>
      </trkpt>
      <trkpt lat="45.26719" lon="4.45111">
        <ele>1078</ele>
        <time>2016-07-06T03:23:15Z</time>
      </trkpt>
      <trkpt lat="45.26743" lon="4.45075">
        <ele>1075</ele>
        <time>2016-07-06T03:25:15Z</time>
      </trkpt>
      <trkpt lat="45.26769" lon="4.45035">
        <ele>1074</ele>
        <time>2016-07-06T03:27:15Z</time>
      </trkpt>
      <trkpt lat="45.26783" lon="4.45014">
        <ele>1074</ele>
        <time>2016-07-06T03:29:15Z</time>
      </trkpt>
      <trkpt lat="45.26794" lon="4.44998">
        <ele>1071</ele>
        <time>2016-07-06T03:31:15Z</time>
      </trkpt>
      <trkpt lat="45.26802" lon="4.44989">
        <ele>1071</ele>
        <time>2016-07-06T03:33:15Z</time>
      </trkpt>
      <trkpt lat="45.26807" lon="4.44984">
        <ele>1071</ele>
        <time>2016-07-06T03:35:15Z</time>
      </trkpt>
      <trkpt lat="45.26823" lon="4.4497">
        <ele>1071</ele>
        <time>2016-07-06T03:37:15Z</time>
      </trkpt>
      <trkpt lat="45.26844" lon="4.44953">
        <ele>1070</ele>
        <time>2016-07-06T03:39:15Z</time>
      </trkpt>
      <trkpt lat="45.26856" lon="4.44944">
        <ele>1069</ele>
        <time>2016-07-06T03:41:15Z</time>
      </trkpt>
      <trkpt lat="45.26868" lon="4.44935">
        <ele>1069</ele>
        <time>2016-07-06T03:43:15Z</time>
      </trkpt>
      <trkpt lat="45.26878" lon="4.44934">
        <ele>1068</ele>
        <time>2016-07-06T03:45:15Z</time>
      </trkpt>
      <trkpt lat="45.26886" lon="4.44932">
        <ele>1068</ele>
        <time>2016-07-06T03:47:15Z</time>
      </trkpt>
      <trkpt lat="45.26895" lon="4.44932">
        <ele>1068</ele>
        <time>2016-07-06T03:49:15Z</time>
      </trkpt>
      <trkpt lat="45.269" lon="4.44934">
        <ele>1067</ele>
        <time>2016-07-06T03:51:15Z</time>
      </trkpt>
      <trkpt lat="45.26904" lon="4.44935">
        <ele>1067</ele>
        <time>2016-07-06T03:53:15Z</time>
      </trkpt>
      <trkpt lat="45.26913" lon="4.44942">
        <ele>1067</ele>
        <time>2016-07-06T03:55:15Z</time>
      </trkpt>
      <trkpt lat="45.26927" lon="4.44958">
        <ele>1064</ele>
        <time>2016-07-06T03:57:15Z</time>
      </trkpt>
      <trkpt lat="45.26961" lon="4.45008">
        <ele>1065</ele>
        <time>2016-07-06T03:59:15Z</time>
      </trkpt>
      <trkpt lat="45.26978" lon="4.45034">
        <ele>1065</ele>
        <time>2016-07-06T04:01:15Z</time>
      </trkpt>
      <trkpt lat="45.2701" lon="4.4508">
        <ele>1061</ele>
        <time>2016-07-06T04:03:15Z</time>
      </trkpt>
      <trkpt lat="45.27026" lon="4.45102">
        <ele>1064</ele>
        <time>2016-07-06T04:05:15Z</time>
      </trkpt>
      <trkpt lat="45.27041" lon="4.45115">
        <ele>1064</ele>
        <time>2016-07-06T04:07:15Z</time>
      </trkpt>
      <trkpt lat="45.27048" lon="4.45122">
        <ele>1064</ele>
        <time>2016-07-06T04:09:15Z</time>
      </trkpt>
      <trkpt lat="45.27063" lon="4.45131">
        <ele>1064</ele>
        <time>2016-07-06T04:11:15Z</time>
      </trkpt>
      <trkpt lat="45.27063" lon="4.45131">
        <ele>1064</ele>
        <time>2016-07-06T04:13:15Z</time>
      </trkpt>
      <trkpt lat="45.27063" lon="4.4514">
        <ele>1064</ele>
        <time>2016-07-06T04:15:15Z</time>
      </trkpt>
      <trkpt lat="45.27064" lon="4.45145">
        <ele>1064</ele>
        <time>2016-07-06T04:17:15Z</time>
      </trkpt>
      <trkpt lat="45.27065" lon="4.4515">
        <ele>1064</ele>
        <time>2016-07-06T04:19:15Z</time>
      </trkpt>
      <trkpt lat="45.27067" lon="4.45156">
        <ele>1064</ele>
        <time>2016-07-06T04:21:15Z</time>
      </trkpt>
      <trkpt lat="45.27072" lon="4.45165">
        <ele>1064</ele>
        <time>2016-07-06T04:23:15Z</time>
      </trkpt>
      <trkpt lat="45.2708" lon="4.45179">
        <ele>1068</ele>
        <time>2016-07-06T04:25:15Z</time>
      </trkpt>
      <trkpt lat="45.2709" lon="4.45191">
        <ele>1066</ele>
        <time>2016-07-06T04:27:15Z</time>
      </trkpt>
      <trkpt lat="45.27101" lon="4.45201">
        <ele>1066</ele>
        <time>2016-07-06T04:29:15Z</time>
      </trkpt>
      <trkpt lat="45.27117" lon="4.45216">
        <ele>1067</ele>
        <time>2016-07-06T04:31:15Z</time>
      </trkpt>
      <trkpt lat="45.27151" lon="4.45239">
        <ele>1067</ele>
        <time>2016-07-06T04:33:15Z</time>
      </trkpt>
      <trkpt lat="45.27184" lon="4.45258">
        <ele>1069</ele>
        <time>2016-07-06T04:35:15Z</time>
      </trkpt>
      <trkpt lat="45.27217" lon="4.45276">
        <ele>1071</ele>
        <time>2016-07-06T04:37:15Z</time>
      </trkpt>
      <trkpt lat="45.27239" lon="4.45283">
        <ele>1071</ele>
        <time>2016-07-06T04:39:15Z</time>
      </trkpt>
      <trkpt lat="45.27256" lon="4.45283">
        <ele>1073</ele>
        <time>2016-07-06T04:41:15Z</time>
      </trkpt>
      <trkpt lat="45.27313" lon="4.4527">
        <ele>1074</ele>
        <time>2016-07-06T04:43:15Z</time>
      </trkpt>
      <trkpt lat="45.27333" lon="4.45266">
        <ele>1073</ele>
        <time>2016-07-06T04:45:15Z</time>
      </trkpt>
      <trkpt lat="45.27352" lon="4.45266">
        <ele>1078</ele>
        <time>2016-07-06T04:47:15Z</time>
      </trkpt>
      <trkpt lat="45.27374" lon="4.45264">
        <ele>1080</ele>
        <time>2016-07-06T04:49:15Z</time>
      </trkpt>
      <trkpt lat="45.27377" lon="4.45263">
        <ele>1080</ele>
        <time>2016-07-06T04:51:15Z</time>
      </trkpt>
      <trkpt lat="45.27386" lon="4.45263">
        <ele>1081</ele>
        <time>2016-07-06T04:53:15Z</time>
      </trkpt>
      <trkpt lat="45.27392" lon="4.45261">
        <ele>1081</ele>
        <time>2016-07-06T04:55:15Z</time>
      </trkpt>
      <trkpt lat="45.27397" lon="4.45258">
        <ele>1081</ele>
        <time>2016-07-06T04:57:15Z</time>
      </trkpt>
      <trkpt lat="45.27398" lon="4.45257">
        <ele>1081</ele>
        <time>2016-07-06T04:59:15Z</time>
      </trkpt>
      <trkpt lat="45.27402" lon="4.45252">
        <ele>1081</ele>
        <time>2016-07-06T05:01:15Z</time>
      </trkpt>
      <trkpt lat="45.27404" lon="4.4525">
        <ele>1078</ele>
        <time>2016-07-06T05:03:15Z</time>
      </trkpt>
      <trkpt lat="45.27411" lon="4.45236">
        <ele>1077</ele>
        <time>2016-07-06T05:05:15Z</time>
      </trkpt>
      <trkpt lat="45.27421" lon="4.45219">
        <ele>1080</ele>
        <time>2016-07-06T05:07:15Z</time>
      </trkpt>
      <trkpt lat="45.27432" lon="4.45199">
        <ele>1079</ele>
        <time>2016-07-06T05:09:15Z</time>
      </trkpt>
      <trkpt lat="45.27445" lon="4.45175">
        <ele>1078</ele>
        <time>2016-07-06T05:11:15Z</time>
      </trkpt>
      <trkpt lat="45.27447" lon="4.45173">
        <ele>1078</ele>
        <time>2016-07-06T05:13:15Z</time>
      </trkpt>
      <trkpt lat="45.27453" lon="4.45167">
        <ele>1078</ele>
        <time>2016-07-06T05:15:15Z</time>
      </trkpt>
      <trkpt lat="45.27463" lon="4.4516">
        <ele>1073</ele>
        <time>2016-07-06T05:17:15Z</time>
      </trkpt>
      <trkpt lat="45.27475" lon="4.45152">
        <ele>1073</ele>
        <time>2016-07-06T05:19:15Z</time>
      </trkpt>
      <trkpt lat="45.27489" lon="4.45143">
        <ele>1074</ele>
        <time>2016-07-06T05:21:15Z</time>
      </trkpt>
      <trkpt lat="45.27504" lon="4.45132">
        <ele>1080</ele>
        <time>2016-07-06T05:23:15Z</time>
      </trkpt>
      <trkpt lat="45.27516" lon="4.45121">
        <ele>1080</ele>
        <time>2016-07-06T05:25:15Z</time>
      </trkpt>
      <trkpt lat="45.27531" lon="4.45105">
        <ele>1080</ele>
        <time>2016-07-06T05:27:15Z</time>
      </trkpt>
      <trkpt lat="45.27535" lon="4.45101">
        <ele>1080</ele>
        <time>2016-07-06T05:29:15Z</time>
      </trkpt>
      <trkpt lat="45.27544" lon="4.45093">
        <ele>1080</ele>
        <time>2016-07-06T05:31:15Z</time>
      </trkpt>
      <trkpt lat="45.27554" lon="4.45085">
        <ele>1081</ele>
        <time>2016-07-06T05:33:15Z</time>
      </trkpt>
      <trkpt lat="45.2757" lon="4.45075">
        <ele>1076</ele>
        <time>2016-07-06T05:35:15Z</time>
      </trkpt>
      <trkpt lat="45.27584" lon="4.45065">
        <ele>1080</ele>
        <time>2016-07-06T05:37:15Z</time>
      </trkpt>
      <trkpt lat="45.276" lon="4.45053">
        <ele>1079</ele>
        <time>2016-07-06T05:39:15Z</time>
      </trkpt>
      <trkpt lat="45.27618" lon="4.4504">
        <ele>1079</ele>
        <time>2016-07-06T05:41:15Z</time>
      </trkpt>
      <trkpt lat="45.2763" lon="4.45034">
        <ele>1079</ele>
        <time>2016-07-06T05:43:15Z</time>
      </trkpt>
      <trkpt lat="45.27635" lon="4.45032">
        <ele>1080</ele>
        <time>2016-07-06T05:45:15Z</time>
      </trkpt>
      <trkpt lat="45.27644" lon="4.45028">
        <ele>1080</ele>
        <time>2016-07-06T05:47:15Z</time>
      </trkpt>
      <trkpt lat="45.27662" lon="4.45021">
        <ele>1080</ele>
        <time>2016-07-06T05:49:15Z</time>
      </trkpt>
      <trkpt lat="45.27684" lon="4.45014">
        <ele>1087</ele>
        <time>2016-07-06T05:51:15Z</time>
      </trkpt>
      <trkpt lat="45.27693" lon="4.45011">
        <ele>1088</ele>
        <time>2016-07-06T05:53:15Z</time>
      </trkpt>
      <trkpt lat="45.27698" lon="4.4501">
        <ele>1089</ele>
        <time>2016-07-06T05:55:15Z</time>
      </trkpt>
      <trkpt lat="45.27702" lon="4.45008">
        <ele>1089</ele>
        <time>2016-07-06T05:57:15Z</time>
      </trkpt>
      <trkpt lat="45.27721" lon="4.45">
        <ele>1090</ele>
        <time>2016-07-06T05:59:15Z</time>
      </trkpt>
      <trkpt lat="45.27745" lon="4.44992">
        <ele>1084</ele>
        <time>2016-07-06T06:01:15Z</time>
      </trkpt>
      <trkpt lat="45.27766" lon="4.44986">
        <ele>1086</ele>
        <time>2016-07-06T06:03:15Z</time>
      </trkpt>
      <trkpt lat="45.2779" lon="4.44977">
        <ele>1087</ele>
        <time>2016-07-06T06:05:15Z</time>
      </trkpt>
      <trkpt lat="45.27803" lon="4.44973">
        <ele>1087</ele>
        <time>2016-07-06T06:07:15Z</time>
      </trkpt>
      <trkpt lat="45.27806" lon="4.44973">
        <ele>1087</ele>
        <time>2016-07-06T06:09:15Z</time>
      </trkpt>
      <trkpt lat="45.27808" lon="4.44974">
        <ele>1088</ele>
        <time>2016-07-06T06:11:15Z</time>
      </trkpt>
      <trkpt lat="45.27811" lon="4.44971">
        <ele>1088</ele>
        <time>2016-07-06T06:13:15Z</time>
      </trkpt>
      <trkpt lat="45.27827" lon="4.44962">
        <ele>1087</ele>
        <time>2016-07-06T06:15:15Z</time>
      </trkpt>
      <trkpt lat="45.27833" lon="4.44957">
        <ele>1087</ele>
        <time>2016-07-06T06:17:15Z</time>
      </trkpt>
      <trkpt lat="45.27837" lon="4.44954">
        <ele>1090</ele>
        <time>2016-07-06T06:19:15Z</time>
      </trkpt>
      <trkpt lat="45.27852" lon="4.44942">
        <ele>1088</ele>
        <time>2016-07-06T06:21:15Z</time>
      </trkpt>
      <trkpt lat="45.27874" lon="4.44926">
        <ele>1088</ele>
        <time>2016-07-06T06:23:15Z</time>
      </trkpt>
      <trkpt lat="45.27897" lon="4.44913">
        <ele>1081</ele>
        <time>2016-07-06T06:25:15Z</time>
      </trkpt>
      <trkpt lat="45.2791" lon="4.44904">
        <ele>1082</ele>
        <time>2016-07-06T06:27:15Z</time>
      </trkpt>
      <trkpt lat="45.27928" lon="4.44895">
        <ele>1081</ele>
        <time>2016-07-06T06:29:15Z</time>
      </trkpt>
      <trkpt lat="45.27944" lon="4.44889">
        <ele>1081</ele>
        <time>2016-07-06T06:31:15Z</time>
      </trkpt>
      <trkpt lat="45.27959" lon="4.44882">
        <ele>1080</ele>
        <time>2016-07-06T06:33:15Z</time>
      </trkpt>
      <trkpt lat="45.27969" lon="4.44879">
        <ele>1080</ele>
        <time>2016-07-06T06:35:15Z</time>
      </trkpt>
      <trkpt lat="45.27979" lon="4.44876">
        <ele>1080</ele>
        <time>2016-07-06T06:37:15Z</time>
      </trkpt>
      <trkpt lat="45.27997" lon="4.44871">
        <ele>1079</ele>
        <time>2016-07-06T06:39:15Z</time>
      </trkpt>
      <trkpt lat="45.28004" lon="4.44868">
        <ele>1078</ele>
        <time>2016-07-06T06:41:15Z</time>
      </trkpt>
      <trkpt lat="45.28019" lon="4.44862">
        <ele>1077</ele>
        <time>2016-07-06T06:43:15Z</time>
      </trkpt>
      <trkpt lat="45.28043" lon="4.44854">
        <ele>1077</ele>
        <time>2016-07-06T06:45:15Z</time>
      </trkpt>
      <trkpt lat="45.28065" lon="4.44847">
        <ele>1076</ele>
        <time>2016-07-06T06:47:15Z</time>
      </trkpt>
      <trkpt lat="45.28088" lon="4.44839">
        <ele>1073</ele>
        <time>2016-07-06T06:49:15Z</time>
      </trkpt>
      <trkpt lat="45.28091" lon="4.44838">
        <ele>1073</ele>
        <time>2016-07-06T06:51:15Z</time>
      </trkpt>
      <trkpt lat="45.28112" lon="4.44828">
        <ele>1069</ele>
        <time>2016-07-06T06:53:15Z</time>
      </trkpt>
      <trkpt lat="45.28131" lon="4.44822">
        <ele>1069</ele>
        <time>2016-07-06T06:55:15Z</time>
      </trkpt>
      <trkpt lat="45.28134" lon="4.44821">
        <ele>1069</ele>
        <time>2016-07-06T06:57:15Z</time>
      </trkpt>
      <trkpt lat="45.28146" lon="4.44818">
        <ele>1069</ele>
        <time>2016-07-06T06:59:15Z</time>
      </trkpt>
      <trkpt lat="45.28158" lon="4.44817">
        <ele>1069</ele>
        <time>2016-07-06T07:01:15Z</time>
      </trkpt>
      <trkpt lat="45.28168" lon="4.44816">
        <ele>1069</ele>
        <time>2016-07-06T07:03:15Z</time>
      </trkpt>
      <trkpt lat="45.2818" lon="4.44816">
        <ele>1068</ele>
        <time>2016-07-06T07:05:15Z</time>
      </trkpt>
      <trkpt lat="45.28194" lon="4.44817">
        <ele>1068</ele>
        <time>2016-07-06T07:07:15Z</time>
      </trkpt>
      <trkpt lat="45.28206" lon="4.44816">
        <ele>1068</ele>
        <time>2016-07-06T07:09:15Z</time>
      </trkpt>
      <trkpt lat="45.28209" lon="4.44816">
        <ele>1068</ele>
        <time>2016-07-06T07:11:15Z</time>
      </trkpt>
      <trkpt lat="45.28217" lon="4.44813">
        <ele>1068</ele>
        <time>2016-07-06T07:13:15Z</time>
      </trkpt>
      <trkpt lat="45.28224" lon="4.44808">
        <ele>1068</ele>
        <time>2016-07-06T07:15:15Z</time>
      </trkpt>
      <trkpt lat="45.28234" lon="4.44801">
        <ele>1068</ele>
        <time>2016-07-06T07:17:15Z</time>
      </trkpt>
      <trkpt lat="45.28244" lon="4.44794">
        <ele>1067</ele>
        <time>2016-07-06T07:19:15Z</time>
      </trkpt>
      <trkpt lat="45.28257" lon="4.44787">
        <ele>1068</ele>
        <time>2016-07-06T07:21:15Z</time>
      </trkpt>
      <trkpt lat="45.28272" lon="4.4478">
        <ele>1068</ele>
        <time>2016-07-06T07:23:15Z</time>
      </trkpt>
      <trkpt lat="45.28293" lon="4.44769">
        <ele>1068</ele>
        <time>2016-07-06T07:25:15Z</time>
      </trkpt>
      <trkpt lat="45.28315" lon="4.44757">
        <ele>1068</ele>
        <time>2016-07-06T07:27:15Z</time>
      </trkpt>
      <trkpt lat="45.28332" lon="4.44746">
        <ele>1065</ele>
        <time>2016-07-06T07:29:15Z</time>
      </trkpt>
      <trkpt lat="45.28345" lon="4.44737">
        <ele>1067</ele>
        <time>2016-07-06T07:31:15Z</time>
      </trkpt>
      <trkpt lat="45.28351" lon="4.4473">
        <ele>1067</ele>
        <time>2016-07-06T07:33:15Z</time>
      </trkpt>
      <trkpt lat="45.28353" lon="4.44728">
        <ele>1067</ele>
        <time>2016-07-06T07:35:15Z</time>
      </trkpt>
      <trkpt lat="45.28358" lon="4.4472">
        <ele>1067</ele>
        <time>2016-07-06T07:37:15Z</time>
      </trkpt>
      <trkpt lat="45.28359" lon="4.44718">
        <ele>1067</ele>
        <time>2016-07-06T07:39:15Z</time>
      </trkpt>
      <trkpt lat="45.28363" lon="4.44708">
        <ele>1067</ele>
        <time>2016-07-06T07:41:15Z</time>
      </trkpt>
      <trkpt lat="45.28364" lon="4.44706">
        <ele>1067</ele>
        <time>2016-07-06T07:43:15Z</time>
      </trkpt>
      <trkpt lat="45.28364" lon="4.44703">
        <ele>1067</ele>
        <time>2016-07-06T07:45:15Z</time>
      </trkpt>
      <trkpt lat="45.28366" lon="4.44687">
        <ele>1066</ele>
        <time>2016-07-06T07:47:15Z</time>
      </trkpt>
      <trkpt lat="45.28369" lon="4.44649">
        <ele>1065</ele>
        <time>2016-07-06T07:49:15Z</time>
      </trkpt>
      <trkpt lat="45.2837" lon="4.44606">
        <ele>1065</ele>
        <time>2016-07-06T07:51:15Z</time>
      </trkpt>
      <trkpt lat="45.2837" lon="4.44596">
        <ele>1065</ele>
        <time>2016-07-06T07:53:15Z</time>
      </trkpt>
      <trkpt lat="45.28371" lon="4.44542">
        <ele>1066</ele>
        <time>2016-07-06T07:55:15Z</time>
      </trkpt>
      <trkpt lat="45.28372" lon="4.44498">
        <ele>1067</ele>
        <time>2016-07-06T07:57:15Z</time>
      </trkpt>
      <trkpt lat="45.28375" lon="4.44464">
        <ele>1067</ele>
        <time>2016-07-06T07:59:15Z</time>
      </trkpt>
      <trkpt lat="45.28377" lon="4.44452">
        <ele>1067</ele>
        <time>2016-07-06T08:01:15Z</time>
      </trkpt>
      <trkpt lat="45.28381" lon="4.44442">
        <ele>1067</ele>
        <time>2016-07-06T08:03:15Z</time>
      </trkpt>
      <trkpt lat="45.28385" lon="4.44434">
        <ele>1067</ele>
        <time>2016-07-06T08:05:15Z</time>
      </trkpt>
      <trkpt lat="45.28388" lon="4.4443">
        <ele>1067</ele>
        <time>2016-07-06T08:07:15Z</time>
      </trkpt>
      <trkpt lat="45.28393" lon="4.44427">
        <ele>1067</ele>
        <time>2016-07-06T08:09:15Z</time>
      </trkpt>
      <trkpt lat="45.28402" lon="4.44424">
        <ele>1067</ele>
        <time>2016-07-06T08:11:15Z</time>
      </trkpt>
      <trkpt lat="45.2841" lon="4.44422">
        <ele>1067</ele>
        <time>2016-07-06T08:13:15Z</time>
      </trkpt>
      <trkpt lat="45.2842" lon="4.44422">
        <ele>1067</ele>
        <time>2016-07-06T08:15:15Z</time>
      </trkpt>
      <trkpt lat="45.2843" lon="4.44424">
        <ele>1067</ele>
        <time>2016-07-06T08:17:15Z</time>
      </trkpt>
      <trkpt lat="45.28446" lon="4.44432">
        <ele>1067</ele>
        <time>2016-07-06T08:19:15Z</time>
      </trkpt>
      <trkpt lat="45.28472" lon="4.44448">
        <ele>1068</ele>
        <time>2016-07-06T08:21:15Z</time>
      </trkpt>
      <trkpt lat="45.28529" lon="4.44483">
        <ele>1071</ele>
        <time>2016-07-06T08:23:15Z</time>
      </trkpt>
      <trkpt lat="45.28555" lon="4.44499">
        <ele>1072</ele>
        <time>2016-07-06T08:25:15Z</time>
      </trkpt>
      <trkpt lat="45.28569" lon="4.44506">
        <ele>1076</ele>
        <time>2016-07-06T08:27:15Z</time>
      </trkpt>
      <trkpt lat="45.28577" lon="4.44507">
        <ele>1077</ele>
        <time>2016-07-06T08:29:15Z</time>
      </trkpt>
      <trkpt lat="45.28583" lon="4.44506">
        <ele>1077</ele>
        <time>2016-07-06T08:31:15Z</time>
      </trkpt>
      <trkpt lat="45.28589" lon="4.44503">
        <ele>1079</ele>
        <time>2016-07-06T08:33:15Z</time>
      </trkpt>
      <trkpt lat="45.2859" lon="4.44502">
        <ele>1079</ele>
        <time>2016-07-06T08:35:15Z</time>
      </trkpt>
      <trkpt lat="45.28598" lon="4.44497">
        <ele>1077</ele>
        <time>2016-07-06T08:37:15Z</time>
      </trkpt>
      <trkpt lat="45.28645" lon="4.44471">
        <ele>1078</ele>
        <time>2016-07-06T08:39:15Z</time>
      </trkpt>
      <trkpt lat="45.28646" lon="4.44471">
        <ele>1078</ele>
        <time>2016-07-06T08:41:15Z</time>
      </trkpt>
      <trkpt lat="45.28648" lon="4.44471">
        <ele>1078</ele>
        <time>2016-07-06T08:43:15Z</time>
      </trkpt>
      <trkpt lat="45.2865" lon="4.44471">
        <ele>1078</ele>
        <time>2016-07-06T08:45:15Z</time>
      </trkpt>
      <trkpt lat="45.28655" lon="4.44469">
        <ele>1078</ele>
        <time>2016-07-06T08:47:15Z</time>
      </trkpt>
      <trkpt lat="45.28658" lon="4.44467">
        <ele>1078</ele>
        <time>2016-07-06T08:49:15Z</time>
      </trkpt>
      <trkpt lat="45.28666" lon="4.44466">
        <ele>1078</ele>
        <time>2016-07-06T08:51:15Z</time>
      </trkpt>
      <trkpt lat="45.28676" lon="4.44465">
        <ele>1082</ele>
        <time>2016-07-06T08:53:15Z</time>
      </trkpt>
      <trkpt lat="45.28699" lon="4.44461">
        <ele>1082</ele>
        <time>2016-07-06T08:55:15Z</time>
      </trkpt>
      <trkpt lat="45.2871" lon="4.4446">
        <ele>1083</ele>
        <time>2016-07-06T08:57:15Z</time>
      </trkpt>
      <trkpt lat="45.28719" lon="4.44459">
        <ele>1083</ele>
        <time>2016-07-06T08:59:15Z</time>
      </trkpt>
      <trkpt lat="45.28732" lon="4.44459">
        <ele>1083</ele>
        <time>2016-07-06T09:01:15Z</time>
      </trkpt>
      <trkpt lat="45.28744" lon="4.44461">
        <ele>1084</ele>
        <time>2016-07-06T09:03:15Z</time>
      </trkpt>
      <trkpt lat="45.28758" lon="4.44463">
        <ele>1084</ele>
        <time>2016-07-06T09:05:15Z</time>
      </trkpt>
      <trkpt lat="45.28789" lon="4.44468">
        <ele>1084</ele>
        <time>2016-07-06T09:07:15Z</time>
      </trkpt>
      <trkpt lat="45.28802" lon="4.4447">
        <ele>1084</ele>
        <time>2016-07-06T09:09:15Z</time>
      </trkpt>
      <trkpt lat="45.28814" lon="4.44472">
        <ele>1084</ele>
        <time>2016-07-06T09:11:15Z</time>
      </trkpt>
      <trkpt lat="45.28822" lon="4.44474">
        <ele>1084</ele>
        <time>2016-07-06T09:13:15Z</time>
      </trkpt>
      <trkpt lat="45.28832" lon="4.44477">
        <ele>1084</ele>
        <time>2016-07-06T09:15:15Z</time>
      </trkpt>
      <trkpt lat="45.28836" lon="4.44479">
        <ele>1079</ele>
        <time>2016-07-06T09:17:15Z</time>
      </trkpt>
      <trkpt lat="45.28839" lon="4.4448">
        <ele>1079</ele>
        <time>2016-07-06T09:19:15Z</time>
      </trkpt>
      <trkpt lat="45.28845" lon="4.44485">
        <ele>1079</ele>
        <time>2016-07-06T09:21:15Z</time>
      </trkpt>
      <trkpt lat="45.28851" lon="4.44491">
        <ele>1078</ele>
        <time>2016-07-06T09:23:15Z</time>
      </trkpt>
      <trkpt lat="45.28856" lon="4.44499">
        <ele>1078</ele>
        <time>2016-07-06T09:25:15Z</time>
      </trkpt>
      <trkpt lat="45.28865" lon="4.44514">
        <ele>1080</ele>
        <time>2016-07-06T09:27:15Z</time>
      </trkpt>
      <trkpt lat="45.28886" lon="4.44566">
        <ele>1080</ele>
        <time>2016-07-06T09:29:15Z</time>
      </trkpt>
      <trkpt lat="45.28894" lon="4.44586">
        <ele>1083</ele>
        <time>2016-07-06T09:31:15Z</time>
      </trkpt>
      <trkpt lat="45.28896" lon="4.44592">
        <ele>1082</ele>
        <time>2016-07-06T09:33:15Z</time>
      </trkpt>
      <trkpt lat="45.28901" lon="4.44602">
        <ele>1083</ele>
        <time>2016-07-06T09:35:15Z</time>
      </trkpt>
      <trkpt lat="45.28907" lon="4.44618">
        <ele>1084</ele>
        <time>2016-07-06T09:37:15Z</time>
      </trkpt>
      <trkpt lat="45.28913" lon="4.44634">
        <ele>1084</ele>
        <time>2016-07-06T09:39:15Z</time>
      </trkpt>
      <trkpt lat="45.28917" lon="4.44645">
        <ele>1075</ele>
        <time>2016-07-06T09:41:15Z</time>
      </trkpt>
      <trkpt lat="45.2892" lon="4.44653">
        <ele>1077</ele>
        <time>2016-07-06T09:43:15Z</time>
      </trkpt>
      <trkpt lat="45.28923" lon="4.44662">
        <ele>1079</ele>
        <time>2016-07-06T09:45:15Z</time>
      </trkpt>
      <trkpt lat="45.28926" lon="4.44674">
        <ele>1079</ele>
        <time>2016-07-06T09:47:15Z</time>
      </trkpt>
      <trkpt lat="45.28937" lon="4.44711">
        <ele>1076</ele>
        <time>2016-07-06T09:49:15Z</time>
      </trkpt>
      <trkpt lat="45.2894" lon="4.44718">
        <ele>1076</ele>
        <time>2016-07-06T09:51:15Z</time>
      </trkpt>
      <trkpt lat="45.28942" lon="4.44726">
        <ele>1076</ele>
        <time>2016-07-06T09:53:15Z</time>
      </trkpt>
      <trkpt lat="45.28945" lon="4.44732">
        <ele>1076</ele>
        <time>2016-07-06T09:55:15Z</time>
      </trkpt>
      <trkpt lat="45.28949" lon="4.44738">
        <ele>1076</ele>
        <time>2016-07-06T09:57:15Z</time>
      </trkpt>
      <trkpt lat="45.28953" lon="4.44746">
        <ele>1076</ele>
        <time>2016-07-06T09:59:15Z</time>
      </trkpt>
      <trkpt lat="45.28957" lon="4.44752">
        <ele>1080</ele>
        <time>2016-07-06T10:01:15Z</time>
      </trkpt>
      <trkpt lat="45.28961" lon="4.44757">
        <ele>1079</ele>
        <time>2016-07-06T10:03:15Z</time>
      </trkpt>
      <trkpt lat="45.28968" lon="4.44764">
        <ele>1079</ele>
        <time>2016-07-06T10:05:15Z</time>
      </trkpt>
      <trkpt lat="45.2898" lon="4.44775">
        <ele>1078</ele>
        <time>2016-07-06T10:07:15Z</time>
      </trkpt>
      <trkpt lat="45.28993" lon="4.44788">
        <ele>1078</ele>
        <time>2016-07-06T10:09:15Z</time>
      </trkpt>
      <trkpt lat="45.29009" lon="4.44803">
        <ele>1070</ele>
        <time>2016-07-06T10:11:15Z</time>
      </trkpt>
      <trkpt lat="45.29025" lon="4.44819">
        <ele>1070</ele>
        <time>2016-07-06T10:13:15Z</time>
      </trkpt>
      <trkpt lat="45.29054" lon="4.44844">
        <ele>1075</ele>
        <time>2016-07-06T10:15:15Z</time>
      </trkpt>
      <trkpt lat="45.29073" lon="4.4486">
        <ele>1074</ele>
        <time>2016-07-06T10:17:15Z</time>
      </trkpt>
      <trkpt lat="45.29077" lon="4.44863">
        <ele>1074</ele>
        <time>2016-07-06T10:19:15Z</time>
      </trkpt>
      <trkpt lat="45.29078" lon="4.44864">
        <ele>1074</ele>
        <time>2016-07-06T10:21:15Z</time>
      </trkpt>
      <trkpt lat="45.29099" lon="4.4488">
        <ele>1069</ele>
        <time>2016-07-06T10:23:15Z</time>
      </trkpt>
      <trkpt lat="45.29106" lon="4.44885">
        <ele>1069</ele>
        <time>2016-07-06T10:25:15Z</time>
      </trkpt>
      <trkpt lat="45.29136" lon="4.44906">
        <ele>1068</ele>
        <time>2016-07-06T10:27:15Z</time>
      </trkpt>
      <trkpt lat="45.29165" lon="4.44926">
        <ele>1072</ele>
        <time>2016-07-06T10:29:15Z</time>
      </trkpt>
      <trkpt lat="45.2918" lon="4.44937">
        <ele>1069</ele>
        <time>2016-07-06T10:31:15Z</time>
      </trkpt>
      <trkpt lat="45.29199" lon="4.44954">
        <ele>1068</ele>
        <time>2016-07-06T10:33:15Z</time>
      </trkpt>
      <trkpt lat="45.29212" lon="4.44971">
        <ele>1068</ele>
        <time>2016-07-06T10:35:15Z</time>
      </trkpt>
      <trkpt lat="45.29216" lon="4.44978">
        <ele>1068</ele>
        <time>2016-07-06T10:37:15Z</time>
      </trkpt>
      <trkpt lat="45.2922" lon="4.44986">
        <ele>1068</ele>
        <time>2016-07-06T10:39:15Z</time>
      </trkpt>
      <trkpt lat="45.29227" lon="4.45003">
        <ele>1073</ele>
        <time>2016-07-06T10:41:15Z</time>
      </trkpt>
      <trkpt lat="45.29231" lon="4.45012">
        <ele>1073</ele>
        <time>2016-07-06T10:43:15Z</time>
      </trkpt>
      <trkpt lat="45.29235" lon="4.4502">
        <ele>1073</ele>
        <time>2016-07-06T10:45:15Z</time>
      </trkpt>
      <trkpt lat="45.29238" lon="4.45029">
        <ele>1074</ele>
        <time>2016-07-06T10:47:15Z</time>
      </trkpt>
      <trkpt lat="45.29243" lon="4.45038">
        <ele>1075</ele>
        <time>2016-07-06T10:49:15Z</time>
      </trkpt>
      <trkpt lat="45.29245" lon="4.45041">
        <ele>1076</ele>
        <time>2016-07-06T10:51:15Z</time>
      </trkpt>
      <trkpt lat="45.29248" lon="4.45045">
        <ele>1076</ele>
        <time>2016-07-06T10:53:15Z</time>
      </trkpt>
      <trkpt lat="45.29252" lon="4.45053">
        <ele>1070</ele>
        <time>2016-07-06T10:55:15Z</time>
      </trkpt>
      <trkpt lat="45.29258" lon="4.45062">
        <ele>1071</ele>
        <time>2016-07-06T10:57:15Z</time>
      </trkpt>
      <trkpt lat="45.29265" lon="4.45071">
        <ele>1072</ele>
        <time>2016-07-06T10:59:15Z</time>
      </trkpt>
      <trkpt lat="45.29269" lon="4.45079">
        <ele>1072</ele>
        <time>2016-07-06T11:01:15Z</time>
      </trkpt>
      <trkpt lat="45.29274" lon="4.45086">
        <ele>1078</ele>
        <time>2016-07-06T11:03:15Z</time>
      </trkpt>
      <trkpt lat="45.2928" lon="4.45095">
        <ele>1078</ele>
        <time>2016-07-06T11:05:15Z</time>
      </trkpt>
      <trkpt lat="45.29285" lon="4.45103">
        <ele>1078</ele>
        <time>2016-07-06T11:07:15Z</time>
      </trkpt>
      <trkpt lat="45.29291" lon="4.45111">
        <ele>1078</ele>
        <time>2016-07-06T11:09:15Z</time>
      </trkpt>
      <trkpt lat="45.29296" lon="4.45119">
        <ele>1078</ele>
        <time>2016-07-06T11:11:15Z</time>
      </trkpt>
      <trkpt lat="45.29308" lon="4.45133">
        <ele>1078</ele>
        <time>2016-07-06T11:13:15Z</time>
      </trkpt>
      <trkpt lat="45.29318" lon="4.45146">
        <ele>1079</ele>
        <time>2016-07-06T11:15:15Z</time>
      </trkpt>
      <trkpt lat="45.29343" lon="4.45163">
        <ele>1075</ele>
        <time>2016-07-06T11:17:15Z</time>
      </trkpt>
      <trkpt lat="45.29349" lon="4.45168">
        <ele>1079</ele>
        <time>2016-07-06T11:19:15Z</time>
      </trkpt>
      <trkpt lat="45.29355" lon="4.45172">
        <ele>1079</ele>
        <time>2016-07-06T11:21:15Z</time>
      </trkpt>
      <trkpt lat="45.29364" lon="4.45177">
        <ele>1078</ele>
        <time>2016-07-06T11:23:15Z</time>
      </trkpt>
      <trkpt lat="45.29371" lon="4.45183">
        <ele>1078</ele>
        <time>2016-07-06T11:25:15Z</time>
      </trkpt>
      <trkpt lat="45.29378" lon="4.45188">
        <ele>1077</ele>
        <time>2016-07-06T11:27:15Z</time>
      </trkpt>
      <trkpt lat="45.29385" lon="4.45192">
        <ele>1077</ele>
        <time>2016-07-06T11:29:15Z</time>
      </trkpt>
      <trkpt lat="45.29394" lon="4.45197">
        <ele>1076</ele>
        <time>2016-07-06T11:31:15Z</time>
      </trkpt>
      <trkpt lat="45.29401" lon="4.45202">
        <ele>1076</ele>
        <time>2016-07-06T11:33:15Z</time>
      </trkpt>
      <trkpt lat="45.29408" lon="4.45207">
        <ele>1076</ele>
        <time>2016-07-06T11:35:15Z</time>
      </trkpt>
      <trkpt lat="45.29414" lon="4.45214">
        <ele>1077</ele>
        <time>2016-07-06T11:37:15Z</time>
      </trkpt>
      <trkpt lat="45.29421" lon="4.4522">
        <ele>1070</ele>
        <time>2016-07-06T11:39:15Z</time>
      </trkpt>
      <trkpt lat="45.29427" lon="4.45228">
        <ele>1071</ele>
        <time>2016-07-06T11:41:15Z</time>
      </trkpt>
      <trkpt lat="45.29432" lon="4.45234">
        <ele>1071</ele>
        <time>2016-07-06T11:43:15Z</time>
      </trkpt>
      <trkpt lat="45.29433" lon="4.45236">
        <ele>1071</ele>
        <time>2016-07-06T11:45:15Z</time>
      </trkpt>
      <trkpt lat="45.29439" lon="4.45244">
        <ele>1071</ele>
        <time>2016-07-06T11:47:15Z</time>
      </trkpt>
      <trkpt lat="45.29444" lon="4.45254">
        <ele>1076</ele>
        <time>2016-07-06T11:49:15Z</time>
      </trkpt>
      <trkpt lat="45.29449" lon="4.45263">
        <ele>1076</ele>
        <time>2016-07-06T11:51:15Z</time>
      </trkpt>
      <trkpt lat="45.29454" lon="4.45273">
        <ele>1076</ele>
        <time>2016-07-06T11:53:15Z</time>
      </trkpt>
      <trkpt lat="45.29459" lon="4.45283">
        <ele>1076</ele>
        <time>2016-07-06T11:55:15Z</time>
      </trkpt>
      <trkpt lat="45.29462" lon="4.4529">
        <ele>1076</ele>
        <time>2016-07-06T11:57:15Z</time>
      </trkpt>
      <trkpt lat="45.29468" lon="4.45307">
        <ele>1076</ele>
        <time>2016-07-06T11:59:15Z</time>
      </trkpt>
      <trkpt lat="45.29476" lon="4.45327">
        <ele>1076</ele>
        <time>2016-07-06T12:01:15Z</time>
      </trkpt>
      <trkpt lat="45.29482" lon="4.45344">
        <ele>1081</ele>
        <time>2016-07-06T12:03:15Z</time>
      </trkpt>
      <trkpt lat="45.29486" lon="4.45354">
        <ele>1082</ele>
        <time>2016-07-06T12:05:15Z</time>
      </trkpt>
      <trkpt lat="45.29488" lon="4.45364">
        <ele>1083</ele>
        <time>2016-07-06T12:07:15Z</time>
      </trkpt>
      <trkpt lat="45.29489" lon="4.45374">
        <ele>1084</ele>
        <time>2016-07-06T12:09:15Z</time>
      </trkpt>
      <trkpt lat="45.29491" lon="4.45385">
        <ele>1084</ele>
        <time>2016-07-06T12:11:15Z</time>
      </trkpt>
      <trkpt lat="45.29493" lon="4.454">
        <ele>1084</ele>
        <time>2016-07-06T12:13:15Z</time>
      </trkpt>
      <trkpt lat="45.29496" lon="4.45418">
        <ele>1084</ele>
        <time>2016-07-06T12:15:15Z</time>
      </trkpt>
      <trkpt lat="45.295" lon="4.45436">
        <ele>1079</ele>
        <time>2016-07-06T12:17:15Z</time>
      </trkpt>
      <trkpt lat="45.29503" lon="4.45451">
        <ele>1079</ele>
        <time>2016-07-06T12:19:15Z</time>
      </trkpt>
      <trkpt lat="45.29506" lon="4.45461">
        <ele>1079</ele>
        <time>2016-07-06T12:21:15Z</time>
      </trkpt>
      <trkpt lat="45.29509" lon="4.45471">
        <ele>1079</ele>
        <time>2016-07-06T12:23:15Z</time>
      </trkpt>
      <trkpt lat="45.29511" lon="4.45477">
        <ele>1080</ele>
        <time>2016-07-06T12:25:15Z</time>
      </trkpt>
      <trkpt lat="45.29513" lon="4.45485">
        <ele>1081</ele>
        <time>2016-07-06T12:27:15Z</time>
      </trkpt>
      <trkpt lat="45.29519" lon="4.45499">
        <ele>1081</ele>
        <time>2016-07-06T12:29:15Z</time>
      </trkpt>
      <trkpt lat="45.29524" lon="4.4551">
        <ele>1082</ele>
        <time>2016-07-06T12:31:15Z</time>
      </trkpt>
      <trkpt lat="45.29529" lon="4.45522">
        <ele>1081</ele>
        <time>2016-07-06T12:33:15Z</time>
      </trkpt>
      <trkpt lat="45.29533" lon="4.45531">
        <ele>1081</ele>
        <time>2016-07-06T12:35:15Z</time>
      </trkpt>
      <trkpt lat="45.29538" lon="4.4554">
        <ele>1081</ele>
        <time>2016-07-06T12:37:15Z</time>
      </trkpt>
      <trkpt lat="45.29543" lon="4.45548">
        <ele>1080</ele>
        <time>2016-07-06T12:39:15Z</time>
      </trkpt>
      <trkpt lat="45.29549" lon="4.45555">
        <ele>1080</ele>
        <time>2016-07-06T12:41:15Z</time>
      </trkpt>
      <trkpt lat="45.29554" lon="4.45562">
        <ele>1079</ele>
        <time>2016-07-06T12:43:15Z</time>
      </trkpt>
      <trkpt lat="45.29561" lon="4.45568">
        <ele>1078</ele>
        <time>2016-07-06T12:45:15Z</time>
      </trkpt>
      <trkpt lat="45.29569" lon="4.45574">
        <ele>1077</ele>
        <time>2016-07-06T12:47:15Z</time>
      </trkpt>
      <trkpt lat="45.29576" lon="4.4558">
        <ele>1076</ele>
        <time>2016-07-06T12:49:15Z</time>
      </trkpt>
      <trkpt lat="45.29584" lon="4.45585">
        <ele>1074</ele>
        <time>2016-07-06T12:51:15Z</time>
      </trkpt>
      <trkpt lat="45.29593" lon="4.4559">
        <ele>1076</ele>
        <time>2016-07-06T12:53:15Z</time>
      </trkpt>
      <trkpt lat="45.29601" lon="4.45594">
        <ele>1076</ele>
        <time>2016-07-06T12:55:15Z</time>
      </trkpt>
      <trkpt lat="45.2961" lon="4.45598">
        <ele>1077</ele>
        <time>2016-07-06T12:57:15Z</time>
      </trkpt>
      <trkpt lat="45.29619" lon="4.456">
        <ele>1077</ele>
        <time>2016-07-06T12:59:15Z</time>
      </trkpt>
      <trkpt lat="45.29629" lon="4.45602">
        <ele>1077</ele>
        <time>2016-07-06T13:01:15Z</time>
      </trkpt>
      <trkpt lat="45.29638" lon="4.45602">
        <ele>1077</ele>
        <time>2016-07-06T13:03:15Z</time>
      </trkpt>
      <trkpt lat="45.29648" lon="4.45603">
        <ele>1076</ele>
        <time>2016-07-06T13:05:15Z</time>
      </trkpt>
      <trkpt lat="45.29657" lon="4.45602">
        <ele>1076</ele>
        <time>2016-07-06T13:07:15Z</time>
      </trkpt>
      <trkpt lat="45.2967" lon="4.45601">
        <ele>1075</ele>
        <time>2016-07-06T13:09:15Z</time>
      </trkpt>
      <trkpt lat="45.29691" lon="4.45599">
        <ele>1076</ele>
        <time>2016-07-06T13:11:15Z</time>
      </trkpt>
      <trkpt lat="45.29692" lon="4.45599">
        <ele>1076</ele>
        <time>2016-07-06T13:13:15Z</time>
      </trkpt>
      <trkpt lat="45.29718" lon="4.45597">
        <ele>1076</ele>
        <time>2016-07-06T13:15:15Z</time>
      </trkpt>
      <trkpt lat="45.29731" lon="4.45596">
        <ele>1076</ele>
        <time>2016-07-06T13:17:15Z</time>
      </trkpt>
      <trkpt lat="45.29743" lon="4.45596">
        <ele>1075</ele>
        <time>2016-07-06T13:19:15Z</time>
      </trkpt>
      <trkpt lat="45.29754" lon="4.45595">
        <ele>1075</ele>
        <time>2016-07-06T13:21:15Z</time>
      </trkpt>
      <trkpt lat="45.29764" lon="4.45595">
        <ele>1075</ele>
        <time>2016-07-06T13:23:15Z</time>
      </trkpt>
      <trkpt lat="45.29773" lon="4.45596">
        <ele>1075</ele>
        <time>2016-07-06T13:25:15Z</time>
      </trkpt>
      <trkpt lat="45.29789" lon="4.456">
        <ele>1075</ele>
        <time>2016-07-06T13:27:15Z</time>
      </trkpt>
      <trkpt lat="45.29797" lon="4.45603">
        <ele>1075</ele>
        <time>2016-07-06T13:29:15Z</time>
      </trkpt>
      <trkpt lat="45.29806" lon="4.45607">
        <ele>1075</ele>
        <time>2016-07-06T13:31:15Z</time>
      </trkpt>
      <trkpt lat="45.29812" lon="4.45611">
        <ele>1075</ele>
        <time>2016-07-06T13:33:15Z</time>
      </trkpt>
      <trkpt lat="45.29819" lon="4.45617">
        <ele>1075</ele>
        <time>2016-07-06T13:35:15Z</time>
      </trkpt>
      <trkpt lat="45.29826" lon="4.45622">
        <ele>1076</ele>
        <time>2016-07-06T13:37:15Z</time>
      </trkpt>
      <trkpt lat="45.29838" lon="4.45634">
        <ele>1075</ele>
        <time>2016-07-06T13:39:15Z</time>
      </trkpt>
      <trkpt lat="45.29844" lon="4.45642">
        <ele>1076</ele>
        <time>2016-07-06T13:41:15Z</time>
      </trkpt>
      <trkpt lat="45.2985" lon="4.45648">
        <ele>1076</ele>
        <time>2016-07-06T13:43:15Z</time>
      </trkpt>
      <trkpt lat="45.29856" lon="4.45656">
        <ele>1076</ele>
        <time>2016-07-06T13:45:15Z</time>
      </trkpt>
      <trkpt lat="45.29862" lon="4.45663">
        <ele>1076</ele>
        <time>2016-07-06T13:47:15Z</time>
      </trkpt>
      <trkpt lat="45.29868" lon="4.4567">
        <ele>1078</ele>
        <time>2016-07-06T13:49:15Z</time>
      </trkpt>
      <trkpt lat="45.29873" lon="4.45677">
        <ele>1078</ele>
        <time>2016-07-06T13:51:15Z</time>
      </trkpt>
      <trkpt lat="45.29875" lon="4.45679">
        <ele>1078</ele>
        <time>2016-07-06T13:53:15Z</time>
      </trkpt>
      <trkpt lat="45.29879" lon="4.45689">
        <ele>1078</ele>
        <time>2016-07-06T13:55:15Z</time>
      </trkpt>
      <trkpt lat="45.29884" lon="4.45697">
        <ele>1078</ele>
        <time>2016-07-06T13:57:15Z</time>
      </trkpt>
      <trkpt lat="45.29887" lon="4.45703">
        <ele>1078</ele>
        <time>2016-07-06T13:59:15Z</time>
      </trkpt>
      <trkpt lat="45.29889" lon="4.4571">
        <ele>1078</ele>
        <time>2016-07-06T14:01:15Z</time>
      </trkpt>
      <trkpt lat="45.29892" lon="4.45719">
        <ele>1078</ele>
        <time>2016-07-06T14:03:15Z</time>
      </trkpt>
      <trkpt lat="45.29895" lon="4.45727">
        <ele>1078</ele>
        <time>2016-07-06T14:05:15Z</time>
      </trkpt>
      <trkpt lat="45.29897" lon="4.45735">
        <ele>1078</ele>
        <time>2016-07-06T14:07:15Z</time>
      </trkpt>
      <trkpt lat="45.29898" lon="4.45743">
        <ele>1078</ele>
        <time>2016-07-06T14:09:15Z</time>
      </trkpt>
      <trkpt lat="45.299" lon="4.45752">
        <ele>1080</ele>
        <time>2016-07-06T14:11:15Z</time>
      </trkpt>
      <trkpt lat="45.29902" lon="4.45762">
        <ele>1081</ele>
        <time>2016-07-06T14:13:15Z</time>
      </trkpt>
      <trkpt lat="45.29903" lon="4.45771">
        <ele>1081</ele>
        <time>2016-07-06T14:15:15Z</time>
      </trkpt>
      <trkpt lat="45.29903" lon="4.45782">
        <ele>1082</ele>
        <time>2016-07-06T14:17:15Z</time>
      </trkpt>
      <trkpt lat="45.29904" lon="4.45801">
        <ele>1083</ele>
        <time>2016-07-06T14:19:15Z</time>
      </trkpt>
      <trkpt lat="45.29904" lon="4.45831">
        <ele>1083</ele>
        <time>2016-07-06T14:21:15Z</time>
      </trkpt>
      <trkpt lat="45.29904" lon="4.45833">
        <ele>1083</ele>
        <time>2016-07-06T14:23:15Z</time>
      </trkpt>
      <trkpt lat="45.29906" lon="4.45894">
        <ele>1086</ele>
        <time>2016-07-06T14:25:15Z</time>
      </trkpt>
      <trkpt lat="45.29908" lon="4.45973">
        <ele>1089</ele>
        <time>2016-07-06T14:27:15Z</time>
      </trkpt>
      <trkpt lat="45.29909" lon="4.45988">
        <ele>1088</ele>
        <time>2016-07-06T14:29:15Z</time>
      </trkpt>
      <trkpt lat="45.2991" lon="4.46004">
        <ele>1089</ele>
        <time>2016-07-06T14:31:15Z</time>
      </trkpt>
      <trkpt lat="45.29911" lon="4.46014">
        <ele>1091</ele>
        <time>2016-07-06T14:33:15Z</time>
      </trkpt>
      <trkpt lat="45.29913" lon="4.46026">
        <ele>1093</ele>
        <time>2016-07-06T14:35:15Z</time>
      </trkpt>
      <trkpt lat="45.29916" lon="4.46046">
        <ele>1094</ele>
        <time>2016-07-06T14:37:15Z</time>
      </trkpt>
      <trkpt lat="45.29916" lon="4.46053">
        <ele>1094</ele>
        <time>2016-07-06T14:39:15Z</time>
      </trkpt>
      <trkpt lat="45.29918" lon="4.46065">
        <ele>1090</ele>
        <time>2016-07-06T14:41:15Z</time>
      </trkpt>
      <trkpt lat="45.2992" lon="4.46076">
        <ele>1090</ele>
        <time>2016-07-06T14:43:15Z</time>
      </trkpt>
      <trkpt lat="45.29923" lon="4.46088">
        <ele>1091</ele>
        <time>2016-07-06T14:45:15Z</time>
      </trkpt>
      <trkpt lat="45.29925" lon="4.46099">
        <ele>1092</ele>
        <time>2016-07-06T14:47:15Z</time>
      </trkpt>
      <trkpt lat="45.29928" lon="4.46109">
        <ele>1093</ele>
        <time>2016-07-06T14:49:15Z</time>
      </trkpt>
      <trkpt lat="45.29932" lon="4.46123">
        <ele>1094</ele>
        <time>2016-07-06T14:51:15Z</time>
      </trkpt>
      <trkpt lat="45.29937" lon="4.46139">
        <ele>1095</ele>
        <time>2016-07-06T14:53:15Z</time>
      </trkpt>
      <trkpt lat="45.29945" lon="4.46167">
        <ele>1099</ele>
        <time>2016-07-06T14:55:15Z</time>
      </trkpt>
      <trkpt lat="45.2997" lon="4.46251">
        <ele>1105</ele>
        <time>2016-07-06T14:57:15Z</time>
      </trkpt>
      <trkpt lat="45.29982" lon="4.46295">
        <ele>1106</ele>
        <time>2016-07-06T14:59:15Z</time>
      </trkpt>
      <trkpt lat="45.29983" lon="4.46297">
        <ele>1106</ele>
        <time>2016-07-06T15:01:15Z</time>
      </trkpt>
      <trkpt lat="45.29985" lon="4.463">
        <ele>1106</ele>
        <time>2016-07-06T15:03:15Z</time>
      </trkpt>
      <trkpt lat="45.29986" lon="4.46305">
        <ele>1106</ele>
        <time>2016-07-06T15:05:15Z</time>
      </trkpt>
      <trkpt lat="45.29988" lon="4.46308">
        <ele>1106</ele>
        <time>2016-07-06T15:07:15Z</time>
      </trkpt>
      <trkpt lat="45.29991" lon="4.46311">
        <ele>1105</ele>
        <time>2016-07-06T15:09:15Z</time>
      </trkpt>
      <trkpt lat="45.29994" lon="4.46313">
        <ele>1105</ele>
        <time>2016-07-06T15:11:15Z</time>
      </trkpt>
      <trkpt lat="45.29998" lon="4.46314">
        <ele>1105</ele>
        <time>2016-07-06T15:13:15Z</time>
      </trkpt>
      <trkpt lat="45.30001" lon="4.46314">
        <ele>1108</ele>
        <time>2016-07-06T15:15:15Z</time>
      </trkpt>
      <trkpt lat="45.30004" lon="4.46314">
        <ele>1108</ele>
        <time>2016-07-06T15:17:15Z</time>
      </trkpt>
      <trkpt lat="45.30007" lon="4.46313">
        <ele>1108</ele>
        <time>2016-07-06T15:19:15Z</time>
      </trkpt>
      <trkpt lat="45.3001" lon="4.46311">
        <ele>1109</ele>
        <time>2016-07-06T15:21:15Z</time>
      </trkpt>
      <trkpt lat="45.30012" lon="4.46308">
        <ele>1109</ele>
        <time>2016-07-06T15:23:15Z</time>
      </trkpt>
      <trkpt lat="45.30014" lon="4.46304">
        <ele>1109</ele>
        <time>2016-07-06T15:25:15Z</time>
      </trkpt>
      <trkpt lat="45.30016" lon="4.46299">
        <ele>1110</ele>
        <time>2016-07-06T15:27:15Z</time>
      </trkpt>
      <trkpt lat="45.30016" lon="4.46295">
        <ele>1110</ele>
        <time>2016-07-06T15:29:15Z</time>
      </trkpt>
      <trkpt lat="45.30017" lon="4.46289">
        <ele>1110</ele>
        <time>2016-07-06T15:31:15Z</time>
      </trkpt>
      <trkpt lat="45.30017" lon="4.46283">
        <ele>1110</ele>
        <time>2016-07-06T15:33:15Z</time>
      </trkpt>
      <trkpt lat="45.30017" lon="4.46275">
        <ele>1109</ele>
        <time>2016-07-06T15:35:15Z</time>
      </trkpt>
      <trkpt lat="45.30017" lon="4.46268">
        <ele>1109</ele>
        <time>2016-07-06T15:37:15Z</time>
      </trkpt>
      <trkpt lat="45.30017" lon="4.46261">
        <ele>1108</ele>
        <time>2016-07-06T15:39:15Z</time>
      </trkpt>
      <trkpt lat="45.30017" lon="4.46253">
        <ele>1107</ele>
        <time>2016-07-06T15:41:15Z</time>
      </trkpt>
      <trkpt lat="45.30017" lon="4.46245">
        <ele>1107</ele>
        <time>2016-07-06T15:43:15Z</time>
      </trkpt>
      <trkpt lat="45.30017" lon="4.46235">
        <ele>1107</ele>
        <time>2016-07-06T15:45:15Z</time>
      </trkpt>
      <trkpt lat="45.30018" lon="4.46226">
        <ele>1108</ele>
        <time>2016-07-06T15:47:15Z</time>
      </trkpt>
      <trkpt lat="45.30018" lon="4.46216">
        <ele>1108</ele>
        <time>2016-07-06T15:49:15Z</time>
      </trkpt>
      <trkpt lat="45.3002" lon="4.46208">
        <ele>1108</ele>
        <time>2016-07-06T15:51:15Z</time>
      </trkpt>
      <trkpt lat="45.30022" lon="4.46198">
        <ele>1108</ele>
        <time>2016-07-06T15:53:15Z</time>
      </trkpt>
      <trkpt lat="45.30024" lon="4.46191">
        <ele>1108</ele>
        <time>2016-07-06T15:55:15Z</time>
      </trkpt>
      <trkpt lat="45.30027" lon="4.46178">
        <ele>1107</ele>
        <time>2016-07-06T15:57:15Z</time>
      </trkpt>
      <trkpt lat="45.30032" lon="4.46164">
        <ele>1105</ele>
        <time>2016-07-06T15:59:15Z</time>
      </trkpt>
      <trkpt lat="45.30038" lon="4.46149">
        <ele>1106</ele>
        <time>2016-07-06T16:01:15Z</time>
      </trkpt>
      <trkpt lat="45.30044" lon="4.46131">
        <ele>1107</ele>
        <time>2016-07-06T16:03:15Z</time>
      </trkpt>
      <trkpt lat="45.3005" lon="4.46116">
        <ele>1107</ele>
        <time>2016-07-06T16:05:15Z</time>
      </trkpt>
      <trkpt lat="45.30054" lon="4.46102">
        <ele>1107</ele>
        <time>2016-07-06T16:07:15Z</time>
      </trkpt>
      <trkpt lat="45.3006" lon="4.46086">
        <ele>1108</ele>
        <time>2016-07-06T16:09:15Z</time>
      </trkpt>
      <trkpt lat="45.30064" lon="4.46076">
        <ele>1106</ele>
        <time>2016-07-06T16:11:15Z</time>
      </trkpt>
      <trkpt lat="45.30068" lon="4.46066">
        <ele>1105</ele>
        <time>2016-07-06T16:13:15Z</time>
      </trkpt>
      <trkpt lat="45.3007" lon="4.46062">
        <ele>1105</ele>
        <time>2016-07-06T16:15:15Z</time>
      </trkpt>
      <trkpt lat="45.30073" lon="4.46057">
        <ele>1104</ele>
        <time>2016-07-06T16:17:15Z</time>
      </trkpt>
      <trkpt lat="45.30082" lon="4.46042">
        <ele>1103</ele>
        <time>2016-07-06T16:19:15Z</time>
      </trkpt>
      <trkpt lat="45.30103" lon="4.46007">
        <ele>1110</ele>
        <time>2016-07-06T16:21:15Z</time>
      </trkpt>
      <trkpt lat="45.30125" lon="4.45973">
        <ele>1109</ele>
        <time>2016-07-06T16:23:15Z</time>
      </trkpt>
      <trkpt lat="45.30131" lon="4.45962">
        <ele>1109</ele>
        <time>2016-07-06T16:25:15Z</time>
      </trkpt>
      <trkpt lat="45.30135" lon="4.45956">
        <ele>1110</ele>
        <time>2016-07-06T16:27:15Z</time>
      </trkpt>
      <trkpt lat="45.30139" lon="4.45951">
        <ele>1110</ele>
        <time>2016-07-06T16:29:15Z</time>
      </trkpt>
      <trkpt lat="45.30143" lon="4.45947">
        <ele>1110</ele>
        <time>2016-07-06T16:31:15Z</time>
      </trkpt>
      <trkpt lat="45.30146" lon="4.45945">
        <ele>1110</ele>
        <time>2016-07-06T16:33:15Z</time>
      </trkpt>
      <trkpt lat="45.30149" lon="4.45943">
        <ele>1111</ele>
        <time>2016-07-06T16:35:15Z</time>
      </trkpt>
      <trkpt lat="45.30153" lon="4.45942">
        <ele>1111</ele>
        <time>2016-07-06T16:37:15Z</time>
      </trkpt>
      <trkpt lat="45.30158" lon="4.45942">
        <ele>1111</ele>
        <time>2016-07-06T16:39:15Z</time>
      </trkpt>
      <trkpt lat="45.30163" lon="4.45942">
        <ele>1111</ele>
        <time>2016-07-06T16:41:15Z</time>
      </trkpt>
      <trkpt lat="45.30169" lon="4.45944">
        <ele>1117</ele>
        <time>2016-07-06T16:43:15Z</time>
      </trkpt>
      <trkpt lat="45.30175" lon="4.45948">
        <ele>1117</ele>
        <time>2016-07-06T16:45:15Z</time>
      </trkpt>
      <trkpt lat="45.30183" lon="4.45952">
        <ele>1118</ele>
        <time>2016-07-06T16:47:15Z</time>
      </trkpt>
      <trkpt lat="45.3019" lon="4.45956">
        <ele>1118</ele>
        <time>2016-07-06T16:49:15Z</time>
      </trkpt>
      <trkpt lat="45.30199" lon="4.45961">
        <ele>1118</ele>
        <time>2016-07-06T16:51:15Z</time>
      </trkpt>
      <trkpt lat="45.30212" lon="4.45969">
        <ele>1119</ele>
        <time>2016-07-06T16:53:15Z</time>
      </trkpt>
      <trkpt lat="45.30227" lon="4.45977">
        <ele>1120</ele>
        <time>2016-07-06T16:55:15Z</time>
      </trkpt>
      <trkpt lat="45.30233" lon="4.45981">
        <ele>1120</ele>
        <time>2016-07-06T16:57:15Z</time>
      </trkpt>
      <trkpt lat="45.3024" lon="4.45986">
        <ele>1121</ele>
        <time>2016-07-06T16:59:15Z</time>
      </trkpt>
      <trkpt lat="45.30256" lon="4.45993">
        <ele>1123</ele>
        <time>2016-07-06T17:01:15Z</time>
      </trkpt>
      <trkpt lat="45.30264" lon="4.45996">
        <ele>1124</ele>
        <time>2016-07-06T17:03:15Z</time>
      </trkpt>
      <trkpt lat="45.3027" lon="4.45999">
        <ele>1124</ele>
        <time>2016-07-06T17:05:15Z</time>
      </trkpt>
      <trkpt lat="45.30277" lon="4.46002">
        <ele>1126</ele>
        <time>2016-07-06T17:07:15Z</time>
      </trkpt>
      <trkpt lat="45.30285" lon="4.46003">
        <ele>1127</ele>
        <time>2016-07-06T17:09:15Z</time>
      </trkpt>
      <trkpt lat="45.30292" lon="4.46004">
        <ele>1127</ele>
        <time>2016-07-06T17:11:15Z</time>
      </trkpt>
      <trkpt lat="45.30299" lon="4.46006">
        <ele>1128</ele>
        <time>2016-07-06T17:13:15Z</time>
      </trkpt>
      <trkpt lat="45.30308" lon="4.46008">
        <ele>1129</ele>
        <time>2016-07-06T17:15:15Z</time>
      </trkpt>
      <trkpt lat="45.30317" lon="4.4601">
        <ele>1129</ele>
        <time>2016-07-06T17:17:15Z</time>
      </trkpt>
      <trkpt lat="45.30331" lon="4.46012">
        <ele>1130</ele>
        <time>2016-07-06T17:19:15Z</time>
      </trkpt>
      <trkpt lat="45.3034" lon="4.46014">
        <ele>1132</ele>
        <time>2016-07-06T17:21:15Z</time>
      </trkpt>
      <trkpt lat="45.30347" lon="4.46015">
        <ele>1132</ele>
        <time>2016-07-06T17:23:15Z</time>
      </trkpt>
      <trkpt lat="45.3037" lon="4.46018">
        <ele>1132</ele>
        <time>2016-07-06T17:25:15Z</time>
      </trkpt>
      <trkpt lat="45.30373" lon="4.46018">
        <ele>1132</ele>
        <time>2016-07-06T17:27:15Z</time>
      </trkpt>
      <trkpt lat="45.3038" lon="4.46019">
        <ele>1132</ele>
        <time>2016-07-06T17:29:15Z</time>
      </trkpt>
      <trkpt lat="45.30386" lon="4.46022">
        <ele>1132</ele>
        <time>2016-07-06T17:31:15Z</time>
      </trkpt>
      <trkpt lat="45.30395" lon="4.46025">
        <ele>1132</ele>
        <time>2016-07-06T17:33:15Z</time>
      </trkpt>
      <trkpt lat="45.30403" lon="4.46028">
        <ele>1132</ele>
        <time>2016-07-06T17:35:15Z</time>
      </trkpt>
      <trkpt lat="45.3041" lon="4.46033">
        <ele>1132</ele>
        <time>2016-07-06T17:37:15Z</time>
      </trkpt>
      <trkpt lat="45.30417" lon="4.46037">
        <ele>1130</ele>
        <time>2016-07-06T17:39:15Z</time>
      </trkpt>
      <trkpt lat="45.30426" lon="4.46043">
        <ele>1131</ele>
        <time>2016-07-06T17:41:15Z</time>
      </trkpt>
      <trkpt lat="45.30435" lon="4.46052">
        <ele>1131</ele>
        <time>2016-07-06T17:43:15Z</time>
      </trkpt>
      <trkpt lat="45.30439" lon="4.46056">
        <ele>1131</ele>
        <time>2016-07-06T17:45:15Z</time>
      </trkpt>
      <trkpt lat="45.30474" lon="4.46093">
        <ele>1135</ele>
        <time>2016-07-06T17:47:15Z</time>
      </trkpt>
      <trkpt lat="45.30521" lon="4.46134">
        <ele>1129</ele>
        <time>2016-07-06T17:49:15Z</time>
      </trkpt>
      <trkpt lat="45.30529" lon="4.46142">
        <ele>1129</ele>
        <time>2016-07-06T17:51:15Z</time>
      </trkpt>
      <trkpt lat="45.30537" lon="4.46149">
        <ele>1128</ele>
        <time>2016-07-06T17:53:15Z</time>
      </trkpt>
      <trkpt lat="45.30542" lon="4.46156">
        <ele>1128</ele>
        <time>2016-07-06T17:55:15Z</time>
      </trkpt>
      <trkpt lat="45.30547" lon="4.46163">
        <ele>1127</ele>
        <time>2016-07-06T17:57:15Z</time>
      </trkpt>
      <trkpt lat="45.30552" lon="4.4617">
        <ele>1132</ele>
        <time>2016-07-06T17:59:15Z</time>
      </trkpt>
      <trkpt lat="45.30558" lon="4.46177">
        <ele>1132</ele>
        <time>2016-07-06T18:01:15Z</time>
      </trkpt>
      <trkpt lat="45.3056" lon="4.4618">
        <ele>1132</ele>
        <time>2016-07-06T18:03:15Z</time>
      </trkpt>
      <trkpt lat="45.30563" lon="4.46185">
        <ele>1132</ele>
        <time>2016-07-06T18:05:15Z</time>
      </trkpt>
      <trkpt lat="45.30569" lon="4.46193">
        <ele>1132</ele>
        <time>2016-07-06T18:07:15Z</time>
      </trkpt>
      <trkpt lat="45.30573" lon="4.46199">
        <ele>1133</ele>
        <time>2016-07-06T18:09:15Z</time>
      </trkpt>
      <trkpt lat="45.30576" lon="4.46202">
        <ele>1133</ele>
        <time>2016-07-06T18:11:15Z</time>
      </trkpt>
      <trkpt lat="45.30583" lon="4.46209">
        <ele>1134</ele>
        <time>2016-07-06T18:13:15Z</time>
      </trkpt>
      <trkpt lat="45.3059" lon="4.46217">
        <ele>1128</ele>
        <time>2016-07-06T18:15:15Z</time>
      </trkpt>
      <trkpt lat="45.30598" lon="4.46225">
        <ele>1129</ele>
        <time>2016-07-06T18:17:15Z</time>
      </trkpt>
      <trkpt lat="45.30608" lon="4.46234">
        <ele>1129</ele>
        <time>2016-07-06T18:19:15Z</time>
      </trkpt>
      <trkpt lat="45.3063" lon="4.46251">
        <ele>1133</ele>
        <time>2016-07-06T18:21:15Z</time>
      </trkpt>
      <trkpt lat="45.30648" lon="4.46266">
        <ele>1131</ele>
        <time>2016-07-06T18:23:15Z</time>
      </trkpt>
      <trkpt lat="45.3065" lon="4.46267">
        <ele>1131</ele>
        <time>2016-07-06T18:25:15Z</time>
      </trkpt>
      <trkpt lat="45.30656" lon="4.46271">
        <ele>1131</ele>
        <time>2016-07-06T18:27:15Z</time>
      </trkpt>
      <trkpt lat="45.30656" lon="4.46272">
        <ele>1131</ele>
        <time>2016-07-06T18:29:15Z</time>
      </trkpt>
      <trkpt lat="45.30664" lon="4.46277">
        <ele>1132</ele>
        <time>2016-07-06T18:31:15Z</time>
      </trkpt>
      <trkpt lat="45.30671" lon="4.46282">
        <ele>1127</ele>
        <time>2016-07-06T18:33:15Z</time>
      </trkpt>
      <trkpt lat="45.30679" lon="4.46287">
        <ele>1127</ele>
        <time>2016-07-06T18:35:15Z</time>
      </trkpt>
      <trkpt lat="45.30682" lon="4.46289">
        <ele>1128</ele>
        <time>2016-07-06T18:37:15Z</time>
      </trkpt>
      <trkpt lat="45.30688" lon="4.46292">
        <ele>1128</ele>
        <time>2016-07-06T18:39:15Z</time>
      </trkpt>
      <trkpt lat="45.30698" lon="4.46298">
        <ele>1128</ele>
        <time>2016-07-06T18:41:15Z</time>
      </trkpt>
      <trkpt lat="45.3073" lon="4.46314">
        <ele>1128</ele>
        <time>2016-07-06T18:43:15Z</time>
      </trkpt>
      <trkpt lat="45.30751" lon="4.46325">
        <ele>1128</ele>
        <time>2016-07-06T18:45:15Z</time>
      </trkpt>
      <trkpt lat="45.30793" lon="4.46346">
        <ele>1133</ele>
        <time>2016-07-06T18:47:15Z</time>
      </trkpt>
      <trkpt lat="45.3081" lon="4.46355">
        <ele>1132</ele>
        <time>2016-07-06T18:49:15Z</time>
      </trkpt>
      <trkpt lat="45.30816" lon="4.46357">
        <ele>1132</ele>
        <time>2016-07-06T18:51:15Z</time>
      </trkpt>
      <trkpt lat="45.3084" lon="4.46368">
        <ele>1132</ele>
        <time>2016-07-06T18:53:15Z</time>
      </trkpt>
      <trkpt lat="45.30847" lon="4.4637">
        <ele>1132</ele>
        <time>2016-07-06T18:55:15Z</time>
      </trkpt>
      <trkpt lat="45.30855" lon="4.46372">
        <ele>1133</ele>
        <time>2016-07-06T18:57:15Z</time>
      </trkpt>
      <trkpt lat="45.30861" lon="4.46373">
        <ele>1133</ele>
        <time>2016-07-06T18:59:15Z</time>
      </trkpt>
      <trkpt lat="45.30876" lon="4.46375">
        <ele>1133</ele>
        <time>2016-07-06T19:01:15Z</time>
      </trkpt>
      <trkpt lat="45.30882" lon="4.46375">
        <ele>1133</ele>
        <time>2016-07-06T19:03:15Z</time>
      </trkpt>
      <trkpt lat="45.30903" lon="4.46372">
        <ele>1133</ele>
        <time>2016-07-06T19:05:15Z</time>
      </trkpt>
      <trkpt lat="45.30927" lon="4.46367">
        <ele>1133</ele>
        <time>2016-07-06T19:07:15Z</time>
      </trkpt>
      <trkpt lat="45.30936" lon="4.46364">
        <ele>1133</ele>
        <time>2016-07-06T19:09:15Z</time>
      </trkpt>
      <trkpt lat="45.30948" lon="4.46362">
        <ele>1133</ele>
        <time>2016-07-06T19:11:15Z</time>
      </trkpt>
      <trkpt lat="45.30961" lon="4.4636">
        <ele>1133</ele>
        <time>2016-07-06T19:13:15Z</time>
      </trkpt>
      <trkpt lat="45.30975" lon="4.46359">
        <ele>1133</ele>
        <time>2016-07-06T19:15:15Z</time>
      </trkpt>
      <trkpt lat="45.30985" lon="4.46359">
        <ele>1133</ele>
        <time>2016-07-06T19:17:15Z</time>
      </trkpt>
      <trkpt lat="45.30991" lon="4.46359">
        <ele>1133</ele>
        <time>2016-07-06T19:19:15Z</time>
      </trkpt>
      <trkpt lat="45.31007" lon="4.46365">
        <ele>1134</ele>
        <time>2016-07-06T19:21:15Z</time>
      </trkpt>
      <trkpt lat="45.31015" lon="4.46367">
        <ele>1134</ele>
        <time>2016-07-06T19:23:15Z</time>
      </trkpt>
      <trkpt lat="45.31025" lon="4.46371">
        <ele>1134</ele>
        <time>2016-07-06T19:25:15Z</time>
      </trkpt>
      <trkpt lat="45.31027" lon="4.46372">
        <ele>1134</ele>
        <time>2016-07-06T19:27:15Z</time>
      </trkpt>
      <trkpt lat="45.31033" lon="4.46375">
        <ele>1134</ele>
        <time>2016-07-06T19:29:15Z</time>
      </trkpt>
      <trkpt lat="45.31042" lon="4.4638">
        <ele>1134</ele>
        <time>2016-07-06T19:31:15Z</time>
      </trkpt>
      <trkpt lat="45.31055" lon="4.46389">
        <ele>1135</ele>
        <time>2016-07-06T19:33:15Z</time>
      </trkpt>
      <trkpt lat="45.31074" lon="4.46406">
        <ele>1136</ele>
        <time>2016-07-06T19:35:15Z</time>
      </trkpt>
      <trkpt lat="45.31086" lon="4.46418">
        <ele>1138</ele>
        <time>2016-07-06T19:37:15Z</time>
      </trkpt>
      <trkpt lat="45.31091" lon="4.46424">
        <ele>1138</ele>
        <time>2016-07-06T19:39:15Z</time>
      </trkpt>
      <trkpt lat="45.31094" lon="4.46426">
        <ele>1138</ele>
        <time>2016-07-06T19:41:15Z</time>
      </trkpt>
      <trkpt lat="45.31102" lon="4.46438">
        <ele>1138</ele>
        <time>2016-07-06T19:43:15Z</time>
      </trkpt>
      <trkpt lat="45.31109" lon="4.46447">
        <ele>1138</ele>
        <time>2016-07-06T19:45:15Z</time>
      </trkpt>
      <trkpt lat="45.31115" lon="4.46457">
        <ele>1138</ele>
        <time>2016-07-06T19:47:15Z</time>
      </trkpt>
      <trkpt lat="45.31119" lon="4.46468">
        <ele>1138</ele>
        <time>2016-07-06T19:49:15Z</time>
      </trkpt>
      <trkpt lat="45.31123" lon="4.46481">
        <ele>1139</ele>
        <time>2016-07-06T19:51:15Z</time>
      </trkpt>
      <trkpt lat="45.31127" lon="4.46496">
        <ele>1139</ele>
        <time>2016-07-06T19:53:15Z</time>
      </trkpt>
      <trkpt lat="45.31131" lon="4.46511">
        <ele>1143</ele>
        <time>2016-07-06T19:55:15Z</time>
      </trkpt>
      <trkpt lat="45.31135" lon="4.46534">
        <ele>1144</ele>
        <time>2016-07-06T19:57:15Z</time>
      </trkpt>
      <trkpt lat="45.31139" lon="4.46555">
        <ele>1144</ele>
        <time>2016-07-06T19:59:15Z</time>
      </trkpt>
      <trkpt lat="45.31143" lon="4.46572">
        <ele>1144</ele>
        <time>2016-07-06T20:01:15Z</time>
      </trkpt>
      <trkpt lat="45.31144" lon="4.46583">
        <ele>1144</ele>
        <time>2016-07-06T20:03:15Z</time>
      </trkpt>
      <trkpt lat="45.31145" lon="4.46588">
        <ele>1147</ele>
        <time>2016-07-06T20:05:15Z</time>
      </trkpt>
      <trkpt lat="45.31149" lon="4.46611">
        <ele>1149</ele>
        <time>2016-07-06T20:07:15Z</time>
      </trkpt>
      <trkpt lat="45.3115" lon="4.46613">
        <ele>1149</ele>
        <time>2016-07-06T20:09:15Z</time>
      </trkpt>
      <trkpt lat="45.31153" lon="4.46628">
        <ele>1150</ele>
        <time>2016-07-06T20:11:15Z</time>
      </trkpt>
      <trkpt lat="45.31155" lon="4.46633">
        <ele>1150</ele>
        <time>2016-07-06T20:13:15Z</time>
      </trkpt>
      <trkpt lat="45.31158" lon="4.46642">
        <ele>1150</ele>
        <time>2016-07-06T20:15:15Z</time>
      </trkpt>
      <trkpt lat="45.31164" lon="4.46653">
        <ele>1149</ele>
        <time>2016-07-06T20:17:15Z</time>
      </trkpt>
      <trkpt lat="45.31171" lon="4.46663">
        <ele>1147</ele>
        <time>2016-07-06T20:19:15Z</time>
      </trkpt>
      <trkpt lat="45.31179" lon="4.4667">
        <ele>1149</ele>
        <time>2016-07-06T20:21:15Z</time>
      </trkpt>
      <trkpt lat="45.31188" lon="4.46676">
        <ele>1150</ele>
        <time>2016-07-06T20:23:15Z</time>
      </trkpt>
      <trkpt lat="45.31197" lon="4.4668">
        <ele>1150</ele>
        <time>2016-07-06T20:25:15Z</time>
      </trkpt>
      <trkpt lat="45.31206" lon="4.4668">
        <ele>1150</ele>
        <time>2016-07-06T20:27:15Z</time>
      </trkpt>
      <trkpt lat="45.31214" lon="4.46678">
        <ele>1150</ele>
        <time>2016-07-06T20:29:15Z</time>
      </trkpt>
      <trkpt lat="45.31222" lon="4.46675">
        <ele>1150</ele>
        <time>2016-07-06T20:31:15Z</time>
      </trkpt>
      <trkpt lat="45.31231" lon="4.46669">
        <ele>1149</ele>
        <time>2016-07-06T20:33:15Z</time>
      </trkpt>
      <trkpt lat="45.31239" lon="4.4666">
        <ele>1146</ele>
        <time>2016-07-06T20:35:15Z</time>
      </trkpt>
      <trkpt lat="45.31248" lon="4.46648">
        <ele>1145</ele>
        <time>2016-07-06T20:37:15Z</time>
      </trkpt>
      <trkpt lat="45.31256" lon="4.46637">
        <ele>1146</ele>
        <time>2016-07-06T20:39:15Z</time>
      </trkpt>
      <trkpt lat="45.31265" lon="4.46626">
        <ele>1146</ele>
        <time>2016-07-06T20:41:15Z</time>
      </trkpt>
      <trkpt lat="45.3127" lon="4.46621">
        <ele>1146</ele>
        <time>2016-07-06T20:43:15Z</time>
      </trkpt>
      <trkpt lat="45.31279" lon="4.46615">
        <ele>1146</ele>
        <time>2016-07-06T20:45:15Z</time>
      </trkpt>
      <trkpt lat="45.31287" lon="4.4661">
        <ele>1146</ele>
        <time>2016-07-06T20:47:15Z</time>
      </trkpt>
      <trkpt lat="45.31298" lon="4.46608">
        <ele>1146</ele>
        <time>2016-07-06T20:49:15Z</time>
      </trkpt>
      <trkpt lat="45.31303" lon="4.46607">
        <ele>1146</ele>
        <time>2016-07-06T20:51:15Z</time>
      </trkpt>
      <trkpt lat="45.31309" lon="4.46607">
        <ele>1147</ele>
        <time>2016-07-06T20:53:15Z</time>
      </trkpt>
      <trkpt lat="45.31314" lon="4.46607">
        <ele>1147</ele>
        <time>2016-07-06T20:55:15Z</time>
      </trkpt>
      <trkpt lat="45.3132" lon="4.46608">
        <ele>1147</ele>
        <time>2016-07-06T20:57:15Z</time>
      </trkpt>
      <trkpt lat="45.31327" lon="4.46609">
        <ele>1147</ele>
        <time>2016-07-06T20:59:15Z</time>
      </trkpt>
      <trkpt lat="45.31335" lon="4.4661">
        <ele>1150</ele>
        <time>2016-07-06T21:01:15Z</time>
      </trkpt>
      <trkpt lat="45.31343" lon="4.46611">
        <ele>1150</ele>
        <time>2016-07-06T21:03:15Z</time>
      </trkpt>
      <trkpt lat="45.31355" lon="4.46611">
        <ele>1150</ele>
        <time>2016-07-06T21:05:15Z</time>
      </trkpt>
      <trkpt lat="45.31367" lon="4.46611">
        <ele>1150</ele>
        <time>2016-07-06T21:07:15Z</time>
      </trkpt>
      <trkpt lat="45.31398" lon="4.4661">
        <ele>1151</ele>
        <time>2016-07-06T21:09:15Z</time>
      </trkpt>
      <trkpt lat="45.3142" lon="4.46611">
        <ele>1153</ele>
        <time>2016-07-06T21:11:15Z</time>
      </trkpt>
      <trkpt lat="45.31431" lon="4.46611">
        <ele>1153</ele>
        <time>2016-07-06T21:13:15Z</time>
      </trkpt>
      <trkpt lat="45.31489" lon="4.46606">
        <ele>1154</ele>
        <time>2016-07-06T21:15:15Z</time>
      </trkpt>
      <trkpt lat="45.31559" lon="4.466">
        <ele>1152</ele>
        <time>2016-07-06T21:17:15Z</time>
      </trkpt>
      <trkpt lat="45.31579" lon="4.46599">
        <ele>1152</ele>
        <time>2016-07-06T21:19:15Z</time>
      </trkpt>
      <trkpt lat="45.31591" lon="4.46599">
        <ele>1150</ele>
        <time>2016-07-06T21:21:15Z</time>
      </trkpt>
      <trkpt lat="45.31601" lon="4.466">
        <ele>1150</ele>
        <time>2016-07-06T21:23:15Z</time>
      </trkpt>
      <trkpt lat="45.3161" lon="4.46602">
        <ele>1150</ele>
        <time>2016-07-06T21:25:15Z</time>
      </trkpt>
      <trkpt lat="45.31617" lon="4.46604">
        <ele>1149</ele>
        <time>2016-07-06T21:27:15Z</time>
      </trkpt>
      <trkpt lat="45.31623" lon="4.46607">
        <ele>1149</ele>
        <time>2016-07-06T21:29:15Z</time>
      </trkpt>
      <trkpt lat="45.3163" lon="4.46611">
        <ele>1149</ele>
        <time>2016-07-06T21:31:15Z</time>
      </trkpt>
      <trkpt lat="45.31644" lon="4.46624">
        <ele>1149</ele>
        <time>2016-07-06T21:33:15Z</time>
      </trkpt>
      <trkpt lat="45.31652" lon="4.46633">
        <ele>1149</ele>
        <time>2016-07-06T21:35:15Z</time>
      </trkpt>
      <trkpt lat="45.3166" lon="4.46641">
        <ele>1149</ele>
        <time>2016-07-06T21:37:15Z</time>
      </trkpt>
      <trkpt lat="45.31689" lon="4.46675">
        <ele>1152</ele>
        <time>2016-07-06T21:39:15Z</time>
      </trkpt>
      <trkpt lat="45.31705" lon="4.46694">
        <ele>1154</ele>
        <time>2016-07-06T21:41:15Z</time>
      </trkpt>
      <trkpt lat="45.31707" lon="4.46696">
        <ele>1154</ele>
        <time>2016-07-06T21:43:15Z</time>
      </trkpt>
      <trkpt lat="45.31719" lon="4.46711">
        <ele>1155</ele>
        <time>2016-07-06T21:45:15Z</time>
      </trkpt>
      <trkpt lat="45.31733" lon="4.46728">
        <ele>1156</ele>
        <time>2016-07-06T21:47:15Z</time>
      </trkpt>
      <trkpt lat="45.31743" lon="4.46739">
        <ele>1158</ele>
        <time>2016-07-06T21:49:15Z</time>
      </trkpt>
      <trkpt lat="45.31759" lon="4.46758">
        <ele>1159</ele>
        <time>2016-07-06T21:51:15Z</time>
      </trkpt>
      <trkpt lat="45.31781" lon="4.4679">
        <ele>1159</ele>
        <time>2016-07-06T21:53:15Z</time>
      </trkpt>
      <trkpt lat="45.31798" lon="4.46818">
        <ele>1159</ele>
        <time>2016-07-06T21:55:15Z</time>
      </trkpt>
      <trkpt lat="45.31807" lon="4.46832">
        <ele>1158</ele>
        <time>2016-07-06T21:57:15Z</time>
      </trkpt>
      <trkpt lat="45.31815" lon="4.46844">
        <ele>1162</ele>
        <time>2016-07-06T21:59:15Z</time>
      </trkpt>
      <trkpt lat="45.31824" lon="4.46854">
        <ele>1163</ele>
        <time>2016-07-06T22:01:15Z</time>
      </trkpt>
      <trkpt lat="45.31839" lon="4.46872">
        <ele>1160</ele>
        <time>2016-07-06T22:03:15Z</time>
      </trkpt>
      <trkpt lat="45.31884" lon="4.46904">
        <ele>1161</ele>
        <time>2016-07-06T22:05:15Z</time>
      </trkpt>
      <trkpt lat="45.31893" lon="4.46911">
        <ele>1161</ele>
        <time>2016-07-06T22:07:15Z</time>
      </trkpt>
      <trkpt lat="45.31967" lon="4.46957">
        <ele>1161</ele>
        <time>2016-07-06T22:09:15Z</time>
      </trkpt>
      <trkpt lat="45.32003" lon="4.46986">
        <ele>1158</ele>
        <time>2016-07-06T22:11:15Z</time>
      </trkpt>
      <trkpt lat="45.32049" lon="4.47023">
        <ele>1161</ele>
        <time>2016-07-06T22:13:15Z</time>
      </trkpt>
      <trkpt lat="45.32099" lon="4.47057">
        <ele>1156</ele>
        <time>2016-07-06T22:15:15Z</time>
      </trkpt>
      <trkpt lat="45.32121" lon="4.47073">
        <ele>1156</ele>
        <time>2016-07-06T22:17:15Z</time>
      </trkpt>
      <trkpt lat="45.32149" lon="4.47096">
        <ele>1157</ele>
        <time>2016-07-06T22:19:15Z</time>
      </trkpt>
      <trkpt lat="45.32164" lon="4.4711">
        <ele>1157</ele>
        <time>2016-07-06T22:21:15Z</time>
      </trkpt>
      <trkpt lat="45.32198" lon="4.47161">
        <ele>1154</ele>
        <time>2016-07-06T22:23:15Z</time>
      </trkpt>
      <trkpt lat="45.32212" lon="4.47174">
        <ele>1156</ele>
        <time>2016-07-06T22:25:15Z</time>
      </trkpt>
      <trkpt lat="45.32236" lon="4.47185">
        <ele>1155</ele>
        <time>2016-07-06T22:27:15Z</time>
      </trkpt>
      <trkpt lat="45.3224" lon="4.47186">
        <ele>1155</ele>
        <time>2016-07-06T22:29:15Z</time>
      </trkpt>
      <trkpt lat="45.32259" lon="4.47192">
        <ele>1153</ele>
        <time>2016-07-06T22:31:15Z</time>
      </trkpt>
      <trkpt lat="45.32272" lon="4.472">
        <ele>1153</ele>
        <time>2016-07-06T22:33:15Z</time>
      </trkpt>
      <trkpt lat="45.32304" lon="4.4723">
        <ele>1154</ele>
        <time>2016-07-06T22:35:15Z</time>
      </trkpt>
      <trkpt lat="45.32313" lon="4.47241">
        <ele>1154</ele>
        <time>2016-07-06T22:37:15Z</time>
      </trkpt>
      <trkpt lat="45.32352" lon="4.4728">
        <ele>1151</ele>
        <time>2016-07-06T22:39:15Z</time>
      </trkpt>
      <trkpt lat="45.32354" lon="4.47284">
        <ele>1151</ele>
        <time>2016-07-06T22:41:15Z</time>
      </trkpt>
      <trkpt lat="45.32359" lon="4.47292">
        <ele>1151</ele>
        <time>2016-07-06T22:43:15Z</time>
      </trkpt>
      <trkpt lat="45.32365" lon="4.47312">
        <ele>1151</ele>
        <time>2016-07-06T22:45:15Z</time>
      </trkpt>
      <trkpt lat="45.32369" lon="4.4734">
        <ele>1150</ele>
        <time>2016-07-06T22:47:15Z</time>
      </trkpt>
      <trkpt lat="45.3237" lon="4.47371">
        <ele>1150</ele>
        <time>2016-07-06T22:49:15Z</time>
      </trkpt>
      <trkpt lat="45.32373" lon="4.47388">
        <ele>1150</ele>
        <time>2016-07-06T22:51:15Z</time>
      </trkpt>
      <trkpt lat="45.32378" lon="4.47412">
        <ele>1149</ele>
        <time>2016-07-06T22:53:15Z</time>
      </trkpt>
      <trkpt lat="45.32384" lon="4.47426">
        <ele>1151</ele>
        <time>2016-07-06T22:55:15Z</time>
      </trkpt>
      <trkpt lat="45.32389" lon="4.47434">
        <ele>1151</ele>
        <time>2016-07-06T22:57:15Z</time>
      </trkpt>
      <trkpt lat="45.32404" lon="4.47451">
        <ele>1151</ele>
        <time>2016-07-06T22:59:15Z</time>
      </trkpt>
      <trkpt lat="45.32411" lon="4.47459">
        <ele>1151</ele>
        <time>2016-07-06T23:01:15Z</time>
      </trkpt>
      <trkpt lat="45.32448" lon="4.47497">
        <ele>1148</ele>
        <time>2016-07-06T23:03:15Z</time>
      </trkpt>
      <trkpt lat="45.32466" lon="4.47518">
        <ele>1150</ele>
        <time>2016-07-06T23:05:15Z</time>
      </trkpt>
      <trkpt lat="45.32505" lon="4.47573">
        <ele>1147</ele>
        <time>2016-07-06T23:07:15Z</time>
      </trkpt>
      <trkpt lat="45.32526" lon="4.47607">
        <ele>1148</ele>
        <time>2016-07-06T23:09:15Z</time>
      </trkpt>
      <trkpt lat="45.32539" lon="4.47641">
        <ele>1149</ele>
        <time>2016-07-06T23:11:15Z</time>
      </trkpt>
      <trkpt lat="45.32542" lon="4.47652">
        <ele>1149</ele>
        <time>2016-07-06T23:13:15Z</time>
      </trkpt>
      <trkpt lat="45.32553" lon="4.47704">
        <ele>1150</ele>
        <time>2016-07-06T23:15:15Z</time>
      </trkpt>
      <trkpt lat="45.32559" lon="4.47775">
        <ele>1151</ele>
        <time>2016-07-06T23:17:15Z</time>
      </trkpt>
      <trkpt lat="45.32573" lon="4.47838">
        <ele>1145</ele>
        <time>2016-07-06T23:19:15Z</time>
      </trkpt>
      <trkpt lat="45.3259" lon="4.47924">
        <ele>1142</ele>
        <time>2016-07-06T23:21:15Z</time>
      </trkpt>
      <trkpt lat="45.32593" lon="4.47932">
        <ele>1142</ele>
        <time>2016-07-06T23:23:15Z</time>
      </trkpt>
      <trkpt lat="45.32599" lon="4.47942">
        <ele>1143</ele>
        <time>2016-07-06T23:25:15Z</time>
      </trkpt>
      <trkpt lat="45.32599" lon="4.47942">
        <ele>1143</ele>
        <time>2016-07-06T23:27:15Z</time>
      </trkpt>
      <trkpt lat="45.32595" lon="4.48059">
        <ele>1145</ele>
        <time>2016-07-06T23:29:15Z</time>
      </trkpt>
      <trkpt lat="45.32597" lon="4.48107">
        <ele>1143</ele>
        <time>2016-07-06T23:31:15Z</time>
      </trkpt>
      <trkpt lat="45.32598" lon="4.48111">
        <ele>1143</ele>
        <time>2016-07-06T23:33:15Z</time>
      </trkpt>
      <trkpt lat="45.32602" lon="4.48129">
        <ele>1142</ele>
        <time>2016-07-06T23:35:15Z</time>
      </trkpt>
      <trkpt lat="45.32607" lon="4.48145">
        <ele>1142</ele>
        <time>2016-07-06T23:37:15Z</time>
      </trkpt>
      <trkpt lat="45.32607" lon="4.48145">
        <ele>1142</ele>
        <time>2016-07-06T23:39:15Z</time>
      </trkpt>
      <trkpt lat="45.3263" lon="4.48137">
        <ele>1142</ele>
        <time>2016-07-06T23:41:15Z</time>
      </trkpt>
      <trkpt lat="45.32641" lon="4.48133">
        <ele>1143</ele>
        <time>2016-07-06T23:43:15Z</time>
      </trkpt>
      <trkpt lat="45.32653" lon="4.48131">
        <ele>1143</ele>
        <time>2016-07-06T23:45:15Z</time>
      </trkpt>
      <trkpt lat="45.32662" lon="4.48131">
        <ele>1143</ele>
        <time>2016-07-06T23:47:15Z</time>
      </trkpt>
      <trkpt lat="45.32667" lon="4.48132">
        <ele>1148</ele>
        <time>2016-07-06T23:49:15Z</time>
      </trkpt>
      <trkpt lat="45.32671" lon="4.48133">
        <ele>1148</ele>
        <time>2016-07-06T23:51:15Z</time>
      </trkpt>
      <trkpt lat="45.32675" lon="4.48136">
        <ele>1148</ele>
        <time>2016-07-06T23:53:15Z</time>
      </trkpt>
      <trkpt lat="45.32675" lon="4.48136">
        <ele>1148</ele>
        <time>2016-07-06T23:55:15Z</time>
      </trkpt>
      <trkpt lat="45.32686" lon="4.48119">
        <ele>1149</ele>
        <time>2016-07-06T23:57:15Z</time>
      </trkpt>
      <trkpt lat="45.32696" lon="4.48105">
        <ele>1149</ele>
        <time>2016-07-06T23:59:15Z</time>
      </trkpt>
      <trkpt lat="45.32721" lon="4.48071">
        <ele>1148</ele>
        <time>2016-07-07T00:01:15Z</time>
      </trkpt>
      <trkpt lat="45.32733" lon="4.48057">
        <ele>1148</ele>
        <time>2016-07-07T00:03:15Z</time>
      </trkpt>
      <trkpt lat="45.32746" lon="4.48042">
        <ele>1148</ele>
        <time>2016-07-07T00:05:15Z</time>
      </trkpt>
      <trkpt lat="45.32758" lon="4.48029">
        <ele>1155</ele>
        <time>2016-07-07T00:07:15Z</time>
      </trkpt>
      <trkpt lat="45.32767" lon="4.48019">
        <ele>1154</ele>
        <time>2016-07-07T00:09:15Z</time>
      </trkpt>
      <trkpt lat="45.32776" lon="4.4801">
        <ele>1155</ele>
        <time>2016-07-07T00:11:15Z</time>
      </trkpt>
      <trkpt lat="45.32787" lon="4.48001">
        <ele>1156</ele>
        <time>2016-07-07T00:13:15Z</time>
      </trkpt>
      <trkpt lat="45.32801" lon="4.47991">
        <ele>1151</ele>
        <time>2016-07-07T00:15:15Z</time>
      </trkpt>
      <trkpt lat="45.32815" lon="4.47982">
        <ele>1153</ele>
        <time>2016-07-07T00:17:15Z</time>
      </trkpt>
      <trkpt lat="45.32831" lon="4.47974">
        <ele>1153</ele>
        <time>2016-07-07T00:19:15Z</time>
      </trkpt>
      <trkpt lat="45.32848" lon="4.47967">
        <ele>1157</ele>
        <time>2016-07-07T00:21:15Z</time>
      </trkpt>
      <trkpt lat="45.32866" lon="4.4796">
        <ele>1157</ele>
        <time>2016-07-07T00:23:15Z</time>
      </trkpt>
      <trkpt lat="45.32878" lon="4.47957">
        <ele>1158</ele>
        <time>2016-07-07T00:25:15Z</time>
      </trkpt>
      <trkpt lat="45.32893" lon="4.47954">
        <ele>1158</ele>
        <time>2016-07-07T00:27:15Z</time>
      </trkpt>
      <trkpt lat="45.329" lon="4.47953">
        <ele>1158</ele>
        <time>2016-07-07T00:29:15Z</time>
      </trkpt>
      <trkpt lat="45.32911" lon="4.47953">
        <ele>1158</ele>
        <time>2016-07-07T00:31:15Z</time>
      </trkpt>
      <trkpt lat="45.32923" lon="4.47953">
        <ele>1162</ele>
        <time>2016-07-07T00:33:15Z</time>
      </trkpt>
      <trkpt lat="45.32932" lon="4.47953">
        <ele>1162</ele>
        <time>2016-07-07T00:35:15Z</time>
      </trkpt>
      <trkpt lat="45.32949" lon="4.47956">
        <ele>1163</ele>
        <time>2016-07-07T00:37:15Z</time>
      </trkpt>
      <trkpt lat="45.32994" lon="4.47965">
        <ele>1165</ele>
        <time>2016-07-07T00:39:15Z</time>
      </trkpt>
      <trkpt lat="45.33166" lon="4.47999">
        <ele>1176</ele>
        <time>2016-07-07T00:41:15Z</time>
      </trkpt>
      <trkpt lat="45.33238" lon="4.48012">
        <ele>1177</ele>
        <time>2016-07-07T00:43:15Z</time>
      </trkpt>
      <trkpt lat="45.33285" lon="4.48021">
        <ele>1177</ele>
        <time>2016-07-07T00:45:15Z</time>
      </trkpt>
      <trkpt lat="45.33324" lon="4.48034">
        <ele>1177</ele>
        <time>2016-07-07T00:47:15Z</time>
      </trkpt>
      <trkpt lat="45.33351" lon="4.48041">
        <ele>1174</ele>
        <time>2016-07-07T00:49:15Z</time>
      </trkpt>
      <trkpt lat="45.33429" lon="4.48056">
        <ele>1170</ele>
        <time>2016-07-07T00:51:15Z</time>
      </trkpt>
      <trkpt lat="45.33443" lon="4.48056">
        <ele>1170</ele>
        <time>2016-07-07T00:53:15Z</time>
      </trkpt>
      <trkpt lat="45.33446" lon="4.48056">
        <ele>1170</ele>
        <time>2016-07-07T00:55:15Z</time>
      </trkpt>
      <trkpt lat="45.33455" lon="4.48055">
        <ele>1170</ele>
        <time>2016-07-07T00:57:15Z</time>
      </trkpt>
      <trkpt lat="45.33463" lon="4.48054">
        <ele>1170</ele>
        <time>2016-07-07T00:59:15Z</time>
      </trkpt>
      <trkpt lat="45.33483" lon="4.48049">
        <ele>1170</ele>
        <time>2016-07-07T01:01:15Z</time>
      </trkpt>
      <trkpt lat="45.33495" lon="4.48044">
        <ele>1169</ele>
        <time>2016-07-07T01:03:15Z</time>
      </trkpt>
      <trkpt lat="45.33533" lon="4.48027">
        <ele>1170</ele>
        <time>2016-07-07T01:05:15Z</time>
      </trkpt>
      <trkpt lat="45.33643" lon="4.47972">
        <ele>1163</ele>
        <time>2016-07-07T01:07:15Z</time>
      </trkpt>
      <trkpt lat="45.33731" lon="4.47933">
        <ele>1159</ele>
        <time>2016-07-07T01:09:15Z</time>
      </trkpt>
      <trkpt lat="45.33761" lon="4.47921">
        <ele>1157</ele>
        <time>2016-07-07T01:11:15Z</time>
      </trkpt>
      <trkpt lat="45.33787" lon="4.47912">
        <ele>1151</ele>
        <time>2016-07-07T01:13:15Z</time>
      </trkpt>
      <trkpt lat="45.33804" lon="4.47908">
        <ele>1151</ele>
        <time>2016-07-07T01:15:15Z</time>
      </trkpt>
      <trkpt lat="45.33832" lon="4.47902">
        <ele>1151</ele>
        <time>2016-07-07T01:17:15Z</time>
      </trkpt>
      <trkpt lat="45.33872" lon="4.47896">
        <ele>1147</ele>
        <time>2016-07-07T01:19:15Z</time>
      </trkpt>
      <trkpt lat="45.33959" lon="4.47886">
        <ele>1141</ele>
        <time>2016-07-07T01:21:15Z</time>
      </trkpt>
      <trkpt lat="45.34085" lon="4.47871">
        <ele>1132</ele>
        <time>2016-07-07T01:23:15Z</time>
      </trkpt>
      <trkpt lat="45.3416" lon="4.47863">
        <ele>1131</ele>
        <time>2016-07-07T01:25:15Z</time>
      </trkpt>
      <trkpt lat="45.34192" lon="4.4786">
        <ele>1128</ele>
        <time>2016-07-07T01:27:15Z</time>
      </trkpt>
      <trkpt lat="45.3421" lon="4.47859">
        <ele>1127</ele>
        <time>2016-07-07T01:29:15Z</time>
      </trkpt>
      <trkpt lat="45.3423" lon="4.4786">
        <ele>1126</ele>
        <time>2016-07-07T01:31:15Z</time>
      </trkpt>
      <trkpt lat="45.34253" lon="4.47862">
        <ele>1121</ele>
        <time>2016-07-07T01:33:15Z</time>
      </trkpt>
      <trkpt lat="45.34265" lon="4.47866">
        <ele>1121</ele>
        <time>2016-07-07T01:35:15Z</time>
      </trkpt>
      <trkpt lat="45.34279" lon="4.47872">
        <ele>1121</ele>
        <time>2016-07-07T01:37:15Z</time>
      </trkpt>
      <trkpt lat="45.34287" lon="4.47875">
        <ele>1121</ele>
        <time>2016-07-07T01:39:15Z</time>
      </trkpt>
      <trkpt lat="45.34295" lon="4.47881">
        <ele>1121</ele>
        <time>2016-07-07T01:41:15Z</time>
      </trkpt>
      <trkpt lat="45.34312" lon="4.47897">
        <ele>1121</ele>
        <time>2016-07-07T01:43:15Z</time>
      </trkpt>
      <trkpt lat="45.34328" lon="4.47916">
        <ele>1120</ele>
        <time>2016-07-07T01:45:15Z</time>
      </trkpt>
      <trkpt lat="45.34366" lon="4.47967">
        <ele>1114</ele>
        <time>2016-07-07T01:47:15Z</time>
      </trkpt>
      <trkpt lat="45.34376" lon="4.47982">
        <ele>1114</ele>
        <time>2016-07-07T01:49:15Z</time>
      </trkpt>
      <trkpt lat="45.34392" lon="4.48014">
        <ele>1114</ele>
        <time>2016-07-07T01:51:15Z</time>
      </trkpt>
      <trkpt lat="45.34404" lon="4.48049">
        <ele>1114</ele>
        <time>2016-07-07T01:53:15Z</time>
      </trkpt>
      <trkpt lat="45.34408" lon="4.48061">
        <ele>1113</ele>
        <time>2016-07-07T01:55:15Z</time>
      </trkpt>
      <trkpt lat="45.34415" lon="4.48084">
        <ele>1110</ele>
        <time>2016-07-07T01:57:15Z</time>
      </trkpt>
      <trkpt lat="45.34422" lon="4.48115">
        <ele>1105</ele>
        <time>2016-07-07T01:59:15Z</time>
      </trkpt>
      <trkpt lat="45.3443" lon="4.48147">
        <ele>1105</ele>
        <time>2016-07-07T02:01:15Z</time>
      </trkpt>
      <trkpt lat="45.3444" lon="4.48186">
        <ele>1105</ele>
        <time>2016-07-07T02:03:15Z</time>
      </trkpt>
      <trkpt lat="45.34449" lon="4.4822">
        <ele>1104</ele>
        <time>2016-07-07T02:05:15Z</time>
      </trkpt>
      <trkpt lat="45.34462" lon="4.48262">
        <ele>1103</ele>
        <time>2016-07-07T02:07:15Z</time>
      </trkpt>
      <trkpt lat="45.34473" lon="4.48292">
        <ele>1102</ele>
        <time>2016-07-07T02:09:15Z</time>
      </trkpt>
      <trkpt lat="45.3448" lon="4.48307">
        <ele>1101</ele>
        <time>2016-07-07T02:11:15Z</time>
      </trkpt>
      <trkpt lat="45.34483" lon="4.48313">
        <ele>1100</ele>
        <time>2016-07-07T02:13:15Z</time>
      </trkpt>
      <trkpt lat="45.34486" lon="4.48318">
        <ele>1100</ele>
        <time>2016-07-07T02:15:15Z</time>
      </trkpt>
      <trkpt lat="45.3449" lon="4.48321">
        <ele>1099</ele>
        <time>2016-07-07T02:17:15Z</time>
      </trkpt>
      <trkpt lat="45.34495" lon="4.48324">
        <ele>1098</ele>
        <time>2016-07-07T02:19:15Z</time>
      </trkpt>
      <trkpt lat="45.34499" lon="4.48326">
        <ele>1097</ele>
        <time>2016-07-07T02:21:15Z</time>
      </trkpt>
      <trkpt lat="45.34504" lon="4.48328">
        <ele>1095</ele>
        <time>2016-07-07T02:23:15Z</time>
      </trkpt>
      <trkpt lat="45.34511" lon="4.48329">
        <ele>1096</ele>
        <time>2016-07-07T02:25:15Z</time>
      </trkpt>
      <trkpt lat="45.34514" lon="4.48328">
        <ele>1096</ele>
        <time>2016-07-07T02:27:15Z</time>
      </trkpt>
      <trkpt lat="45.34517" lon="4.48328">
        <ele>1096</ele>
        <time>2016-07-07T02:29:15Z</time>
      </trkpt>
      <trkpt lat="45.34522" lon="4.48326">
        <ele>1097</ele>
        <time>2016-07-07T02:31:15Z</time>
      </trkpt>
      <trkpt lat="45.34528" lon="4.48324">
        <ele>1097</ele>
        <time>2016-07-07T02:33:15Z</time>
      </trkpt>
      <trkpt lat="45.34533" lon="4.48321">
        <ele>1097</ele>
        <time>2016-07-07T02:35:15Z</time>
      </trkpt>
      <trkpt lat="45.34536" lon="4.48318">
        <ele>1097</ele>
        <time>2016-07-07T02:37:15Z</time>
      </trkpt>
      <trkpt lat="45.3454" lon="4.48314">
        <ele>1097</ele>
        <time>2016-07-07T02:39:15Z</time>
      </trkpt>
      <trkpt lat="45.34547" lon="4.48305">
        <ele>1098</ele>
        <time>2016-07-07T02:41:15Z</time>
      </trkpt>
      <trkpt lat="45.34553" lon="4.48292">
        <ele>1097</ele>
        <time>2016-07-07T02:43:15Z</time>
      </trkpt>
      <trkpt lat="45.34562" lon="4.4827">
        <ele>1096</ele>
        <time>2016-07-07T02:45:15Z</time>
      </trkpt>
      <trkpt lat="45.34571" lon="4.48246">
        <ele>1094</ele>
        <time>2016-07-07T02:47:15Z</time>
      </trkpt>
      <trkpt lat="45.34578" lon="4.4823">
        <ele>1093</ele>
        <time>2016-07-07T02:49:15Z</time>
      </trkpt>
      <trkpt lat="45.34585" lon="4.48216">
        <ele>1093</ele>
        <time>2016-07-07T02:51:15Z</time>
      </trkpt>
      <trkpt lat="45.34589" lon="4.48209">
        <ele>1092</ele>
        <time>2016-07-07T02:53:15Z</time>
      </trkpt>
      <trkpt lat="45.34594" lon="4.48204">
        <ele>1092</ele>
        <time>2016-07-07T02:55:15Z</time>
      </trkpt>
      <trkpt lat="45.34598" lon="4.48199">
        <ele>1091</ele>
        <time>2016-07-07T02:57:15Z</time>
      </trkpt>
      <trkpt lat="45.34603" lon="4.48195">
        <ele>1091</ele>
        <time>2016-07-07T02:59:15Z</time>
      </trkpt>
      <trkpt lat="45.34608" lon="4.48191">
        <ele>1091</ele>
        <time>2016-07-07T03:01:15Z</time>
      </trkpt>
      <trkpt lat="45.34612" lon="4.48188">
        <ele>1091</ele>
        <time>2016-07-07T03:03:15Z</time>
      </trkpt>
      <trkpt lat="45.3462" lon="4.48184">
        <ele>1091</ele>
        <time>2016-07-07T03:05:15Z</time>
      </trkpt>
      <trkpt lat="45.34627" lon="4.48182">
        <ele>1091</ele>
        <time>2016-07-07T03:07:15Z</time>
      </trkpt>
      <trkpt lat="45.34635" lon="4.48181">
        <ele>1091</ele>
        <time>2016-07-07T03:09:15Z</time>
      </trkpt>
      <trkpt lat="45.34718" lon="4.48177">
        <ele>1092</ele>
        <time>2016-07-07T03:11:15Z</time>
      </trkpt>
      <trkpt lat="45.3474" lon="4.48175">
        <ele>1090</ele>
        <time>2016-07-07T03:13:15Z</time>
      </trkpt>
      <trkpt lat="45.34745" lon="4.48174">
        <ele>1089</ele>
        <time>2016-07-07T03:15:15Z</time>
      </trkpt>
      <trkpt lat="45.34751" lon="4.48172">
        <ele>1088</ele>
        <time>2016-07-07T03:17:15Z</time>
      </trkpt>
      <trkpt lat="45.34758" lon="4.48169">
        <ele>1089</ele>
        <time>2016-07-07T03:19:15Z</time>
      </trkpt>
      <trkpt lat="45.34766" lon="4.48164">
        <ele>1083</ele>
        <time>2016-07-07T03:21:15Z</time>
      </trkpt>
      <trkpt lat="45.34775" lon="4.48157">
        <ele>1082</ele>
        <time>2016-07-07T03:23:15Z</time>
      </trkpt>
      <trkpt lat="45.34788" lon="4.48147">
        <ele>1081</ele>
        <time>2016-07-07T03:25:15Z</time>
      </trkpt>
      <trkpt lat="45.34807" lon="4.48131">
        <ele>1079</ele>
        <time>2016-07-07T03:27:15Z</time>
      </trkpt>
      <trkpt lat="45.34825" lon="4.48116">
        <ele>1078</ele>
        <time>2016-07-07T03:29:15Z</time>
      </trkpt>
      <trkpt lat="45.34834" lon="4.4811">
        <ele>1076</ele>
        <time>2016-07-07T03:31:15Z</time>
      </trkpt>
      <trkpt lat="45.34852" lon="4.48095">
        <ele>1075</ele>
        <time>2016-07-07T03:33:15Z</time>
      </trkpt>
      <trkpt lat="45.34861" lon="4.48087">
        <ele>1076</ele>
        <time>2016-07-07T03:35:15Z</time>
      </trkpt>
      <trkpt lat="45.34874" lon="4.48074">
        <ele>1072</ele>
        <time>2016-07-07T03:37:15Z</time>
      </trkpt>
      <trkpt lat="45.34885" lon="4.48063">
        <ele>1072</ele>
        <time>2016-07-07T03:39:15Z</time>
      </trkpt>
      <trkpt lat="45.34895" lon="4.48053">
        <ele>1072</ele>
        <time>2016-07-07T03:41:15Z</time>
      </trkpt>
      <trkpt lat="45.34902" lon="4.48045">
        <ele>1072</ele>
        <time>2016-07-07T03:43:15Z</time>
      </trkpt>
      <trkpt lat="45.3491" lon="4.48035">
        <ele>1071</ele>
        <time>2016-07-07T03:45:15Z</time>
      </trkpt>
      <trkpt lat="45.34922" lon="4.48017">
        <ele>1071</ele>
        <time>2016-07-07T03:47:15Z</time>
      </trkpt>
      <trkpt lat="45.34929" lon="4.48005">
        <ele>1071</ele>
        <time>2016-07-07T03:49:15Z</time>
      </trkpt>
      <trkpt lat="45.34934" lon="4.47996">
        <ele>1070</ele>
        <time>2016-07-07T03:51:15Z</time>
      </trkpt>
      <trkpt lat="45.34939" lon="4.47985">
        <ele>1069</ele>
        <time>2016-07-07T03:53:15Z</time>
      </trkpt>
      <trkpt lat="45.34942" lon="4.47976">
        <ele>1069</ele>
        <time>2016-07-07T03:55:15Z</time>
      </trkpt>
      <trkpt lat="45.34946" lon="4.47966">
        <ele>1069</ele>
        <time>2016-07-07T03:57:15Z</time>
      </trkpt>
      <trkpt lat="45.34948" lon="4.47958">
        <ele>1069</ele>
        <time>2016-07-07T03:59:15Z</time>
      </trkpt>
      <trkpt lat="45.34951" lon="4.4795">
        <ele>1069</ele>
        <time>2016-07-07T04:01:15Z</time>
      </trkpt>
      <trkpt lat="45.34953" lon="4.47941">
        <ele>1069</ele>
        <time>2016-07-07T04:03:15Z</time>
      </trkpt>
      <trkpt lat="45.34955" lon="4.47932">
        <ele>1069</ele>
        <time>2016-07-07T04:05:15Z</time>
      </trkpt>
      <trkpt lat="45.34971" lon="4.47836">
        <ele>1067</ele>
        <time>2016-07-07T04:07:15Z</time>
      </trkpt>
      <trkpt lat="45.34981" lon="4.47779">
        <ele>1067</ele>
        <time>2016-07-07T04:09:15Z</time>
      </trkpt>
      <trkpt lat="45.34989" lon="4.47731">
        <ele>1067</ele>
        <time>2016-07-07T04:11:15Z</time>
      </trkpt>
      <trkpt lat="45.35003" lon="4.47643">
        <ele>1070</ele>
        <time>2016-07-07T04:13:15Z</time>
      </trkpt>
      <trkpt lat="45.35006" lon="4.47626">
        <ele>1070</ele>
        <time>2016-07-07T04:15:15Z</time>
      </trkpt>
      <trkpt lat="45.3501" lon="4.47605">
        <ele>1070</ele>
        <time>2016-07-07T04:17:15Z</time>
      </trkpt>
      <trkpt lat="45.35012" lon="4.47594">
        <ele>1070</ele>
        <time>2016-07-07T04:19:15Z</time>
      </trkpt>
      <trkpt lat="45.35015" lon="4.47584">
        <ele>1070</ele>
        <time>2016-07-07T04:21:15Z</time>
      </trkpt>
      <trkpt lat="45.35019" lon="4.4757">
        <ele>1070</ele>
        <time>2016-07-07T04:23:15Z</time>
      </trkpt>
      <trkpt lat="45.35022" lon="4.4756">
        <ele>1070</ele>
        <time>2016-07-07T04:25:15Z</time>
      </trkpt>
      <trkpt lat="45.35032" lon="4.47535">
        <ele>1070</ele>
        <time>2016-07-07T04:27:15Z</time>
      </trkpt>
      <trkpt lat="45.35041" lon="4.47514">
        <ele>1070</ele>
        <time>2016-07-07T04:29:15Z</time>
      </trkpt>
      <trkpt lat="45.35049" lon="4.47496">
        <ele>1069</ele>
        <time>2016-07-07T04:31:15Z</time>
      </trkpt>
      <trkpt lat="45.35097" lon="4.47389">
        <ele>1073</ele>
        <time>2016-07-07T04:33:15Z</time>
      </trkpt>
      <trkpt lat="45.35148" lon="4.47274">
        <ele>1068</ele>
        <time>2016-07-07T04:35:15Z</time>
      </trkpt>
      <trkpt lat="45.35218" lon="4.47116">
        <ele>1066</ele>
        <time>2016-07-07T04:37:15Z</time>
      </trkpt>
      <trkpt lat="45.35243" lon="4.47059">
        <ele>1066</ele>
        <time>2016-07-07T04:39:15Z</time>
      </trkpt>
      <trkpt lat="45.35252" lon="4.47038">
        <ele>1070</ele>
        <time>2016-07-07T04:41:15Z</time>
      </trkpt>
      <trkpt lat="45.35259" lon="4.47024">
        <ele>1070</ele>
        <time>2016-07-07T04:43:15Z</time>
      </trkpt>
      <trkpt lat="45.35268" lon="4.47006">
        <ele>1069</ele>
        <time>2016-07-07T04:45:15Z</time>
      </trkpt>
      <trkpt lat="45.35278" lon="4.46988">
        <ele>1067</ele>
        <time>2016-07-07T04:47:15Z</time>
      </trkpt>
      <trkpt lat="45.35288" lon="4.46971">
        <ele>1067</ele>
        <time>2016-07-07T04:49:15Z</time>
      </trkpt>
      <trkpt lat="45.35306" lon="4.46941">
        <ele>1067</ele>
        <time>2016-07-07T04:51:15Z</time>
      </trkpt>
      <trkpt lat="45.35326" lon="4.4691">
        <ele>1066</ele>
        <time>2016-07-07T04:53:15Z</time>
      </trkpt>
      <trkpt lat="45.35368" lon="4.46847">
        <ele>1067</ele>
        <time>2016-07-07T04:55:15Z</time>
      </trkpt>
      <trkpt lat="45.35413" lon="4.46777">
        <ele>1066</ele>
        <time>2016-07-07T04:57:15Z</time>
      </trkpt>
      <trkpt lat="45.35447" lon="4.46725">
        <ele>1066</ele>
        <time>2016-07-07T04:59:15Z</time>
      </trkpt>
      <trkpt lat="45.35533" lon="4.4659">
        <ele>1062</ele>
        <time>2016-07-07T05:01:15Z</time>
      </trkpt>
      <trkpt lat="45.35612" lon="4.46637">
        <ele>1063.3</ele>
        <time>2016-06-25T20:15:15Z</time>
      </trkpt>
      <trkpt lat="45.35783" lon="4.46909">
        <ele>1063.6</ele>
        <time>2016-06-25T20:17:15Z</time>
      </trkpt>
      <trkpt lat="45.35814" lon="4.47083">
        <ele>1057.1</ele>
        <time>2016-06-25T20:19:15Z</time>
      </trkpt>
      <trkpt lat="45.35838" lon="4.47146">
        <ele>1051.3</ele>
        <time>2016-06-25T20:21:15Z</time>
      </trkpt>
      <trkpt lat="45.35859" lon="4.47327">
        <ele>1049.4</ele>
        <time>2016-06-25T20:23:15Z</time>
      </trkpt>
      <trkpt lat="45.35906" lon="4.47511">
        <ele>1049.9</ele>
        <time>2016-06-25T20:25:15Z</time>
      </trkpt>
      <trkpt lat="45.35911" lon="4.4761">
        <ele>1046.5</ele>
        <time>2016-06-25T20:27:15Z</time>
      </trkpt>
      <trkpt lat="45.35899" lon="4.47663">
        <ele>1046</ele>
        <time>2016-06-25T20:29:15Z</time>
      </trkpt>
      <trkpt lat="45.35775" lon="4.47787">
        <ele>1041</ele>
        <time>2016-06-25T20:31:15Z</time>
      </trkpt>
      <trkpt lat="45.35649" lon="4.47766">
        <ele>1043.8</ele>
        <time>2016-06-25T20:33:15Z</time>
      </trkpt>
      <trkpt lat="45.35612" lon="4.47776">
        <ele>1043</ele>
        <time>2016-06-25T20:35:15Z</time>
      </trkpt>
      <trkpt lat="45.35555" lon="4.4787">
        <ele>1029</ele>
        <time>2016-06-25T20:37:15Z</time>
      </trkpt>
      <trkpt lat="45.35461" lon="4.4795">
        <ele>1025.8</ele>
        <time>2016-06-25T20:39:15Z</time>
      </trkpt>
      <trkpt lat="45.35442" lon="4.47985">
        <ele>1026.6</ele>
        <time>2016-06-25T20:41:15Z</time>
      </trkpt>
      <trkpt lat="45.35468" lon="4.4804">
        <ele>1022.8</ele>
        <time>2016-06-25T20:43:15Z</time>
      </trkpt>
      <trkpt lat="45.35516" lon="4.481">
        <ele>1013.2</ele>
        <time>2016-06-25T20:45:15Z</time>
      </trkpt>
      <trkpt lat="45.35613" lon="4.48351">
        <ele>1000.1</ele>
        <time>2016-06-25T20:47:15Z</time>
      </trkpt>
      <trkpt lat="45.35638" lon="4.48399">
        <ele>996.9</ele>
        <time>2016-06-25T20:49:15Z</time>
      </trkpt>
      <trkpt lat="45.35631" lon="4.48446">
        <ele>995.2</ele>
        <time>2016-06-25T20:51:15Z</time>
      </trkpt>
      <trkpt lat="45.35589" lon="4.48539">
        <ele>990.4</ele>
        <time>2016-06-25T20:53:15Z</time>
      </trkpt>
      <trkpt lat="45.35576" lon="4.4857">
        <ele>999</ele>
        <time>2016-06-25T20:55:15Z</time>
      </trkpt>
      <trkpt lat="45.35599" lon="4.48614">
        <ele>984.3</ele>
        <time>2016-06-25T20:57:15Z</time>
      </trkpt>
      <trkpt lat="45.35635" lon="4.4865">
        <ele>979.3</ele>
        <time>2016-06-25T20:59:15Z</time>
      </trkpt>
      <trkpt lat="45.35646" lon="4.48716">
        <ele>976.3</ele>
        <time>2016-06-25T21:01:15Z</time>
      </trkpt>
      <trkpt lat="45.35611" lon="4.48849">
        <ele>978.5</ele>
        <time>2016-06-25T21:03:15Z</time>
      </trkpt>
      <trkpt lat="45.35642" lon="4.48893">
        <ele>972.9</ele>
        <time>2016-06-25T21:05:15Z</time>
      </trkpt>
      <trkpt lat="45.35663" lon="4.48903">
        <ele>970.4</ele>
        <time>2016-06-25T21:07:15Z</time>
      </trkpt>
      <trkpt lat="45.35702" lon="4.48859">
        <ele>974.2</ele>
        <time>2016-06-25T21:09:15Z</time>
      </trkpt>
      <trkpt lat="45.35753" lon="4.48746">
        <ele>975.3</ele>
        <time>2016-06-25T21:11:15Z</time>
      </trkpt>
      <trkpt lat="45.3575" lon="4.48674">
        <ele>974.4</ele>
        <time>2016-06-25T21:13:15Z</time>
      </trkpt>
      <trkpt lat="45.35824" lon="4.48494">
        <ele>975.7</ele>
        <time>2016-06-25T21:15:15Z</time>
      </trkpt>
      <trkpt lat="45.35874" lon="4.48464">
        <ele>976.5</ele>
        <time>2016-06-25T21:17:15Z</time>
      </trkpt>
      <trkpt lat="45.35901" lon="4.48468">
        <ele>977</ele>
        <time>2016-06-25T21:19:15Z</time>
      </trkpt>
      <trkpt lat="45.35993" lon="4.48584">
        <ele>985.4</ele>
        <time>2016-06-25T21:21:15Z</time>
      </trkpt>
      <trkpt lat="45.36001" lon="4.48671">
        <ele>993.4</ele>
        <time>2016-06-25T21:23:15Z</time>
      </trkpt>
      <trkpt lat="45.3602" lon="4.48696">
        <ele>995</ele>
        <time>2016-06-25T21:25:15Z</time>
      </trkpt>
      <trkpt lat="45.36113" lon="4.48718">
        <ele>997.6</ele>
        <time>2016-06-25T21:27:15Z</time>
      </trkpt>
      <trkpt lat="45.36139" lon="4.48686">
        <ele>997.9</ele>
        <time>2016-06-25T21:29:15Z</time>
      </trkpt>
      <trkpt lat="45.3617" lon="4.48648">
        <ele>1001.3</ele>
        <time>2016-06-25T21:31:15Z</time>
      </trkpt>
      <trkpt lat="45.36244" lon="4.48643">
        <ele>1005.2</ele>
        <time>2016-06-25T21:33:15Z</time>
      </trkpt>
      <trkpt lat="45.36263" lon="4.48611">
        <ele>1012.4</ele>
        <time>2016-06-25T21:35:15Z</time>
      </trkpt>
      <trkpt lat="45.36275" lon="4.48507">
        <ele>1013</ele>
        <time>2016-06-25T21:37:15Z</time>
      </trkpt>
      <trkpt lat="45.36298" lon="4.48466">
        <ele>1012.5</ele>
        <time>2016-06-25T21:39:15Z</time>
      </trkpt>
      <trkpt lat="45.36395" lon="4.48381">
        <ele>1018.4</ele>
        <time>2016-06-25T21:41:15Z</time>
      </trkpt>
      <trkpt lat="45.3657" lon="4.48409">
        <ele>1032.2</ele>
        <time>2016-06-25T21:43:15Z</time>
      </trkpt>
      <trkpt lat="45.36675" lon="4.48438">
        <ele>1038.2</ele>
        <time>2016-06-25T21:45:15Z</time>
      </trkpt>
      <trkpt lat="45.36724" lon="4.48482">
        <ele>1040.5</ele>
        <time>2016-06-25T21:47:15Z</time>
      </trkpt>
      <trkpt lat="45.36796" lon="4.48622">
        <ele>1052.9</ele>
        <time>2016-06-25T21:49:15Z</time>
      </trkpt>
      <trkpt lat="45.36976" lon="4.48571">
        <ele>1061.9</ele>
        <time>2016-06-25T21:51:15Z</time>
      </trkpt>
      <trkpt lat="45.37056" lon="4.48567">
        <ele>1063.7</ele>
        <time>2016-06-25T21:53:15Z</time>
      </trkpt>
      <trkpt lat="45.37189" lon="4.48629">
        <ele>1074.7</ele>
        <time>2016-06-25T21:55:15Z</time>
      </trkpt>
      <trkpt lat="45.37239" lon="4.48654">
        <ele>1077.1</ele>
        <time>2016-06-25T21:57:15Z</time>
      </trkpt>
      <trkpt lat="45.3732" lon="4.48778">
        <ele>1088</ele>
        <time>2016-06-25T21:59:15Z</time>
      </trkpt>
      <trkpt lat="45.3735" lon="4.4885">
        <ele>1088</ele>
        <time>2016-06-25T22:01:15Z</time>
      </trkpt>
      <trkpt lat="45.37352" lon="4.489">
        <ele>1088.4</ele>
        <time>2016-06-25T22:03:15Z</time>
      </trkpt>
      <trkpt lat="45.37489" lon="4.48995">
        <ele>1079.5</ele>
        <time>2016-06-25T22:05:15Z</time>
      </trkpt>
      <trkpt lat="45.37549" lon="4.49112">
        <ele>1090</ele>
        <time>2016-06-25T22:07:15Z</time>
      </trkpt>
      <trkpt lat="45.37586" lon="4.4911">
        <ele>1089.8</ele>
        <time>2016-06-25T22:09:15Z</time>
      </trkpt>
      <trkpt lat="45.37735" lon="4.49036">
        <ele>1089.4</ele>
        <time>2016-06-25T22:11:15Z</time>
      </trkpt>
      <trkpt lat="45.37837" lon="4.49024">
        <ele>1096.5</ele>
        <time>2016-06-25T22:13:15Z</time>
      </trkpt>
      <trkpt lat="45.37993" lon="4.49043">
        <ele>1100.7</ele>
        <time>2016-06-25T22:15:15Z</time>
      </trkpt>
      <trkpt lat="45.37995" lon="4.49056">
        <ele>1101.7</ele>
        <time>2016-06-25T22:17:15Z</time>
      </trkpt>
      <trkpt lat="45.37994" lon="4.49061">
        <ele>1102</ele>
        <time>2016-06-25T22:19:15Z</time>
      </trkpt>
      <trkpt lat="45.37972" lon="4.49073">
        <ele>1102</ele>
        <time>2016-06-25T22:21:15Z</time>
      </trkpt>
      <trkpt lat="45.37955" lon="4.4908">
        <ele>1103</ele>
        <time>2016-06-25T22:23:15Z</time>
      </trkpt>
      <trkpt lat="45.37936" lon="4.49086">
        <ele>1109</ele>
        <time>2016-06-25T22:25:15Z</time>
      </trkpt>
      <trkpt lat="45.37916" lon="4.49092">
        <ele>1110</ele>
        <time>2016-06-25T22:27:15Z</time>
      </trkpt>
      <trkpt lat="45.37908" lon="4.49093">
        <ele>1110</ele>
        <time>2016-06-25T22:29:15Z</time>
      </trkpt>
      <trkpt lat="45.37893" lon="4.49096">
        <ele>1111</ele>
        <time>2016-06-25T22:31:15Z</time>
      </trkpt>
      <trkpt lat="45.37879" lon="4.49099">
        <ele>1111</ele>
        <time>2016-06-25T22:33:15Z</time>
      </trkpt>
      <trkpt lat="45.37863" lon="4.49105">
        <ele>1111</ele>
        <time>2016-06-25T22:35:15Z</time>
      </trkpt>
      <trkpt lat="45.37856" lon="4.49107">
        <ele>1111</ele>
        <time>2016-06-25T22:37:15Z</time>
      </trkpt>
      <trkpt lat="45.37848" lon="4.49111">
        <ele>1112</ele>
        <time>2016-06-25T22:39:15Z</time>
      </trkpt>
      <trkpt lat="45.3784" lon="4.49116">
        <ele>1112</ele>
        <time>2016-06-25T22:41:15Z</time>
      </trkpt>
      <trkpt lat="45.37835" lon="4.4912">
        <ele>1112</ele>
        <time>2016-06-25T22:43:15Z</time>
      </trkpt>
      <trkpt lat="45.3783" lon="4.49125">
        <ele>1111</ele>
        <time>2016-06-25T22:45:15Z</time>
      </trkpt>
      <trkpt lat="45.37823" lon="4.49133">
        <ele>1112</ele>
        <time>2016-06-25T22:47:15Z</time>
      </trkpt>
      <trkpt lat="45.37815" lon="4.4914">
        <ele>1112</ele>
        <time>2016-06-25T22:49:15Z</time>
      </trkpt>
      <trkpt lat="45.37809" lon="4.49146">
        <ele>1112</ele>
        <time>2016-06-25T22:51:15Z</time>
      </trkpt>
      <trkpt lat="45.37799" lon="4.49158">
        <ele>1112</ele>
        <time>2016-06-25T22:53:15Z</time>
      </trkpt>
      <trkpt lat="45.37756" lon="4.49204">
        <ele>1119</ele>
        <time>2016-06-25T22:55:15Z</time>
      </trkpt>
      <trkpt lat="45.37749" lon="4.49212">
        <ele>1117</ele>
        <time>2016-06-25T22:57:15Z</time>
      </trkpt>
      <trkpt lat="45.37729" lon="4.49234">
        <ele>1119</ele>
        <time>2016-06-25T22:59:15Z</time>
      </trkpt>
      <trkpt lat="45.37709" lon="4.49256">
        <ele>1126</ele>
        <time>2016-06-25T23:01:15Z</time>
      </trkpt>
      <trkpt lat="45.37687" lon="4.49278">
        <ele>1126</ele>
        <time>2016-06-25T23:03:15Z</time>
      </trkpt>
      <trkpt lat="45.37668" lon="4.49302">
        <ele>1128</ele>
        <time>2016-06-25T23:05:15Z</time>
      </trkpt>
      <trkpt lat="45.37657" lon="4.49316">
        <ele>1125</ele>
        <time>2016-06-25T23:07:15Z</time>
      </trkpt>
      <trkpt lat="45.3765" lon="4.49327">
        <ele>1125</ele>
        <time>2016-06-25T23:09:15Z</time>
      </trkpt>
      <trkpt lat="45.37642" lon="4.49338">
        <ele>1129</ele>
        <time>2016-06-25T23:11:15Z</time>
      </trkpt>
      <trkpt lat="45.37637" lon="4.49347">
        <ele>1129</ele>
        <time>2016-06-25T23:13:15Z</time>
      </trkpt>
      <trkpt lat="45.37612" lon="4.49394">
        <ele>1129</ele>
        <time>2016-06-25T23:15:15Z</time>
      </trkpt>
      <trkpt lat="45.37602" lon="4.49411">
        <ele>1130</ele>
        <time>2016-06-25T23:17:15Z</time>
      </trkpt>
      <trkpt lat="45.37589" lon="4.49431">
        <ele>1134</ele>
        <time>2016-06-25T23:19:15Z</time>
      </trkpt>
      <trkpt lat="45.37583" lon="4.49439">
        <ele>1131</ele>
        <time>2016-06-25T23:21:15Z</time>
      </trkpt>
      <trkpt lat="45.3757" lon="4.49456">
        <ele>1132</ele>
        <time>2016-06-25T23:23:15Z</time>
      </trkpt>
      <trkpt lat="45.37559" lon="4.49469">
        <ele>1133</ele>
        <time>2016-06-25T23:25:15Z</time>
      </trkpt>
      <trkpt lat="45.37548" lon="4.49481">
        <ele>1133</ele>
        <time>2016-06-25T23:27:15Z</time>
      </trkpt>
      <trkpt lat="45.37542" lon="4.49486">
        <ele>1133</ele>
        <time>2016-06-25T23:29:15Z</time>
      </trkpt>
      <trkpt lat="45.37535" lon="4.49494">
        <ele>1133</ele>
        <time>2016-06-25T23:31:15Z</time>
      </trkpt>
      <trkpt lat="45.37528" lon="4.495">
        <ele>1141</ele>
        <time>2016-06-25T23:33:15Z</time>
      </trkpt>
      <trkpt lat="45.37518" lon="4.4951">
        <ele>1140</ele>
        <time>2016-06-25T23:35:15Z</time>
      </trkpt>
      <trkpt lat="45.3751" lon="4.49516">
        <ele>1140</ele>
        <time>2016-06-25T23:37:15Z</time>
      </trkpt>
      <trkpt lat="45.37489" lon="4.49531">
        <ele>1141</ele>
        <time>2016-06-25T23:39:15Z</time>
      </trkpt>
      <trkpt lat="45.3748" lon="4.49537">
        <ele>1142</ele>
        <time>2016-06-25T23:41:15Z</time>
      </trkpt>
      <trkpt lat="45.37434" lon="4.49562">
        <ele>1143</ele>
        <time>2016-06-25T23:43:15Z</time>
      </trkpt>
      <trkpt lat="45.37392" lon="4.49583">
        <ele>1144</ele>
        <time>2016-06-25T23:45:15Z</time>
      </trkpt>
      <trkpt lat="45.37365" lon="4.49603">
        <ele>1147</ele>
        <time>2016-06-25T23:47:15Z</time>
      </trkpt>
      <trkpt lat="45.37354" lon="4.49614">
        <ele>1147</ele>
        <time>2016-06-25T23:49:15Z</time>
      </trkpt>
      <trkpt lat="45.37351" lon="4.49619">
        <ele>1147</ele>
        <time>2016-06-25T23:51:15Z</time>
      </trkpt>
      <trkpt lat="45.37347" lon="4.49626">
        <ele>1147</ele>
        <time>2016-06-25T23:53:15Z</time>
      </trkpt>
      <trkpt lat="45.37346" lon="4.49629">
        <ele>1147</ele>
        <time>2016-06-25T23:55:15Z</time>
      </trkpt>
      <trkpt lat="45.37343" lon="4.49636">
        <ele>1147</ele>
        <time>2016-06-25T23:57:15Z</time>
      </trkpt>
      <trkpt lat="45.37341" lon="4.49643">
        <ele>1147</ele>
        <time>2016-06-25T23:59:15Z</time>
      </trkpt>
      <trkpt lat="45.37325" lon="4.49721">
        <ele>1146</ele>
        <time>2016-06-26T00:01:15Z</time>
      </trkpt>
      <trkpt lat="45.37319" lon="4.49747">
        <ele>1148</ele>
        <time>2016-06-26T00:03:15Z</time>
      </trkpt>
      <trkpt lat="45.37314" lon="4.49773">
        <ele>1147</ele>
        <time>2016-06-26T00:05:15Z</time>
      </trkpt>
      <trkpt lat="45.37308" lon="4.49802">
        <ele>1147</ele>
        <time>2016-06-26T00:07:15Z</time>
      </trkpt>
      <trkpt lat="45.37304" lon="4.49831">
        <ele>1147</ele>
        <time>2016-06-26T00:09:15Z</time>
      </trkpt>
      <trkpt lat="45.37302" lon="4.49846">
        <ele>1147</ele>
        <time>2016-06-26T00:11:15Z</time>
      </trkpt>
      <trkpt lat="45.37301" lon="4.49893">
        <ele>1147</ele>
        <time>2016-06-26T00:13:15Z</time>
      </trkpt>
      <trkpt lat="45.373" lon="4.49917">
        <ele>1148</ele>
        <time>2016-06-26T00:15:15Z</time>
      </trkpt>
      <trkpt lat="45.373" lon="4.49951">
        <ele>1147</ele>
        <time>2016-06-26T00:17:15Z</time>
      </trkpt>
      <trkpt lat="45.37299" lon="4.49969">
        <ele>1147</ele>
        <time>2016-06-26T00:19:15Z</time>
      </trkpt>
      <trkpt lat="45.37299" lon="4.49983">
        <ele>1148</ele>
        <time>2016-06-26T00:21:15Z</time>
      </trkpt>
      <trkpt lat="45.37297" lon="4.50019">
        <ele>1148</ele>
        <time>2016-06-26T00:23:15Z</time>
      </trkpt>
      <trkpt lat="45.37296" lon="4.50037">
        <ele>1148</ele>
        <time>2016-06-26T00:25:15Z</time>
      </trkpt>
      <trkpt lat="45.37295" lon="4.50055">
        <ele>1148</ele>
        <time>2016-06-26T00:27:15Z</time>
      </trkpt>
      <trkpt lat="45.37295" lon="4.50069">
        <ele>1148</ele>
        <time>2016-06-26T00:29:15Z</time>
      </trkpt>
      <trkpt lat="45.37295" lon="4.50085">
        <ele>1149</ele>
        <time>2016-06-26T00:31:15Z</time>
      </trkpt>
      <trkpt lat="45.37295" lon="4.50101">
        <ele>1149</ele>
        <time>2016-06-26T00:33:15Z</time>
      </trkpt>
      <trkpt lat="45.37296" lon="4.50114">
        <ele>1149</ele>
        <time>2016-06-26T00:35:15Z</time>
      </trkpt>
      <trkpt lat="45.37297" lon="4.50125">
        <ele>1149</ele>
        <time>2016-06-26T00:37:15Z</time>
      </trkpt>
      <trkpt lat="45.37298" lon="4.50141">
        <ele>1149</ele>
        <time>2016-06-26T00:39:15Z</time>
      </trkpt>
      <trkpt lat="45.373" lon="4.50152">
        <ele>1149</ele>
        <time>2016-06-26T00:41:15Z</time>
      </trkpt>
      <trkpt lat="45.37302" lon="4.50164">
        <ele>1150</ele>
        <time>2016-06-26T00:43:15Z</time>
      </trkpt>
      <trkpt lat="45.37304" lon="4.50176">
        <ele>1150</ele>
        <time>2016-06-26T00:45:15Z</time>
      </trkpt>
      <trkpt lat="45.37306" lon="4.50184">
        <ele>1150</ele>
        <time>2016-06-26T00:47:15Z</time>
      </trkpt>
      <trkpt lat="45.37308" lon="4.50194">
        <ele>1150</ele>
        <time>2016-06-26T00:49:15Z</time>
      </trkpt>
      <trkpt lat="45.3731" lon="4.50207">
        <ele>1150</ele>
        <time>2016-06-26T00:51:15Z</time>
      </trkpt>
      <trkpt lat="45.37311" lon="4.50211">
        <ele>1150</ele>
        <time>2016-06-26T00:53:15Z</time>
      </trkpt>
      <trkpt lat="45.37311" lon="4.50214">
        <ele>1150</ele>
        <time>2016-06-26T00:55:15Z</time>
      </trkpt>
      <trkpt lat="45.37312" lon="4.50219">
        <ele>1151</ele>
        <time>2016-06-26T00:57:15Z</time>
      </trkpt>
      <trkpt lat="45.37312" lon="4.50222">
        <ele>1151</ele>
        <time>2016-06-26T00:59:15Z</time>
      </trkpt>
      <trkpt lat="45.37314" lon="4.5024">
        <ele>1152</ele>
        <time>2016-06-26T01:01:15Z</time>
      </trkpt>
      <trkpt lat="45.37314" lon="4.50257">
        <ele>1153</ele>
        <time>2016-06-26T01:03:15Z</time>
      </trkpt>
      <trkpt lat="45.37314" lon="4.5027">
        <ele>1153</ele>
        <time>2016-06-26T01:05:15Z</time>
      </trkpt>
      <trkpt lat="45.37313" lon="4.5028">
        <ele>1152</ele>
        <time>2016-06-26T01:07:15Z</time>
      </trkpt>
      <trkpt lat="45.37311" lon="4.50294">
        <ele>1152</ele>
        <time>2016-06-26T01:09:15Z</time>
      </trkpt>
      <trkpt lat="45.37308" lon="4.5031">
        <ele>1153</ele>
        <time>2016-06-26T01:11:15Z</time>
      </trkpt>
      <trkpt lat="45.37306" lon="4.50321">
        <ele>1153</ele>
        <time>2016-06-26T01:13:15Z</time>
      </trkpt>
      <trkpt lat="45.37303" lon="4.50329">
        <ele>1153</ele>
        <time>2016-06-26T01:15:15Z</time>
      </trkpt>
      <trkpt lat="45.37296" lon="4.50352">
        <ele>1156</ele>
        <time>2016-06-26T01:17:15Z</time>
      </trkpt>
      <trkpt lat="45.37286" lon="4.50375">
        <ele>1156</ele>
        <time>2016-06-26T01:19:15Z</time>
      </trkpt>
      <trkpt lat="45.37279" lon="4.50388">
        <ele>1156</ele>
        <time>2016-06-26T01:21:15Z</time>
      </trkpt>
      <trkpt lat="45.37278" lon="4.5039">
        <ele>1156</ele>
        <time>2016-06-26T01:23:15Z</time>
      </trkpt>
      <trkpt lat="45.37271" lon="4.50404">
        <ele>1156</ele>
        <time>2016-06-26T01:25:15Z</time>
      </trkpt>
      <trkpt lat="45.37252" lon="4.50436">
        <ele>1160</ele>
        <time>2016-06-26T01:27:15Z</time>
      </trkpt>
      <trkpt lat="45.37223" lon="4.5048">
        <ele>1155</ele>
        <time>2016-06-26T01:29:15Z</time>
      </trkpt>
      <trkpt lat="45.37207" lon="4.50503">
        <ele>1162</ele>
        <time>2016-06-26T01:31:15Z</time>
      </trkpt>
      <trkpt lat="45.37178" lon="4.50547">
        <ele>1163</ele>
        <time>2016-06-26T01:33:15Z</time>
      </trkpt>
      <trkpt lat="45.37152" lon="4.50588">
        <ele>1163</ele>
        <time>2016-06-26T01:35:15Z</time>
      </trkpt>
      <trkpt lat="45.37142" lon="4.50605">
        <ele>1162</ele>
        <time>2016-06-26T01:37:15Z</time>
      </trkpt>
      <trkpt lat="45.37133" lon="4.50624">
        <ele>1162</ele>
        <time>2016-06-26T01:39:15Z</time>
      </trkpt>
      <trkpt lat="45.37127" lon="4.50635">
        <ele>1162</ele>
        <time>2016-06-26T01:41:15Z</time>
      </trkpt>
      <trkpt lat="45.37122" lon="4.50649">
        <ele>1162</ele>
        <time>2016-06-26T01:43:15Z</time>
      </trkpt>
      <trkpt lat="45.37119" lon="4.50657">
        <ele>1162</ele>
        <time>2016-06-26T01:45:15Z</time>
      </trkpt>
      <trkpt lat="45.37113" lon="4.50677">
        <ele>1167</ele>
        <time>2016-06-26T01:47:15Z</time>
      </trkpt>
      <trkpt lat="45.37109" lon="4.50689">
        <ele>1167</ele>
        <time>2016-06-26T01:49:15Z</time>
      </trkpt>
      <trkpt lat="45.37108" lon="4.50698">
        <ele>1167</ele>
        <time>2016-06-26T01:51:15Z</time>
      </trkpt>
      <trkpt lat="45.37106" lon="4.50707">
        <ele>1167</ele>
        <time>2016-06-26T01:53:15Z</time>
      </trkpt>
      <trkpt lat="45.37103" lon="4.50722">
        <ele>1167</ele>
        <time>2016-06-26T01:55:15Z</time>
      </trkpt>
      <trkpt lat="45.37102" lon="4.50733">
        <ele>1167</ele>
        <time>2016-06-26T01:57:15Z</time>
      </trkpt>
      <trkpt lat="45.371" lon="4.50744">
        <ele>1166</ele>
        <time>2016-06-26T01:59:15Z</time>
      </trkpt>
      <trkpt lat="45.371" lon="4.50756">
        <ele>1167</ele>
        <time>2016-06-26T02:01:15Z</time>
      </trkpt>
      <trkpt lat="45.371" lon="4.50766">
        <ele>1168</ele>
        <time>2016-06-26T02:03:15Z</time>
      </trkpt>
      <trkpt lat="45.371" lon="4.50779">
        <ele>1169</ele>
        <time>2016-06-26T02:05:15Z</time>
      </trkpt>
      <trkpt lat="45.37102" lon="4.508">
        <ele>1169</ele>
        <time>2016-06-26T02:07:15Z</time>
      </trkpt>
      <trkpt lat="45.37104" lon="4.50812">
        <ele>1169</ele>
        <time>2016-06-26T02:09:15Z</time>
      </trkpt>
      <trkpt lat="45.37105" lon="4.50824">
        <ele>1168</ele>
        <time>2016-06-26T02:11:15Z</time>
      </trkpt>
      <trkpt lat="45.37106" lon="4.50837">
        <ele>1168</ele>
        <time>2016-06-26T02:13:15Z</time>
      </trkpt>
      <trkpt lat="45.3711" lon="4.50886">
        <ele>1169</ele>
        <time>2016-06-26T02:15:15Z</time>
      </trkpt>
      <trkpt lat="45.37111" lon="4.50896">
        <ele>1169</ele>
        <time>2016-06-26T02:17:15Z</time>
      </trkpt>
      <trkpt lat="45.37111" lon="4.5091">
        <ele>1168</ele>
        <time>2016-06-26T03:37:15Z</time>
      </trkpt>
      <trkpt lat="45.37112" lon="4.50919">
        <ele>1168</ele>
        <time>2016-06-26T03:39:15Z</time>
      </trkpt>
      <trkpt lat="45.37112" lon="4.50926">
        <ele>1168</ele>
        <time>2016-06-26T03:41:15Z</time>
      </trkpt>
      <trkpt lat="45.37112" lon="4.50938">
        <ele>1168</ele>
        <time>2016-06-26T03:43:15Z</time>
      </trkpt>
      <trkpt lat="45.37111" lon="4.50951">
        <ele>1168</ele>
        <time>2016-06-26T03:45:15Z</time>
      </trkpt>
      <trkpt lat="45.3711" lon="4.50964">
        <ele>1168</ele>
        <time>2016-06-26T03:47:15Z</time>
      </trkpt>
      <trkpt lat="45.37106" lon="4.51006">
        <ele>1166</ele>
        <time>2016-06-26T03:49:15Z</time>
      </trkpt>
      <trkpt lat="45.37098" lon="4.51081">
        <ele>1165</ele>
        <time>2016-06-26T03:51:15Z</time>
      </trkpt>
      <trkpt lat="45.37089" lon="4.51163">
        <ele>1163</ele>
        <time>2016-06-26T03:53:15Z</time>
      </trkpt>
      <trkpt lat="45.37086" lon="4.51186">
        <ele>1165</ele>
        <time>2016-06-26T03:55:15Z</time>
      </trkpt>
      <trkpt lat="45.3708" lon="4.51219">
        <ele>1161</ele>
        <time>2016-06-26T03:57:15Z</time>
      </trkpt>
      <trkpt lat="45.37075" lon="4.51236">
        <ele>1162</ele>
        <time>2016-06-26T03:59:15Z</time>
      </trkpt>
      <trkpt lat="45.37072" lon="4.51245">
        <ele>1163</ele>
        <time>2016-06-26T04:01:15Z</time>
      </trkpt>
      <trkpt lat="45.37071" lon="4.51249">
        <ele>1163</ele>
        <time>2016-06-26T04:03:15Z</time>
      </trkpt>
      <trkpt lat="45.37069" lon="4.51252">
        <ele>1164</ele>
        <time>2016-06-26T04:05:15Z</time>
      </trkpt>
      <trkpt lat="45.37066" lon="4.51257">
        <ele>1164</ele>
        <time>2016-06-26T04:07:15Z</time>
      </trkpt>
      <trkpt lat="45.37063" lon="4.51261">
        <ele>1165</ele>
        <time>2016-06-26T04:09:15Z</time>
      </trkpt>
      <trkpt lat="45.37059" lon="4.51265">
        <ele>1165</ele>
        <time>2016-06-26T04:11:15Z</time>
      </trkpt>
      <trkpt lat="45.37055" lon="4.51269">
        <ele>1165</ele>
        <time>2016-06-26T04:13:15Z</time>
      </trkpt>
      <trkpt lat="45.37046" lon="4.51278">
        <ele>1165</ele>
        <time>2016-06-26T04:15:15Z</time>
      </trkpt>
      <trkpt lat="45.37042" lon="4.51272">
        <ele>1165</ele>
        <time>2016-06-26T04:17:15Z</time>
      </trkpt>
      <trkpt lat="45.37037" lon="4.51271">
        <ele>1165</ele>
        <time>2016-06-26T04:19:15Z</time>
      </trkpt>
      <trkpt lat="45.37032" lon="4.51273">
        <ele>1165</ele>
        <time>2016-06-26T04:21:15Z</time>
      </trkpt>
      <trkpt lat="45.37028" lon="4.51278">
        <ele>1165</ele>
        <time>2016-06-26T04:23:15Z</time>
      </trkpt>
      <trkpt lat="45.37027" lon="4.51285">
        <ele>1165</ele>
        <time>2016-06-26T04:25:15Z</time>
      </trkpt>
      <trkpt lat="45.37028" lon="4.51293">
        <ele>1165</ele>
        <time>2016-06-26T04:27:15Z</time>
      </trkpt>
      <trkpt lat="45.37024" lon="4.51296">
        <ele>1166</ele>
        <time>2016-06-26T04:29:15Z</time>
      </trkpt>
      <trkpt lat="45.37016" lon="4.513">
        <ele>1166</ele>
        <time>2016-06-26T04:31:15Z</time>
      </trkpt>
      <trkpt lat="45.36993" lon="4.51312">
        <ele>1166</ele>
        <time>2016-06-26T04:33:15Z</time>
      </trkpt>
      <trkpt lat="45.36967" lon="4.51326">
        <ele>1165</ele>
        <time>2016-06-26T04:35:15Z</time>
      </trkpt>
      <trkpt lat="45.36936" lon="4.51354">
        <ele>1169</ele>
        <time>2016-06-26T04:37:15Z</time>
      </trkpt>
      <trkpt lat="45.3691" lon="4.51384">
        <ele>1168</ele>
        <time>2016-06-26T04:39:15Z</time>
      </trkpt>
      <trkpt lat="45.36901" lon="4.51404">
        <ele>1170</ele>
        <time>2016-06-26T04:41:15Z</time>
      </trkpt>
      <trkpt lat="45.36896" lon="4.51414">
        <ele>1170</ele>
        <time>2016-06-26T04:43:15Z</time>
      </trkpt>
      <trkpt lat="45.3689" lon="4.51429">
        <ele>1173</ele>
        <time>2016-06-26T04:45:15Z</time>
      </trkpt>
      <trkpt lat="45.36882" lon="4.51455">
        <ele>1173</ele>
        <time>2016-06-26T04:47:15Z</time>
      </trkpt>
      <trkpt lat="45.36873" lon="4.51484">
        <ele>1173</ele>
        <time>2016-06-26T04:49:15Z</time>
      </trkpt>
      <trkpt lat="45.36868" lon="4.51518">
        <ele>1174</ele>
        <time>2016-06-26T04:51:15Z</time>
      </trkpt>
      <trkpt lat="45.36855" lon="4.51597">
        <ele>1174</ele>
        <time>2016-06-26T04:53:15Z</time>
      </trkpt>
      <trkpt lat="45.36849" lon="4.51628">
        <ele>1174</ele>
        <time>2016-06-26T04:55:15Z</time>
      </trkpt>
      <trkpt lat="45.36848" lon="4.51637">
        <ele>1174</ele>
        <time>2016-06-26T04:57:15Z</time>
      </trkpt>
      <trkpt lat="45.36848" lon="4.51643">
        <ele>1174</ele>
        <time>2016-06-26T04:59:15Z</time>
      </trkpt>
      <trkpt lat="45.36844" lon="4.51651">
        <ele>1174</ele>
        <time>2016-06-26T05:01:15Z</time>
      </trkpt>
      <trkpt lat="45.36836" lon="4.5167">
        <ele>1175</ele>
        <time>2016-06-26T05:03:15Z</time>
      </trkpt>
      <trkpt lat="45.36834" lon="4.51675">
        <ele>1175</ele>
        <time>2016-06-26T05:05:15Z</time>
      </trkpt>
      <trkpt lat="45.36832" lon="4.51679">
        <ele>1177</ele>
        <time>2016-06-26T05:07:15Z</time>
      </trkpt>
      <trkpt lat="45.36829" lon="4.5169">
        <ele>1177</ele>
        <time>2016-06-26T05:09:15Z</time>
      </trkpt>
      <trkpt lat="45.36826" lon="4.51704">
        <ele>1177</ele>
        <time>2016-06-26T05:11:15Z</time>
      </trkpt>
      <trkpt lat="45.36823" lon="4.51713">
        <ele>1178</ele>
        <time>2016-06-26T05:13:15Z</time>
      </trkpt>
      <trkpt lat="45.36819" lon="4.51723">
        <ele>1178</ele>
        <time>2016-06-26T05:15:15Z</time>
      </trkpt>
      <trkpt lat="45.36807" lon="4.51756">
        <ele>1180</ele>
        <time>2016-06-26T05:17:15Z</time>
      </trkpt>
      <trkpt lat="45.3679" lon="4.51802">
        <ele>1181</ele>
        <time>2016-06-26T05:19:15Z</time>
      </trkpt>
      <trkpt lat="45.36787" lon="4.51813">
        <ele>1182</ele>
        <time>2016-06-26T05:21:15Z</time>
      </trkpt>
      <trkpt lat="45.36785" lon="4.51822">
        <ele>1182</ele>
        <time>2016-06-26T05:23:15Z</time>
      </trkpt>
      <trkpt lat="45.3678" lon="4.51838">
        <ele>1184</ele>
        <time>2016-06-26T05:25:15Z</time>
      </trkpt>
      <trkpt lat="45.36778" lon="4.5185">
        <ele>1184</ele>
        <time>2016-06-26T05:27:15Z</time>
      </trkpt>
      <trkpt lat="45.36776" lon="4.51858">
        <ele>1184</ele>
        <time>2016-06-26T05:29:15Z</time>
      </trkpt>
      <trkpt lat="45.36776" lon="4.51868">
        <ele>1184</ele>
        <time>2016-06-26T05:31:15Z</time>
      </trkpt>
      <trkpt lat="45.36776" lon="4.51884">
        <ele>1185</ele>
        <time>2016-06-26T05:33:15Z</time>
      </trkpt>
      <trkpt lat="45.36776" lon="4.51895">
        <ele>1185</ele>
        <time>2016-06-26T05:35:15Z</time>
      </trkpt>
      <trkpt lat="45.36777" lon="4.51902">
        <ele>1185</ele>
        <time>2016-06-26T05:37:15Z</time>
      </trkpt>
      <trkpt lat="45.36778" lon="4.51908">
        <ele>1185</ele>
        <time>2016-06-26T05:39:15Z</time>
      </trkpt>
      <trkpt lat="45.36792" lon="4.51953">
        <ele>1187</ele>
        <time>2016-06-26T05:41:15Z</time>
      </trkpt>
      <trkpt lat="45.36794" lon="4.51954">
        <ele>1187</ele>
        <time>2016-06-26T05:43:15Z</time>
      </trkpt>
      <trkpt lat="45.368" lon="4.51974">
        <ele>1187</ele>
        <time>2016-06-26T05:45:15Z</time>
      </trkpt>
      <trkpt lat="45.36816" lon="4.52038">
        <ele>1191</ele>
        <time>2016-06-26T05:47:15Z</time>
      </trkpt>
      <trkpt lat="45.36824" lon="4.52066">
        <ele>1191</ele>
        <time>2016-06-26T05:49:15Z</time>
      </trkpt>
      <trkpt lat="45.36841" lon="4.52122">
        <ele>1187</ele>
        <time>2016-06-26T05:51:15Z</time>
      </trkpt>
      <trkpt lat="45.36848" lon="4.5215">
        <ele>1189</ele>
        <time>2016-06-26T05:53:15Z</time>
      </trkpt>
      <trkpt lat="45.36852" lon="4.52169">
        <ele>1191</ele>
        <time>2016-06-26T05:55:15Z</time>
      </trkpt>
      <trkpt lat="45.36853" lon="4.52188">
        <ele>1190</ele>
        <time>2016-06-26T05:57:15Z</time>
      </trkpt>
      <trkpt lat="45.36854" lon="4.52215">
        <ele>1191</ele>
        <time>2016-06-26T05:59:15Z</time>
      </trkpt>
      <trkpt lat="45.36853" lon="4.52395">
        <ele>1197</ele>
        <time>2016-06-26T06:01:15Z</time>
      </trkpt>
      <trkpt lat="45.36851" lon="4.52449">
        <ele>1198</ele>
        <time>2016-06-26T06:03:15Z</time>
      </trkpt>
      <trkpt lat="45.36846" lon="4.52506">
        <ele>1202</ele>
        <time>2016-06-26T06:05:15Z</time>
      </trkpt>
      <trkpt lat="45.36828" lon="4.52685">
        <ele>1206</ele>
        <time>2016-06-26T06:07:15Z</time>
      </trkpt>
      <trkpt lat="45.36828" lon="4.52691">
        <ele>1206</ele>
        <time>2016-06-26T06:09:15Z</time>
      </trkpt>
      <trkpt lat="45.36827" lon="4.52697">
        <ele>1206</ele>
        <time>2016-06-26T06:11:15Z</time>
      </trkpt>
      <trkpt lat="45.36818" lon="4.52733">
        <ele>1206</ele>
        <time>2016-06-26T06:13:15Z</time>
      </trkpt>
      <trkpt lat="45.36817" lon="4.52737">
        <ele>1206</ele>
        <time>2016-06-26T06:15:15Z</time>
      </trkpt>
      <trkpt lat="45.36813" lon="4.52756">
        <ele>1205</ele>
        <time>2016-06-26T06:17:15Z</time>
      </trkpt>
      <trkpt lat="45.36811" lon="4.52763">
        <ele>1205</ele>
        <time>2016-06-26T06:19:15Z</time>
      </trkpt>
      <trkpt lat="45.36807" lon="4.52776">
        <ele>1205</ele>
        <time>2016-06-26T06:21:15Z</time>
      </trkpt>
      <trkpt lat="45.36792" lon="4.52828">
        <ele>1205.5</ele>
      </trkpt>
      <trkpt lat="45.36679" lon="4.52821">
        <ele>1214.3</ele>
      </trkpt>
      <trkpt lat="45.36618" lon="4.5287">
        <ele>1212.7</ele>
      </trkpt>
      <trkpt lat="45.36586" lon="4.52981">
        <ele>1200.8</ele>
      </trkpt>
      <trkpt lat="45.36542" lon="4.53054">
        <ele>1196.9</ele>
      </trkpt>
      <trkpt lat="45.36339" lon="4.53166">
        <ele>1196</ele>
      </trkpt>
      <trkpt lat="45.36221" lon="4.53312">
        <ele>1185.3</ele>
      </trkpt>
      <trkpt lat="45.36126" lon="4.53455">
        <ele>1174.9</ele>
      </trkpt>
      <trkpt lat="45.3603" lon="4.53588">
        <ele>1166.4</ele>
      </trkpt>
      <trkpt lat="45.35898" lon="4.53783">
        <ele>1160.8</ele>
      </trkpt>
      <trkpt lat="45.35839" lon="4.53919">
        <ele>1145.6</ele>
      </trkpt>
      <trkpt lat="45.35766" lon="4.53922">
        <ele>1144.5</ele>
      </trkpt>
      <trkpt lat="45.3566" lon="4.53856">
        <ele>1142.3</ele>
      </trkpt>
      <trkpt lat="45.35599" lon="4.53846">
        <ele>1139.2</ele>
      </trkpt>
      <trkpt lat="45.35548" lon="4.53901">
        <ele>1140.4</ele>
      </trkpt>
      <trkpt lat="45.3555" lon="4.54152">
        <ele>1125.3</ele>
      </trkpt>
      <trkpt lat="45.3554" lon="4.54351">
        <ele>1108.8</ele>
      </trkpt>
      <trkpt lat="45.35496" lon="4.54494">
        <ele>1107.3</ele>
      </trkpt>
      <trkpt lat="45.35396" lon="4.5463">
        <ele>1092.7</ele>
      </trkpt>
      <trkpt lat="45.35193" lon="4.54466">
        <ele>1081.8</ele>
      </trkpt>
      <trkpt lat="45.35168" lon="4.5432">
        <ele>1091.1</ele>
      </trkpt>
      <trkpt lat="45.35073" lon="4.54344">
        <ele>1073.4</ele>
      </trkpt>
      <trkpt lat="45.35016" lon="4.54271">
        <ele>1079.1</ele>
      </trkpt>
      <trkpt lat="45.34982" lon="4.54285">
        <ele>1083.7</ele>
      </trkpt>
      <trkpt lat="45.34994" lon="4.54435">
        <ele>1076.3</ele>
      </trkpt>
      <trkpt lat="45.35014" lon="4.54606">
        <ele>1057</ele>
      </trkpt>
      <trkpt lat="45.35021" lon="4.54829">
        <ele>1050</ele>
      </trkpt>
      <trkpt lat="45.35031" lon="4.54944">
        <ele>1042.6</ele>
      </trkpt>
      <trkpt lat="45.35019" lon="4.55076">
        <ele>1039.3</ele>
      </trkpt>
      <trkpt lat="45.34881" lon="4.55226">
        <ele>1028.4</ele>
      </trkpt>
      <trkpt lat="45.34722" lon="4.55219">
        <ele>1025.9</ele>
      </trkpt>
      <trkpt lat="45.34666" lon="4.55188">
        <ele>1028</ele>
      </trkpt>
      <trkpt lat="45.34614" lon="4.55247">
        <ele>1015.6</ele>
      </trkpt>
      <trkpt lat="45.34558" lon="4.55236">
        <ele>1002</ele>
      </trkpt>
      <trkpt lat="45.34458" lon="4.55083">
        <ele>1014</ele>
      </trkpt>
      <trkpt lat="45.34372" lon="4.55156">
        <ele>997.8</ele>
      </trkpt>
      <trkpt lat="45.34318" lon="4.55212">
        <ele>992.5</ele>
      </trkpt>
      <trkpt lat="45.34222" lon="4.55376">
        <ele>979</ele>
      </trkpt>
      <trkpt lat="45.34142" lon="4.55331">
        <ele>981.9</ele>
      </trkpt>
      <trkpt lat="45.34036" lon="4.55202">
        <ele>986.8</ele>
      </trkpt>
      <trkpt lat="45.33972" lon="4.55195">
        <ele>981.1</ele>
      </trkpt>
      <trkpt lat="45.33921" lon="4.55209">
        <ele>979.5</ele>
      </trkpt>
      <trkpt lat="45.33789" lon="4.55345">
        <ele>972.6</ele>
      </trkpt>
      <trkpt lat="45.33737" lon="4.55317">
        <ele>977.9</ele>
      </trkpt>
      <trkpt lat="45.33691" lon="4.55243">
        <ele>986.8</ele>
      </trkpt>
      <trkpt lat="45.33585" lon="4.5517">
        <ele>969.1</ele>
      </trkpt>
      <trkpt lat="45.33561" lon="4.54992">
        <ele>965.1</ele>
      </trkpt>
      <trkpt lat="45.33578" lon="4.54801">
        <ele>976.8</ele>
      </trkpt>
      <trkpt lat="45.33554" lon="4.54783">
        <ele>977.4</ele>
      </trkpt>
      <trkpt lat="45.33458" lon="4.54843">
        <ele>951.1</ele>
      </trkpt>
      <trkpt lat="45.33426" lon="4.54839">
        <ele>949.8</ele>
      </trkpt>
      <trkpt lat="45.33362" lon="4.54741">
        <ele>962.4</ele>
      </trkpt>
      <trkpt lat="45.33318" lon="4.54735">
        <ele>956.8</ele>
      </trkpt>
      <trkpt lat="45.33279" lon="4.54839">
        <ele>940.1</ele>
      </trkpt>
      <trkpt lat="45.33188" lon="4.54972">
        <ele>935.9</ele>
      </trkpt>
      <trkpt lat="45.33044" lon="4.55062">
        <ele>920.1</ele>
      </trkpt>
      <trkpt lat="45.32904" lon="4.54961">
        <ele>910.3</ele>
      </trkpt>
      <trkpt lat="45.32823" lon="4.54961">
        <ele>908</ele>
      </trkpt>
      <trkpt lat="45.32757" lon="4.55052">
        <ele>901.5</ele>
      </trkpt>
      <trkpt lat="45.32706" lon="4.55191">
        <ele>902.8</ele>
      </trkpt>
      <trkpt lat="45.32686" lon="4.55355">
        <ele>891.5</ele>
      </trkpt>
      <trkpt lat="45.32674" lon="4.55474">
        <ele>874.7</ele>
      </trkpt>
      <trkpt lat="45.32622" lon="4.5554">
        <ele>876.6</ele>
      </trkpt>
      <trkpt lat="45.32539" lon="4.55596">
        <ele>861.2</ele>
      </trkpt>
      <trkpt lat="45.32399" lon="4.55477">
        <ele>859.7</ele>
      </trkpt>
      <trkpt lat="45.32331" lon="4.55424">
        <ele>862.1</ele>
      </trkpt>
      <trkpt lat="45.3226" lon="4.55486">
        <ele>858.5</ele>
      </trkpt>
      <trkpt lat="45.32244" lon="4.55639">
        <ele>842.4</ele>
      </trkpt>
      <trkpt lat="45.32256" lon="4.55752">
        <ele>829</ele>
      </trkpt>
      <trkpt lat="45.32208" lon="4.55792">
        <ele>817</ele>
      </trkpt>
      <trkpt lat="45.32088" lon="4.55633">
        <ele>827.9</ele>
      </trkpt>
      <trkpt lat="45.31997" lon="4.55588">
        <ele>815.4</ele>
      </trkpt>
      <trkpt lat="45.31893" lon="4.55605">
        <ele>802.3</ele>
      </trkpt>
      <trkpt lat="45.31849" lon="4.55577">
        <ele>801.5</ele>
      </trkpt>
      <trkpt lat="45.31818" lon="4.55214">
        <ele>792.6</ele>
      </trkpt>
      <trkpt lat="45.31611" lon="4.5518">
        <ele>761.5</ele>
      </trkpt>
      <trkpt lat="45.31583" lon="4.55095">
        <ele>762.3</ele>
      </trkpt>
      <trkpt lat="45.31658" lon="4.54784">
        <ele>750.4</ele>
      </trkpt>
      <trkpt lat="45.31678" lon="4.54608">
        <ele>753.1</ele>
      </trkpt>
      <trkpt lat="45.31702" lon="4.54416">
        <ele>757.3</ele>
      </trkpt>
      <trkpt lat="45.31607" lon="4.54421">
        <ele>751.3</ele>
      </trkpt>
      <trkpt lat="45.31499" lon="4.54444">
        <ele>769</ele>
      </trkpt>
      <trkpt lat="45.31332" lon="4.54563">
        <ele>768</ele>
      </trkpt>
      <trkpt lat="45.30969" lon="4.5454">
        <ele>780.2</ele>
      </trkpt>
      <trkpt lat="45.30902" lon="4.54433">
        <ele>783.9</ele>
      </trkpt>
      <trkpt lat="45.3089" lon="4.54359">
        <ele>782.5</ele>
      </trkpt>
      <trkpt lat="45.30834" lon="4.542">
        <ele>775.3</ele>
      </trkpt>
      <trkpt lat="45.30794" lon="4.53917">
        <ele>756</ele>
      </trkpt>
      <trkpt lat="45.30746" lon="4.53889">
        <ele>745.1</ele>
      </trkpt>
      <trkpt lat="45.30615" lon="4.54144">
        <ele>737.6</ele>
      </trkpt>
      <trkpt lat="45.30468" lon="4.54297">
        <ele>738.7</ele>
      </trkpt>
      <trkpt lat="45.30412" lon="4.54285">
        <ele>731.2</ele>
      </trkpt>
      <trkpt lat="45.30304" lon="4.54093">
        <ele>703.7</ele>
      </trkpt>
      <trkpt lat="45.30181" lon="4.5411">
        <ele>698.8</ele>
      </trkpt>
      <trkpt lat="45.30093" lon="4.54229">
        <ele>694.5</ele>
      </trkpt>
      <trkpt lat="45.29986" lon="4.54308">
        <ele>697.7</ele>
      </trkpt>
      <trkpt lat="45.2987" lon="4.54234">
        <ele>686.3</ele>
      </trkpt>
      <trkpt lat="45.29846" lon="4.54093">
        <ele>663.1</ele>
      </trkpt>
      <trkpt lat="45.29627" lon="4.54195">
        <ele>645.9</ele>
      </trkpt>
      <trkpt lat="45.29528" lon="4.5441">
        <ele>639.1</ele>
      </trkpt>
      <trkpt lat="45.29448" lon="4.54625">
        <ele>630.9</ele>
      </trkpt>
      <trkpt lat="45.2938" lon="4.54716">
        <ele>616.4</ele>
      </trkpt>
      <trkpt lat="45.29319" lon="4.54818">
        <ele>601.8</ele>
      </trkpt>
      <trkpt lat="45.29312" lon="4.54974">
        <ele>597</ele>
      </trkpt>
      <trkpt lat="45.29314" lon="4.55129">
        <ele>586.5</ele>
      </trkpt>
      <trkpt lat="45.29329" lon="4.55173">
        <ele>587</ele>
      </trkpt>
      <trkpt lat="45.29352" lon="4.55212">
        <ele>592</ele>
      </trkpt>
      <trkpt lat="45.29395" lon="4.55291">
        <ele>585.2</ele>
      </trkpt>
      <trkpt lat="45.29396" lon="4.5539">
        <ele>575.1</ele>
      </trkpt>
      <trkpt lat="45.29508" lon="4.55632">
        <ele>565.7</ele>
      </trkpt>
      <trkpt lat="45.29538" lon="4.55674">
        <ele>558</ele>
      </trkpt>
      <trkpt lat="45.29572" lon="4.55706">
        <ele>559</ele>
      </trkpt>
      <trkpt lat="45.29605" lon="4.55747">
        <ele>563</ele>
      </trkpt>
      <trkpt lat="45.29623" lon="4.55792">
        <ele>555.7</ele>
      </trkpt>
      <trkpt lat="45.29689" lon="4.55969">
        <ele>546.5</ele>
      </trkpt>
      <trkpt lat="45.29694" lon="4.56016">
        <ele>547</ele>
      </trkpt>
      <trkpt lat="45.29677" lon="4.56081">
        <ele>544</ele>
      </trkpt>
      <trkpt lat="45.2965" lon="4.56155">
        <ele>542.6</ele>
      </trkpt>
      <trkpt lat="45.29639" lon="4.562">
        <ele>542.5</ele>
      </trkpt>
      <trkpt lat="45.29635" lon="4.56201">
        <ele>542.3</ele>
      </trkpt>
    </trkseg>
  </trk>
</gpx>